# Wetter Temperatur Luftdruck Luftfeuchtigkeit Sichtweite Windgeschwindigkeit Windrichtung Zeit
1 Rain 9 1013 87 7000 14.4 240 10:18 14.08.2022
2 Clouds 10 1012 71 10000 14.4 240 08:18 14.08.2022
3 Rain 9 1012 87 10000 8.23 240 06:18 14.08.2022
4 Rain 10 1010 87 10000 2.57 250 01:48 14.08.2022
5 Clouds 11 1011 76 10000 1.54 0 23:23 13.08.2022
6 Drizzle 9 1012 93 10000 1.03 0 22:28 13.08.2022
7 Clouds 10 1012 81 10000 1.54 0 20:56 13.08.2022
8 Drizzle 11 1013 82 10000 1.03 0 19:49 13.08.2022
9 Rain 11 1013 82 10000 1.54 340 19:19 13.08.2022
10 Rain 11 1014 82 10000 2.06 260 17:22 13.08.2022
11 Drizzle 11 1015 76 10000 2.06 240 15:18 13.08.2022
12 Clouds 11 1015 76 10000 4.63 220 14:24 13.08.2022
13 Clouds 11 1015 76 10000 4.12 230 13:36 13.08.2022
14 Clouds 11 1015 76 10000 5.14 230 11:49 13.08.2022
15 Clouds 10 1015 87 10000 5.66 230 09:43 13.08.2022
16 Rain 9 1015 87 10000 7.2 240 07:48 13.08.2022
17 Clouds 9 1014 81 10000 10.8 240 02:33 13.08.2022
18 Rain 9 1013 87 10000 8.75 240 23:45 12.08.2022
19 Rain 9 1011 87 8000 12.35 240 21:40 12.08.2022
20 Rain 10 1010 81 10000 13.38 240 19:51 12.08.2022
21 Drizzle 10 1010 81 10000 13.89 240 19:24 12.08.2022
22 Rain 10 1009 81 10000 9.77 240 18:34 12.08.2022
23 Rain 10 1007 81 10000 12.86 240 16:28 12.08.2022
24 Rain 10 1006 81 10000 13.89 230 15:23 12.08.2022
25 Rain 10 1006 81 10000 13.89 230 13:56 12.08.2022
26 Rain 10 1004 87 10000 15.43 230 12:51 12.08.2022
27 Rain 10 1002 81 10000 12.86 240 09:50 12.08.2022
28 Rain 9 1002 87 10000 12.86 240 07:47 12.08.2022
29 Rain 10 1000 81 10000 15.43 240 06:28 12.08.2022
30 Rain 9 1000 100 6000 12.86 240 01:45 12.08.2022
31 Rain 10 999 93 10000 12.35 240 00:20 12.08.2022
32 Rain 10 999 93 8000 15.95 240 23:34 11.08.2022
33 Rain 11 997 82 10000 14.92 240 21:58 11.08.2022
34 Rain 11 997 82 10000 14.92 240 21:35 11.08.2022
35 Clouds 11 997 76 10000 13.89 240 20:32 11.08.2022
36 Rain 10 997 87 10000 9.26 240 19:53 11.08.2022
37 Rain 10 997 87 10000 8.75 240 19:30 11.08.2022
38 Rain 11 997 82 10000 9.77 230 17:34 11.08.2022
39 Rain 11 997 93 10000 7.72 240 16:19 11.08.2022
40 Rain 12 997 76 10000 10.29 240 15:20 11.08.2022
41 Rain 11 997 87 10000 10.29 240 12:39 11.08.2022
42 Rain 11 995 87 10000 8.23 240 09:29 11.08.2022
43 Clouds 12 994 94 10000 5.66 250 06:59 11.08.2022
44 Rain 13 994 100 10000 4.12 250 03:45 11.08.2022
45 Rain 13 997 100 10000 2.57 20 00:35 11.08.2022
46 Clouds 12 1000 100 10000 2.06 220 22:21 10.08.2022
47 Drizzle 13 1000 100 10000 1.03 0 21:20 10.08.2022
48 Clouds 12 1000 100 10000 2.57 60 20:43 10.08.2022
49 Rain 14 1001 88 10000 0 0 18:55 10.08.2022
50 Rain 15 1001 77 10000 1.54 210 17:37 10.08.2022
51 Rain 16 1001 67 10000 2.06 260 16:33 10.08.2022
52 Clear 16 1004 63 10000 5.14 210 13:35 10.08.2022
53 Clear 16 1006 67 10000 4.12 140 12:27 10.08.2022
54 Clouds 13 1010 71 10000 5.14 120 09:24 10.08.2022
55 Clouds 13 1011 71 10000 4.12 130 08:32 10.08.2022
56 Clouds 10 1013 81 10000 1.54 0 06:23 10.08.2022
57 Clouds 10 1015 87 10000 1.54 260 03:24 10.08.2022
58 Clouds 11 1016 82 10000 5.14 240 23:34 09.08.2022
59 Clouds 11 1016 82 10000 6.69 240 22:56 09.08.2022
60 Clouds 12 1017 76 10000 5.66 240 21:35 09.08.2022
61 Clouds 12 1016 76 10000 7.72 230 20:26 09.08.2022
62 Clouds 12 1016 76 10000 8.23 240 18:42 09.08.2022
63 Clouds 12 1016 82 10000 6.69 230 17:28 09.08.2022
64 Clouds 12 1016 82 10000 6.69 230 17:28 09.08.2022
65 Clouds 12 1016 82 10000 4.12 240 16:40 09.08.2022
66 Clouds 12 1016 87 10000 4.63 240 15:58 09.08.2022
67 Rain 12 1015 82 10000 2.57 250 12:51 09.08.2022
68 Rain 12 1015 71 10000 3.6 230 09:36 09.08.2022
69 Rain 12 1015 71 10000 2.06 270 08:39 09.08.2022
70 Rain 12 1016 66 10000 2.57 220 07:52 09.08.2022
71 Clouds 9 1018 81 10000 1.54 280 04:22 09.08.2022
72 Clouds 10 1019 93 10000 4.12 230 23:27 08.08.2022
73 Clouds 10 1019 93 10000 4.63 220 22:54 08.08.2022
74 Clouds 10 1019 81 10000 7.2 240 21:58 08.08.2022
75 Clouds 10 1019 81 10000 7.2 240 21:18 08.08.2022
76 Clouds 10 1019 87 10000 5.14 240 19:51 08.08.2022
77 Rain 11 1019 82 10000 5.14 230 18:45 08.08.2022
78 Clouds 10 1018 87 10000 7.2 240 16:40 08.08.2022
79 Clouds 10 1018 87 10000 3.6 260 15:40 08.08.2022
80 Rain 11 1017 82 10000 5.66 230 13:54 08.08.2022
81 Clouds 11 1016 76 10000 3.09 260 12:19 08.08.2022
82 Clouds 10 1015 87 10000 5.14 270 09:46 08.08.2022
83 Clouds 9 1012 100 10000 2.06 0 05:54 08.08.2022
84 Mist 9 1010 100 9000 4.63 0 02:56 08.08.2022
85 Rain 10 1008 87 10000 5.66 280 22:42 07.08.2022
86 Clouds 10 1007 87 10000 2.57 250 21:40 07.08.2022
87 Rain 10 1006 100 10000 5.14 240 20:26 07.08.2022
88 Rain 9 1006 100 10000 5.14 240 19:57 07.08.2022
89 Rain 9 1006 100 10000 5.14 240 19:39 07.08.2022
90 Rain 9 1006 93 10000 5.14 240 18:35 07.08.2022
91 Rain 9 1006 93 10000 2.57 240 16:54 07.08.2022
92 Drizzle 9 1006 93 10000 2.57 240 16:35 07.08.2022
93 Drizzle 9 1005 93 10000 3.6 260 15:23 07.08.2022
94 Drizzle 9 1005 87 10000 2.57 280 13:34 07.08.2022
95 Drizzle 9 1003 87 10000 3.6 10 11:58 07.08.2022
96 Rain 8 1003 100 10000 5.14 50 10:34 07.08.2022
97 Drizzle 10 1001 87 10000 3.09 50 07:38 07.08.2022
98 Rain 12 1000 71 10000 4.12 40 03:20 07.08.2022
99 Clouds 11 1002 76 10000 1.54 0 01:45 07.08.2022
100 Clouds 14 1003 62 10000 1.54 0 22:25 06.08.2022
101 Clouds 16 1003 55 10000 4.12 110 21:18 06.08.2022
102 Clouds 17 1003 48 10000 2.57 120 19:41 06.08.2022
103 Clouds 17 1003 42 10000 3.09 120 18:30 06.08.2022
104 Clouds 18 1003 39 10000 3.6 140 17:37 06.08.2022
105 Clouds 18 1005 39 10000 3.09 220 14:52 06.08.2022
106 Clouds 18 1005 42 10000 4.12 210 13:49 06.08.2022
107 Clouds 17 1006 48 10000 4.12 190 12:19 06.08.2022
108 Clear 16 1006 55 10000 4.12 180 10:33 06.08.2022
109 Clear 15 1006 58 10000 4.12 200 09:21 06.08.2022
110 Clear 8 1008 81 10000 1.03 0 03:55 06.08.2022
111 Clear 9 1008 81 10000 1.03 290 23:56 05.08.2022
112 Clouds 10 1008 81 10000 1.03 0 22:33 05.08.2022
113 Clear 12 1008 66 10000 6.17 230 20:20 05.08.2022
114 Clouds 12 1007 71 10000 6.69 230 18:53 05.08.2022
115 Clouds 12 1007 71 10000 6.69 230 18:35 05.08.2022
116 Clouds 11 1007 76 10000 6.17 270 16:51 05.08.2022
117 Clouds 11 1006 76 10000 6.69 250 15:23 05.08.2022
118 Thunderstorm 11 1005 87 9000 6.17 260 14:34 05.08.2022
119 Rain 10 1005 87 10000 7.72 240 14:34 05.08.2022
120 Rain 19 1002 72 10000 3.6 190 13:26 05.08.2022
121 Rain 18 1003 77 10000 4.63 130 12:59 05.08.2022
122 Clouds 17 1003 77 10000 5.66 130 11:20 05.08.2022
123 Clouds 17 1005 67 10000 1.54 140 08:46 05.08.2022
124 Clear 15 1006 72 10000 2.57 50 07:34 05.08.2022
125 Clouds 12 1008 87 10000 1.54 50 02:33 05.08.2022
126 Clouds 13 1008 82 10000 2.57 240 23:18 04.08.2022
127 Rain 14 1007 82 10000 4.12 300 21:28 04.08.2022
128 Clouds 15 1007 77 10000 3.6 280 20:57 04.08.2022
129 Clouds 15 1007 77 10000 3.6 280 20:36 04.08.2022
130 Clouds 15 1006 77 10000 2.57 230 18:58 04.08.2022
131 Clouds 15 1006 77 10000 2.57 230 18:33 04.08.2022
132 Clouds 15 1005 77 10000 4.63 250 15:53 04.08.2022
133 Clouds 16 1003 72 10000 4.63 240 13:26 04.08.2022
134 Clouds 16 1003 72 10000 4.63 240 13:26 04.08.2022
135 Clouds 17 1002 67 10000 2.06 230 11:39 04.08.2022
136 Clouds 17 1002 72 10000 2.06 230 10:22 04.08.2022
137 Clouds 17 1002 72 10000 2.06 230 10:22 04.08.2022
138 Clouds 17 1001 72 10000 3.6 210 07:47 04.08.2022
139 Clouds 16 1002 67 10000 2.57 170 02:50 04.08.2022
140 Clouds 18 1003 52 10000 3.6 200 00:43 04.08.2022
141 Clear 17 1003 55 10000 2.06 200 23:40 03.08.2022
142 Clouds 17 1004 59 10000 4.12 200 21:34 03.08.2022
143 Clear 18 1004 55 10000 3.09 210 20:21 03.08.2022
144 Clouds 17 1004 67 10000 2.06 230 19:27 03.08.2022
145 Clouds 18 1004 68 10000 4.63 70 16:53 03.08.2022
146 Clouds 19 1004 63 10000 4.12 70 16:23 03.08.2022
147 Clear 18 1005 63 10000 2.57 220 13:53 03.08.2022
148 Clouds 14 1006 88 10000 4.12 50 11:46 03.08.2022
149 Clouds 11 1006 100 10000 2.06 50 07:45 03.08.2022
150 Mist 11 1006 100 6000 3.09 50 04:22 03.08.2022
151 Clouds 11 1006 100 10000 2.57 70 03:26 03.08.2022
152 Clouds 11 1007 100 10000 2.57 70 00:58 03.08.2022
153 Clouds 12 1007 87 10000 1.03 0 22:53 02.08.2022
154 Clouds 12 1007 87 10000 2.57 280 21:53 02.08.2022
155 Clouds 12 1007 87 10000 1.03 0 20:37 02.08.2022
156 Clouds 14 1006 82 10000 2.57 250 18:42 02.08.2022
157 Clouds 14 1006 82 10000 6.69 240 16:21 02.08.2022
158 Clear 19 1005 59 10000 3.09 220 11:45 02.08.2022
159 Clear 18 1005 63 10000 2.06 190 09:18 02.08.2022
160 Clear 17 1006 63 10000 2.06 250 07:53 02.08.2022
161 Clear 15 1006 72 10000 1.54 220 06:43 02.08.2022
162 Clear 14 1006 72 10000 0.51 0 04:55 02.08.2022
163 Clear 13 1008 76 10000 3.09 40 23:51 01.08.2022
164 Clear 12 1009 87 10000 4.12 60 22:25 01.08.2022
165 Clear 14 1009 77 10000 4.63 60 20:52 01.08.2022
166 Clouds 15 1009 77 10000 5.66 70 19:32 01.08.2022
167 Clear 15 1010 77 10000 4.63 60 18:40 01.08.2022
168 Clear 16 1010 72 10000 5.14 70 16:54 01.08.2022
169 Clear 16 1011 72 10000 4.63 70 16:28 01.08.2022
170 Clear 17 1011 67 10000 2.57 70 15:30 01.08.2022
171 Clear 17 1011 67 10000 3.6 60 14:43 01.08.2022
172 Clear 16 1011 72 10000 3.6 70 12:47 01.08.2022
173 Clear 16 1011 67 10000 1.54 220 10:22 01.08.2022
174 Clear 16 1011 67 10000 2.06 230 08:34 01.08.2022
175 Clouds 13 1010 76 10000 2.06 270 04:56 01.08.2022
176 Clouds 13 1010 76 10000 2.57 260 04:20 01.08.2022
177 Clear 13 1010 76 10000 1.54 0 00:49 01.08.2022
178 Clear 15 1010 72 10000 0.51 0 22:41 31.07.2022
179 Clouds 15 1009 72 10000 1.54 250 21:33 31.07.2022
180 Clouds 15 1009 67 10000 2.57 260 19:56 31.07.2022
181 Clouds 16 1009 67 10000 3.09 220 18:35 31.07.2022
182 Clouds 16 1010 67 10000 3.09 230 15:54 31.07.2022
183 Clouds 15 1010 67 10000 2.57 130 13:51 31.07.2022
184 Clouds 14 1011 72 10000 3.6 110 12:28 31.07.2022
185 Clouds 13 1012 71 10000 3.6 140 09:55 31.07.2022
186 Clouds 13 1012 67 10000 4.12 100 08:18 31.07.2022
187 Clouds 10 1014 81 10000 3.6 80 03:49 31.07.2022
188 Clouds 12 1016 71 10000 5.14 90 23:53 30.07.2022
189 Clouds 12 1017 66 10000 5.14 110 22:19 30.07.2022
190 Clouds 12 1017 66 10000 5.14 110 22:19 30.07.2022
191 Clouds 13 1017 62 10000 5.14 130 21:49 30.07.2022
192 Clouds 14 1017 58 10000 4.63 120 20:58 30.07.2022
193 Clouds 15 1017 55 10000 4.12 70 19:59 30.07.2022
194 Clouds 16 1018 51 10000 5.14 60 19:20 30.07.2022
195 Clouds 18 1018 52 10000 6.17 70 17:45 30.07.2022
196 Clear 18 1019 48 10000 5.66 60 15:55 30.07.2022
197 Clear 19 1019 45 10000 6.17 50 15:25 30.07.2022
198 Clear 19 1020 45 10000 2.06 210 13:21 30.07.2022
199 Clear 18 1020 52 10000 2.06 0 12:20 30.07.2022
200 Clouds 16 1021 59 10000 2.57 220 10:36 30.07.2022
201 Clear 16 1021 59 10000 2.57 220 09:57 30.07.2022
202 Clear 15 1022 58 10000 1.54 0 07:55 30.07.2022
203 Clear 13 1022 67 10000 0 0 05:29 30.07.2022
204 Clear 9 1023 76 10000 1.03 0 02:31 30.07.2022
205 Clear 11 1023 71 10000 2.57 40 22:54 29.07.2022
206 Clear 12 1023 71 10000 3.6 50 21:30 29.07.2022
207 Clear 12 1023 66 10000 3.09 50 20:50 29.07.2022
208 Clear 13 1023 62 10000 5.14 70 19:29 29.07.2022
209 Clear 15 1023 58 10000 5.66 80 16:43 29.07.2022
210 Clear 16 1023 51 10000 2.57 0 14:23 29.07.2022
211 Clear 15 1023 55 10000 2.57 210 12:32 29.07.2022
212 Clouds 12 1023 62 10000 3.6 200 08:51 29.07.2022
213 Clouds 12 1023 66 10000 2.57 200 08:21 29.07.2022
214 Clouds 10 1022 87 10000 2.57 220 04:39 29.07.2022
215 Clouds 9 1021 87 10000 4.12 240 23:46 28.07.2022
216 Clouds 9 1020 93 10000 4.63 230 21:38 28.07.2022
217 Clouds 10 1019 76 10000 3.09 260 20:50 28.07.2022
218 Clouds 10 1019 81 10000 3.09 270 20:18 28.07.2022
219 Clouds 9 1018 87 10000 4.63 280 19:40 28.07.2022
220 Clouds 9 1018 93 10000 4.12 270 17:46 28.07.2022
221 Clouds 10 1017 81 10000 4.12 280 17:23 28.07.2022
222 Clouds 10 1017 81 10000 3.09 270 16:40 28.07.2022
223 Clouds 9 1015 100 10000 3.09 280 13:56 28.07.2022
224 Clouds 9 1014 100 10000 3.09 270 12:40 28.07.2022
225 Rain 9 1010 100 10000 1.54 0 08:49 28.07.2022
226 Drizzle 9 1008 100 8000 1.54 0 05:41 28.07.2022
227 Rain 9 1007 100 10000 1.54 0 05:20 28.07.2022
228 Rain 9 1001 100 9000 7.2 30 23:41 27.07.2022
229 Drizzle 10 998 100 3500 4.12 360 21:31 27.07.2022
230 Drizzle 10 998 100 3500 4.12 360 21:31 27.07.2022
231 Drizzle 11 996 100 3500 3.6 10 19:53 27.07.2022
232 Drizzle 11 996 100 4000 4.63 360 19:26 27.07.2022
233 Rain 12 994 100 4000 2.06 230 16:32 27.07.2022
234 Rain 12 994 100 3500 2.57 230 15:51 27.07.2022
235 Rain 13 994 100 4000 1.54 220 14:42 27.07.2022
236 Rain 13 993 100 6000 1.54 0 13:57 27.07.2022
237 Clouds 13 992 100 10000 5.14 60 11:18 27.07.2022
238 Drizzle 13 992 100 10000 5.14 60 07:53 27.07.2022
239 Rain 14 993 100 10000 5.14 70 05:18 27.07.2022
240 Clouds 17 995 82 10000 1.54 30 23:29 26.07.2022
241 Clouds 18 995 72 10000 2.06 40 22:19 26.07.2022
242 Clouds 19 995 68 10000 2.57 110 21:18 26.07.2022
243 Clouds 19 996 72 10000 3.09 40 19:33 26.07.2022
244 Clouds 19 996 72 10000 2.57 40 18:41 26.07.2022
245 Clouds 21 996 64 10000 1.54 0 17:55 26.07.2022
246 Clouds 19 997 68 10000 1.54 0 15:47 26.07.2022
247 Clouds 19 997 68 10000 1.03 0 14:43 26.07.2022
248 Clouds 18 997 72 10000 2.06 230 12:35 26.07.2022
249 Clouds 17 998 72 10000 3.6 230 10:35 26.07.2022
250 Clouds 16 998 77 10000 2.06 170 08:29 26.07.2022
251 Clouds 14 1000 82 10000 4.12 130 02:25 26.07.2022
252 Rain 14 1002 82 10000 3.6 110 00:22 26.07.2022
253 Rain 14 1003 82 10000 4.12 120 22:41 25.07.2022
254 Rain 14 1003 82 10000 4.12 120 22:21 25.07.2022
255 Rain 14 1003 82 10000 3.6 130 21:31 25.07.2022
256 Rain 14 1003 82 10000 3.09 120 20:39 25.07.2022
257 Rain 14 1004 82 10000 2.57 100 19:25 25.07.2022
258 Rain 14 1004 82 10000 3.09 200 18:18 25.07.2022
259 Rain 15 1005 77 10000 4.63 210 17:24 25.07.2022
260 Clouds 17 1006 59 10000 4.63 120 14:19 25.07.2022
261 Clouds 14 1008 67 10000 3.09 90 10:56 25.07.2022
262 Clouds 12 1009 71 10000 2.57 60 08:22 25.07.2022
263 Clouds 8 1012 100 10000 3.09 40 01:49 25.07.2022
264 Clouds 8 1012 87 10000 1.54 10 23:49 24.07.2022
265 Clear 8 1012 87 10000 1.54 0 22:51 24.07.2022
266 Clouds 8 1012 87 10000 1.54 340 22:24 24.07.2022
267 Clouds 9 1013 81 10000 1.54 360 21:18 24.07.2022
268 Clouds 10 1013 81 10000 1.54 0 20:45 24.07.2022
269 Clouds 11 1013 71 10000 3.09 270 19:37 24.07.2022
270 Clouds 11 1013 76 10000 3.6 280 18:27 24.07.2022
271 Clouds 11 1014 82 10000 5.66 230 15:57 24.07.2022
272 Clouds 10 1014 81 10000 6.17 240 15:32 24.07.2022
273 Clouds 10 1014 87 10000 6.17 230 13:51 24.07.2022
274 Clouds 9 1014 87 10000 6.69 240 12:50 24.07.2022
275 Clouds 10 1014 81 10000 6.17 230 11:35 24.07.2022
276 Clouds 9 1014 100 10000 5.14 240 10:26 24.07.2022
277 Clouds 9 1014 81 10000 5.66 280 08:29 24.07.2022
278 Clouds 9 1013 87 10000 4.63 260 07:44 24.07.2022
279 Clouds 10 1013 81 10000 4.12 270 03:57 24.07.2022
280 Clouds 9 1013 93 10000 4.63 270 23:48 23.07.2022
281 Drizzle 10 1011 100 10000 3.6 270 20:51 23.07.2022
282 Rain 10 1011 100 10000 2.57 270 19:31 23.07.2022
283 Clouds 10 1011 100 10000 4.12 240 18:49 23.07.2022
284 Clouds 11 1011 93 10000 4.12 280 17:28 23.07.2022
285 Drizzle 10 1010 100 5000 3.6 270 16:30 23.07.2022
286 Clouds 10 1010 100 10000 3.6 270 15:22 23.07.2022
287 Clouds 11 1009 93 10000 2.57 280 14:56 23.07.2022
288 Rain 11 1009 93 10000 3.6 0 14:24 23.07.2022
289 Rain 11 1009 93 10000 3.6 0 14:24 23.07.2022
290 Drizzle 11 1008 100 10000 3.6 250 12:22 23.07.2022
291 Rain 10 1008 100 10000 2.57 240 10:44 23.07.2022
292 Clouds 10 1008 100 10000 4.63 250 09:54 23.07.2022
293 Clouds 10 1007 100 10000 9.26 240 08:30 23.07.2022
294 Rain 11 1007 87 10000 3.09 220 03:38 23.07.2022
295 Rain 10 1008 100 10000 1.54 250 00:39 23.07.2022
296 Clouds 10 1009 93 10000 5.66 240 22:19 22.07.2022
297 Clouds 11 1009 87 10000 6.17 240 20:39 22.07.2022
298 Clouds 11 1009 100 10000 3.6 230 19:32 22.07.2022
299 Clouds 12 1010 80 10000 9.97 257 18:23 22.07.2022
300 Clouds 11 1010 100 10000 2.57 290 16:46 22.07.2022
301 Rain 12 1009 100 10000 2.57 210 14:40 22.07.2022
302 Clouds 12 1009 100 10000 1.54 270 10:59 22.07.2022
303 Clouds 12 1009 100 10000 2.57 260 09:25 22.07.2022
304 Clouds 12 1010 94 10000 1.54 250 08:27 22.07.2022
305 Clouds 11 1010 100 10000 1.54 250 04:48 22.07.2022
306 Clouds 11 1011 100 10000 3.6 260 23:45 21.07.2022
307 Rain 11 1011 100 10000 3.09 270 22:25 21.07.2022
308 Rain 11 1011 100 10000 6.17 290 20:48 21.07.2022
309 Rain 12 1010 100 10000 4.12 270 19:23 21.07.2022
310 Clouds 17 1010 82 10000 3.09 90 17:39 21.07.2022
311 Clouds 16 1010 88 10000 3.09 70 17:19 21.07.2022
312 Rain 17 1011 77 10000 2.06 250 14:52 21.07.2022
313 Rain 18 1010 77 10000 2.57 30 14:24 21.07.2022
314 Clear 19 1011 68 10000 3.6 60 12:27 21.07.2022
315 Clear 19 1011 63 10000 4.63 70 10:48 21.07.2022
316 Clear 19 1012 68 10000 1.54 240 09:27 21.07.2022
317 Clear 18 1012 72 10000 1.54 250 08:49 21.07.2022
318 Clear 18 1012 68 10000 1.03 0 07:32 21.07.2022
319 Clouds 16 1012 72 10000 3.6 240 03:55 21.07.2022
320 Clouds 17 1012 67 10000 4.63 210 00:35 21.07.2022
321 Clouds 18 1013 63 10000 2.06 0 22:21 20.07.2022
322 Clear 17 1013 72 10000 3.6 120 20:54 20.07.2022
323 Clouds 18 1014 68 10000 4.12 120 19:50 20.07.2022
324 Clouds 18 1014 68 10000 4.63 130 19:24 20.07.2022
325 Clouds 18 1014 68 10000 4.12 130 18:34 20.07.2022
326 Clouds 16 1015 72 10000 4.12 60 17:59 20.07.2022
327 Clouds 16 1016 72 10000 4.63 60 16:45 20.07.2022
328 Clear 16 1017 77 10000 3.6 70 15:31 20.07.2022
329 Clear 15 1017 77 10000 4.12 70 14:20 20.07.2022
330 Clouds 12 1019 100 10000 4.12 60 11:34 20.07.2022
331 Fog 10 1020 100 10000 3.6 70 08:50 20.07.2022
332 Clouds 9 1020 100 9000 3.09 60 03:47 20.07.2022
333 Clouds 10 1019 100 10000 1.54 20 00:49 20.07.2022
334 Clouds 10 1019 100 10000 0.51 0 23:41 19.07.2022
335 Clouds 11 1019 93 10000 1.54 260 22:33 19.07.2022
336 Clouds 11 1018 93 10000 1.03 0 21:31 19.07.2022
337 Clouds 11 1018 93 10000 1.03 0 20:33 19.07.2022
338 Clouds 11 1017 100 10000 2.06 210 18:58 19.07.2022
339 Clouds 11 1017 100 10000 3.6 240 18:28 19.07.2022
340 Clouds 11 1016 100 10000 5.66 250 16:37 19.07.2022
341 Clouds 11 1015 100 10000 5.14 250 14:57 19.07.2022
342 Fog 10 1013 100 10000 3.6 230 11:44 19.07.2022
343 Clouds 10 1012 100 10000 4.12 240 10:55 19.07.2022
344 Clouds 10 1012 100 10000 4.12 250 09:26 19.07.2022
345 Clouds 10 1011 100 10000 2.06 250 08:39 19.07.2022
346 Mist 10 1011 100 3500 2.06 230 07:19 19.07.2022
347 Fog 10 1011 100 450 2.06 230 05:48 19.07.2022
348 Fog 10 1010 100 250 1.54 230 04:58 19.07.2022
349 Mist 10 1010 100 4700 1.54 220 01:58 19.07.2022
350 Clouds 10 1009 100 10000 1.54 190 23:50 18.07.2022
351 Clouds 10 1009 100 10000 1.54 190 23:19 18.07.2022
352 Drizzle 10 1009 100 10000 2.06 230 22:23 18.07.2022
353 Fog 10 1009 100 1000 2.57 230 20:57 18.07.2022
354 Clouds 11 1009 100 10000 3.09 310 19:52 18.07.2022
355 Clouds 12 1008 100 10000 1.03 0 17:53 18.07.2022
356 Rain 12 1008 100 10000 1.54 0 16:28 18.07.2022
357 Rain 13 1008 88 10000 3.09 80 15:19 18.07.2022
358 Clouds 12 1008 94 10000 2.06 260 13:31 18.07.2022
359 Clouds 12 1008 87 8000 1.54 0 11:31 18.07.2022
360 Mist 10 1008 100 4000 2.57 70 09:54 18.07.2022
361 Drizzle 9 1009 100 4500 3.6 70 07:49 18.07.2022
362 Rain 9 1009 100 10000 2.57 30 02:51 18.07.2022
363 Clouds 9 1009 93 10000 2.06 260 22:56 17.07.2022
364 Clouds 9 1009 100 10000 1.54 270 22:29 17.07.2022
365 Clouds 9 1009 100 10000 2.57 260 21:35 17.07.2022
366 Clouds 9 1009 100 10000 4.12 250 20:45 17.07.2022
367 Clouds 9 1008 100 10000 4.12 240 19:49 17.07.2022
368 Clouds 9 1008 100 10000 5.14 240 19:20 17.07.2022
369 Clouds 10 1008 100 10000 4.12 240 17:42 17.07.2022
370 Clouds 10 1008 100 10000 5.14 240 17:22 17.07.2022
371 Clouds 10 1007 100 10000 6.69 230 16:32 17.07.2022
372 Clouds 10 1007 100 10000 6.17 230 15:49 17.07.2022
373 Clouds 9 1006 100 8000 6.69 230 13:51 17.07.2022
374 Drizzle 9 1006 100 2500 6.17 230 12:42 17.07.2022
375 Drizzle 9 1005 100 3500 6.69 230 10:19 17.07.2022
376 Rain 9 1005 100 7000 2.57 260 06:59 17.07.2022
377 Rain 9 1005 100 7000 2.57 260 06:59 17.07.2022
378 Rain 10 1006 100 10000 4.12 290 02:34 17.07.2022
379 Rain 9 1006 100 3300 2.57 0 23:26 16.07.2022
380 Drizzle 9 1006 100 7000 4.12 250 22:20 16.07.2022
381 Rain 10 1006 100 10000 1.03 0 20:30 16.07.2022
382 Drizzle 10 1007 100 10000 3.09 0 18:58 16.07.2022
383 Drizzle 10 1007 100 10000 2.57 0 17:38 16.07.2022
384 Rain 11 1007 87 10000 4.63 340 15:54 16.07.2022
385 Clouds 12 1006 82 10000 5.14 330 12:37 16.07.2022
386 Clouds 11 1006 87 10000 5.14 340 10:28 16.07.2022
387 Clouds 11 1006 87 10000 1.54 0 09:25 16.07.2022
388 Clouds 11 1005 82 10000 1.03 0 08:41 16.07.2022
389 Rain 11 1005 87 10000 2.57 350 06:59 16.07.2022
390 Clouds 12 1004 76 10000 1.03 0 03:33 16.07.2022
391 Clouds 12 1002 76 10000 1.54 0 00:23 16.07.2022
392 Clear 13 1001 71 10000 2.57 280 22:56 15.07.2022
393 Clouds 13 1001 71 10000 2.57 280 22:24 15.07.2022
394 Clouds 14 1000 82 10000 2.06 70 20:41 15.07.2022
395 Clouds 15 999 72 10000 1.54 0 19:34 15.07.2022
396 Clouds 14 998 82 10000 2.57 80 18:23 15.07.2022
397 Clouds 15 997 77 10000 2.06 60 17:19 15.07.2022
398 Clouds 16 995 77 10000 3.6 70 14:19 15.07.2022
399 Clouds 17 994 77 10000 2.06 230 12:37 15.07.2022
400 Clouds 14 994 100 10000 2.57 230 10:52 15.07.2022
401 Mist 11 993 100 9000 2.06 240 07:55 15.07.2022
402 Drizzle 10 993 100 4900 2.57 240 04:54 15.07.2022
403 Rain 11 996 100 3300 0.51 0 00:43 15.07.2022
404 Rain 12 997 100 4000 1.03 0 23:24 14.07.2022
405 Fog 12 998 100 2000 0 0 22:32 14.07.2022
406 Fog 11 999 100 200 1.03 0 21:41 14.07.2022
407 Fog 11 999 100 600 1.54 0 21:22 14.07.2022
408 Mist 12 999 100 3000 0.51 0 20:43 14.07.2022
409 Mist 12 1000 100 3500 0 0 20:19 14.07.2022
410 Clouds 12 1000 100 10000 2.06 260 18:38 14.07.2022
411 Fog 12 1000 100 250 2.06 200 16:20 14.07.2022
412 Fog 13 1000 100 250 2.06 230 15:26 14.07.2022
413 Fog 14 999 100 10000 2.06 220 13:52 14.07.2022
414 Clouds 13 1000 100 10000 1.03 0 12:39 14.07.2022
415 Fog 13 1000 100 550 2.06 240 11:28 14.07.2022
416 Fog 13 1000 100 1500 2.57 240 10:58 14.07.2022
417 Fog 13 1000 100 2500 0 0 09:29 14.07.2022
418 Rain 13 1001 100 10000 0 0 05:18 14.07.2022
419 Clear 12 1003 100 10000 2.06 40 01:22 14.07.2022
420 Clear 12 1003 100 10000 2.06 40 01:22 14.07.2022
421 Clear 12 1003 100 10000 4.12 60 00:51 14.07.2022
422 Clear 14 1004 88 10000 0.51 0 22:31 13.07.2022
423 Clear 14 1004 88 10000 1.03 0 21:51 13.07.2022
424 Clear 15 1005 77 10000 2.06 210 20:44 13.07.2022
425 Clouds 16 1005 77 10000 2.06 180 18:48 13.07.2022
426 Clouds 16 1005 82 10000 5.14 60 17:35 13.07.2022
427 Clouds 16 1006 82 10000 3.09 80 16:23 13.07.2022
428 Clouds 15 1006 88 10000 4.63 70 15:24 13.07.2022
429 Rain 15 1006 82 10000 4.12 30 12:39 13.07.2022
430 Clear 23 1006 49 10000 3.6 250 10:45 13.07.2022
431 Clear 23 1007 49 10000 3.6 200 09:57 13.07.2022
432 Clear 23 1007 49 10000 4.63 210 09:21 13.07.2022
433 Clouds 21 1008 52 10000 3.6 170 05:52 13.07.2022
434 Clouds 18 1010 55 10000 1.03 0 01:27 13.07.2022
435 Clouds 19 1010 59 10000 2.06 40 23:39 12.07.2022
436 Clear 17 1011 67 10000 4.12 60 21:54 12.07.2022
437 Clear 17 1012 67 10000 4.12 60 21:19 12.07.2022
438 Clear 17 1012 63 10000 5.66 60 20:41 12.07.2022
439 Clear 18 1012 63 10000 5.66 70 19:25 12.07.2022
440 Clear 19 1013 55 10000 5.14 70 17:49 12.07.2022
441 Clear 18 1014 59 10000 6.17 70 15:43 12.07.2022
442 Clear 18 1015 59 10000 5.66 70 14:30 12.07.2022
443 Clear 17 1015 63 10000 4.63 60 12:29 12.07.2022
444 Clear 18 1015 63 10000 4.63 60 11:22 12.07.2022
445 Clear 16 1015 72 10000 2.06 200 09:38 12.07.2022
446 Clear 17 1015 67 10000 2.57 240 08:19 12.07.2022
447 Clear 18 1015 63 10000 1.54 0 06:49 12.07.2022
448 Clouds 17 1015 67 10000 1.03 0 05:42 12.07.2022
449 Clear 13 1016 76 10000 0 0 02:32 12.07.2022
450 Fog 11 1017 93 10000 1.54 0 23:28 11.07.2022
451 Fog 9 1017 100 10000 2.57 60 22:31 11.07.2022
452 Clouds 10 1017 93 10000 3.6 50 20:41 11.07.2022
453 Fog 13 1017 76 10000 3.09 40 19:44 11.07.2022
454 Fog 14 1017 77 10000 5.14 50 18:32 11.07.2022
455 Clouds 14 1017 72 10000 5.14 60 17:49 11.07.2022
456 Clouds 17 1017 63 10000 4.12 70 16:20 11.07.2022
457 Clouds 14 1017 77 10000 4.63 70 14:49 11.07.2022
458 Clouds 15 1017 77 10000 4.63 250 11:59 11.07.2022
459 Clouds 15 1017 77 10000 1.54 200 10:37 11.07.2022
460 Clouds 14 1017 77 10000 3.6 240 09:49 11.07.2022
461 Clear 14 1017 77 10000 3.09 220 08:34 11.07.2022
462 Clear 15 1017 72 10000 2.06 200 07:24 11.07.2022
463 Clear 12 1017 82 10000 2.06 60 00:24 11.07.2022
464 Clear 13 1017 76 10000 3.6 50 23:32 10.07.2022
465 Clear 14 1017 72 10000 2.57 40 22:26 10.07.2022
466 Clouds 15 1017 67 10000 5.14 70 20:55 10.07.2022
467 Clouds 15 1017 67 10000 5.66 70 19:55 10.07.2022
468 Clouds 15 1017 67 10000 6.17 70 19:20 10.07.2022
469 Clouds 15 1017 67 10000 6.69 70 17:50 10.07.2022
470 Clouds 14 1017 72 10000 7.2 60 16:59 10.07.2022
471 Clouds 15 1017 72 10000 6.69 60 16:20 10.07.2022
472 Clouds 15 1017 67 10000 6.17 60 14:43 10.07.2022
473 Clouds 15 1016 67 10000 5.14 70 12:42 10.07.2022
474 Clouds 14 1016 72 10000 5.14 70 11:36 10.07.2022
475 Clouds 14 1016 72 10000 4.63 70 09:44 10.07.2022
476 Clouds 13 1016 76 10000 4.12 70 08:43 10.07.2022
477 Clear 12 1015 76 10000 4.63 70 06:36 10.07.2022
478 Clouds 11 1014 82 10000 3.09 60 23:44 09.07.2022
479 Clouds 11 1013 82 10000 3.6 40 22:26 09.07.2022
480 Clouds 10 1013 87 10000 4.12 50 21:40 09.07.2022
481 Clouds 12 1012 71 10000 4.63 70 19:44 09.07.2022
482 Clouds 13 1012 71 10000 5.14 70 18:26 09.07.2022
483 Clouds 14 1012 67 10000 5.66 70 17:27 09.07.2022
484 Clouds 14 1012 62 10000 5.14 60 16:25 09.07.2022
485 Clouds 13 1011 71 10000 5.66 60 15:38 09.07.2022
486 Clouds 14 1011 67 10000 4.63 70 14:22 09.07.2022
487 Clouds 15 1011 63 10000 3.09 80 13:47 09.07.2022
488 Clouds 13 1010 71 10000 1.03 0 11:54 09.07.2022
489 Clouds 12 1010 76 10000 1.03 0 10:27 09.07.2022
490 Clouds 12 1010 76 10000 0.51 0 09:56 09.07.2022
491 Clouds 11 1009 82 10000 2.06 40 07:44 09.07.2022
492 Clouds 10 1009 81 10000 1.54 30 04:45 09.07.2022
493 Clouds 10 1008 81 10000 1.54 270 23:43 08.07.2022
494 Clouds 10 1008 81 10000 1.03 0 22:34 08.07.2022
495 Clouds 10 1008 81 10000 2.06 250 21:27 08.07.2022
496 Clouds 10 1008 87 10000 1.54 280 20:38 08.07.2022
497 Clouds 10 1008 87 10000 3.09 270 19:38 08.07.2022
498 Clouds 10 1007 87 10000 4.12 260 17:56 08.07.2022
499 Clouds 11 1007 82 10000 4.12 280 16:33 08.07.2022
500 Drizzle 11 1007 82 10000 3.09 270 14:50 08.07.2022
501 Clouds 11 1006 93 10000 2.57 270 12:42 08.07.2022
502 Rain 10 1005 100 10000 2.57 280 10:52 08.07.2022
503 Rain 10 1005 100 10000 2.57 240 10:21 08.07.2022
504 Rain 10 1004 87 10000 2.06 0 07:55 08.07.2022
505 Rain 10 1004 87 10000 3.6 350 06:23 08.07.2022
506 Clouds 12 1002 76 10000 1.54 0 00:41 08.07.2022
507 Clouds 12 1001 76 10000 0 0 22:57 07.07.2022
508 Clouds 13 1001 71 10000 2.06 60 21:52 07.07.2022
509 Clouds 14 1001 62 10000 4.12 60 19:35 07.07.2022
510 Clouds 15 1001 58 10000 4.12 60 17:50 07.07.2022
511 Clouds 16 1001 63 10000 2.57 70 16:23 07.07.2022
512 Clouds 13 1001 71 10000 3.09 210 14:21 07.07.2022
513 Clouds 14 1001 72 10000 5.66 70 12:45 07.07.2022
514 Clouds 14 1000 77 10000 4.63 60 12:23 07.07.2022
515 Clouds 13 1000 82 10000 4.12 60 11:34 07.07.2022
516 Rain 13 1000 76 10000 4.63 50 10:46 07.07.2022
517 Rain 13 1000 76 10000 3.6 60 10:27 07.07.2022
518 Clouds 13 1000 76 10000 4.12 50 09:32 07.07.2022
519 Clouds 11 1000 87 10000 4.12 50 06:26 07.07.2022
520 Clouds 10 1001 83 10000 1.31 70 00:28 07.07.2022
521 Clouds 11 1001 83 10000 1.32 69 23:36 06.07.2022
522 Clouds 11 999 82 10000 2.06 340 23:18 06.07.2022
523 Clouds 11 999 82 10000 2.06 340 22:51 06.07.2022
524 Clouds 11 999 82 10000 2.06 340 22:51 06.07.2022
525 Clouds 11 999 82 10000 2.06 340 22:33 06.07.2022
526 Clouds 12 999 76 10000 1.03 0 20:23 06.07.2022
527 Clouds 12 999 76 10000 2.06 250 19:18 06.07.2022
528 Clouds 11 999 76 10000 2.57 230 17:21 06.07.2022
529 Rain 11 998 82 10000 5.14 250 15:55 06.07.2022
530 Rain 12 997 71 10000 6.69 240 12:44 06.07.2022
531 Rain 11 997 76 10000 7.2 240 11:52 06.07.2022
532 Clouds 11 997 87 10000 6.69 230 10:54 06.07.2022
533 Rain 11 996 100 10000 3.09 230 09:25 06.07.2022
534 Rain 10 995 100 10000 3.6 260 07:44 06.07.2022
535 Rain 11 995 93 10000 5.14 250 06:44 06.07.2022
536 Clouds 17 996 67 10000 3.09 160 00:24 06.07.2022
537 Rain 16 996 72 10000 4.63 40 22:43 05.07.2022
538 Rain 17 998 72 10000 5.66 130 20:49 05.07.2022
539 Rain 18 997 68 10000 5.66 140 20:31 05.07.2022
540 Clouds 20 998 64 10000 5.66 110 19:38 05.07.2022
541 Clouds 19 999 77 10000 2.06 20 17:51 05.07.2022
542 Clouds 22 999 53 10000 6.17 70 17:19 05.07.2022
543 Clouds 23 1000 56 10000 3.09 60 16:25 05.07.2022
544 Clouds 22 1001 49 10000 3.6 200 14:54 05.07.2022
545 Clouds 22 1002 53 10000 4.12 200 13:36 05.07.2022
546 Clouds 18 1003 77 10000 2.57 210 12:24 05.07.2022
547 Clouds 18 1003 72 10000 3.09 140 10:46 05.07.2022
548 Clouds 17 1004 77 10000 3.09 110 09:57 05.07.2022
549 Clouds 17 1004 72 10000 3.6 140 08:21 05.07.2022
550 Clear 16 1005 77 10000 4.63 130 06:59 05.07.2022
551 Clouds 16 1006 77 10000 6.17 100 04:37 05.07.2022
552 Clouds 15 1009 77 10000 2.06 0 01:33 05.07.2022
553 Clouds 15 1009 82 10000 4.12 40 23:37 04.07.2022
554 Rain 14 1010 77 10000 2.06 50 22:56 04.07.2022
555 Rain 14 1010 72 10000 2.57 70 22:19 04.07.2022
556 Clouds 12 1010 82 10000 5.14 60 20:56 04.07.2022
557 Clouds 12 1010 82 10000 5.14 60 20:36 04.07.2022
558 Clouds 14 1011 72 10000 6.17 60 19:57 04.07.2022
559 Clouds 14 1011 72 10000 6.17 60 19:37 04.07.2022
560 Clouds 14 1011 72 10000 6.17 60 18:51 04.07.2022
561 Clear 16 1012 67 10000 5.66 70 16:54 04.07.2022
562 Clouds 15 1012 72 10000 6.17 70 15:35 04.07.2022
563 Clouds 15 1012 72 10000 6.17 70 14:19 04.07.2022
564 Clouds 15 1012 72 10000 5.66 60 12:55 04.07.2022
565 Clouds 16 1012 72 10000 1.03 0 10:57 04.07.2022
566 Clouds 15 1012 72 10000 1.54 210 10:27 04.07.2022
567 Fog 13 1011 88 10000 1.54 0 09:21 04.07.2022
568 Fog 11 1011 100 10000 3.09 50 06:27 04.07.2022
569 Mist 10 1011 100 3700 3.6 60 02:59 04.07.2022
570 Clouds 12 1011 87 10000 1.03 0 23:52 03.07.2022
571 Clouds 11 1011 100 10000 0.51 0 22:36 03.07.2022
572 Clouds 12 1011 87 10000 4.63 240 20:46 03.07.2022
573 Clouds 12 1011 94 10000 4.63 240 19:52 03.07.2022
574 Clouds 12 1011 94 10000 5.14 240 19:24 03.07.2022
575 Clouds 11 1011 100 10000 4.63 240 18:30 03.07.2022
576 Clouds 11 1011 100 10000 4.12 230 17:41 03.07.2022
577 Rain 12 1010 94 10000 5.14 230 15:28 03.07.2022
578 Rain 12 1010 100 10000 5.66 240 14:53 03.07.2022
579 Rain 13 1010 82 10000 7.72 230 13:50 03.07.2022
580 Clouds 14 1008 77 10000 8.23 240 12:47 03.07.2022
581 Clouds 16 1008 72 10000 10.29 240 12:19 03.07.2022
582 Clouds 17 1007 72 10000 5.14 220 10:54 03.07.2022
583 Clouds 17 1007 72 10000 5.14 220 10:35 03.07.2022
584 Clouds 24 1005 64 10000 2.06 220 07:38 03.07.2022
585 Clear 24 1005 64 10000 3.09 210 06:52 03.07.2022
586 Clear 24 1007 57 10000 4.12 220 00:39 03.07.2022
587 Clear 26 1008 47 10000 4.12 200 23:38 02.07.2022
588 Clear 27 1008 44 10000 3.09 220 22:31 02.07.2022
589 Clear 27 1008 44 10000 3.09 240 20:31 02.07.2022
590 Clear 28 1009 36 10000 2.57 240 19:49 02.07.2022
591 Clear 29 1009 30 10000 2.57 240 18:36 02.07.2022
592 Clear 28 1009 32 10000 3.6 230 17:39 02.07.2022
593 Clear 29 1010 34 10000 2.57 220 16:30 02.07.2022
594 Clear 28 1011 47 10000 3.09 210 13:40 02.07.2022
595 Clear 26 1012 53 10000 2.57 230 11:51 02.07.2022
596 Clear 26 1013 53 10000 1.54 0 10:52 02.07.2022
597 Clear 26 1013 57 10000 1.03 0 10:25 02.07.2022
598 Clear 22 1014 68 10000 2.57 230 08:38 02.07.2022
599 Clear 22 1014 68 10000 2.57 230 08:19 02.07.2022
600 Clear 19 1016 72 10000 0 0 04:19 02.07.2022
601 Clear 17 1017 72 10000 1.54 0 00:28 02.07.2022
602 Clear 17 1017 72 10000 0.51 0 23:30 01.07.2022
603 Clear 18 1017 72 10000 1.03 0 22:35 01.07.2022
604 Clear 19 1017 63 10000 2.06 30 21:38 01.07.2022
605 Clear 19 1017 63 10000 3.09 50 20:59 01.07.2022
606 Clear 19 1017 63 10000 3.09 50 20:34 01.07.2022
607 Clear 20 1017 60 10000 3.6 50 19:38 01.07.2022
608 Clear 22 1018 56 10000 1.54 0 17:39 01.07.2022
609 Clear 22 1019 56 10000 2.06 230 14:59 01.07.2022
610 Clear 23 1019 53 10000 2.06 0 13:54 01.07.2022
611 Clear 20 1020 56 10000 3.6 130 11:48 01.07.2022
612 Clear 18 1020 63 10000 2.57 140 10:19 01.07.2022
613 Clear 13 1022 76 10000 4.12 50 07:40 01.07.2022
614 Mist 7 1024 100 7000 4.12 50 02:43 01.07.2022
615 Clouds 8 1025 100 10000 2.57 40 00:22 01.07.2022
616 Clouds 9 1024 100 10000 2.06 30 22:52 30.06.2022
617 Clouds 9 1024 100 10000 2.06 30 22:32 30.06.2022
618 Clouds 9 1024 100 10000 1.54 340 21:55 30.06.2022
619 Clouds 9 1025 100 10000 1.54 260 20:58 30.06.2022
620 Clouds 9 1025 100 10000 2.57 280 20:22 30.06.2022
621 Clouds 9 1025 100 10000 2.06 260 19:53 30.06.2022
622 Clouds 9 1024 100 10000 3.09 290 19:18 30.06.2022
623 Clouds 9 1024 100 10000 3.09 270 18:34 30.06.2022
624 Clouds 9 1024 100 10000 3.6 260 17:38 30.06.2022
625 Clouds 9 1024 100 10000 4.12 280 16:48 30.06.2022
626 Clouds 9 1023 100 10000 8.23 240 14:47 30.06.2022
627 Clouds 10 1023 100 10000 10.29 240 13:30 30.06.2022
628 Clouds 10 1022 93 10000 9.77 240 12:35 30.06.2022
629 Clouds 10 1022 87 10000 7.2 250 11:28 30.06.2022
630 Clouds 10 1020 93 10000 10.29 240 09:53 30.06.2022
631 Clouds 10 1020 93 10000 10.29 240 09:32 30.06.2022
632 Clouds 11 1019 87 10000 10.29 250 07:41 30.06.2022
633 Clouds 12 1019 100 10000 3.6 230 05:47 30.06.2022
634 Clouds 12 1019 100 10000 1.54 0 00:32 30.06.2022
635 Clouds 13 1018 100 10000 1.54 200 23:21 29.06.2022
636 Clouds 14 1018 100 10000 3.09 210 22:39 29.06.2022
637 Clouds 13 1018 94 10000 3.09 240 21:37 29.06.2022
638 Clouds 16 1017 77 10000 5.66 260 20:33 29.06.2022
639 Clouds 24 1015 57 10000 8.75 250 19:37 29.06.2022
640 Clear 28 1015 47 10000 4.12 70 17:45 29.06.2022
641 Clear 27 1015 50 10000 3.6 60 16:41 29.06.2022
642 Clear 28 1016 44 10000 5.14 70 15:19 29.06.2022
643 Clear 28 1016 44 10000 2.06 210 12:40 29.06.2022
644 Clear 27 1016 50 10000 2.57 230 11:19 29.06.2022
645 Clear 25 1016 57 10000 2.57 230 09:33 29.06.2022
646 Clear 24 1016 60 10000 2.57 250 08:26 29.06.2022
647 Clear 24 1017 60 10000 2.57 290 04:57 29.06.2022
648 Clouds 23 1018 56 10000 2.06 0 01:41 29.06.2022
649 Clear 23 1018 56 10000 2.57 260 00:36 29.06.2022
650 Clear 24 1018 57 10000 0 0 22:55 28.06.2022
651 Clear 24 1018 57 10000 0 0 22:34 28.06.2022
652 Clear 24 1018 57 10000 0.51 0 21:55 28.06.2022
653 Clear 24 1018 57 10000 0.51 0 21:33 28.06.2022
654 Clear 26 1018 50 10000 1.54 0 20:50 28.06.2022
655 Clear 25 1019 57 10000 4.63 60 19:34 28.06.2022
656 Clear 25 1019 57 10000 5.14 60 18:53 28.06.2022
657 Clear 26 1019 53 10000 4.63 50 17:44 28.06.2022
658 Clear 28 1020 47 10000 2.06 210 16:24 28.06.2022
659 Clear 27 1019 50 10000 2.06 200 15:53 28.06.2022
660 Clear 26 1019 53 10000 1.54 250 14:21 28.06.2022
661 Clear 26 1020 53 10000 1.54 240 13:54 28.06.2022
662 Clear 26 1020 53 10000 2.06 220 13:20 28.06.2022
663 Clear 24 1020 60 10000 2.57 220 11:21 28.06.2022
664 Clear 21 1020 68 10000 4.63 250 09:41 28.06.2022
665 Clear 22 1020 64 10000 2.57 240 08:45 28.06.2022
666 Clear 21 1020 68 10000 2.57 250 07:58 28.06.2022
667 Clear 21 1020 64 10000 3.6 250 07:19 28.06.2022
668 Clouds 21 1020 68 10000 0.51 0 01:33 28.06.2022
669 Clear 23 1019 60 10000 2.57 200 23:45 27.06.2022
670 Clear 24 1019 57 10000 2.57 200 22:55 27.06.2022
671 Clear 23 1019 53 10000 0.51 0 21:38 27.06.2022
672 Clear 23 1019 53 10000 0.51 0 21:38 27.06.2022
673 Clear 24 1019 46 10000 2.06 150 20:54 27.06.2022
674 Clear 25 1018 47 10000 4.63 130 19:40 27.06.2022
675 Clear 26 1018 47 10000 1.03 0 18:40 27.06.2022
676 Clear 25 1019 44 10000 2.06 250 16:44 27.06.2022
677 Clear 25 1019 44 10000 0.51 0 15:42 27.06.2022
678 Clear 23 1019 46 10000 5.66 220 13:39 27.06.2022
679 Clear 22 1019 46 10000 5.14 210 12:57 27.06.2022
680 Clear 20 1020 45 10000 5.66 190 10:43 27.06.2022
681 Clear 19 1020 48 10000 3.09 200 09:37 27.06.2022
682 Clear 18 1020 48 10000 4.12 200 08:32 27.06.2022
683 Clear 18 1020 48 10000 3.09 0 07:38 27.06.2022
684 Clouds 17 1020 51 10000 2.57 210 04:40 27.06.2022
685 Clear 15 1021 55 10000 0 0 01:20 27.06.2022
686 Clear 14 1021 62 10000 3.09 30 22:47 26.06.2022
687 Clear 15 1021 55 10000 4.12 20 20:55 26.06.2022
688 Clear 16 1021 51 10000 3.6 40 19:59 26.06.2022
689 Clear 17 1022 42 10000 3.09 110 18:32 26.06.2022
690 Clear 17 1022 42 10000 3.6 120 17:37 26.06.2022
691 Clear 16 1022 48 10000 6.17 70 15:31 26.06.2022
692 Clear 15 1022 47 10000 7.72 50 13:55 26.06.2022
693 Clear 15 1022 47 10000 7.2 50 13:23 26.06.2022
694 Clear 13 1021 54 10000 6.17 60 11:31 26.06.2022
695 Clear 12 1021 58 10000 6.17 50 10:29 26.06.2022
696 Clear 12 1021 58 10000 5.66 70 09:45 26.06.2022
697 Clouds 11 1020 66 10000 6.17 70 07:46 26.06.2022
698 Clouds 8 1018 93 10000 5.14 40 03:19 26.06.2022
699 Clear 8 1018 87 10000 5.66 60 00:36 26.06.2022
700 Clouds 8 1018 87 10000 5.66 60 00:18 26.06.2022
701 Clouds 8 1017 87 10000 5.14 70 23:25 25.06.2022
702 Clouds 8 1017 87 10000 6.69 70 22:28 25.06.2022
703 Clouds 9 1017 76 10000 7.2 70 21:52 25.06.2022
704 Clouds 9 1017 76 10000 6.69 70 21:20 25.06.2022
705 Clouds 10 1017 71 10000 5.66 60 20:32 25.06.2022
706 Clouds 10 1017 71 10000 6.17 50 19:55 25.06.2022
707 Clouds 10 1017 71 10000 6.17 50 19:55 25.06.2022
708 Clouds 10 1017 71 10000 6.17 50 19:55 25.06.2022
709 Clouds 10 1017 76 10000 6.17 60 18:22 25.06.2022
710 Clouds 11 1017 71 10000 6.17 60 17:25 25.06.2022
711 Clouds 11 1017 71 10000 6.17 70 16:24 25.06.2022
712 Clouds 11 1018 66 10000 5.14 60 14:28 25.06.2022
713 Clouds 11 1018 71 10000 4.63 70 12:43 25.06.2022
714 Clouds 11 1018 71 10000 4.12 60 11:39 25.06.2022
715 Clouds 12 1017 66 10000 3.09 80 09:24 25.06.2022
716 Clouds 11 1017 66 10000 1.54 200 08:48 25.06.2022
717 Clouds 11 1017 66 10000 1.54 190 08:20 25.06.2022
718 Clouds 9 1016 81 10000 1.54 190 06:26 25.06.2022
719 Clouds 6 1015 87 10000 0.51 0 00:44 25.06.2022
720 Clouds 8 1015 81 10000 1.03 0 23:32 24.06.2022
721 Clouds 8 1014 81 10000 3.09 240 21:59 24.06.2022
722 Clouds 9 1014 76 10000 3.09 240 21:22 24.06.2022
723 Clouds 9 1014 76 10000 5.66 240 20:23 24.06.2022
724 Clouds 9 1014 76 10000 5.14 230 19:24 24.06.2022
725 Clouds 9 1014 76 10000 5.14 240 18:50 24.06.2022
726 Drizzle 9 1013 76 10000 5.14 250 18:31 24.06.2022
727 Rain 9 1013 76 10000 3.6 260 17:46 24.06.2022
728 Clouds 9 1013 76 10000 4.12 240 16:34 24.06.2022
729 Clouds 10 1011 71 10000 3.09 230 14:30 24.06.2022
730 Clouds 10 1011 76 10000 2.57 220 13:55 24.06.2022
731 Clouds 8 1010 93 10000 2.57 210 12:28 24.06.2022
732 Clouds 8 1010 100 10000 3.6 240 11:40 24.06.2022
733 Clouds 8 1008 100 10000 2.57 230 10:26 24.06.2022
734 Rain 8 1008 100 10000 1.54 0 09:41 24.06.2022
735 Rain 8 1007 87 10000 1.54 190 08:53 24.06.2022
736 Rain 8 1006 87 10000 2.06 40 07:39 24.06.2022
737 Rain 9 1006 81 10000 2.06 40 06:42 24.06.2022
738 Rain 10 1005 76 10000 3.09 60 06:18 24.06.2022
739 Clouds 9 1004 76 10000 4.63 340 03:47 24.06.2022
740 Clear 9 1002 76 10000 2.57 30 22:59 23.06.2022
741 Clear 9 1002 81 10000 0 0 22:40 23.06.2022
742 Clouds 11 1001 71 10000 1.03 0 20:59 23.06.2022
743 Clouds 11 1001 71 10000 1.03 0 20:35 23.06.2022
744 Clouds 10 1001 76 10000 0.51 0 19:40 23.06.2022
745 Clouds 9 1001 93 10000 1.54 0 17:53 23.06.2022
746 Clouds 9 1001 93 10000 1.54 0 17:33 23.06.2022
747 Rain 14 998 58 10000 8.23 280 15:57 23.06.2022
748 Clouds 14 998 58 10000 2.06 220 15:24 23.06.2022
749 Rain 14 997 62 10000 2.06 240 13:45 23.06.2022
750 Rain 12 996 66 10000 5.14 200 11:27 23.06.2022
751 Clouds 12 995 66 10000 5.66 210 10:40 23.06.2022
752 Clouds 11 995 66 10000 6.17 180 09:18 23.06.2022
753 Clouds 10 998 66 10000 6.17 200 03:40 23.06.2022
754 Clear 7 1001 76 10000 1.54 120 00:27 23.06.2022
755 Clear 6 1002 81 10000 2.57 30 23:41 22.06.2022
756 Clouds 6 1002 93 10000 3.09 30 22:48 22.06.2022
757 Clouds 6 1002 93 10000 3.09 30 22:48 22.06.2022
758 Clouds 6 1003 93 10000 1.03 0 21:27 22.06.2022
759 Clouds 6 1004 93 10000 1.03 0 20:48 22.06.2022
760 Clouds 7 1004 81 10000 1.54 220 19:58 22.06.2022
761 Clouds 6 1004 87 10000 1.54 0 18:50 22.06.2022
762 Clouds 6 1005 87 10000 2.06 250 17:29 22.06.2022
763 Clouds 7 1005 81 10000 2.57 260 16:37 22.06.2022
764 Clouds 7 1005 87 10000 0 0 15:27 22.06.2022
765 Rain 7 1005 87 10000 2.06 0 14:31 22.06.2022
766 Rain 6 1005 87 10000 2.06 0 13:44 22.06.2022
767 Rain 5 1005 93 10000 1.54 0 13:23 22.06.2022
768 Rain 6 1005 87 10000 2.57 0 11:50 22.06.2022
769 Rain 6 1005 100 10000 2.06 230 10:58 22.06.2022
770 Rain 6 1005 93 10000 2.06 0 10:20 22.06.2022
771 Drizzle 6 1005 87 10000 1.54 360 08:48 22.06.2022
772 Rain 6 1004 93 10000 2.06 50 06:21 22.06.2022
773 Rain 6 1004 100 10000 1.03 0 01:50 22.06.2022
774 Rain 6 1004 93 10000 3.09 270 00:39 22.06.2022
775 Rain 7 1003 93 10000 1.54 0 22:40 21.06.2022
776 Rain 7 1001 100 10000 5.14 340 20:40 21.06.2022
777 Rain 10 1000 100 10000 5.66 330 18:53 21.06.2022
778 Rain 12 999 76 10000 2.57 60 17:42 21.06.2022
779 Clouds 12 998 71 10000 5.66 60 15:21 21.06.2022
780 Rain 17 996 55 10000 3.6 220 11:56 21.06.2022
781 Clear 16 996 55 10000 6.17 210 10:27 21.06.2022
782 Clear 15 996 58 10000 5.66 190 08:51 21.06.2022
783 Clear 15 997 55 10000 4.63 210 07:35 21.06.2022
784 Clouds 13 999 62 10000 3.6 190 04:40 21.06.2022
785 Clouds 13 1003 54 10000 3.6 140 23:27 20.06.2022
786 Clouds 14 1003 51 10000 4.63 130 21:59 20.06.2022
787 Clouds 14 1003 51 10000 4.63 130 21:32 20.06.2022
788 Clouds 14 1004 54 10000 3.09 140 20:25 20.06.2022
789 Clouds 13 1005 54 10000 4.12 60 18:56 20.06.2022
790 Clouds 13 1005 54 10000 4.12 60 18:25 20.06.2022
791 Clouds 14 1005 51 10000 1.03 0 17:44 20.06.2022
792 Clouds 13 1006 54 10000 2.57 220 16:24 20.06.2022
793 Clear 13 1006 58 10000 1.54 0 14:36 20.06.2022
794 Clouds 11 1007 66 10000 2.57 210 11:47 20.06.2022
795 Clouds 8 1008 93 10000 2.57 210 09:55 20.06.2022
796 Clouds 7 1008 100 10000 2.57 230 08:46 20.06.2022
797 Clouds 8 1008 87 8000 2.06 230 07:36 20.06.2022
798 Clouds 8 1008 81 10000 3.09 270 04:56 20.06.2022
799 Clouds 6 1008 87 10000 0 0 01:32 20.06.2022
800 Clouds 6 1007 87 10000 1.54 50 23:48 19.06.2022
801 Clouds 7 1007 81 10000 1.54 30 22:20 19.06.2022
802 Clouds 7 1007 81 10000 2.57 50 21:42 19.06.2022
803 Clouds 8 1007 76 10000 4.12 60 20:52 19.06.2022
804 Clouds 8 1007 76 10000 5.14 60 20:25 19.06.2022
805 Clouds 8 1007 76 10000 6.17 70 19:45 19.06.2022
806 Clouds 10 1006 71 10000 6.17 70 18:33 19.06.2022
807 Clouds 10 1006 66 10000 6.69 70 17:48 19.06.2022
808 Clouds 11 1006 62 10000 6.17 60 17:20 19.06.2022
809 Clouds 11 1006 66 10000 7.2 70 16:34 19.06.2022
810 Clouds 11 1006 66 10000 6.17 60 15:35 19.06.2022
811 Clouds 12 1006 58 10000 4.63 70 14:43 19.06.2022
812 Clouds 12 1005 62 10000 4.63 70 13:54 19.06.2022
813 Clouds 11 1005 66 10000 4.12 60 12:26 19.06.2022
814 Clouds 11 1005 66 10000 4.12 60 10:53 19.06.2022
815 Clouds 11 1004 71 10000 2.06 230 09:34 19.06.2022
816 Clouds 10 1004 71 10000 2.06 230 08:43 19.06.2022
817 Clouds 11 1004 71 10000 3.6 220 07:36 19.06.2022
818 Clouds 10 1004 66 10000 1.54 0 04:33 19.06.2022
819 Clouds 9 1004 71 10000 4.12 120 01:28 19.06.2022
820 Clouds 9 1004 71 10000 4.12 120 01:28 19.06.2022
821 Clouds 10 1004 66 10000 6.69 130 00:23 19.06.2022
822 Clouds 11 1004 62 10000 5.14 110 23:35 18.06.2022
823 Clouds 11 1004 62 10000 5.14 110 22:36 18.06.2022
824 Clouds 12 1004 58 10000 6.17 130 20:55 18.06.2022
825 Clouds 13 1004 54 10000 6.17 130 20:27 18.06.2022
826 Clouds 14 1004 51 10000 5.14 130 19:31 18.06.2022
827 Clouds 13 1004 54 10000 5.14 120 18:44 18.06.2022
828 Clouds 13 1005 54 10000 6.17 130 17:30 18.06.2022
829 Clouds 13 1005 50 10000 5.66 130 16:23 18.06.2022
830 Clouds 13 1005 50 10000 6.17 120 15:22 18.06.2022
831 Clear 13 1006 50 10000 5.66 130 14:42 18.06.2022
832 Clear 12 1006 54 10000 5.66 120 13:21 18.06.2022
833 Clear 11 1007 54 10000 6.17 120 11:34 18.06.2022
834 Clear 10 1007 57 10000 6.17 130 10:26 18.06.2022
835 Clouds 10 1007 57 10000 5.66 130 09:20 18.06.2022
836 Clouds 10 1007 57 10000 5.66 130 09:20 18.06.2022
837 Clouds 9 1008 61 10000 5.14 120 08:19 18.06.2022
838 Clear 8 1009 66 10000 4.12 120 06:43 18.06.2022
839 Clouds 6 1011 75 10000 5.14 110 03:24 18.06.2022
840 Clear 5 1012 81 10000 4.12 100 01:24 18.06.2022
841 Clear 6 1013 75 10000 4.12 100 00:45 18.06.2022
842 Clear 6 1013 70 10000 5.14 90 23:52 17.06.2022
843 Clear 6 1013 70 10000 5.14 90 23:52 17.06.2022
844 Clear 7 1013 65 10000 4.12 100 22:56 17.06.2022
845 Clear 7 1015 65 10000 6.17 60 20:42 17.06.2022
846 Clear 8 1015 61 10000 5.66 50 19:30 17.06.2022
847 Clear 8 1016 61 10000 6.17 50 18:34 17.06.2022
848 Clouds 8 1016 61 10000 5.14 90 17:34 17.06.2022
849 Clouds 8 1016 66 10000 6.17 60 16:42 17.06.2022
850 Clouds 8 1017 66 10000 5.66 50 15:43 17.06.2022
851 Clouds 7 1017 70 10000 5.14 40 14:58 17.06.2022
852 Clouds 8 1017 66 10000 5.66 50 14:20 17.06.2022
853 Clouds 8 1017 66 10000 5.66 40 13:45 17.06.2022
854 Clouds 8 1017 71 10000 5.66 60 12:53 17.06.2022
855 Clouds 7 1017 76 10000 4.63 60 11:57 17.06.2022
856 Clouds 7 1017 76 10000 4.63 60 11:36 17.06.2022
857 Clouds 7 1017 76 10000 5.66 60 10:48 17.06.2022
858 Clouds 7 1017 76 10000 5.66 60 10:48 17.06.2022
859 Clouds 5 1017 87 10000 4.63 80 08:30 17.06.2022
860 Clouds 6 1017 81 10000 2.57 50 07:30 17.06.2022
861 Clouds 5 1017 93 10000 3.09 60 05:51 17.06.2022
862 Clouds 5 1017 93 10000 4.12 60 02:47 17.06.2022
863 Clouds 5 1017 81 10000 4.63 60 00:42 17.06.2022
864 Clouds 6 1017 70 10000 5.14 60 22:44 16.06.2022
865 Clouds 6 1018 75 10000 5.14 50 21:58 16.06.2022
866 Clouds 5 1018 81 10000 5.14 50 21:18 16.06.2022
867 Clouds 6 1017 75 10000 5.14 60 20:49 16.06.2022
868 Clouds 6 1018 75 10000 4.12 60 19:56 16.06.2022
869 Clouds 6 1018 81 10000 4.12 40 18:34 16.06.2022
870 Clouds 6 1018 75 10000 4.12 50 17:44 16.06.2022
871 Clouds 6 1018 75 10000 4.63 50 16:46 16.06.2022
872 Clouds 5 1018 81 10000 5.14 40 15:37 16.06.2022
873 Clouds 6 1018 75 10000 5.66 40 15:18 16.06.2022
874 Clouds 5 1018 87 10000 5.66 50 13:46 16.06.2022
875 Clouds 5 1018 93 10000 4.63 60 12:38 16.06.2022
876 Clouds 5 1017 93 10000 4.63 50 11:54 16.06.2022
877 Clouds 5 1017 93 10000 5.14 50 11:19 16.06.2022
878 Drizzle 5 1017 93 10000 4.63 50 10:34 16.06.2022
879 Drizzle 4 1017 100 10000 5.14 40 09:26 16.06.2022
880 Drizzle 4 1017 100 4900 5.14 50 08:46 16.06.2022
881 Drizzle 5 1017 100 8000 5.14 60 07:29 16.06.2022
882 Drizzle 5 1017 100 10000 4.63 70 05:43 16.06.2022
883 Clouds 5 1017 100 10000 4.12 50 03:23 16.06.2022
884 Clouds 6 1018 100 10000 4.12 50 01:51 16.06.2022
885 Clouds 6 1018 100 10000 4.12 50 01:22 16.06.2022
886 Clouds 6 1018 100 10000 4.12 50 01:22 16.06.2022
887 Clouds 6 1018 81 10000 2.57 70 23:58 15.06.2022
888 Clouds 6 1018 75 10000 2.06 50 22:47 15.06.2022
889 Clouds 6 1018 75 10000 3.6 60 21:29 15.06.2022
890 Clouds 6 1018 75 10000 4.12 30 20:57 15.06.2022
891 Clouds 6 1018 75 10000 4.12 30 20:35 15.06.2022
892 Clouds 6 1018 75 10000 5.14 50 19:52 15.06.2022
893 Clouds 7 1018 70 10000 4.63 50 18:30 15.06.2022
894 Clouds 7 1018 70 10000 5.14 50 17:43 15.06.2022
895 Clouds 7 1018 76 10000 5.14 60 16:21 15.06.2022
896 Clouds 7 1017 76 10000 5.66 70 14:37 15.06.2022
897 Clouds 7 1017 81 10000 5.14 60 13:22 15.06.2022
898 Clouds 7 1017 76 10000 5.66 70 12:40 15.06.2022
899 Clouds 7 1017 76 10000 5.14 50 11:24 15.06.2022
900 Clouds 7 1016 76 10000 5.14 50 10:21 15.06.2022
901 Clouds 6 1016 81 10000 5.14 70 08:59 15.06.2022
902 Clouds 6 1016 75 10000 3.09 50 07:32 15.06.2022
903 Clouds 6 1015 81 10000 3.09 60 05:36 15.06.2022
904 Clouds 5 1015 87 10000 3.09 50 02:47 15.06.2022
905 Clouds 5 1014 81 10000 3.09 40 01:36 15.06.2022
906 Clouds 5 1014 87 10000 3.6 50 00:19 15.06.2022
907 Clouds 5 1014 87 10000 5.14 60 23:38 14.06.2022
908 Clouds 5 1013 87 10000 3.6 50 22:46 14.06.2022
909 Clouds 5 1013 87 10000 4.63 50 21:43 14.06.2022
910 Clouds 6 1013 81 10000 4.12 50 21:20 14.06.2022
911 Clouds 6 1012 81 10000 5.14 50 20:40 14.06.2022
912 Clouds 6 1012 81 10000 4.63 60 19:47 14.06.2022
913 Clouds 6 1012 81 10000 5.14 60 18:39 14.06.2022
914 Clouds 7 1011 76 10000 4.63 60 16:53 14.06.2022
915 Clouds 6 1011 81 10000 4.63 40 16:34 14.06.2022
916 Clouds 6 1010 81 10000 4.12 60 15:41 14.06.2022
917 Clouds 6 1010 81 10000 4.12 50 14:53 14.06.2022
918 Clouds 6 1009 81 10000 5.14 70 13:59 14.06.2022
919 Clouds 7 1009 76 10000 3.6 60 13:24 14.06.2022
920 Clouds 6 1009 81 10000 4.12 60 11:58 14.06.2022
921 Clouds 5 1008 87 10000 4.12 60 10:52 14.06.2022
922 Clouds 5 1008 87 10000 5.14 60 10:29 14.06.2022
923 Clouds 5 1008 87 10000 4.12 50 09:22 14.06.2022
924 Clouds 5 1007 87 10000 4.12 70 08:37 14.06.2022
925 Clouds 5 1007 93 10000 2.57 50 06:32 14.06.2022
926 Clouds 5 1006 87 10000 2.06 50 03:52 14.06.2022
927 Clouds 6 1006 81 10000 2.06 50 01:37 14.06.2022
928 Clouds 6 1006 81 10000 2.57 350 00:24 14.06.2022
929 Clouds 6 1005 81 10000 4.12 350 22:58 13.06.2022
930 Clouds 6 1006 81 10000 3.6 340 22:23 13.06.2022
931 Clouds 6 1005 81 10000 3.6 360 21:39 13.06.2022
932 Clouds 7 1005 76 10000 4.12 350 19:59 13.06.2022
933 Clouds 7 1005 76 10000 4.12 350 19:18 13.06.2022
934 Clouds 7 1004 81 10000 3.09 350 17:56 13.06.2022
935 Clouds 8 1004 76 10000 2.57 0 17:25 13.06.2022
936 Clouds 8 1004 76 10000 1.54 0 16:31 13.06.2022
937 Clouds 7 1004 81 10000 4.63 290 14:52 13.06.2022
938 Clouds 7 1004 81 10000 4.12 290 14:31 13.06.2022
939 Clouds 7 1004 81 10000 4.63 290 13:36 13.06.2022
940 Clouds 7 1003 81 10000 4.12 280 12:23 13.06.2022
941 Clouds 7 1003 76 10000 3.6 260 10:56 13.06.2022
942 Clouds 7 1003 81 10000 4.63 240 10:26 13.06.2022
943 Clouds 6 1002 87 10000 3.09 240 08:52 13.06.2022
944 Clouds 6 1002 81 10000 4.12 250 06:53 13.06.2022
945 Clouds 6 1002 81 10000 7.2 240 05:35 13.06.2022
946 Clouds 5 1002 87 10000 7.72 240 02:27 13.06.2022
947 Clouds 5 1002 87 10000 8.23 240 01:36 13.06.2022
948 Clouds 6 1001 81 10000 8.75 240 23:49 12.06.2022
949 Clouds 5 1002 87 10000 9.26 240 22:44 12.06.2022
950 Clouds 6 1002 75 10000 10.29 240 21:58 12.06.2022
951 Clouds 6 1001 81 10000 9.77 230 20:54 12.06.2022
952 Clouds 6 1001 81 10000 10.8 240 20:18 12.06.2022
953 Clouds 6 1001 81 10000 10.8 240 19:30 12.06.2022
954 Clouds 6 1001 87 10000 9.77 240 17:41 12.06.2022
955 Clouds 6 1001 87 10000 11.32 240 15:57 12.06.2022
956 Clouds 6 1001 87 10000 11.32 240 14:56 12.06.2022
957 Clouds 6 1001 81 10000 12.35 240 14:20 12.06.2022
958 Drizzle 6 1001 87 10000 11.32 240 13:49 12.06.2022
959 Drizzle 6 1001 93 10000 8.75 240 12:35 12.06.2022
960 Clouds 6 1000 93 10000 9.77 240 11:36 12.06.2022
961 Clouds 7 1000 87 10000 10.29 240 10:21 12.06.2022
962 Rain 6 1000 100 10000 10.29 240 08:54 12.06.2022
963 Rain 6 1000 100 10000 10.29 240 08:35 12.06.2022
964 Rain 6 1000 100 10000 8.75 240 07:32 12.06.2022
965 Rain 7 1000 100 10000 7.72 240 04:35 12.06.2022
966 Drizzle 8 1001 100 10000 2.57 210 02:38 12.06.2022
967 Rain 9 1001 87 10000 5.66 260 01:37 12.06.2022
968 Drizzle 12 1001 82 10000 3.09 270 00:58 12.06.2022
969 Clouds 13 1001 76 10000 3.09 240 00:20 12.06.2022
970 Clouds 13 1002 76 10000 3.6 240 23:40 11.06.2022
971 Clouds 13 1002 76 10000 3.6 210 22:38 11.06.2022
972 Clouds 13 1002 76 10000 3.6 210 22:38 11.06.2022
973 Clouds 13 1003 82 10000 3.09 210 21:42 11.06.2022
974 Rain 13 1003 82 10000 5.14 190 20:34 11.06.2022
975 Rain 14 1004 72 10000 4.12 200 19:46 11.06.2022
976 Clouds 15 1004 63 10000 1.54 0 19:19 11.06.2022
977 Rain 14 1004 62 10000 3.09 40 18:33 11.06.2022
978 Clouds 13 1005 62 10000 5.66 70 17:50 11.06.2022
979 Clouds 13 1005 58 10000 6.69 70 17:26 11.06.2022
980 Clouds 13 1006 58 10000 6.69 70 16:52 11.06.2022
981 Clouds 12 1006 62 10000 6.69 70 16:26 11.06.2022
982 Clear 12 1007 62 10000 6.69 60 15:28 11.06.2022
983 Clear 12 1008 58 10000 6.69 70 13:53 11.06.2022
984 Clear 13 1009 54 10000 6.17 60 12:36 11.06.2022
985 Clouds 12 1010 58 10000 5.14 60 10:46 11.06.2022
986 Clear 10 1010 62 10000 4.63 60 09:48 11.06.2022
987 Clear 9 1011 66 10000 4.12 60 08:51 11.06.2022
988 Clear 8 1012 66 10000 3.6 50 06:47 11.06.2022
989 Clear 7 1012 70 10000 3.6 60 06:25 11.06.2022
990 Clouds 5 1014 81 10000 2.57 30 04:23 11.06.2022
991 Clear 3 1015 93 10000 0 0 01:52 11.06.2022
992 Clear 3 1015 93 10000 1.54 280 01:27 11.06.2022
993 Clouds 6 1015 75 10000 2.57 240 23:34 10.06.2022
994 Clouds 6 1015 75 10000 4.12 240 22:31 10.06.2022
995 Clouds 6 1015 70 10000 5.14 240 21:50 10.06.2022
996 Clouds 6 1015 75 10000 5.14 240 20:40 10.06.2022
997 Clouds 6 1016 75 10000 2.57 250 20:21 10.06.2022
998 Clouds 6 1016 75 10000 2.57 250 20:21 10.06.2022
999 Clouds 6 1015 75 10000 6.17 240 19:19 10.06.2022
1000 Clouds 6 1015 75 10000 6.69 230 18:55 10.06.2022
1001 Clouds 6 1015 70 10000 6.69 240 17:55 10.06.2022
1002 Clouds 6 1015 70 10000 6.69 240 17:33 10.06.2022
1003 Clouds 6 1015 75 10000 6.69 240 16:47 10.06.2022
1004 Clouds 6 1015 75 10000 7.72 240 15:40 10.06.2022
1005 Clouds 5 1015 100 10000 8.23 240 14:51 10.06.2022
1006 Clouds 6 1014 81 10000 6.17 240 13:26 10.06.2022
1007 Clouds 6 1014 81 10000 6.69 240 11:59 10.06.2022
1008 Clouds 6 1013 81 10000 8.23 240 11:25 10.06.2022
1009 Clouds 6 1013 81 10000 5.66 240 10:35 10.06.2022
1010 Rain 5 1013 100 10000 6.69 240 09:26 10.06.2022
1011 Clouds 5 1012 93 10000 6.69 240 07:57 10.06.2022
1012 Rain 4 1012 100 10000 7.72 240 06:49 10.06.2022
1013 Rain 4 1012 93 10000 8.23 240 06:30 10.06.2022
1014 Rain 4 1012 87 10000 8.23 240 05:31 10.06.2022
1015 Rain 4 1011 87 10000 6.17 240 02:46 10.06.2022
1016 Drizzle 4 1011 87 10000 8.23 240 01:37 10.06.2022
1017 Rain 5 1011 81 10000 5.66 240 23:58 09.06.2022
1018 Clouds 5 1011 81 10000 6.17 240 22:43 09.06.2022
1019 Clouds 5 1011 81 10000 7.2 240 21:44 09.06.2022
1020 Rain 5 1011 81 10000 5.14 230 21:25 09.06.2022
1021 Clouds 5 1011 75 10000 5.66 240 20:38 09.06.2022
1022 Clouds 6 1010 70 10000 8.23 240 19:46 09.06.2022
1023 Clouds 6 1010 70 10000 8.23 240 18:41 09.06.2022
1024 Clouds 6 1010 70 10000 8.75 250 17:33 09.06.2022
1025 Clouds 6 1010 75 10000 5.66 250 16:28 09.06.2022
1026 Clouds 6 1010 75 10000 7.2 240 15:22 09.06.2022
1027 Clouds 7 1010 65 10000 6.17 240 14:30 09.06.2022
1028 Clouds 7 1010 70 10000 4.63 240 13:44 09.06.2022
1029 Clouds 7 1010 70 10000 3.6 240 13:19 09.06.2022
1030 Clouds 7 1010 70 10000 6.17 230 11:35 09.06.2022
1031 Rain 6 1010 75 10000 5.14 220 10:34 09.06.2022
1032 Clouds 7 1010 76 10000 8.23 240 09:38 09.06.2022
1033 Rain 6 1009 75 10000 5.14 240 09:20 09.06.2022
1034 Clouds 5 1009 81 10000 6.17 230 07:29 09.06.2022
1035 Clouds 5 1009 87 10000 5.14 240 04:30 09.06.2022
1036 Clouds 6 1008 75 10000 9.26 240 00:36 09.06.2022
1037 Clouds 5 1008 81 10000 12.86 240 23:23 08.06.2022
1038 Clouds 5 1008 87 10000 8.75 240 22:44 08.06.2022
1039 Clouds 6 1008 81 10000 8.23 240 22:24 08.06.2022
1040 Rain 5 1008 87 10000 5.66 260 21:40 08.06.2022
1041 Rain 7 1007 65 10000 9.77 240 20:25 08.06.2022
1042 Rain 6 1007 75 10000 11.32 240 19:46 08.06.2022
1043 Rain 7 1006 65 10000 8.75 240 18:48 08.06.2022
1044 Rain 7 1006 70 10000 8.23 250 17:46 08.06.2022
1045 Clouds 9 1005 61 10000 8.75 240 16:18 08.06.2022
1046 Clouds 11 1005 54 10000 9.26 240 14:46 08.06.2022
1047 Clouds 8 1005 57 10000 9.77 230 12:55 08.06.2022
1048 Clouds 8 1005 57 10000 9.77 230 12:55 08.06.2022
1049 Clouds 8 1004 57 10000 8.23 230 11:44 08.06.2022
1050 Clouds 8 1004 57 10000 8.75 230 11:19 08.06.2022
1051 Clouds 9 1004 53 10000 6.17 230 09:45 08.06.2022
1052 Clouds 8 1004 57 10000 6.17 220 09:18 08.06.2022
1053 Clouds 7 1004 57 10000 6.17 210 07:22 08.06.2022
1054 Clouds 7 1005 65 10000 4.12 230 04:51 08.06.2022
1055 Clouds 7 1006 61 10000 5.66 220 02:19 08.06.2022
1056 Clouds 6 1007 70 10000 6.17 230 23:41 07.06.2022
1057 Clouds 6 1007 65 10000 4.12 240 23:22 07.06.2022
1058 Clouds 6 1007 65 10000 5.14 250 22:38 07.06.2022
1059 Clouds 6 1007 75 10000 4.12 250 21:41 07.06.2022
1060 Clouds 6 1007 75 10000 4.12 250 21:41 07.06.2022
1061 Clouds 6 1008 75 10000 6.17 240 21:23 07.06.2022
1062 Drizzle 7 1007 70 10000 6.69 230 20:42 07.06.2022
1063 Rain 7 1007 65 10000 7.72 230 19:59 07.06.2022
1064 Rain 8 1007 57 10000 4.12 240 18:42 07.06.2022
1065 Rain 7 1007 65 10000 4.63 250 17:51 07.06.2022
1066 Clouds 8 1007 61 10000 6.17 240 16:49 07.06.2022
1067 Clouds 8 1007 57 10000 6.69 230 16:31 07.06.2022
1068 Rain 8 1007 57 10000 7.72 230 15:40 07.06.2022
1069 Rain 8 1007 57 10000 6.69 230 15:21 07.06.2022
1070 Rain 8 1007 57 10000 7.72 240 14:45 07.06.2022
1071 Clouds 8 1007 57 10000 8.23 240 13:46 07.06.2022
1072 Clouds 8 1007 61 10000 7.2 230 13:26 07.06.2022
1073 Clouds 8 1007 57 10000 7.72 230 11:56 07.06.2022
1074 Clouds 8 1007 57 10000 7.72 230 11:56 07.06.2022
1075 Clouds 8 1007 61 10000 6.17 240 10:57 07.06.2022
1076 Clouds 7 1007 70 10000 4.12 250 09:28 07.06.2022
1077 Clouds 8 1006 66 10000 6.17 240 08:31 07.06.2022
1078 Clouds 7 1006 70 10000 4.63 240 07:19 07.06.2022
1079 Clouds 7 1006 76 10000 7.2 240 05:19 07.06.2022
1080 Drizzle 10 1005 62 10000 4.12 230 01:44 07.06.2022
1081 Rain 10 1004 62 10000 8.75 230 00:20 07.06.2022
1082 Clouds 13 1004 38 10000 5.66 200 23:25 06.06.2022
1083 Clouds 13 1004 38 10000 5.66 200 22:37 06.06.2022
1084 Clear 13 1005 38 10000 4.63 180 21:33 06.06.2022
1085 Clear 12 1008 47 10000 5.66 130 19:37 06.06.2022
1086 Clear 12 1008 47 10000 6.17 130 19:19 06.06.2022
1087 Clear 12 1009 47 10000 5.66 120 18:34 06.06.2022
1088 Clear 12 1011 43 10000 5.14 130 17:36 06.06.2022
1089 Clear 11 1013 43 10000 2.57 0 16:21 06.06.2022
1090 Clear 11 1013 43 10000 3.09 210 15:33 06.06.2022
1091 Clouds 10 1014 50 10000 3.09 230 14:39 06.06.2022
1092 Clouds 9 1014 61 10000 4.63 230 13:27 06.06.2022
1093 Clouds 9 1015 61 10000 5.14 230 12:37 06.06.2022
1094 Clouds 8 1015 66 10000 5.66 230 11:58 06.06.2022
1095 Clouds 9 1015 66 10000 6.17 240 11:28 06.06.2022
1096 Clouds 8 1015 71 10000 3.6 240 09:41 06.06.2022
1097 Clouds 7 1014 70 10000 6.17 240 08:35 06.06.2022
1098 Clouds 7 1014 70 10000 5.14 240 07:37 06.06.2022
1099 Clouds 7 1013 70 10000 4.63 230 05:29 06.06.2022
1100 Clouds 7 1013 70 10000 4.63 230 05:29 06.06.2022
1101 Clouds 6 1012 87 10000 2.57 200 03:46 06.06.2022
1102 Clouds 6 1011 81 10000 2.06 270 01:29 06.06.2022
1103 Clouds 6 1011 81 10000 1.54 0 00:42 06.06.2022
1104 Clouds 7 1011 76 10000 2.57 210 23:50 05.06.2022
1105 Clouds 6 1010 81 10000 3.09 260 22:53 05.06.2022
1106 Clouds 6 1010 87 10000 3.09 290 21:27 05.06.2022
1107 Clouds 7 1009 81 10000 7.2 330 20:23 05.06.2022
1108 Clouds 10 1007 57 10000 3.6 50 18:42 05.06.2022
1109 Clouds 12 1007 54 10000 4.12 60 17:57 05.06.2022
1110 Clouds 12 1007 54 10000 4.12 60 17:36 05.06.2022
1111 Clouds 10 1007 62 10000 3.6 50 17:18 05.06.2022
1112 Clouds 10 1007 62 10000 3.09 50 16:45 05.06.2022
1113 Clouds 11 1007 54 10000 1.54 210 14:46 05.06.2022
1114 Clouds 10 1007 62 10000 2.57 220 13:55 05.06.2022
1115 Clouds 9 1007 71 10000 3.09 220 11:56 05.06.2022
1116 Clouds 8 1006 76 10000 1.03 0 10:44 05.06.2022
1117 Clouds 7 1006 81 10000 1.03 0 10:23 05.06.2022
1118 Clouds 7 1005 81 10000 0.51 0 09:21 05.06.2022
1119 Rain 6 1005 93 10000 2.06 230 08:21 05.06.2022
1120 Drizzle 8 1003 93 10000 2.06 260 05:23 05.06.2022
1121 Drizzle 8 1003 93 10000 2.57 250 04:36 05.06.2022
1122 Clouds 8 1004 87 10000 3.6 140 02:19 05.06.2022
1123 Clouds 8 1005 87 10000 4.12 130 01:23 05.06.2022
1124 Clouds 8 1006 100 10000 2.57 60 22:48 04.06.2022
1125 Clouds 8 1006 100 10000 1.54 50 21:24 04.06.2022
1126 Clouds 8 1007 100 10000 2.06 260 18:58 04.06.2022
1127 Clouds 9 1007 93 10000 5.14 240 16:48 04.06.2022
1128 Clouds 9 1007 100 10000 7.2 240 16:20 04.06.2022
1129 Clouds 9 1007 100 10000 5.14 230 15:35 04.06.2022
1130 Clouds 9 1006 100 10000 3.09 220 13:59 04.06.2022
1131 Clouds 10 1006 93 10000 3.6 230 11:38 04.06.2022
1132 Clouds 9 1005 100 10000 2.57 200 10:52 04.06.2022
1133 Clouds 9 1005 100 10000 2.06 200 09:47 04.06.2022
1134 Clouds 9 1005 100 10000 2.06 220 08:59 04.06.2022
1135 Clouds 9 1005 100 10000 2.06 220 08:37 04.06.2022
1136 Rain 10 1005 93 7000 2.57 260 06:25 04.06.2022
1137 Clouds 11 1006 82 10000 1.03 0 03:52 04.06.2022
1138 Clouds 12 1008 71 10000 1.03 0 00:22 04.06.2022
1139 Clouds 12 1008 71 10000 3.09 60 22:57 03.06.2022
1140 Clear 13 1009 71 10000 1.54 0 21:53 03.06.2022
1141 Clouds 14 1009 67 10000 3.6 180 20:40 03.06.2022
1142 Clouds 14 1009 67 10000 2.06 170 19:37 03.06.2022
1143 Clouds 14 1011 67 10000 4.12 140 16:59 03.06.2022
1144 Clouds 14 1011 67 10000 5.14 120 15:57 03.06.2022
1145 Clouds 14 1011 67 10000 5.14 130 14:42 03.06.2022
1146 Clouds 14 1012 62 10000 3.09 180 12:26 03.06.2022
1147 Clouds 14 1012 54 10000 4.12 150 09:58 03.06.2022
1148 Clouds 12 1012 62 10000 2.57 190 09:29 03.06.2022
1149 Rain 12 1013 71 10000 2.06 80 07:50 03.06.2022
1150 Rain 14 1013 54 10000 3.09 40 07:19 03.06.2022
1151 Clear 14 1013 51 10000 3.09 60 06:29 03.06.2022
1152 Clear 14 1014 51 10000 5.66 40 04:35 03.06.2022
1153 Clear 15 1016 58 10000 2.57 230 00:21 03.06.2022
1154 Clear 15 1017 58 10000 2.57 200 22:34 02.06.2022
1155 Clear 18 1017 48 10000 4.63 80 20:58 02.06.2022
1156 Clear 18 1017 45 10000 4.12 70 19:59 02.06.2022
1157 Clear 18 1017 45 10000 4.12 70 19:41 02.06.2022
1158 Clear 19 1017 45 10000 1.54 110 19:18 02.06.2022
1159 Clear 19 1018 45 10000 4.12 230 16:30 02.06.2022
1160 Clear 19 1018 48 10000 4.12 230 15:58 02.06.2022
1161 Clear 17 1018 55 10000 6.17 220 13:47 02.06.2022
1162 Clear 18 1018 52 10000 6.17 210 13:26 02.06.2022
1163 Clear 16 1018 59 10000 4.63 190 11:18 02.06.2022
1164 Clear 15 1018 63 10000 4.63 180 10:19 02.06.2022
1165 Clear 14 1018 62 10000 5.66 200 09:27 02.06.2022
1166 Clear 14 1018 62 10000 5.14 200 08:25 02.06.2022
1167 Clear 13 1018 67 10000 3.09 250 06:50 02.06.2022
1168 Clouds 13 1018 67 10000 1.03 0 03:54 02.06.2022
1169 Clouds 13 1018 62 10000 2.06 150 02:30 02.06.2022
1170 Clear 14 1018 54 10000 1.54 0 23:43 01.06.2022
1171 Clear 14 1018 54 10000 1.54 0 23:43 01.06.2022
1172 Clear 14 1018 54 10000 1.54 0 23:43 01.06.2022
1173 Clear 15 1018 44 10000 2.06 0 22:23 01.06.2022
1174 Clear 16 1018 41 10000 2.57 130 21:32 01.06.2022
1175 Clear 17 1018 39 10000 3.09 190 20:40 01.06.2022
1176 Clear 18 1018 36 10000 2.06 80 19:53 01.06.2022
1177 Clear 19 1018 32 10000 4.12 90 18:58 01.06.2022
1178 Clear 18 1019 34 10000 5.14 90 17:40 01.06.2022
1179 Clear 18 1019 36 10000 5.14 120 16:33 01.06.2022
1180 Clear 17 1020 39 10000 4.12 160 14:52 01.06.2022
1181 Clear 18 1020 34 10000 3.6 190 13:45 01.06.2022
1182 Clear 17 1021 39 10000 2.06 200 12:26 01.06.2022
1183 Clear 16 1021 39 10000 2.57 210 09:40 01.06.2022
1184 Clear 14 1022 44 10000 2.06 220 08:38 01.06.2022
1185 Clear 14 1022 41 10000 1.03 0 07:22 01.06.2022
1186 Clear 14 1023 47 10000 1.03 0 05:23 01.06.2022
1187 Clear 11 1025 54 10000 1.54 20 00:22 01.06.2022
1188 Clear 11 1025 54 10000 1.54 60 23:26 31.05.2022
1189 Clear 11 1025 58 10000 3.09 60 22:36 31.05.2022
1190 Clouds 12 1025 54 10000 3.09 50 21:45 31.05.2022
1191 Clear 14 1025 47 10000 3.6 40 20:45 31.05.2022
1192 Clear 15 1025 47 10000 3.09 40 20:18 31.05.2022
1193 Clear 15 1025 44 10000 4.12 70 18:52 31.05.2022
1194 Clear 15 1025 44 10000 5.66 60 17:50 31.05.2022
1195 Clear 16 1026 41 10000 4.12 40 16:56 31.05.2022
1196 Clear 16 1026 29 10000 4.63 140 15:40 31.05.2022
1197 Clear 16 1026 25 10000 3.6 0 14:18 31.05.2022
1198 Clear 14 1027 28 10000 7.2 70 12:20 31.05.2022
1199 Clear 13 1027 28 10000 1.54 0 10:55 31.05.2022
1200 Clear 14 1026 23 10000 3.09 110 09:29 31.05.2022
1201 Clear 12 1026 28 10000 4.63 80 07:25 31.05.2022
1202 Clear 12 1027 26 10000 3.6 90 05:20 31.05.2022
1203 Clear 10 1027 37 10000 2.06 90 00:52 31.05.2022
1204 Clear 12 1026 35 10000 3.6 120 23:27 30.05.2022
1205 Clear 12 1026 35 10000 5.14 120 22:56 30.05.2022
1206 Clear 13 1026 35 10000 5.14 70 21:59 30.05.2022
1207 Clear 13 1026 35 10000 5.14 70 21:33 30.05.2022
1208 Clear 14 1026 35 10000 5.66 60 20:20 30.05.2022
1209 Clear 15 1026 33 10000 6.69 90 18:41 30.05.2022
1210 Clear 16 1026 33 10000 6.69 60 17:36 30.05.2022
1211 Clear 15 1026 38 10000 7.72 80 16:41 30.05.2022
1212 Clear 16 1026 39 10000 4.63 60 14:49 30.05.2022
1213 Clear 15 1026 33 10000 3.09 110 12:24 30.05.2022
1214 Clear 13 1025 38 10000 5.66 70 10:41 30.05.2022
1215 Clear 12 1025 40 10000 6.69 50 09:38 30.05.2022
1216 Clear 10 1024 46 10000 5.14 50 07:22 30.05.2022
1217 Clouds 9 1024 46 10000 6.69 70 05:49 30.05.2022
1218 Clear 6 1023 70 10000 5.66 50 01:48 30.05.2022
1219 Clear 7 1022 76 10000 1.54 50 23:19 29.05.2022
1220 Clear 7 1022 76 10000 1.03 0 22:37 29.05.2022
1221 Clear 8 1020 76 10000 4.63 60 20:57 29.05.2022
1222 Clear 8 1020 76 10000 4.63 60 19:34 29.05.2022
1223 Clouds 8 1020 81 10000 5.14 50 18:59 29.05.2022
1224 Clouds 7 1019 87 10000 4.63 60 17:31 29.05.2022
1225 Clouds 8 1019 81 10000 5.66 50 15:48 29.05.2022
1226 Clouds 8 1019 81 10000 6.69 50 15:23 29.05.2022
1227 Clouds 8 1018 81 10000 4.12 30 13:59 29.05.2022
1228 Clouds 10 1017 76 10000 4.63 50 11:48 29.05.2022
1229 Rain 10 1017 76 10000 5.14 40 10:40 29.05.2022
1230 Rain 12 1016 62 10000 2.06 30 09:31 29.05.2022
1231 Clouds 10 1014 66 10000 0.51 0 06:24 29.05.2022
1232 Clouds 9 1013 71 10000 1.54 0 04:47 29.05.2022
1233 Clouds 8 1012 76 10000 2.57 50 04:19 29.05.2022
1234 Clouds 9 1010 76 10000 2.06 10 23:53 28.05.2022
1235 Clouds 9 1009 76 10000 1.54 0 23:34 28.05.2022
1236 Clouds 9 1009 76 10000 1.03 0 22:40 28.05.2022
1237 Clouds 10 1008 71 10000 3.6 80 21:40 28.05.2022
1238 Rain 10 1007 76 10000 3.6 90 19:51 28.05.2022
1239 Clouds 10 1006 76 10000 3.6 60 18:58 28.05.2022
1240 Clouds 10 1006 71 10000 3.6 60 17:38 28.05.2022
1241 Clouds 9 1005 71 10000 3.09 0 16:50 28.05.2022
1242 Clouds 8 1004 71 10000 3.09 120 15:44 28.05.2022
1243 Clouds 8 1003 71 10000 7.2 120 14:35 28.05.2022
1244 Clouds 8 1001 76 10000 4.63 100 13:21 28.05.2022
1245 Clouds 6 1001 81 10000 3.6 60 12:39 28.05.2022
1246 Clouds 6 1000 81 10000 5.66 70 11:26 28.05.2022
1247 Clouds 5 999 100 10000 5.14 70 10:25 28.05.2022
1248 Rain 5 999 100 10000 7.72 70 09:22 28.05.2022
1249 Rain 4 998 100 3800 6.17 60 07:23 28.05.2022
1250 Drizzle 5 998 93 10000 5.66 40 06:26 28.05.2022
1251 Rain 4 999 100 9000 6.69 30 03:53 28.05.2022
1252 Fog 4 1001 100 5000 8.75 40 00:33 28.05.2022
1253 Fog 4 1001 100 5000 8.23 40 23:34 27.05.2022
1254 Fog 5 1002 100 9000 5.66 40 22:24 27.05.2022
1255 Clouds 6 1002 87 10000 4.63 40 20:57 27.05.2022
1256 Clouds 5 1002 93 10000 5.14 40 20:31 27.05.2022
1257 Clouds 6 1002 87 10000 7.2 60 19:55 27.05.2022
1258 Clouds 6 1002 87 10000 7.2 60 19:33 27.05.2022
1259 Clouds 5 1002 100 10000 7.72 60 18:29 27.05.2022
1260 Clouds 5 1002 93 10000 6.69 60 16:42 27.05.2022
1261 Rain 5 1003 100 10000 6.17 70 15:44 27.05.2022
1262 Rain 5 1003 87 10000 7.2 40 14:45 27.05.2022
1263 Rain 6 1003 81 10000 8.23 50 13:30 27.05.2022
1264 Clear 8 1004 71 10000 7.2 40 11:41 27.05.2022
1265 Clear 8 1004 66 10000 7.72 50 11:23 27.05.2022
1266 Clear 9 1004 57 10000 7.2 60 10:32 27.05.2022
1267 Clear 9 1005 57 10000 7.72 60 09:37 27.05.2022
1268 Clear 9 1005 57 10000 6.69 60 08:24 27.05.2022
1269 Clear 9 1006 57 10000 5.14 50 06:45 27.05.2022
1270 Clouds 10 1006 57 10000 1.54 0 02:56 27.05.2022
1271 Clear 12 1006 47 10000 3.09 0 00:53 27.05.2022
1272 Clear 13 1006 44 10000 2.57 130 22:50 26.05.2022
1273 Clear 13 1005 47 10000 4.63 50 21:43 26.05.2022
1274 Clear 15 1005 44 10000 4.12 150 20:59 26.05.2022
1275 Clear 17 1005 39 10000 3.09 150 19:29 26.05.2022
1276 Clear 18 1005 36 10000 3.6 100 18:21 26.05.2022
1277 Clear 18 1005 36 10000 2.57 110 16:58 26.05.2022
1278 Clear 18 1006 39 10000 2.57 200 15:49 26.05.2022
1279 Clear 18 1006 36 10000 2.06 210 14:48 26.05.2022
1280 Clear 16 1006 41 10000 5.66 140 13:23 26.05.2022
1281 Clear 16 1006 39 10000 4.12 140 11:38 26.05.2022
1282 Clear 17 1005 36 10000 4.12 130 10:24 26.05.2022
1283 Clear 16 1005 39 10000 3.6 120 09:35 26.05.2022
1284 Clear 17 1005 36 10000 2.57 90 08:38 26.05.2022
1285 Clear 13 1006 47 10000 3.6 40 05:24 26.05.2022
1286 Clear 13 1006 44 10000 1.54 0 01:24 26.05.2022
1287 Clear 12 1006 50 10000 3.6 40 23:40 25.05.2022
1288 Clear 14 1006 47 10000 3.09 20 22:30 25.05.2022
1289 Clear 14 1005 51 10000 2.06 250 21:33 25.05.2022
1290 Clear 15 1005 47 10000 5.14 220 20:39 25.05.2022
1291 Clear 17 1005 42 10000 5.66 200 19:31 25.05.2022
1292 Clear 16 1005 41 10000 3.09 210 18:20 25.05.2022
1293 Clear 16 1005 41 10000 6.69 210 16:41 25.05.2022
1294 Clear 15 1004 44 10000 7.2 220 15:58 25.05.2022
1295 Clear 15 1004 44 10000 10.8 210 14:56 25.05.2022
1296 Clear 15 1004 44 10000 10.8 210 14:33 25.05.2022
1297 Clear 16 1004 41 10000 10.29 210 13:58 25.05.2022
1298 Clear 15 1004 41 10000 11.32 200 12:48 25.05.2022
1299 Clear 14 1004 38 10000 8.75 200 10:58 25.05.2022
1300 Clear 14 1004 35 10000 7.72 190 10:22 25.05.2022
1301 Clouds 12 1005 51 10000 6.92 163 08:45 25.05.2022
1302 Clouds 11 1005 57 10000 5.88 153 07:23 25.05.2022
1303 Clear 13 1006 41 10000 1.54 0 05:23 25.05.2022
1304 Clear 13 1008 54 10000 2.06 230 00:31 25.05.2022
1305 Clear 13 1008 54 10000 3.09 260 23:47 24.05.2022
1306 Clear 14 1008 47 10000 3.6 210 22:52 24.05.2022
1307 Clear 14 1008 47 10000 3.09 200 21:46 24.05.2022
1308 Clear 14 1008 47 10000 3.09 210 21:21 24.05.2022
1309 Clear 14 1008 47 10000 2.57 260 20:38 24.05.2022
1310 Clear 14 1007 47 10000 4.63 200 18:59 24.05.2022
1311 Clear 15 1007 44 10000 5.66 190 17:19 24.05.2022
1312 Clear 15 1007 41 10000 5.66 190 16:29 24.05.2022
1313 Clear 14 1007 47 10000 7.2 200 15:27 24.05.2022
1314 Clear 14 1008 44 10000 7.2 190 14:36 24.05.2022
1315 Clear 14 1007 44 10000 8.23 190 13:34 24.05.2022
1316 Clear 14 1008 47 10000 8.23 210 12:18 24.05.2022
1317 Clear 13 1008 58 10000 4.12 200 09:50 24.05.2022
1318 Clear 13 1008 58 10000 5.66 200 08:51 24.05.2022
1319 Clear 12 1008 58 10000 6.69 200 07:32 24.05.2022
1320 Clear 12 1008 58 10000 5.14 210 06:34 24.05.2022
1321 Clear 10 1009 62 10000 3.6 210 03:32 24.05.2022
1322 Clear 10 1009 62 10000 4.12 210 01:46 24.05.2022
1323 Clear 11 1009 58 10000 5.14 220 00:21 24.05.2022
1324 Clear 10 1010 62 10000 1.03 0 22:24 23.05.2022
1325 Clear 11 1010 62 10000 4.12 200 21:45 23.05.2022
1326 Clear 11 1010 58 10000 3.09 150 20:46 23.05.2022
1327 Clear 11 1010 58 10000 2.57 0 19:51 23.05.2022
1328 Clear 11 1010 58 10000 1.54 0 19:22 23.05.2022
1329 Clear 11 1010 58 10000 3.09 180 18:40 23.05.2022
1330 Clear 11 1010 58 10000 2.06 120 17:56 23.05.2022
1331 Clear 10 1011 62 10000 2.57 160 16:28 23.05.2022
1332 Clear 10 1011 62 10000 2.57 200 14:18 23.05.2022
1333 Clear 10 1011 62 10000 3.6 220 11:53 23.05.2022
1334 Clear 10 1011 62 10000 4.12 220 10:49 23.05.2022
1335 Clear 10 1011 62 10000 2.57 230 09:48 23.05.2022
1336 Rain 9 1012 61 10000 2.57 140 08:46 23.05.2022
1337 Clouds 9 1012 66 10000 1.54 0 07:31 23.05.2022
1338 Clouds 9 1012 61 10000 1.54 0 06:40 23.05.2022
1339 Clouds 7 1012 70 10000 0 0 03:51 23.05.2022
1340 Clouds 7 1012 76 10000 0 0 02:18 23.05.2022
1341 Clouds 6 1012 75 10000 1.03 0 01:32 23.05.2022
1342 Clouds 8 1012 66 10000 0.51 0 23:22 22.05.2022
1343 Clouds 7 1012 70 10000 0.51 0 22:33 22.05.2022
1344 Clouds 9 1012 61 10000 1.03 0 21:53 22.05.2022
1345 Clouds 9 1012 61 10000 2.06 50 20:50 22.05.2022
1346 Clouds 9 1012 66 10000 2.06 70 20:23 22.05.2022
1347 Clouds 10 1012 57 10000 2.06 60 19:42 22.05.2022
1348 Clouds 10 1012 62 10000 2.06 30 18:52 22.05.2022
1349 Clouds 10 1012 62 10000 2.06 40 18:22 22.05.2022
1350 Clouds 10 1012 62 10000 3.6 60 17:26 22.05.2022
1351 Clouds 11 1012 54 10000 2.06 80 15:59 22.05.2022
1352 Clear 11 1012 58 10000 2.06 190 14:48 22.05.2022
1353 Clear 11 1011 58 10000 2.06 230 13:27 22.05.2022
1354 Clear 11 1011 58 10000 2.06 220 12:50 22.05.2022
1355 Clear 10 1011 57 10000 2.06 240 11:37 22.05.2022
1356 Clouds 9 1011 61 10000 2.57 220 09:42 22.05.2022
1357 Clouds 8 1011 66 10000 2.06 220 08:31 22.05.2022
1358 Clouds 8 1011 66 10000 1.03 0 07:21 22.05.2022
1359 Clouds 6 1011 75 10000 1.03 60 05:31 22.05.2022
1360 Clouds 5 1011 75 10000 1.03 50 01:41 22.05.2022
1361 Clear 4 1011 81 10000 0.51 0 00:43 22.05.2022
1362 Clear 6 1011 70 10000 0 0 23:54 21.05.2022
1363 Clouds 7 1011 70 10000 1.03 270 22:28 21.05.2022
1364 Clouds 7 1011 65 10000 1.03 0 21:42 21.05.2022
1365 Clouds 8 1011 66 10000 1.54 250 20:59 21.05.2022
1366 Clouds 8 1011 66 10000 2.06 250 20:22 21.05.2022
1367 Clear 9 1011 57 10000 2.57 240 19:27 21.05.2022
1368 Clouds 8 1011 61 10000 2.57 250 17:51 21.05.2022
1369 Clouds 9 1011 57 10000 2.57 230 16:43 21.05.2022
1370 Clear 10 1011 53 10000 2.06 240 14:37 21.05.2022
1371 Clear 9 1011 53 10000 3.09 240 13:42 21.05.2022
1372 Clear 8 1011 57 10000 2.57 220 12:50 21.05.2022
1373 Clear 8 1011 57 10000 3.09 220 12:25 21.05.2022
1374 Clear 7 1011 61 10000 1.54 0 10:24 21.05.2022
1375 Clear 7 1011 61 10000 2.06 220 09:43 21.05.2022
1376 Clouds 7 1011 61 10000 1.54 0 08:57 21.05.2022
1377 Clouds 6 1011 65 10000 1.54 0 07:53 21.05.2022
1378 Clouds 4 1014 91 10000 2.59 146 04:29 21.05.2022
1379 Clear 5 1013 70 10000 3.6 130 23:54 20.05.2022
1380 Clear 6 1013 65 10000 3.6 130 22:57 20.05.2022
1381 Clear 6 1014 65 10000 3.09 130 22:24 20.05.2022
1382 Clear 6 1014 65 10000 3.09 140 21:43 20.05.2022
1383 Clear 6 1014 61 10000 3.6 110 20:56 20.05.2022
1384 Clear 7 1014 57 10000 3.09 130 20:25 20.05.2022
1385 Clear 7 1014 57 10000 3.6 110 19:26 20.05.2022
1386 Clear 7 1015 57 10000 4.12 130 18:46 20.05.2022
1387 Clear 7 1015 57 10000 4.12 120 17:24 20.05.2022
1388 Clear 7 1015 57 10000 4.63 120 16:20 20.05.2022
1389 Clouds 5 1017 82 10000 2.56 152 15:53 20.05.2022
1390 Clear 6 1016 56 10000 3.6 120 14:31 20.05.2022
1391 Clear 7 1016 57 10000 3.09 210 13:55 20.05.2022
1392 Clear 6 1016 56 10000 1.54 0 11:38 20.05.2022
1393 Clear 5 1016 60 10000 2.57 240 10:19 20.05.2022
1394 Clear 5 1017 56 10000 1.54 0 08:45 20.05.2022
1395 Clear 3 1017 65 10000 2.57 70 07:18 20.05.2022
1396 Clear 3 1017 65 10000 2.57 60 06:34 20.05.2022
1397 Clouds 2 1018 69 10000 1.03 0 04:59 20.05.2022
1398 Clear 1 1019 69 10000 3.09 130 00:54 20.05.2022
1399 Clouds 2 1020 64 10000 3.09 80 22:57 19.05.2022
1400 Clouds 2 1020 64 10000 3.6 80 22:25 19.05.2022
1401 Clouds 2 1020 64 10000 3.6 90 21:48 19.05.2022
1402 Clouds 2 1020 60 10000 3.6 90 21:23 19.05.2022
1403 Clouds 2 1020 60 10000 4.12 120 20:39 19.05.2022
1404 Clouds 2 1021 69 10000 2.57 150 19:53 19.05.2022
1405 Clouds 3 1021 60 10000 2.57 120 18:34 19.05.2022
1406 Clouds 3 1021 65 10000 1.54 0 17:31 19.05.2022
1407 Clouds 3 1021 70 10000 3.6 230 15:21 19.05.2022
1408 Clouds 2 1021 75 10000 2.06 250 14:26 19.05.2022
1409 Clouds 2 1021 75 10000 2.06 240 13:50 19.05.2022
1410 Clouds 2 1021 69 10000 1.54 220 11:46 19.05.2022
1411 Clouds 2 1021 69 10000 1.54 0 09:35 19.05.2022
1412 Clouds 1 1021 80 10000 0.51 0 08:27 19.05.2022
1413 Clouds 1 1020 69 10000 1.03 0 06:31 19.05.2022
1414 Clouds 1 1020 75 10000 0.51 0 02:54 19.05.2022
1415 Clouds 1 1020 69 10000 1.03 0 00:47 19.05.2022
1416 Clouds 1 1020 75 10000 3.09 360 22:53 18.05.2022
1417 Clouds 1 1020 75 10000 3.09 360 22:35 18.05.2022
1418 Clouds 1 1020 69 10000 4.63 350 21:31 18.05.2022
1419 Clouds 1 1019 75 10000 3.6 30 20:54 18.05.2022
1420 Clouds 1 1019 75 10000 3.6 30 20:19 18.05.2022
1421 Clouds 1 1019 75 10000 3.6 30 18:43 18.05.2022
1422 Clouds 1 1019 80 10000 4.63 20 17:41 18.05.2022
1423 Clouds 1 1019 80 10000 3.6 350 17:23 18.05.2022
1424 Clouds 2 1018 75 10000 4.63 350 16:35 18.05.2022
1425 Clouds 2 1018 75 10000 3.09 350 15:42 18.05.2022
1426 Clouds 2 1018 75 10000 3.6 350 15:19 18.05.2022
1427 Rain 2 1018 80 10000 3.6 340 13:48 18.05.2022
1428 Clouds 0 1017 93 10000 2.57 0 12:53 18.05.2022
1429 Clouds 2 1017 69 10000 4.12 360 11:41 18.05.2022
1430 Clouds 2 1017 69 10000 4.12 360 11:23 18.05.2022
1431 Clouds 2 1016 64 10000 3.6 0 09:57 18.05.2022
1432 Clouds 1 1015 69 10000 3.6 350 07:55 18.05.2022
1433 Clouds 1 1015 64 10000 4.63 340 06:50 18.05.2022
1434 Clouds 1 1014 69 10000 4.12 350 02:44 18.05.2022
1435 Clouds 1 1013 93 10000 7.2 30 00:31 18.05.2022
1436 Snow 1 1012 100 7000 4.63 340 22:57 17.05.2022
1437 Clouds 2 1012 87 10000 5.14 240 21:21 17.05.2022
1438 Clouds 2 1012 87 10000 4.63 240 20:30 17.05.2022
1439 Rain 2 1013 87 10000 5.14 240 19:29 17.05.2022
1440 Rain 2 1013 87 10000 7.72 240 17:53 17.05.2022
1441 Rain 2 1014 87 10000 7.2 240 17:28 17.05.2022
1442 Drizzle 2 1014 87 10000 7.72 240 16:36 17.05.2022
1443 Drizzle 2 1015 87 10000 7.2 240 15:43 17.05.2022
1444 Rain 2 1016 93 10000 8.23 240 14:48 17.05.2022
1445 Rain 1 1016 100 10000 8.75 240 14:23 17.05.2022
1446 Snow 1 1018 100 10000 8.23 240 12:32 17.05.2022
1447 Snow 1 1018 100 1600 8.75 240 10:23 17.05.2022
1448 Snow 1 1019 100 3000 8.23 240 08:45 17.05.2022
1449 Snow 1 1019 86 10000 8.23 240 07:41 17.05.2022
1450 Snow 1 1020 80 10000 5.14 240 04:34 17.05.2022
1451 Snow 1 1022 75 10000 3.09 0 00:47 17.05.2022
1452 Rain 2 1022 64 10000 2.57 0 22:51 16.05.2022
1453 Rain 2 1022 64 10000 1.03 0 22:30 16.05.2022
1454 Clouds 2 1022 69 10000 2.06 0 20:56 16.05.2022
1455 Rain 2 1022 69 10000 2.06 0 20:33 16.05.2022
1456 Rain 2 1022 69 10000 5.14 350 18:41 16.05.2022
1457 Clouds 2 1021 80 10000 4.63 360 16:41 16.05.2022
1458 Rain 1 1021 86 10000 3.09 0 14:48 16.05.2022
1459 Rain 2 1020 80 10000 4.12 10 13:34 16.05.2022
1460 Clouds 3 1020 70 10000 5.66 350 12:34 16.05.2022
1461 Clouds 2 1019 80 10000 5.14 360 10:34 16.05.2022
1462 Snow 2 1016 100 10000 6.69 10 07:47 16.05.2022
1463 Rain 2 1015 93 10000 5.14 350 05:44 16.05.2022
1464 Drizzle 3 1010 100 10000 1.03 220 00:44 16.05.2022
1465 Drizzle 3 1009 100 10000 5.14 210 22:42 15.05.2022
1466 Rain 3 1009 100 9000 2.57 240 21:57 15.05.2022
1467 Rain 3 1009 100 9000 2.57 240 21:36 15.05.2022
1468 Rain 4 1008 100 10000 4.63 240 20:38 15.05.2022
1469 Drizzle 4 1007 100 10000 2.57 260 18:37 15.05.2022
1470 Clouds 5 1006 93 10000 2.57 290 16:52 15.05.2022
1471 Clouds 6 1005 87 10000 1.54 0 14:26 15.05.2022
1472 Clouds 6 1005 87 10000 1.54 0 13:44 15.05.2022
1473 Rain 5 1004 93 10000 1.03 0 11:55 15.05.2022
1474 Rain 3 1005 97 2438 1.8 248 10:43 15.05.2022
1475 Clear 6 1002 70 10000 3.09 220 08:58 15.05.2022
1476 Clouds 4 1003 96 3146 2.12 270 07:22 15.05.2022
1477 Clouds 4 1003 96 3146 2.12 270 06:42 15.05.2022
1478 Clouds 3 1002 94 10000 1.5 124 02:43 15.05.2022
1479 Rain 3 1002 93 10000 2.52 116 00:22 15.05.2022
1480 Clouds 3 1002 93 10000 2.52 116 23:36 14.05.2022
1481 Clear 4 1000 75 10000 4.12 70 21:50 14.05.2022
1482 Clear 5 1000 70 10000 2.57 40 21:25 14.05.2022
1483 Clouds 3 1001 94 7744 2.71 117 20:26 14.05.2022
1484 Clouds 3 1001 93 10000 2.38 124 19:20 14.05.2022
1485 Clouds 3 1001 93 10000 2.38 124 18:57 14.05.2022
1486 Clouds 3 1001 94 10000 2.47 114 17:44 14.05.2022
1487 Clear 6 1000 70 10000 5.66 50 15:58 14.05.2022
1488 Clear 5 1000 75 10000 5.14 60 14:38 14.05.2022
1489 Clear 5 1000 70 10000 4.12 40 13:27 14.05.2022
1490 Clouds 3 1001 91 2065 2.06 112 11:45 14.05.2022
1491 Clouds 2 1001 90 2168 2.03 113 10:44 14.05.2022
1492 Clouds 2 1001 89 2947 2.01 118 10:18 14.05.2022
1493 Clouds 2 1000 88 10000 1.97 122 09:23 14.05.2022
1494 Clouds 1 1001 87 10000 2 132 07:32 14.05.2022
1495 Clouds 0 1000 86 10000 2.39 170 04:43 14.05.2022
1496 Clouds 1 998 75 10000 2.06 320 00:43 14.05.2022
1497 Clouds 1 998 80 10000 2.06 0 23:28 13.05.2022
1498 Clouds 1 998 86 10000 2.57 280 22:55 13.05.2022
1499 Clouds 1 998 86 10000 2.06 290 22:21 13.05.2022
1500 Clouds 1 997 86 10000 2.57 260 20:59 13.05.2022
1501 Clouds 1 997 86 10000 2.57 260 20:38 13.05.2022
1502 Clouds 1 997 93 10000 3.6 260 20:20 13.05.2022
1503 Clouds 1 997 86 10000 3.09 280 19:18 13.05.2022
1504 Clouds 1 997 86 10000 3.6 270 17:42 13.05.2022
1505 Clouds 1 996 86 10000 4.12 250 17:22 13.05.2022
1506 Clouds 2 996 80 10000 4.63 260 15:47 13.05.2022
1507 Clouds 2 995 87 10000 4.12 250 14:39 13.05.2022
1508 Clouds 2 994 87 10000 4.63 260 12:53 13.05.2022
1509 Snow 1 993 100 7000 4.12 260 11:56 13.05.2022
1510 Snow 1 993 93 2500 4.63 270 10:19 13.05.2022
1511 Snow 1 992 93 8000 5.14 260 09:29 13.05.2022
1512 Snow 1 991 100 8000 3.6 280 07:52 13.05.2022
1513 Snow 1 991 100 7000 2.57 260 07:18 13.05.2022
1514 Snow 0 991 100 6000 3.6 270 05:23 13.05.2022
1515 Snow 0 990 100 8000 3.09 280 01:21 13.05.2022
1516 Snow 0 990 100 9000 3.09 270 23:24 12.05.2022
1517 Snow 0 990 100 3000 3.09 270 22:34 12.05.2022
1518 Snow 1 990 100 2000 3.6 250 21:26 12.05.2022
1519 Snow 1 989 100 5000 3.6 270 19:51 12.05.2022
1520 Snow 2 989 93 10000 3.6 280 18:29 12.05.2022
1521 Snow 2 989 87 9000 3.6 270 16:48 12.05.2022
1522 Rain 3 989 87 10000 4.63 350 15:22 12.05.2022
1523 Clouds 3 988 87 10000 2.06 340 13:52 12.05.2022
1524 Clouds 2 988 100 10000 4.63 10 12:29 12.05.2022
1525 Clouds 3 988 93 10000 2.06 30 10:34 12.05.2022
1526 Snow 1 988 100 8000 1.03 0 08:56 12.05.2022
1527 Snow 1 988 100 8000 1.03 0 08:35 12.05.2022
1528 Snow 1 988 100 10000 3.09 70 07:25 12.05.2022
1529 Snow 1 988 100 3400 4.12 40 04:45 12.05.2022
1530 Rain 2 989 100 10000 4.12 40 01:37 12.05.2022
1531 Rain 2 990 100 10000 3.6 40 23:42 11.05.2022
1532 Drizzle 2 990 100 10000 6.17 50 22:22 11.05.2022
1533 Rain 2 991 100 10000 5.66 40 21:27 11.05.2022
1534 Clouds 2 991 100 10000 6.69 50 20:45 11.05.2022
1535 Rain 3 992 100 10000 8.75 50 17:43 11.05.2022
1536 Drizzle 3 993 87 10000 7.72 60 16:47 11.05.2022
1537 Drizzle 4 994 87 10000 4.63 80 14:49 11.05.2022
1538 Rain 4 995 87 10000 3.09 40 14:25 11.05.2022
1539 Rain 4 994 87 10000 4.12 50 13:37 11.05.2022
1540 Clouds 4 995 81 10000 4.63 70 11:48 11.05.2022
1541 Clouds 4 996 87 10000 3.09 50 09:39 11.05.2022
1542 Clouds 3 997 93 10000 4.63 30 07:52 11.05.2022
1543 Clouds 2 998 93 10000 3.09 30 04:43 11.05.2022
1544 Clouds 1 999 100 10000 2.57 40 23:48 10.05.2022
1545 Clouds 1 1000 100 10000 3.6 40 22:30 10.05.2022
1546 Clouds 1 1000 100 9000 4.12 50 21:45 10.05.2022
1547 Drizzle 1 1000 100 10000 4.12 50 20:48 10.05.2022
1548 Clouds 1 1000 100 10000 4.63 60 19:25 10.05.2022
1549 Clouds 1 1001 100 10000 5.14 50 17:44 10.05.2022
1550 Clouds 1 1001 100 10000 5.14 50 16:41 10.05.2022
1551 Clouds 1 1002 100 10000 6.17 50 13:59 10.05.2022
1552 Clouds 0 1002 100 8000 6.17 50 12:36 10.05.2022
1553 Clouds 0 1002 100 4000 6.17 50 11:49 10.05.2022
1554 Clouds 0 1002 100 4000 6.17 50 11:18 10.05.2022
1555 Clouds 0 1002 100 4000 6.17 50 11:18 10.05.2022
1556 Clouds 0 1003 100 7000 5.14 50 09:57 10.05.2022
1557 Clouds 0 1003 100 5000 5.14 50 09:18 10.05.2022
1558 Clouds 0 1003 100 10000 4.12 50 06:44 10.05.2022
1559 Clouds 0 1004 100 10000 2.57 50 02:59 10.05.2022
1560 Drizzle 0 1005 100 9000 2.57 30 00:24 10.05.2022
1561 Clouds 1 1005 100 10000 2.57 40 22:43 09.05.2022
1562 Clouds 1 1006 100 10000 2.57 40 21:48 09.05.2022
1563 Clouds 1 1007 100 10000 2.57 60 20:25 09.05.2022
1564 Clouds 2 1008 87 10000 1.03 0 18:43 09.05.2022
1565 Clouds 1 1008 100 10000 1.54 270 17:39 09.05.2022
1566 Clouds 1 1009 100 6000 2.06 240 16:29 09.05.2022
1567 Clouds 1 1010 100 3500 2.06 240 15:49 09.05.2022
1568 Clouds 1 1010 93 3500 2.57 270 14:47 09.05.2022
1569 Clouds 1 1011 100 1800 3.09 260 14:22 09.05.2022
1570 Clouds 1 1011 100 5000 3.6 250 13:36 09.05.2022
1571 Clouds 1 1011 100 5000 3.6 250 13:36 09.05.2022
1572 Clouds 1 1011 93 5000 6.17 240 11:57 09.05.2022
1573 Clouds 1 1011 80 7000 7.72 240 10:51 09.05.2022
1574 Clouds 1 1011 80 10000 6.17 240 10:31 09.05.2022
1575 Clouds -1 1011 100 10000 9.26 240 08:31 09.05.2022
1576 Clouds 0 1011 93 2000 8.23 240 07:49 09.05.2022
1577 Clouds 0 1011 100 10000 5.14 240 02:55 09.05.2022
1578 Clouds 1 1011 75 10000 6.17 260 23:29 08.05.2022
1579 Clouds 1 1011 75 10000 4.63 260 22:51 08.05.2022
1580 Clouds 0 1011 86 10000 8.23 240 21:48 08.05.2022
1581 Clouds 0 1011 86 10000 8.23 240 21:48 08.05.2022
1582 Clouds 0 1011 86 10000 8.23 240 21:48 08.05.2022
1583 Clouds 0 1011 86 10000 4.12 210 20:35 08.05.2022
1584 Clouds 0 1012 86 10000 6.17 230 19:43 08.05.2022
1585 Clouds 0 1012 86 10000 4.12 230 18:52 08.05.2022
1586 Clouds 1 1012 80 10000 4.12 240 17:57 08.05.2022
1587 Clouds 0 1012 86 10000 2.06 230 16:42 08.05.2022
1588 Clouds 0 1011 80 9000 3.09 250 15:26 08.05.2022
1589 Clouds 0 1011 80 9000 2.57 260 14:39 08.05.2022
1590 Clouds 0 1009 86 10000 4.12 270 12:25 08.05.2022
1591 Clouds 0 1007 86 10000 2.57 250 10:31 08.05.2022
1592 Clouds 0 1007 80 2000 3.09 250 09:56 08.05.2022
1593 Clouds 0 1007 80 2000 3.09 250 09:56 08.05.2022
1594 Clouds 0 1006 74 10000 3.09 10 08:55 08.05.2022
1595 Clouds 0 1005 80 5000 3.6 0 06:57 08.05.2022
1596 Clouds 0 1002 86 10000 2.06 0 03:35 08.05.2022
1597 Clouds 0 1001 100 2300 2.06 0 02:41 08.05.2022
1598 Clouds 1 996 100 1800 5.66 0 00:24 08.05.2022
1599 Clouds 2 993 100 5000 12.35 240 23:49 07.05.2022
1600 Clouds 1 993 100 5000 15.95 240 22:46 07.05.2022
1601 Clouds 1 993 93 10000 14.92 240 21:58 07.05.2022
1602 Clouds 1 993 93 10000 14.92 240 21:33 07.05.2022
1603 Clouds 1 993 93 10000 14.92 240 20:28 07.05.2022
1604 Clouds 2 991 87 7000 16.46 230 19:23 07.05.2022
1605 Clouds 2 988 93 4100 20.58 240 17:34 07.05.2022
1606 Clouds 3 987 81 10000 9.26 230 15:46 07.05.2022
1607 Clouds 3 987 81 10000 7.72 240 13:39 07.05.2022
1608 Clouds 5 985 75 10000 3.6 80 10:41 07.05.2022
1609 Clouds 3 987 93 10000 4.63 60 08:57 07.05.2022
1610 Clouds 2 988 100 10000 3.6 60 07:50 07.05.2022
1611 Rain 3 988 93 10000 1.03 0 06:43 07.05.2022
1612 Rain 4 990 87 9000 6.17 320 04:41 07.05.2022
1613 Rain 6 990 70 10000 1.54 290 01:19 07.05.2022
1614 Clouds 6 991 70 10000 1.03 0 23:36 06.05.2022
1615 Rain 7 993 65 10000 3.6 230 22:27 06.05.2022
1616 Rain 6 993 65 10000 2.57 230 21:41 06.05.2022
1617 Rain 6 994 65 10000 2.57 220 20:33 06.05.2022
1618 Rain 5 995 75 10000 2.57 240 19:29 06.05.2022
1619 Rain 5 995 75 10000 2.57 240 19:29 06.05.2022
1620 Drizzle 6 996 65 10000 2.57 230 18:56 06.05.2022
1621 Rain 6 997 61 10000 1.54 270 17:38 06.05.2022
1622 Rain 5 998 70 10000 4.12 240 16:23 06.05.2022
1623 Rain 5 998 70 10000 5.14 240 15:39 06.05.2022
1624 Rain 6 998 61 10000 4.12 250 14:33 06.05.2022
1625 Rain 5 998 70 10000 8.75 240 12:53 06.05.2022
1626 Rain 5 998 70 10000 8.75 240 12:33 06.05.2022
1627 Clouds 4 998 75 10000 8.23 220 11:41 06.05.2022
1628 Clouds 4 998 75 10000 6.17 240 10:26 06.05.2022
1629 Clouds 4 998 75 10000 8.75 230 09:39 06.05.2022
1630 Clouds 4 998 75 10000 7.72 240 08:27 06.05.2022
1631 Rain 3 998 81 10000 9.77 230 06:42 06.05.2022
1632 Rain 5 998 65 10000 5.66 220 04:51 06.05.2022
1633 Clouds 3 998 75 10000 4.12 230 02:43 06.05.2022
1634 Clouds 3 999 81 10000 2.06 250 23:45 05.05.2022
1635 Rain 3 999 81 10000 2.57 240 21:53 05.05.2022
1636 Clouds 3 999 81 10000 2.06 260 21:19 05.05.2022
1637 Clouds 3 1000 75 10000 2.57 250 19:49 05.05.2022
1638 Clouds 2 1003 80 10000 3.37 170 16:57 05.05.2022
1639 Clear 3 1002 60 10000 5.14 190 16:20 05.05.2022
1640 Clear 2 1003 60 10000 5.66 200 14:43 05.05.2022
1641 Clear 1 1004 55 10000 4.63 180 13:21 05.05.2022
1642 Clear 1 1005 55 10000 5.66 190 12:24 05.05.2022
1643 Clear 1 1006 51 10000 4.63 180 10:37 05.05.2022
1644 Clear 1 1007 55 10000 3.6 180 09:39 05.05.2022
1645 Clear -1 1008 74 10000 1.03 0 07:34 05.05.2022
1646 Clouds -4 1009 86 10000 1.54 250 04:28 05.05.2022
1647 Clouds -6 1010 79 10000 2.06 60 01:50 05.05.2022
1648 Clouds -4 1010 80 10000 0 0 01:22 05.05.2022
1649 Clouds -3 1010 74 10000 1.54 20 23:47 04.05.2022
1650 Clouds -4 1010 80 10000 2.06 60 22:30 04.05.2022
1651 Clouds -3 1010 74 10000 2.06 10 21:49 04.05.2022
1652 Snow -2 1010 74 10000 2.57 10 21:26 04.05.2022
1653 Clouds -2 1010 74 10000 2.57 10 20:24 04.05.2022
1654 Snow -2 1010 80 10000 2.06 20 19:53 04.05.2022
1655 Clouds -2 1010 74 10000 3.09 10 18:54 04.05.2022
1656 Snow -1 1010 64 10000 2.57 360 18:22 04.05.2022
1657 Snow 0 1009 64 10000 1.03 0 17:38 04.05.2022
1658 Clouds -2 1009 86 5000 3.09 10 15:40 04.05.2022
1659 Clouds -2 1009 86 5000 3.09 10 15:22 04.05.2022
1660 Snow -2 1008 74 10000 4.12 10 14:21 04.05.2022
1661 Snow -2 1008 86 5000 4.12 20 13:33 04.05.2022
1662 Snow -1 1007 69 9000 5.14 360 12:33 04.05.2022
1663 Clouds -2 1006 86 5000 5.14 360 10:41 04.05.2022
1664 Snow -2 1006 93 750 4.63 20 09:43 04.05.2022
1665 Snow -2 1005 93 10000 5.14 340 08:46 04.05.2022
1666 Clouds -2 1005 86 10000 4.63 260 06:41 04.05.2022
1667 Snow -2 1005 74 10000 5.14 260 02:58 04.05.2022
1668 Snow -2 1005 64 10000 3.09 350 00:33 04.05.2022
1669 Clouds -2 1005 69 10000 5.14 360 22:34 03.05.2022
1670 Clouds -2 1004 69 10000 6.17 360 21:46 03.05.2022
1671 Clouds -3 1004 86 350 5.66 0 20:54 03.05.2022
1672 Snow -2 1004 80 3000 4.63 320 19:57 03.05.2022
1673 Snow -2 1004 74 10000 4.12 330 18:54 03.05.2022
1674 Snow -1 1004 80 10000 2.06 0 18:20 03.05.2022
1675 Snow -3 1005 86 1100 5.66 240 16:44 03.05.2022
1676 Snow -2 1005 69 7000 4.63 280 15:38 03.05.2022
1677 Clouds -2 1005 59 10000 6.17 350 12:47 03.05.2022
1678 Clouds -2 1005 59 10000 6.69 340 12:27 03.05.2022
1679 Clouds -3 1003 86 10000 7.2 340 10:57 03.05.2022
1680 Snow -2 1003 80 10000 1.54 0 09:35 03.05.2022
1681 Snow -2 1002 64 10000 4.63 350 07:33 03.05.2022
1682 Clouds -2 1002 59 10000 5.14 10 06:45 03.05.2022
1683 Snow -3 1002 74 10000 5.66 20 01:47 03.05.2022
1684 Clouds -3 1001 74 10000 5.14 20 22:39 02.05.2022
1685 Clouds -3 1001 68 10000 8.23 30 21:54 02.05.2022
1686 Snow -3 1000 74 10000 10.29 30 20:51 02.05.2022
1687 Snow -3 999 93 2500 12.35 50 18:44 02.05.2022
1688 Snow -2 998 86 3000 12.35 50 18:25 02.05.2022
1689 Snow -2 998 86 6000 11.83 60 17:37 02.05.2022
1690 Snow -2 997 86 5000 11.83 70 16:23 02.05.2022
1691 Snow -2 996 86 5000 11.32 50 15:31 02.05.2022
1692 Snow -1 995 74 10000 11.32 70 13:53 02.05.2022
1693 Clouds -2 995 86 10000 13.38 60 12:27 02.05.2022
1694 Clouds -2 994 86 3500 13.38 60 10:52 02.05.2022
1695 Snow -3 995 93 3500 12.86 60 09:30 02.05.2022
1696 Snow -3 995 93 10000 10.29 70 07:52 02.05.2022
1697 Clouds -2 997 80 10000 7.2 60 04:44 02.05.2022
1698 Clouds -2 1002 80 10000 4.63 100 00:25 02.05.2022
1699 Clouds -2 1002 80 10000 6.17 110 23:52 01.05.2022
1700 Clouds -2 1004 80 10000 4.12 80 22:40 01.05.2022
1701 Clouds -2 1005 86 10000 5.14 60 21:26 01.05.2022
1702 Clouds -2 1006 86 10000 5.66 60 20:19 01.05.2022
1703 Clouds -1 1007 80 10000 3.6 50 19:18 01.05.2022
1704 Clouds -1 1007 80 10000 3.6 60 18:46 01.05.2022
1705 Clouds -2 1008 86 10000 4.63 50 17:46 01.05.2022
1706 Clouds -1 1009 80 10000 3.09 60 16:24 01.05.2022
1707 Snow -1 1009 74 10000 2.06 50 15:43 01.05.2022
1708 Snow 1 1010 69 10000 1.54 0 14:22 01.05.2022
1709 Snow 0 1011 74 10000 1.54 0 11:41 01.05.2022
1710 Clouds 1 1012 80 10000 0 0 09:32 01.05.2022
1711 Snow -1 1012 86 9000 0 0 08:47 01.05.2022
1712 Snow -1 1012 64 10000 1.54 0 04:31 01.05.2022
1713 Snow -1 1013 69 10000 6.17 280 00:43 01.05.2022
1714 Snow -2 1013 86 10000 2.57 260 21:52 30.04.2022
1715 Clouds -2 1013 86 10000 2.57 260 21:30 30.04.2022
1716 Clouds -1 1014 69 10000 4.12 260 19:47 30.04.2022
1717 Clouds -2 1014 86 10000 0 0 18:50 30.04.2022
1718 Clouds -2 1014 86 10000 1.54 0 17:20 30.04.2022
1719 Snow -2 1014 86 10000 4.63 260 15:50 30.04.2022
1720 Snow -1 1014 80 10000 5.66 240 14:54 30.04.2022
1721 Snow 0 1014 69 10000 2.57 0 13:30 30.04.2022
1722 Snow -1 1014 69 10000 2.57 350 11:34 30.04.2022
1723 Clouds -1 1013 69 10000 1.54 0 10:55 30.04.2022
1724 Clouds -2 1013 74 10000 4.12 10 09:51 30.04.2022
1725 Snow -3 1012 93 1000 5.66 350 07:35 30.04.2022
1726 Clouds -2 1011 80 10000 4.63 270 03:45 30.04.2022
1727 Snow -2 1012 80 10000 0 0 23:54 29.04.2022
1728 Snow -2 1012 74 10000 3.6 280 22:35 29.04.2022
1729 Clouds -2 1012 74 10000 2.57 0 21:54 29.04.2022
1730 Clouds -2 1012 74 10000 1.03 0 21:19 29.04.2022
1731 Snow -3 1012 93 10000 5.66 350 19:48 29.04.2022
1732 Snow -1 1012 69 10000 4.63 0 18:47 29.04.2022
1733 Snow -1 1012 74 10000 3.6 270 17:26 29.04.2022
1734 Snow -1 1012 74 10000 2.57 0 15:58 29.04.2022
1735 Snow -1 1012 69 10000 6.17 270 14:34 29.04.2022
1736 Snow -1 1012 74 10000 4.63 270 13:27 29.04.2022
1737 Snow -2 1012 86 5000 6.69 250 12:26 29.04.2022
1738 Snow -2 1011 86 8000 6.17 270 09:48 29.04.2022
1739 Snow -3 1011 86 10000 2.57 0 07:42 29.04.2022
1740 Snow -2 1011 80 2200 3.09 0 07:23 29.04.2022
1741 Snow -2 1011 80 10000 3.6 270 05:55 29.04.2022
1742 Snow -5 1012 86 10000 1.54 270 00:51 29.04.2022
1743 Clouds -4 1012 86 10000 1.03 0 23:49 28.04.2022
1744 Snow -4 1013 93 600 3.09 300 22:45 28.04.2022
1745 Snow -4 1012 86 10000 4.12 240 21:55 28.04.2022
1746 Snow -4 1013 86 10000 2.06 270 21:29 28.04.2022
1747 Snow -5 1013 93 3000 1.54 0 20:37 28.04.2022
1748 Snow -4 1012 74 2000 2.57 0 19:46 28.04.2022
1749 Snow -5 1012 86 10000 2.57 0 19:23 28.04.2022
1750 Snow -5 1012 80 4000 4.12 350 18:37 28.04.2022
1751 Snow -4 1012 80 4500 5.66 10 17:32 28.04.2022
1752 Snow -5 1012 93 1500 5.14 360 16:49 28.04.2022
1753 Snow -5 1011 93 500 5.66 10 16:19 28.04.2022
1754 Snow -4 1011 80 700 5.14 10 15:41 28.04.2022
1755 Snow -3 1010 68 4000 7.72 340 14:38 28.04.2022
1756 Clouds -4 1009 80 1500 7.2 340 13:20 28.04.2022
1757 Clouds -4 1009 80 1500 5.14 0 12:28 28.04.2022
1758 Snow -4 1008 80 2500 2.57 0 10:47 28.04.2022
1759 Snow -4 1008 80 10000 1.54 0 10:26 28.04.2022
1760 Snow -3 1007 68 1500 6.69 280 09:41 28.04.2022
1761 Clouds -3 1007 68 10000 3.6 270 07:38 28.04.2022
1762 Snow -5 1007 93 10000 4.12 250 06:37 28.04.2022
1763 Snow -5 1008 86 10000 5.14 240 05:39 28.04.2022
1764 Snow -5 1008 74 10000 3.6 240 04:41 28.04.2022
1765 Snow -4 1008 58 10000 4.12 350 00:36 28.04.2022
1766 Snow -5 1008 80 10000 5.66 360 22:52 27.04.2022
1767 Snow -3 1007 59 10000 3.09 0 21:58 27.04.2022
1768 Snow -4 1007 74 10000 4.63 0 21:29 27.04.2022
1769 Clouds -4 1007 86 10000 6.69 270 20:44 27.04.2022
1770 Snow -4 1007 86 400 5.14 0 19:39 27.04.2022
1771 Snow -4 1007 86 400 5.14 0 19:39 27.04.2022
1772 Snow -4 1007 93 2000 7.2 0 19:19 27.04.2022
1773 Snow -3 1006 74 1000 5.14 0 18:35 27.04.2022
1774 Snow -4 1006 100 500 9.77 240 17:26 27.04.2022
1775 Snow -2 1008 59 10000 7.72 240 15:43 27.04.2022
1776 Snow -4 1009 93 5000 8.75 250 12:34 27.04.2022
1777 Snow -5 1010 86 6000 7.2 210 11:23 27.04.2022
1778 Snow -6 1011 68 10000 5.14 200 10:22 27.04.2022
1779 Clouds -5 1013 58 10000 1.03 0 07:29 27.04.2022
1780 Clouds -6 1014 68 10000 3.09 20 06:30 27.04.2022
1781 Clouds -7 1014 63 7000 5.66 360 02:21 27.04.2022
1782 Snow -7 1014 73 7000 5.14 0 00:57 27.04.2022
1783 Snow -8 1014 86 8000 2.06 0 23:58 26.04.2022
1784 Clouds -8 1014 73 10000 3.09 0 23:23 26.04.2022
1785 Snow -8 1014 67 6000 3.6 0 22:42 26.04.2022
1786 Clouds -7 1014 73 10000 1.03 0 21:57 26.04.2022
1787 Snow -7 1014 68 10000 4.63 280 20:56 26.04.2022
1788 Snow -7 1014 63 10000 2.57 0 20:35 26.04.2022
1789 Snow -8 1013 79 10000 3.6 0 19:34 26.04.2022
1790 Snow -6 1013 53 10000 4.12 0 18:53 26.04.2022
1791 Clouds -6 1013 53 10000 5.66 340 18:19 26.04.2022
1792 Clouds -6 1013 58 10000 1.54 0 17:33 26.04.2022
1793 Clouds -6 1012 49 10000 9.77 340 14:46 26.04.2022
1794 Clouds -6 1011 63 10000 7.2 360 13:34 26.04.2022
1795 Clouds -6 1011 68 10000 8.23 360 12:34 26.04.2022
1796 Snow -6 1010 79 4500 6.69 20 10:46 26.04.2022
1797 Snow -7 1009 86 2500 5.14 10 09:50 26.04.2022
1798 Snow -6 1009 86 6000 5.14 20 08:28 26.04.2022
1799 Clouds -5 1010 58 10000 5.66 20 04:37 26.04.2022
1800 Clouds -5 1010 58 10000 7.72 20 02:40 26.04.2022
1801 Snow -4 1010 68 10000 10.29 30 00:28 26.04.2022
1802 Snow -4 1010 74 9000 10.29 30 23:43 25.04.2022
1803 Snow -3 1008 93 9000 7.2 360 21:44 25.04.2022
1804 Snow -3 1008 93 9000 7.2 360 21:44 25.04.2022
1805 Snow -1 1008 80 10000 4.63 350 20:46 25.04.2022
1806 Snow -2 1008 93 10000 4.12 270 19:39 25.04.2022
1807 Snow -2 1008 100 10000 7.2 240 18:25 25.04.2022
1808 Snow -1 1008 80 8000 2.57 300 17:32 25.04.2022
1809 Snow 1 1008 64 10000 2.57 300 15:51 25.04.2022
1810 Snow 1 1008 64 10000 4.63 330 15:18 25.04.2022
1811 Snow 1 1009 75 10000 4.63 330 13:59 25.04.2022
1812 Clouds 1 1009 80 10000 3.09 360 12:22 25.04.2022
1813 Clouds 0 1009 80 10000 2.57 290 10:29 25.04.2022
1814 Clouds 0 1009 86 10000 1.03 0 09:23 25.04.2022
1815 Clouds 0 1010 93 6000 2.57 30 07:19 25.04.2022
1816 Snow -1 1010 100 3500 5.14 50 05:53 25.04.2022
1817 Clouds 0 1012 100 9000 2.57 60 01:24 25.04.2022
1818 Clouds 1 1013 93 10000 1.54 60 23:54 24.04.2022
1819 Clouds 1 1013 86 10000 2.06 30 22:53 24.04.2022
1820 Clouds 1 1013 86 10000 1.03 0 22:32 24.04.2022
1821 Clouds 2 1014 75 10000 1.03 0 21:54 24.04.2022
1822 Clouds 2 1014 80 10000 1.54 0 21:20 24.04.2022
1823 Clouds 2 1014 87 10000 4.63 30 20:39 24.04.2022
1824 Clouds 1 1014 100 10000 5.66 10 19:51 24.04.2022
1825 Clouds 2 1014 93 10000 2.06 260 18:33 24.04.2022
1826 Rain 3 1015 87 10000 5.14 270 17:40 24.04.2022
1827 Clouds 3 1015 87 10000 5.66 270 17:20 24.04.2022
1828 Rain 3 1015 87 10000 5.66 260 16:49 24.04.2022
1829 Clouds 3 1015 87 10000 5.66 260 16:20 24.04.2022
1830 Clouds 3 1015 87 10000 6.17 270 15:32 24.04.2022
1831 Clouds 3 1015 93 10000 5.14 280 14:30 24.04.2022
1832 Clouds 3 1015 93 10000 4.63 280 13:26 24.04.2022
1833 Clouds 3 1015 93 10000 4.12 270 12:38 24.04.2022
1834 Rain 3 1015 93 10000 6.17 290 11:39 24.04.2022
1835 Rain 3 1015 100 10000 8.23 230 10:32 24.04.2022
1836 Clouds 3 1015 100 10000 8.23 240 09:39 24.04.2022
1837 Clouds 3 1016 100 10000 5.66 240 07:39 24.04.2022
1838 Clouds 3 1018 93 10000 5.14 250 04:56 24.04.2022
1839 Drizzle 3 1019 100 10000 7.72 230 01:50 24.04.2022
1840 Drizzle 3 1020 100 10000 6.17 250 00:33 24.04.2022
1841 Drizzle 3 1020 100 5000 7.72 260 23:45 23.04.2022
1842 Clouds 3 1020 100 7000 7.2 250 23:22 23.04.2022
1843 Clouds 3 1021 100 6000 8.75 240 21:55 23.04.2022
1844 Clouds 3 1021 100 6000 8.75 240 21:35 23.04.2022
1845 Clouds 3 1021 100 4600 7.72 240 20:57 23.04.2022
1846 Rain 3 1021 100 8000 8.23 240 19:49 23.04.2022
1847 Mist 3 1022 100 6000 8.75 240 19:19 23.04.2022
1848 Clouds 3 1022 100 9000 10.29 240 18:53 23.04.2022
1849 Drizzle 3 1022 100 9000 9.77 230 18:24 23.04.2022
1850 Drizzle 3 1022 100 9000 10.29 240 17:43 23.04.2022
1851 Clouds 3 1023 100 10000 8.23 240 16:43 23.04.2022
1852 Clouds 3 1023 87 10000 8.75 230 15:32 23.04.2022
1853 Clouds 3 1024 81 10000 8.23 240 12:50 23.04.2022
1854 Clouds 2 1025 80 10000 10.29 240 10:50 23.04.2022
1855 Clouds 2 1025 80 10000 9.26 240 09:38 23.04.2022
1856 Clouds 2 1026 80 10000 7.72 240 07:21 23.04.2022
1857 Clouds 2 1026 75 10000 3.6 250 03:54 23.04.2022
1858 Clouds 2 1027 69 10000 3.09 270 01:32 23.04.2022
1859 Clouds 1 1027 80 10000 5.14 270 23:32 22.04.2022
1860 Clouds 2 1027 75 10000 3.6 270 22:22 22.04.2022
1861 Clouds 2 1027 75 10000 4.63 280 21:44 22.04.2022
1862 Clouds 2 1027 75 10000 3.09 270 20:54 22.04.2022
1863 Clouds 2 1027 75 10000 4.12 270 20:27 22.04.2022
1864 Clouds 2 1027 80 10000 4.12 270 19:21 22.04.2022
1865 Clouds 2 1027 75 10000 3.09 0 18:45 22.04.2022
1866 Clouds 3 1026 75 10000 1.03 0 17:50 22.04.2022
1867 Clouds 3 1026 87 10000 5.66 0 16:46 22.04.2022
1868 Clouds 3 1026 93 10000 3.6 260 15:45 22.04.2022
1869 Clouds 3 1026 87 10000 1.03 0 15:18 22.04.2022
1870 Clouds 3 1025 93 10000 3.6 270 13:54 22.04.2022
1871 Clouds 3 1025 100 10000 5.14 270 12:59 22.04.2022
1872 Rain 4 1025 93 10000 4.12 270 12:28 22.04.2022
1873 Clouds 3 1025 100 10000 3.6 280 11:22 22.04.2022
1874 Rain 3 1025 93 10000 3.09 270 10:51 22.04.2022
1875 Clouds 3 1025 93 10000 2.57 270 10:31 22.04.2022
1876 Clouds 3 1025 93 10000 2.57 0 09:53 22.04.2022
1877 Rain 3 1025 93 10000 2.57 0 08:51 22.04.2022
1878 Rain 3 1024 100 10000 2.57 0 07:33 22.04.2022
1879 Clouds 4 1024 81 10000 8.23 270 04:24 22.04.2022
1880 Clouds 4 1023 93 10000 5.14 280 00:52 22.04.2022
1881 Clouds 4 1023 93 10000 6.17 270 23:26 21.04.2022
1882 Rain 3 1024 100 8000 5.66 270 22:29 21.04.2022
1883 Rain 4 1023 87 10000 7.2 230 20:46 21.04.2022
1884 Rain 4 1024 93 10000 4.63 240 20:26 21.04.2022
1885 Rain 3 1024 100 10000 5.66 230 18:47 21.04.2022
1886 Rain 3 1024 100 10000 5.66 230 18:19 21.04.2022
1887 Drizzle 4 1024 87 10000 8.75 240 16:47 21.04.2022
1888 Drizzle 4 1025 87 10000 4.63 240 15:22 21.04.2022
1889 Rain 4 1025 87 10000 4.12 240 14:50 21.04.2022
1890 Rain 4 1025 87 10000 5.14 250 13:44 21.04.2022
1891 Rain 4 1025 87 10000 5.66 260 13:18 21.04.2022
1892 Clouds 5 1025 81 10000 4.12 240 11:19 21.04.2022
1893 Clouds 4 1025 93 10000 3.09 240 08:57 21.04.2022
1894 Clouds 5 1025 87 10000 6.17 230 07:49 21.04.2022
1895 Rain 4 1025 87 10000 1.03 260 05:44 21.04.2022
1896 Clear 2 1025 93 10000 0 0 03:33 21.04.2022
1897 Clouds 3 1025 93 10000 0 0 02:48 21.04.2022
1898 Clouds 3 1025 93 10000 0 0 02:48 21.04.2022
1899 Clear 3 1025 100 10000 0 0 01:41 21.04.2022
1900 Clear 3 1025 93 10000 1.03 50 23:51 20.04.2022
1901 Clear 3 1025 81 10000 0 0 23:23 20.04.2022
1902 Clear 3 1025 87 10000 0 0 22:51 20.04.2022
1903 Clear 3 1025 87 10000 0 0 22:32 20.04.2022
1904 Clear 4 1025 81 10000 0 0 21:33 20.04.2022
1905 Clear 5 1025 70 10000 0 0 20:42 20.04.2022
1906 Clear 6 1024 70 10000 1.54 40 19:53 20.04.2022
1907 Clear 8 1024 66 10000 1.54 0 19:25 20.04.2022
1908 Clear 9 1024 61 10000 1.03 0 18:26 20.04.2022
1909 Clear 9 1024 66 10000 1.03 0 16:57 20.04.2022
1910 Clear 9 1024 66 10000 1.03 0 16:38 20.04.2022
1911 Clear 8 1023 66 10000 2.57 240 14:26 20.04.2022
1912 Clear 7 1023 70 10000 3.09 250 11:56 20.04.2022
1913 Clear 7 1023 70 10000 2.57 240 11:29 20.04.2022
1914 Clear 6 1023 75 10000 2.57 250 10:27 20.04.2022
1915 Clear 7 1022 70 10000 0 0 09:26 20.04.2022
1916 Clear 6 1022 70 10000 1.54 0 08:24 20.04.2022
1917 Clear 6 1022 70 10000 2.57 250 07:42 20.04.2022
1918 Clear 5 1022 75 10000 2.57 260 04:37 20.04.2022
1919 Clear 7 1022 65 10000 2.06 0 00:55 20.04.2022
1920 Clear 7 1022 65 10000 3.09 230 00:20 20.04.2022
1921 Clear 5 1022 75 10000 1.03 0 22:40 19.04.2022
1922 Clear 5 1022 75 10000 1.54 0 22:19 19.04.2022
1923 Clear 5 1022 75 10000 2.06 360 21:38 19.04.2022
1924 Clear 4 1022 93 10000 3.09 20 20:56 19.04.2022
1925 Clear 4 1022 93 10000 3.09 20 20:34 19.04.2022
1926 Fog 3 1023 100 10000 4.63 70 19:24 19.04.2022
1927 Fog 3 1023 100 500 4.12 60 18:18 19.04.2022
1928 Fog 4 1023 100 10000 2.57 60 16:46 19.04.2022
1929 Fog 3 1023 100 10000 2.57 50 16:24 19.04.2022
1930 Clouds 4 1024 100 10000 1.03 60 15:20 19.04.2022
1931 Clouds 4 1023 100 10000 0.51 0 14:32 19.04.2022
1932 Clouds 4 1023 100 10000 1.54 220 12:52 19.04.2022
1933 Clouds 4 1023 100 10000 2.57 200 12:26 19.04.2022
1934 Clouds 3 1023 100 10000 1.54 260 11:23 19.04.2022
1935 Clouds 3 1022 100 5000 3.09 280 09:27 19.04.2022
1936 Clouds 4 1021 100 10000 5.14 240 07:26 19.04.2022
1937 Drizzle 3 1019 100 3500 3.09 280 04:23 19.04.2022
1938 Drizzle 3 1018 100 5000 4.63 280 01:18 19.04.2022
1939 Drizzle 4 1018 100 7000 6.69 280 23:40 18.04.2022
1940 Drizzle 5 1016 100 9000 7.2 250 21:56 18.04.2022
1941 Clouds 5 1016 100 10000 7.2 240 21:24 18.04.2022
1942 Clouds 5 1016 100 10000 7.72 250 20:38 18.04.2022
1943 Clouds 6 1015 87 10000 6.69 240 19:59 18.04.2022
1944 Clouds 6 1015 87 10000 8.23 230 19:30 18.04.2022
1945 Clouds 6 1015 87 10000 5.14 200 18:37 18.04.2022
1946 Clouds 6 1015 87 10000 6.17 240 17:39 18.04.2022
1947 Clouds 6 1015 93 10000 6.69 250 17:19 18.04.2022
1948 Drizzle 5 1015 93 10000 6.17 250 16:38 18.04.2022
1949 Drizzle 6 1015 87 10000 6.69 250 15:30 18.04.2022
1950 Clouds 6 1015 87 10000 6.69 240 13:55 18.04.2022
1951 Clouds 5 1015 87 10000 5.66 230 12:54 18.04.2022
1952 Clouds 6 1015 87 10000 4.63 250 12:23 18.04.2022
1953 Rain 5 1014 87 10000 1.03 0 10:46 18.04.2022
1954 Rain 5 1014 93 10000 4.12 210 09:31 18.04.2022
1955 Rain 4 1014 93 10000 3.09 230 08:39 18.04.2022
1956 Rain 4 1015 93 10000 2.57 250 06:44 18.04.2022
1957 Clouds 5 1017 87 10000 4.12 250 02:27 18.04.2022
1958 Clouds 6 1018 81 10000 5.14 250 23:21 17.04.2022
1959 Clouds 6 1018 81 10000 5.14 240 22:36 17.04.2022
1960 Clouds 6 1019 81 10000 4.63 250 21:34 17.04.2022
1961 Clouds 5 1019 93 10000 2.57 210 20:51 17.04.2022
1962 Clouds 6 1019 87 10000 3.09 240 20:19 17.04.2022
1963 Clouds 5 1019 93 10000 8.75 230 18:45 17.04.2022
1964 Clouds 5 1020 100 10000 7.2 230 17:26 17.04.2022
1965 Clouds 5 1020 100 10000 9.77 240 15:34 17.04.2022
1966 Drizzle 5 1020 100 10000 6.69 230 14:45 17.04.2022
1967 Drizzle 5 1020 100 10000 3.6 250 13:29 17.04.2022
1968 Rain 4 1020 100 10000 5.14 250 12:45 17.04.2022
1969 Clouds 3 1020 100 5000 5.14 230 10:58 17.04.2022
1970 Clouds 3 1020 100 4100 5.66 230 10:29 17.04.2022
1971 Fog 3 1020 100 450 5.14 230 09:51 17.04.2022
1972 Mist 4 1020 100 10000 4.12 260 09:20 17.04.2022
1973 Clouds 4 1020 93 10000 5.14 270 08:41 17.04.2022
1974 Drizzle 4 1019 100 10000 4.63 250 06:29 17.04.2022
1975 Clouds 3 1018 100 9000 8.75 290 02:26 17.04.2022
1976 Clouds 4 1018 93 10000 9.26 280 00:41 17.04.2022
1977 Clouds 4 1017 93 10000 8.75 260 23:30 16.04.2022
1978 Drizzle 4 1017 93 10000 10.29 260 21:49 16.04.2022
1979 Clouds 4 1016 93 10000 9.26 250 20:54 16.04.2022
1980 Clouds 4 1016 93 10000 10.29 240 19:28 16.04.2022
1981 Clouds 4 1016 93 10000 10.29 240 18:43 16.04.2022
1982 Clouds 4 1016 100 6000 10.29 240 17:21 16.04.2022
1983 Clouds 5 1016 93 10000 14.92 240 16:19 16.04.2022
1984 Rain 3 1016 87 10000 8.23 240 14:58 16.04.2022
1985 Clouds 3 1016 87 10000 8.23 240 14:40 16.04.2022
1986 Clouds 4 1017 70 10000 7.2 220 13:50 16.04.2022
1987 Clouds 3 1017 70 10000 6.69 220 13:18 16.04.2022
1988 Clouds 3 1017 70 10000 6.69 220 13:18 16.04.2022
1989 Clouds 3 1018 65 10000 4.12 230 11:50 16.04.2022
1990 Clouds 2 1019 64 10000 5.14 220 10:35 16.04.2022
1991 Clouds 2 1019 69 10000 3.6 230 09:37 16.04.2022
1992 Clouds 2 1020 75 10000 4.63 220 08:52 16.04.2022
1993 Clouds 1 1021 75 10000 2.57 220 07:23 16.04.2022
1994 Snow 0 1022 86 10000 0.51 0 05:45 16.04.2022
1995 Clouds 2 1025 80 10000 4.12 240 01:49 16.04.2022
1996 Clouds 3 1026 75 10000 6.17 240 23:52 15.04.2022
1997 Clouds 3 1026 81 10000 6.69 240 22:51 15.04.2022
1998 Clouds 3 1026 81 10000 6.69 240 22:31 15.04.2022
1999 Clouds 3 1027 75 10000 8.23 240 21:34 15.04.2022
2000 Clouds 3 1027 75 10000 8.23 240 20:44 15.04.2022
2001 Rain 3 1027 75 10000 8.75 240 19:49 15.04.2022
2002 Rain 3 1027 75 10000 8.23 240 19:30 15.04.2022
2003 Clouds 3 1027 75 10000 9.26 240 18:45 15.04.2022
2004 Rain 3 1027 70 10000 10.29 240 18:23 15.04.2022
2005 Clouds 3 1027 75 10000 9.26 240 17:28 15.04.2022
2006 Clouds 3 1027 75 10000 8.75 240 16:25 15.04.2022
2007 Clouds 3 1027 75 10000 8.75 240 16:25 15.04.2022
2008 Clouds 3 1027 81 10000 7.2 240 15:52 15.04.2022
2009 Clouds 2 1027 93 10000 5.66 240 14:20 15.04.2022
2010 Rain 2 1026 87 10000 4.12 270 12:53 15.04.2022
2011 Clouds 2 1026 87 10000 4.12 280 12:28 15.04.2022
2012 Snow 1 1026 93 2300 3.09 0 11:54 15.04.2022
2013 Rain 2 1026 87 10000 4.63 280 10:48 15.04.2022
2014 Clouds 2 1025 87 10000 4.12 280 10:21 15.04.2022
2015 Snow 0 1025 100 7000 6.17 240 09:23 15.04.2022
2016 Snow 0 1025 100 10000 5.14 240 08:57 15.04.2022
2017 Snow 1 1024 86 10000 2.06 230 06:52 15.04.2022
2018 Clouds 0 1024 100 10000 3.09 260 05:56 15.04.2022
2019 Snow -1 1023 80 5000 1.03 0 01:28 15.04.2022
2020 Snow -1 1023 74 10000 2.57 340 23:29 14.04.2022
2021 Snow 0 1023 69 10000 2.06 340 22:46 14.04.2022
2022 Snow 0 1022 69 10000 2.57 350 22:27 14.04.2022
2023 Clouds 1 1022 69 10000 2.06 0 21:53 14.04.2022
2024 Clouds 1 1022 75 10000 4.63 270 19:57 14.04.2022
2025 Clouds 1 1022 75 10000 4.63 280 19:22 14.04.2022
2026 Rain 0 1021 86 10000 0.51 0 17:56 14.04.2022
2027 Rain 1 1021 75 7000 4.63 280 17:27 14.04.2022
2028 Clouds 2 1021 60 10000 5.66 280 16:32 14.04.2022
2029 Clouds 3 1019 65 10000 4.63 270 14:20 14.04.2022
2030 Clouds 2 1019 75 10000 1.54 0 13:26 14.04.2022
2031 Clouds 2 1019 80 10000 4.12 270 12:38 14.04.2022
2032 Clouds 2 1018 93 10000 3.09 260 12:20 14.04.2022
2033 Clouds 1 1018 100 4000 6.17 240 11:21 14.04.2022
2034 Clouds 1 1018 93 10000 6.17 230 10:36 14.04.2022
2035 Clouds 1 1017 86 10000 5.14 220 09:54 14.04.2022
2036 Clouds 1 1017 80 10000 3.09 220 08:39 14.04.2022
2037 Snow -1 1017 74 10000 1.03 0 06:26 14.04.2022
2038 Clouds -2 1016 74 10000 0 0 01:50 14.04.2022
2039 Clear -1 1016 74 10000 1.54 0 22:52 13.04.2022
2040 Clear 0 1017 69 10000 2.06 240 21:44 13.04.2022
2041 Clear -1 1017 69 10000 0.51 0 20:53 13.04.2022
2042 Clear 1 1017 64 10000 1.03 220 20:22 13.04.2022
2043 Clear 1 1017 69 10000 1.54 260 19:23 13.04.2022
2044 Clouds 2 1017 64 10000 3.09 190 17:55 13.04.2022
2045 Clouds 2 1017 60 10000 3.6 220 17:23 13.04.2022
2046 Clouds 2 1017 60 10000 2.57 220 16:33 13.04.2022
2047 Clouds 4 1018 52 10000 2.06 0 15:35 13.04.2022
2048 Clouds 3 1018 52 10000 3.6 170 14:50 13.04.2022
2049 Clouds 3 1018 56 10000 2.57 190 14:18 13.04.2022
2050 Clouds 3 1018 60 10000 2.06 160 13:19 13.04.2022
2051 Clouds 2 1019 64 10000 2.57 190 12:25 13.04.2022
2052 Clouds 0 1019 64 10000 1.54 60 10:47 13.04.2022
2053 Clouds -1 1019 74 10000 1.54 60 08:58 13.04.2022
2054 Clouds -1 1019 74 10000 1.54 60 08:33 13.04.2022
2055 Clouds -1 1019 80 10000 1.54 0 06:51 13.04.2022
2056 Clouds -1 1019 80 10000 1.03 0 06:25 13.04.2022
2057 Clouds -1 1019 74 10000 2.57 230 05:20 13.04.2022
2058 Snow -2 1018 80 10000 2.06 250 00:21 13.04.2022
2059 Snow -2 1018 80 10000 3.09 270 23:29 12.04.2022
2060 Snow -2 1017 74 10000 4.63 270 21:58 12.04.2022
2061 Snow -2 1017 74 10000 4.63 270 21:18 12.04.2022
2062 Snow -2 1017 74 10000 4.63 280 20:41 12.04.2022
2063 Snow -2 1016 80 10000 4.12 280 19:48 12.04.2022
2064 Snow -2 1016 74 10000 5.66 290 19:30 12.04.2022
2065 Snow -1 1015 69 10000 5.14 270 18:26 12.04.2022
2066 Snow -1 1014 74 10000 4.63 280 17:23 12.04.2022
2067 Clouds -1 1014 74 10000 4.63 280 16:22 12.04.2022
2068 Clouds -1 1013 74 10000 5.14 280 15:29 12.04.2022
2069 Snow 0 1012 64 10000 2.06 0 14:26 12.04.2022
2070 Clouds 0 1012 64 10000 0 0 13:36 12.04.2022
2071 Clouds 0 1011 69 10000 1.03 0 12:52 12.04.2022
2072 Snow -1 1010 74 10000 4.63 350 11:46 12.04.2022
2073 Clouds -1 1010 74 10000 4.12 350 10:47 12.04.2022
2074 Clouds -1 1008 93 10000 4.12 360 09:21 12.04.2022
2075 Snow -1 1007 86 7000 6.69 360 07:56 12.04.2022
2076 Snow -1 1006 100 7000 9.26 40 06:24 12.04.2022
2077 Snow -1 1005 100 6000 8.23 30 05:31 12.04.2022
2078 Snow 0 1000 100 2700 11.32 360 23:59 11.04.2022
2079 Snow 1 999 100 3900 8.75 360 22:44 11.04.2022
2080 Snow 1 998 100 5000 9.26 360 21:41 11.04.2022
2081 Snow 1 998 100 6000 8.75 10 20:57 11.04.2022
2082 Snow 1 998 100 4000 9.26 10 20:29 11.04.2022
2083 Snow 1 997 100 5000 9.77 10 19:54 11.04.2022
2084 Snow 1 997 100 3500 10.29 20 19:18 11.04.2022
2085 Snow 1 997 100 6000 7.72 350 18:47 11.04.2022
2086 Snow 1 996 93 2000 7.72 360 17:56 11.04.2022
2087 Snow 1 996 93 6000 8.23 350 16:54 11.04.2022
2088 Snow 0 995 100 5000 6.69 10 15:56 11.04.2022
2089 Snow 0 995 100 2500 6.17 20 14:24 11.04.2022
2090 Snow 0 995 100 2200 7.72 30 12:52 11.04.2022
2091 Snow 0 995 100 2000 8.23 40 12:31 11.04.2022
2092 Snow 1 994 93 2500 8.75 30 11:31 11.04.2022
2093 Snow 1 994 100 4900 7.72 30 10:24 11.04.2022
2094 Clouds 1 994 93 1600 8.23 40 08:56 11.04.2022
2095 Clouds 2 995 87 10000 9.26 40 06:24 11.04.2022
2096 Clouds 2 996 87 10000 5.14 30 01:53 11.04.2022
2097 Clear 1 998 86 10000 5.66 40 22:34 10.04.2022
2098 Clouds 2 998 75 10000 6.17 80 21:55 10.04.2022
2099 Clouds 2 998 75 10000 6.17 90 21:28 10.04.2022
2100 Clouds 2 997 75 10000 9.26 70 20:30 10.04.2022
2101 Clouds 2 997 75 10000 6.69 70 19:43 10.04.2022
2102 Clouds 2 997 75 10000 7.72 70 19:18 10.04.2022
2103 Clouds 2 997 75 10000 6.69 50 18:41 10.04.2022
2104 Clouds 2 997 75 10000 8.23 80 17:52 10.04.2022
2105 Clouds 2 997 75 10000 4.12 60 17:33 10.04.2022
2106 Clouds 3 997 65 10000 5.14 100 16:21 10.04.2022
2107 Clouds 2 996 75 10000 7.2 110 14:59 10.04.2022
2108 Clouds 3 996 70 10000 6.69 110 13:58 10.04.2022
2109 Clouds 2 995 75 10000 6.69 100 12:33 10.04.2022
2110 Clouds 2 995 69 10000 7.2 100 11:46 10.04.2022
2111 Clouds 2 995 69 10000 8.23 110 11:28 10.04.2022
2112 Clouds 2 994 69 10000 7.2 120 10:43 10.04.2022
2113 Clouds 1 993 75 10000 6.69 110 09:50 10.04.2022
2114 Clouds 1 992 69 10000 6.69 130 08:56 10.04.2022
2115 Clouds 2 992 64 10000 6.17 150 08:21 10.04.2022
2116 Clouds 1 991 69 10000 6.69 140 07:18 10.04.2022
2117 Clouds 1 988 80 10000 4.12 150 05:19 10.04.2022
2118 Clouds 2 986 87 10000 7.2 80 02:20 10.04.2022
2119 Drizzle 2 986 93 7000 8.23 70 23:54 09.04.2022
2120 Clouds 1 987 100 9000 9.26 70 23:29 09.04.2022
2121 Clouds 1 986 100 8000 10.8 60 22:39 09.04.2022
2122 Clouds 2 987 100 10000 11.83 60 21:31 09.04.2022
2123 Clouds 2 987 100 10000 10.8 70 20:39 09.04.2022
2124 Clouds 2 987 100 10000 10.8 60 20:18 09.04.2022
2125 Clouds 2 987 100 10000 11.83 60 19:41 09.04.2022
2126 Clouds 2 989 93 10000 6.17 50 18:54 09.04.2022
2127 Clouds 2 989 93 10000 4.12 50 18:18 09.04.2022
2128 Clouds 2 990 87 10000 7.2 50 17:18 09.04.2022
2129 Clouds 2 990 87 10000 5.14 50 16:42 09.04.2022
2130 Clouds 2 990 87 10000 6.17 50 15:52 09.04.2022
2131 Clouds 2 991 87 10000 5.14 60 15:26 09.04.2022
2132 Clouds 2 991 80 10000 6.17 70 14:26 09.04.2022
2133 Clouds 2 991 80 10000 4.12 50 13:38 09.04.2022
2134 Clouds 1 991 86 10000 6.69 50 12:59 09.04.2022
2135 Clouds 2 992 80 10000 8.23 70 11:52 09.04.2022
2136 Clouds 1 992 93 8000 8.75 70 10:53 09.04.2022
2137 Clouds 1 992 93 7000 8.75 70 10:19 09.04.2022
2138 Clouds 1 992 86 10000 8.75 60 09:36 09.04.2022
2139 Drizzle 1 992 93 10000 10.29 60 08:45 09.04.2022
2140 Drizzle 0 993 93 2400 14.92 60 05:35 09.04.2022
2141 Clouds 0 996 74 10000 10.29 70 00:36 09.04.2022
2142 Clouds 0 996 74 10000 10.29 70 00:36 09.04.2022
2143 Clouds -1 997 80 10000 12.35 70 23:25 08.04.2022
2144 Clouds -1 998 86 10000 11.32 70 21:57 08.04.2022
2145 Clear -1 998 80 10000 9.77 70 20:46 08.04.2022
2146 Clear -1 998 74 10000 9.26 60 19:57 08.04.2022
2147 Clear -1 999 74 10000 8.75 70 18:59 08.04.2022
2148 Clear -1 999 74 10000 7.2 70 18:25 08.04.2022
2149 Clear -1 999 74 10000 7.72 90 17:38 08.04.2022
2150 Clear -1 999 69 10000 8.23 80 17:19 08.04.2022
2151 Clear -1 999 69 10000 7.2 80 16:32 08.04.2022
2152 Clouds -1 999 69 10000 6.69 90 15:38 08.04.2022
2153 Clear 0 999 64 10000 4.63 100 14:52 08.04.2022
2154 Clear 0 999 69 10000 4.12 130 14:21 08.04.2022
2155 Clouds 0 999 64 10000 4.63 130 13:41 08.04.2022
2156 Clouds -1 999 69 10000 5.66 130 13:22 08.04.2022
2157 Clouds -1 998 69 10000 5.14 130 11:51 08.04.2022
2158 Clouds -2 998 69 10000 3.09 0 10:31 08.04.2022
2159 Clouds -3 997 68 10000 6.17 140 09:25 08.04.2022
2160 Clouds -2 996 74 10000 6.69 120 08:25 08.04.2022
2161 Snow -3 994 86 10000 1.54 0 06:47 08.04.2022
2162 Clouds -4 994 86 10000 4.63 50 04:32 08.04.2022
2163 Snow 0 995 100 3000 4.63 50 00:33 08.04.2022
2164 Snow 0 995 100 7000 4.63 70 23:59 07.04.2022
2165 Snow -1 996 100 10000 5.66 70 22:58 07.04.2022
2166 Clouds -1 996 100 10000 5.66 70 22:37 07.04.2022
2167 Snow 0 996 100 10000 7.2 70 22:19 07.04.2022
2168 Snow 0 996 100 4500 7.2 60 21:49 07.04.2022
2169 Snow 0 996 100 5000 5.66 70 20:58 07.04.2022
2170 Snow 0 996 100 5000 8.23 70 20:30 07.04.2022
2171 Clouds 1 996 80 10000 7.72 80 17:57 07.04.2022
2172 Clouds 1 996 80 10000 7.2 70 17:24 07.04.2022
2173 Clouds 1 996 75 10000 7.72 80 16:43 07.04.2022
2174 Clouds 1 996 75 10000 8.23 80 16:20 07.04.2022
2175 Clouds 1 996 80 10000 8.23 70 14:36 07.04.2022
2176 Clouds 0 996 86 10000 7.2 70 13:42 07.04.2022
2177 Clouds 0 997 80 10000 6.17 80 12:41 07.04.2022
2178 Clouds 0 997 80 10000 7.2 80 11:29 07.04.2022
2179 Clouds 0 997 80 10000 7.72 80 09:37 07.04.2022
2180 Clouds 0 996 80 10000 8.75 80 08:37 07.04.2022
2181 Clouds -1 996 100 10000 9.77 70 06:42 07.04.2022
2182 Clouds 0 996 86 10000 9.26 70 02:47 07.04.2022
2183 Clouds 0 996 80 10000 9.77 80 02:20 07.04.2022
2184 Clear 0 996 74 10000 9.77 70 00:26 07.04.2022
2185 Clouds 0 996 74 10000 10.8 70 22:49 06.04.2022
2186 Clouds 0 996 74 10000 10.29 70 22:26 06.04.2022
2187 Clouds 0 996 74 10000 10.8 80 21:34 06.04.2022
2188 Clouds 0 997 74 10000 9.26 70 20:35 06.04.2022
2189 Clouds 0 996 74 10000 8.75 70 19:53 06.04.2022
2190 Clouds 0 996 74 10000 11.83 80 18:51 06.04.2022
2191 Clouds 0 996 69 10000 11.32 70 18:22 06.04.2022
2192 Clouds 0 996 69 10000 10.29 70 17:35 06.04.2022
2193 Clouds 0 996 69 10000 10.8 70 16:38 06.04.2022
2194 Clouds 0 996 69 10000 10.8 70 15:48 06.04.2022
2195 Clouds 0 996 69 10000 9.26 70 14:57 06.04.2022
2196 Clouds 0 996 69 10000 11.32 70 13:24 06.04.2022
2197 Clouds 0 996 74 10000 11.83 80 12:26 06.04.2022
2198 Clouds -1 996 80 10000 10.29 80 10:47 06.04.2022
2199 Snow 0 996 74 10000 8.75 70 10:25 06.04.2022
2200 Snow 0 996 74 10000 9.26 80 09:40 06.04.2022
2201 Snow -1 996 86 10000 11.32 60 08:32 06.04.2022
2202 Clouds -1 996 86 10000 11.83 70 07:50 06.04.2022
2203 Mist -1 995 80 8000 13.38 70 03:54 06.04.2022
2204 Snow -2 995 86 5000 15.43 60 23:53 05.04.2022
2205 Snow -2 995 86 7000 14.4 60 22:57 05.04.2022
2206 Clouds -2 995 80 8000 14.4 70 21:23 05.04.2022
2207 Clouds -2 995 74 10000 15.95 70 20:26 05.04.2022
2208 Snow -3 995 80 10000 16.46 70 19:47 05.04.2022
2209 Snow -3 994 80 10000 15.43 70 18:18 05.04.2022
2210 Clouds -3 994 80 10000 15.43 70 16:54 05.04.2022
2211 Clouds -3 994 80 10000 15.43 70 16:35 05.04.2022
2212 Clouds -3 994 80 10000 13.38 70 15:35 05.04.2022
2213 Clouds -2 995 74 10000 11.83 70 14:37 05.04.2022
2214 Clouds -3 995 74 10000 9.77 60 13:37 05.04.2022
2215 Clouds -3 996 74 10000 8.75 70 11:51 05.04.2022
2216 Clouds -3 996 74 10000 8.75 70 11:51 05.04.2022
2217 Clouds -3 996 74 10000 8.75 70 11:51 05.04.2022
2218 Clouds -3 996 74 10000 8.75 70 11:51 05.04.2022
2219 Clouds -3 996 74 10000 8.23 70 11:33 05.04.2022
2220 Clouds -3 996 74 10000 7.72 70 10:41 05.04.2022
2221 Clouds -6 996 79 10000 5.14 60 08:55 05.04.2022
2222 Clouds -7 996 86 10000 4.63 60 07:22 05.04.2022
2223 Clouds -7 997 73 10000 2.57 30 02:39 05.04.2022
2224 Clouds -6 996 79 10000 5.14 40 22:48 04.04.2022
2225 Clouds -6 996 79 10000 5.66 40 22:29 04.04.2022
2226 Clouds -7 996 79 10000 5.66 60 21:22 04.04.2022
2227 Clouds -8 996 79 10000 5.14 50 20:50 04.04.2022
2228 Clouds -7 996 73 10000 4.63 50 20:22 04.04.2022
2229 Clouds -7 996 79 10000 4.63 50 19:26 04.04.2022
2230 Clouds -6 996 79 10000 5.66 50 18:37 04.04.2022
2231 Clouds -4 996 74 10000 3.6 70 16:41 04.04.2022
2232 Clouds -5 996 80 10000 4.63 70 16:23 04.04.2022
2233 Clouds -4 995 80 10000 5.66 60 15:33 04.04.2022
2234 Clouds -3 995 80 10000 5.66 80 14:46 04.04.2022
2235 Snow -2 995 80 10000 4.63 80 13:40 04.04.2022
2236 Snow -2 995 80 10000 2.57 150 12:26 04.04.2022
2237 Snow -2 995 69 10000 0.51 0 11:29 04.04.2022
2238 Clouds -4 996 68 10000 1.03 0 09:51 04.04.2022
2239 Clouds -5 997 74 10000 3.6 50 05:33 04.04.2022
2240 Clouds -6 999 86 10000 1.54 20 02:47 04.04.2022
2241 Clouds -5 1000 68 10000 3.6 40 22:49 03.04.2022
2242 Clouds -4 1001 68 10000 4.12 70 21:58 03.04.2022
2243 Clouds -4 1001 74 10000 4.12 70 21:25 03.04.2022
2244 Clouds -4 1001 68 10000 4.12 80 20:21 03.04.2022
2245 Clouds -3 1001 74 10000 5.14 80 18:37 03.04.2022
2246 Clouds -2 1001 69 10000 6.69 70 17:50 03.04.2022
2247 Clouds -2 1001 74 10000 6.17 70 17:32 03.04.2022
2248 Clouds -1 1001 69 10000 4.63 70 16:49 03.04.2022
2249 Clouds -1 1002 59 10000 5.14 90 15:46 03.04.2022
2250 Clouds -1 1002 64 10000 3.09 70 14:20 03.04.2022
2251 Clouds -2 1002 69 10000 5.14 60 12:59 03.04.2022
2252 Clouds -2 1002 69 10000 2.06 80 11:39 03.04.2022
2253 Clouds -2 1002 80 10000 4.12 80 09:52 03.04.2022
2254 Clouds -3 1002 86 10000 0.51 0 08:57 03.04.2022
2255 Clouds -8 1003 86 10000 2.57 70 05:45 03.04.2022
2256 Clouds -7 1003 79 10000 1.03 0 02:55 03.04.2022
2257 Clouds -7 1003 79 10000 0.51 0 23:35 02.04.2022
2258 Clouds -8 1003 79 10000 2.06 60 22:44 02.04.2022
2259 Clouds -6 1002 79 10000 1.03 0 21:56 02.04.2022
2260 Clouds -8 1002 79 10000 2.06 50 21:20 02.04.2022
2261 Clouds -6 1002 79 10000 2.57 20 20:36 02.04.2022
2262 Clouds -5 1001 74 10000 1.54 30 18:47 02.04.2022
2263 Clouds -5 1001 74 10000 3.09 100 18:19 02.04.2022
2264 Clear -4 1001 68 10000 1.54 70 17:23 02.04.2022
2265 Clear -2 1000 64 10000 3.6 40 15:44 02.04.2022
2266 Clear -2 1000 59 10000 1.54 80 15:19 02.04.2022
2267 Clear -2 1000 64 10000 1.03 0 14:31 02.04.2022
2268 Clear -1 1000 59 10000 1.03 0 13:34 02.04.2022
2269 Clear 0 999 55 10000 1.03 0 12:21 02.04.2022
2270 Clouds -3 998 59 10000 1.03 0 10:31 02.04.2022
2271 Clouds -4 998 68 10000 3.09 50 08:26 02.04.2022
2272 Clouds -3 999 68 10000 3.6 30 05:24 02.04.2022
2273 Clouds -3 1000 74 10000 1.03 0 02:56 02.04.2022
2274 Clouds -1 1002 86 5000 6.17 230 23:54 01.04.2022
2275 Snow -2 1002 93 5000 7.2 240 22:51 01.04.2022
2276 Snow -1 1002 69 10000 4.63 210 21:27 01.04.2022
2277 Snow -1 1003 69 10000 5.14 210 20:49 01.04.2022
2278 Snow -1 1003 69 10000 5.14 210 19:50 01.04.2022
2279 Snow 0 1004 69 10000 8.23 230 19:26 01.04.2022
2280 Snow 0 1004 69 10000 8.23 250 18:42 01.04.2022
2281 Clouds 0 1005 69 10000 10.8 240 17:43 01.04.2022
2282 Clouds -1 1006 74 10000 10.8 240 16:33 01.04.2022
2283 Snow -1 1007 74 10000 9.77 240 15:18 01.04.2022
2284 Snow -1 1007 74 5000 9.26 240 14:18 01.04.2022
2285 Snow -1 1007 69 10000 10.29 230 13:32 01.04.2022
2286 Snow -1 1008 69 10000 5.66 210 12:30 01.04.2022
2287 Snow -2 1008 74 10000 6.17 210 10:54 01.04.2022
2288 Snow -2 1009 86 10000 7.2 230 09:49 01.04.2022
2289 Clouds -3 1010 74 10000 5.14 240 07:50 01.04.2022
2290 Clouds -3 1011 80 10000 4.12 240 06:30 01.04.2022
2291 Clouds -3 1011 80 10000 5.14 240 04:44 01.04.2022
2292 Clouds -3 1012 68 10000 2.57 0 03:21 01.04.2022
2293 Clouds -5 1012 86 10000 1.54 0 01:52 01.04.2022
2294 Snow -4 1012 93 10000 1.03 0 22:37 31.03.2022
2295 Clouds -5 1012 74 10000 4.12 10 21:44 31.03.2022
2296 Clouds -4 1012 86 10000 4.12 10 21:21 31.03.2022
2297 Clouds -4 1012 86 600 6.17 10 20:28 31.03.2022
2298 Clouds -4 1012 86 10000 1.03 0 19:46 31.03.2022
2299 Clouds -4 1012 86 10000 2.57 70 18:38 31.03.2022
2300 Clouds -3 1012 74 10000 2.06 0 17:32 31.03.2022
2301 Clouds -4 1012 80 10000 1.03 0 16:18 31.03.2022
2302 Clouds -3 1012 74 10000 1.54 0 15:33 31.03.2022
2303 Clouds -4 1012 80 1100 4.63 10 14:52 31.03.2022
2304 Clouds -4 1012 80 10000 5.66 10 14:19 31.03.2022
2305 Clouds -4 1011 74 10000 3.6 40 11:32 31.03.2022
2306 Clouds -5 1011 86 3500 6.69 10 10:41 31.03.2022
2307 Clouds -5 1010 86 10000 5.14 30 09:44 31.03.2022
2308 Clouds -5 1010 80 10000 5.66 10 07:49 31.03.2022
2309 Clouds -5 1009 74 10000 5.66 20 04:42 31.03.2022
2310 Clouds -4 1007 74 10000 6.69 20 23:34 30.03.2022
2311 Clouds -4 1007 63 10000 5.14 30 22:23 30.03.2022
2312 Clouds -3 1007 63 10000 6.17 30 21:33 30.03.2022
2313 Clouds -4 1007 68 10000 5.66 30 20:44 30.03.2022
2314 Clouds -3 1006 63 10000 6.69 20 19:59 30.03.2022
2315 Clouds -3 1006 63 10000 5.66 20 18:50 30.03.2022
2316 Clouds -3 1006 68 10000 8.75 20 17:53 30.03.2022
2317 Clouds -3 1006 68 10000 8.75 20 17:34 30.03.2022
2318 Clouds -3 1006 68 10000 7.72 20 16:51 30.03.2022
2319 Clouds -3 1006 63 10000 7.72 30 16:30 30.03.2022
2320 Clouds -3 1005 80 10000 7.72 40 14:55 30.03.2022
2321 Snow -3 1005 86 10000 5.14 30 13:32 30.03.2022
2322 Snow -3 1005 86 9000 10.29 50 12:41 30.03.2022
2323 Snow -3 1004 80 10000 8.75 20 10:54 30.03.2022
2324 Snow -3 1003 86 5000 9.77 20 09:58 30.03.2022
2325 Clouds -3 1003 86 10000 9.77 40 08:29 30.03.2022
2326 Snow -3 1003 86 8000 11.32 20 07:31 30.03.2022
2327 Clouds -3 1003 80 8000 12.35 20 05:40 30.03.2022
2328 Clouds -2 1002 80 10000 13.38 20 03:21 30.03.2022
2329 Clouds -2 1002 74 10000 12.35 20 23:32 29.03.2022
2330 Clouds -3 1001 80 10000 11.32 30 22:18 29.03.2022
2331 Snow -3 1001 86 7000 7.72 40 21:40 29.03.2022
2332 Snow -3 1002 93 8000 9.26 30 20:44 29.03.2022
2333 Snow -3 1001 86 1400 10.29 20 19:45 29.03.2022
2334 Snow -3 1002 86 9000 11.32 30 18:54 29.03.2022
2335 Snow -3 1002 86 9000 13.89 30 18:18 29.03.2022
2336 Snow -3 1002 93 10000 11.83 30 17:20 29.03.2022
2337 Snow -3 1002 86 5000 9.77 30 16:55 29.03.2022
2338 Snow -3 1002 86 800 13.89 30 15:47 29.03.2022
2339 Snow -3 1002 86 10000 8.23 30 14:44 29.03.2022
2340 Snow -3 1002 68 10000 9.77 20 13:41 29.03.2022
2341 Snow -3 1002 80 10000 8.75 30 12:40 29.03.2022
2342 Clouds -3 1002 80 10000 8.75 20 11:27 29.03.2022
2343 Clouds -3 1002 86 10000 10.29 20 10:23 29.03.2022
2344 Snow -3 1002 80 10000 10.8 20 08:57 29.03.2022
2345 Clouds -2 1002 80 450 8.75 360 06:54 29.03.2022
2346 Clouds -4 1003 80 10000 8.75 360 03:19 29.03.2022
2347 Snow -4 1004 93 4500 6.17 30 23:46 28.03.2022
2348 Snow -4 1005 86 10000 6.69 20 22:58 28.03.2022
2349 Snow -4 1005 86 10000 6.69 20 22:35 28.03.2022
2350 Snow -4 1005 86 10000 7.72 10 21:48 28.03.2022
2351 Clouds -3 1005 80 10000 6.17 350 20:41 28.03.2022
2352 Clouds -4 1006 80 10000 4.63 360 19:59 28.03.2022
2353 Clouds -4 1006 80 10000 4.63 360 19:40 28.03.2022
2354 Snow -5 1006 80 900 1.54 0 18:51 28.03.2022
2355 Snow -5 1006 80 10000 3.09 10 18:18 28.03.2022
2356 Clouds -5 1006 80 10000 2.06 40 17:28 28.03.2022
2357 Snow -3 1006 68 10000 0 0 15:38 28.03.2022
2358 Clouds -4 1006 74 10000 1.03 0 14:24 28.03.2022
2359 Clouds -1 1006 69 10000 0 0 13:33 28.03.2022
2360 Snow -6 1005 63 10000 1.03 0 11:54 28.03.2022
2361 Clear -7 1005 58 10000 1.03 0 10:39 28.03.2022
2362 Clouds -6 1004 49 10000 1.03 0 09:21 28.03.2022
2363 Clouds -9 1004 57 10000 1.54 50 08:45 28.03.2022
2364 Clouds -10 1004 57 10000 1.03 0 08:21 28.03.2022
2365 Clouds -11 1004 57 10000 1.03 0 07:26 28.03.2022
2366 Clear -11 1004 62 10000 2.06 50 02:46 28.03.2022
2367 Clear -9 1005 67 10000 3.09 80 22:57 27.03.2022
2368 Clear -10 1005 73 10000 3.09 50 21:55 27.03.2022
2369 Clear -10 1005 73 10000 3.09 50 21:36 27.03.2022
2370 Clear -8 1006 67 10000 4.12 90 20:41 27.03.2022
2371 Clear -8 1006 62 10000 4.63 90 19:44 27.03.2022
2372 Clear -7 1007 58 10000 3.09 90 18:47 27.03.2022
2373 Clouds -7 1008 63 10000 3.6 90 18:24 27.03.2022
2374 Clouds -7 1008 68 10000 4.12 100 17:37 27.03.2022
2375 Clouds -6 1011 63 10000 3.09 40 15:55 27.03.2022
2376 Clouds -5 1013 63 10000 1.54 90 13:59 27.03.2022
2377 Clouds -5 1013 68 10000 1.03 0 13:25 27.03.2022
2378 Clouds -4 1015 68 10000 1.03 0 11:41 27.03.2022
2379 Clouds -5 1016 68 10000 0.51 0 09:49 27.03.2022
2380 Clouds -6 1018 79 10000 4.12 360 07:47 27.03.2022
2381 Clouds -5 1019 68 10000 3.09 10 04:49 27.03.2022
2382 Snow -6 1021 79 9000 5.66 360 00:30 27.03.2022
2383 Clouds -6 1021 79 10000 5.66 360 22:53 26.03.2022
2384 Snow -6 1021 79 10000 5.14 350 22:25 26.03.2022
2385 Snow -6 1021 79 10000 3.6 30 21:31 26.03.2022
2386 Clouds -6 1022 86 5000 5.66 10 19:39 26.03.2022
2387 Snow -5 1021 68 10000 3.6 10 18:44 26.03.2022
2388 Snow -5 1021 68 10000 3.6 350 17:44 26.03.2022
2389 Clouds -6 1021 73 10000 5.14 10 16:46 26.03.2022
2390 Clouds -5 1021 74 10000 4.12 350 15:43 26.03.2022
2391 Snow -6 1020 73 10000 5.14 360 14:18 26.03.2022
2392 Clouds -7 1020 86 10000 7.72 360 13:47 26.03.2022
2393 Clouds -5 1020 63 10000 7.2 360 12:31 26.03.2022
2394 Mist -6 1019 73 10000 7.2 360 10:56 26.03.2022
2395 Snow -6 1018 68 10000 5.14 350 09:21 26.03.2022
2396 Snow -6 1017 68 7000 7.72 350 07:34 26.03.2022
2397 Snow -6 1015 79 8000 7.2 20 05:49 26.03.2022
2398 Snow -5 1012 86 2000 8.23 20 03:22 26.03.2022
2399 Snow -5 1008 68 10000 5.14 70 22:50 25.03.2022
2400 Clear -5 1007 74 10000 7.2 70 20:58 25.03.2022
2401 Clear -5 1007 74 10000 8.23 70 20:26 25.03.2022
2402 Clouds -5 1006 74 10000 7.72 70 19:20 25.03.2022
2403 Clouds -5 1006 74 10000 9.26 70 18:37 25.03.2022
2404 Clouds -5 1006 74 10000 9.77 70 17:34 25.03.2022
2405 Clear -5 1006 74 10000 9.26 70 16:29 25.03.2022
2406 Clear -5 1006 74 10000 9.77 60 15:46 25.03.2022
2407 Clear -4 1007 63 10000 9.26 60 13:32 25.03.2022
2408 Clear -4 1008 68 10000 7.2 70 11:38 25.03.2022
2409 Clear -5 1010 68 10000 4.63 60 09:43 25.03.2022
2410 Clear -5 1010 68 10000 3.09 90 08:59 25.03.2022
2411 Clouds -5 1011 74 10000 4.63 60 07:47 25.03.2022
2412 Clouds -5 1011 68 10000 4.12 50 07:19 25.03.2022
2413 Clouds -4 1012 68 10000 3.6 30 03:58 25.03.2022
2414 Clouds -2 1014 69 10000 7.72 30 23:54 24.03.2022
2415 Snow -2 1013 100 2500 6.17 350 22:24 24.03.2022
2416 Snow -2 1013 100 1500 7.2 240 21:24 24.03.2022
2417 Snow -1 1013 69 10000 12.35 240 19:50 24.03.2022
2418 Snow -1 1014 74 10000 10.8 240 18:45 24.03.2022
2419 Clouds -1 1014 74 10000 11.32 240 17:38 24.03.2022
2420 Clouds -1 1014 74 10000 10.8 240 16:41 24.03.2022
2421 Snow -3 1014 93 800 6.69 210 14:58 24.03.2022
2422 Snow -3 1014 93 800 6.69 210 14:39 24.03.2022
2423 Snow -2 1015 80 10000 6.17 210 13:36 24.03.2022
2424 Clouds -2 1015 69 10000 6.69 200 12:35 24.03.2022
2425 Snow -3 1016 68 10000 7.2 200 11:31 24.03.2022
2426 Snow -3 1016 68 10000 7.2 200 11:31 24.03.2022
2427 Clear -4 1016 63 10000 4.63 100 09:34 24.03.2022
2428 Clear -4 1016 63 10000 4.12 130 08:39 24.03.2022
2429 Clouds -5 1016 74 10000 3.09 40 06:18 24.03.2022
2430 Clouds -4 1012 74 10000 2.57 40 01:20 24.03.2022
2431 Clouds -3 1009 80 10000 6.69 70 22:26 23.03.2022
2432 Clouds -3 1008 86 10000 6.69 70 21:25 23.03.2022
2433 Clouds -3 1008 80 10000 8.23 70 20:46 23.03.2022
2434 Snow -3 1007 86 3000 9.26 70 19:40 23.03.2022
2435 Clouds -3 1006 86 10000 11.83 70 18:22 23.03.2022
2436 Clouds -3 1005 86 10000 9.77 70 17:31 23.03.2022
2437 Clouds -3 1004 86 10000 8.75 60 16:18 23.03.2022
2438 Snow -3 1004 93 1200 9.26 60 14:49 23.03.2022
2439 Snow -3 1004 93 600 9.77 60 13:34 23.03.2022
2440 Snow -3 1007 93 1200 7.2 70 11:38 23.03.2022
2441 Snow -4 1011 93 5000 4.12 70 09:21 23.03.2022
2442 Snow -4 1014 100 3000 1.54 50 06:29 23.03.2022
2443 Snow -3 1016 93 2400 2.06 320 03:57 23.03.2022
2444 Snow -2 1016 100 2000 2.06 0 00:29 23.03.2022
2445 Snow -2 1016 100 2000 2.06 0 00:29 23.03.2022
2446 Snow -2 1016 100 2000 4.63 280 22:25 22.03.2022
2447 Snow -2 1016 100 2500 2.57 0 21:29 22.03.2022
2448 Snow -2 1016 100 3000 3.6 340 20:34 22.03.2022
2449 Snow -1 1016 100 2500 2.57 0 19:31 22.03.2022
2450 Snow -1 1016 100 3000 1.54 0 18:57 22.03.2022
2451 Snow -1 1016 100 1300 4.63 340 17:47 22.03.2022
2452 Snow 0 1015 100 1300 3.6 340 17:23 22.03.2022
2453 Snow 0 1016 100 1500 3.09 340 15:54 22.03.2022
2454 Snow 0 1016 100 2000 3.09 340 15:22 22.03.2022
2455 Snow 0 1016 100 1800 3.09 320 14:46 22.03.2022
2456 Snow 0 1016 100 1200 1.03 0 14:25 22.03.2022
2457 Snow 0 1017 100 2000 6.17 240 12:46 22.03.2022
2458 Snow 1 1017 100 6000 7.2 240 11:36 22.03.2022
2459 Rain 1 1017 93 10000 9.26 240 10:23 22.03.2022
2460 Rain 2 1018 80 10000 10.8 240 07:48 22.03.2022
2461 Clouds 0 1020 93 10000 6.69 260 05:20 22.03.2022
2462 Snow 1 1020 80 6000 9.77 270 03:41 22.03.2022
2463 Clouds 2 1019 60 10000 12.35 250 23:49 21.03.2022
2464 Clouds 2 1018 80 10000 12.86 250 21:58 21.03.2022
2465 Snow 1 1018 86 7000 15.95 240 20:47 21.03.2022
2466 Snow 2 1018 69 10000 15.43 240 20:27 21.03.2022
2467 Rain 2 1018 69 10000 13.38 240 19:57 21.03.2022
2468 Snow 1 1018 75 4500 13.38 250 19:25 21.03.2022
2469 Rain 2 1017 60 10000 16.46 240 17:53 21.03.2022
2470 Clouds 2 1016 60 10000 13.38 250 17:18 21.03.2022
2471 Snow 2 1016 69 10000 14.92 240 16:42 21.03.2022
2472 Snow 2 1015 69 10000 15.43 240 15:48 21.03.2022
2473 Snow 2 1014 75 9000 18.52 240 14:56 21.03.2022
2474 Rain 3 1014 70 10000 13.89 240 13:46 21.03.2022
2475 Clouds 4 1013 60 10000 20.58 240 12:35 21.03.2022
2476 Clouds 4 1013 70 10000 16.46 240 11:45 21.03.2022
2477 Rain 3 1013 87 9000 15.43 240 10:36 21.03.2022
2478 Rain 6 1012 56 10000 8.75 260 08:30 21.03.2022
2479 Clear 9 1012 40 10000 13.89 240 06:48 21.03.2022
2480 Clouds 7 1016 53 10000 8.75 230 02:51 21.03.2022
2481 Clear 5 1020 65 10000 4.63 240 23:43 20.03.2022
2482 Clear 5 1020 70 10000 3.6 230 22:44 20.03.2022
2483 Clear 6 1021 70 10000 4.12 250 21:52 20.03.2022
2484 Clear 6 1021 70 10000 4.12 250 21:52 20.03.2022
2485 Clear 6 1021 65 10000 8.23 240 21:25 20.03.2022
2486 Clear 6 1022 70 10000 6.17 250 20:43 20.03.2022
2487 Clouds 6 1022 70 10000 10.29 240 19:59 20.03.2022
2488 Clouds 5 1022 81 10000 4.12 250 19:31 20.03.2022
2489 Clouds 5 1022 75 10000 4.12 240 18:22 20.03.2022
2490 Clouds 6 1022 75 10000 10.8 240 17:33 20.03.2022
2491 Clouds 6 1022 75 10000 9.77 230 16:57 20.03.2022
2492 Clouds 6 1023 70 10000 9.77 240 15:35 20.03.2022
2493 Clouds 6 1022 75 10000 11.32 240 14:35 20.03.2022
2494 Clouds 6 1021 75 8000 13.89 240 12:35 20.03.2022
2495 Rain 5 1022 93 7000 9.77 250 11:23 20.03.2022
2496 Snow 0 1022 100 900 4.12 240 09:26 20.03.2022
2497 Snow 0 1022 100 2000 2.57 240 07:47 20.03.2022
2498 Snow 1 1021 100 2500 5.14 240 05:48 20.03.2022
2499 Drizzle 2 1019 87 10000 7.2 260 01:56 20.03.2022
2500 Rain 3 1018 75 10000 9.26 260 00:47 20.03.2022
2501 Rain 1 1018 86 6000 10.29 260 23:19 19.03.2022
2502 Rain 3 1016 65 10000 16.46 240 21:28 19.03.2022
2503 Rain 3 1016 65 10000 9.77 240 20:58 19.03.2022
2504 Mist 2 1015 80 10000 7.2 250 18:58 19.03.2022
2505 Rain 2 1015 75 10000 9.77 240 18:24 19.03.2022
2506 Drizzle 2 1014 75 10000 10.8 240 17:40 19.03.2022
2507 Clouds 2 1013 80 10000 8.75 270 15:46 19.03.2022
2508 Clouds 1 1012 86 3500 9.26 270 15:19 19.03.2022
2509 Rain 2 1009 93 10000 6.69 280 13:20 19.03.2022
2510 Rain 2 1008 93 10000 7.2 270 12:40 19.03.2022
2511 Rain 3 1006 87 10000 11.83 280 11:54 19.03.2022
2512 Drizzle 4 1002 87 10000 14.4 240 10:53 19.03.2022
2513 Rain 1 1002 86 10000 8.75 200 07:59 19.03.2022
2514 Rain 3 1012 70 10000 9.77 230 03:49 19.03.2022
2515 Rain 2 1014 80 10000 9.77 240 02:30 19.03.2022
2516 Snow 1 1015 100 10000 12.35 230 23:46 18.03.2022
2517 Snow 1 1015 93 10000 13.38 230 22:28 18.03.2022
2518 Snow 2 1015 75 10000 14.92 240 21:46 18.03.2022
2519 Clouds 2 1015 75 10000 14.4 240 19:54 18.03.2022
2520 Clouds 3 1014 65 10000 15.95 240 19:22 18.03.2022
2521 Snow 2 1013 69 10000 19.55 240 18:18 18.03.2022
2522 Rain 2 1011 87 10000 14.4 240 16:51 18.03.2022
2523 Rain 4 1011 70 10000 13.89 240 15:43 18.03.2022
2524 Rain 5 1010 70 10000 4.63 210 14:24 18.03.2022
2525 Clouds 5 1009 65 10000 3.09 230 12:39 18.03.2022
2526 Clouds 4 1008 70 10000 4.12 220 10:58 18.03.2022
2527 Clouds 3 1008 70 10000 3.6 220 09:30 18.03.2022
2528 Clouds 3 1008 70 10000 4.63 210 08:42 18.03.2022
2529 Clouds 3 1009 70 10000 8.75 200 06:40 18.03.2022
2530 Clear 2 1014 75 10000 0.51 0 03:30 18.03.2022
2531 Clouds 2 1015 80 10000 1.03 0 00:53 18.03.2022
2532 Rain 3 1016 75 10000 1.03 290 23:44 17.03.2022
2533 Rain 2 1017 80 10000 0 0 22:25 17.03.2022
2534 Clear 3 1017 75 10000 1.03 0 21:48 17.03.2022
2535 Clear 3 1017 75 10000 0 0 21:27 17.03.2022
2536 Clear 3 1018 75 10000 0.51 0 20:51 17.03.2022
2537 Clear 2 1018 80 10000 1.54 0 19:53 17.03.2022
2538 Clear 3 1019 75 10000 1.03 0 19:32 17.03.2022
2539 Clear 4 1019 70 10000 2.06 240 18:49 17.03.2022
2540 Clouds 4 1019 70 10000 2.06 270 17:18 17.03.2022
2541 Clouds 5 1019 65 10000 2.57 270 15:44 17.03.2022
2542 Clouds 5 1019 65 10000 3.09 280 15:26 17.03.2022
2543 Clouds 4 1019 70 10000 3.09 270 14:48 17.03.2022
2544 Clear 5 1019 60 10000 4.12 220 12:59 17.03.2022
2545 Clear 5 1019 60 10000 4.12 220 12:37 17.03.2022
2546 Clear 5 1019 60 10000 3.09 220 11:30 17.03.2022
2547 Clear 4 1020 65 10000 2.57 230 10:34 17.03.2022
2548 Clouds 4 1020 60 10000 1.54 280 08:41 17.03.2022
2549 Clouds 3 1020 65 10000 3.09 270 07:52 17.03.2022
2550 Clouds 4 1020 56 10000 1.54 300 05:48 17.03.2022
2551 Clouds 3 1019 60 10000 2.57 270 03:41 17.03.2022
2552 Clear 3 1018 56 10000 4.12 250 00:21 17.03.2022
2553 Clear 3 1017 52 10000 2.06 290 22:52 16.03.2022
2554 Clear 3 1017 52 10000 2.06 290 22:33 16.03.2022
2555 Clear 3 1017 52 10000 2.06 270 21:52 16.03.2022
2556 Clear 3 1017 56 10000 2.57 250 20:28 16.03.2022
2557 Clear 1 1017 69 10000 2.57 0 19:22 16.03.2022
2558 Clear 1 1018 69 10000 4.12 260 18:40 16.03.2022
2559 Clear 2 1018 69 10000 3.09 260 17:44 16.03.2022
2560 Clear 3 1018 60 10000 3.09 270 17:26 16.03.2022
2561 Clear 2 1018 69 10000 4.63 260 15:56 16.03.2022
2562 Clear 2 1017 69 10000 3.6 250 14:31 16.03.2022
2563 Clear 3 1017 65 10000 2.06 250 13:34 16.03.2022
2564 Clear 3 1017 60 10000 3.6 250 11:59 16.03.2022
2565 Clear 3 1016 65 10000 3.6 260 11:22 16.03.2022
2566 Clear 3 1016 65 10000 2.06 260 10:28 16.03.2022
2567 Clear 3 1016 65 10000 1.03 0 09:55 16.03.2022
2568 Clear 3 1016 60 10000 4.63 240 06:33 16.03.2022
2569 Clear 5 1016 60 10000 4.63 260 02:29 16.03.2022
2570 Clear 4 1017 65 10000 2.06 280 22:54 15.03.2022
2571 Clear 4 1017 65 10000 2.06 280 22:33 15.03.2022
2572 Clear 3 1018 75 10000 1.54 0 20:42 15.03.2022
2573 Clear 3 1019 75 10000 1.03 50 19:27 15.03.2022
2574 Clear 3 1019 70 10000 1.03 0 17:35 15.03.2022
2575 Clear 3 1019 75 10000 2.06 50 16:34 15.03.2022
2576 Clear 4 1019 70 10000 4.63 250 15:26 15.03.2022
2577 Clear 5 1019 65 10000 3.09 270 14:46 15.03.2022
2578 Clear 6 1019 56 10000 3.09 250 13:55 15.03.2022
2579 Clear 7 1020 49 10000 1.54 280 12:46 15.03.2022
2580 Clouds 5 1020 60 10000 1.54 0 11:32 15.03.2022
2581 Clouds 5 1020 65 10000 1.54 0 10:21 15.03.2022
2582 Clouds 3 1020 75 10000 2.57 270 08:50 15.03.2022
2583 Clear 3 1020 75 10000 1.54 0 07:53 15.03.2022
2584 Clear 3 1020 75 10000 1.54 0 07:35 15.03.2022
2585 Clouds 3 1020 70 10000 2.57 290 05:42 15.03.2022
2586 Rain 3 1020 70 10000 2.06 230 00:25 15.03.2022
2587 Clear 3 1020 70 10000 1.03 0 23:26 14.03.2022
2588 Clear 3 1020 70 10000 2.06 280 22:37 14.03.2022
2589 Clear 3 1019 70 10000 2.06 270 21:49 14.03.2022
2590 Clear 3 1019 70 10000 3.09 250 20:54 14.03.2022
2591 Clear 3 1019 65 10000 3.6 240 20:23 14.03.2022
2592 Clear 3 1019 70 10000 4.12 250 19:22 14.03.2022
2593 Clear 4 1019 60 10000 4.12 270 17:55 14.03.2022
2594 Clear 3 1019 65 10000 4.12 260 17:25 14.03.2022
2595 Clear 4 1019 60 10000 2.57 270 16:26 14.03.2022
2596 Clouds 4 1020 60 10000 3.09 240 14:41 14.03.2022
2597 Clear 5 1020 65 10000 1.03 220 12:55 14.03.2022
2598 Clear 5 1021 65 10000 1.54 0 10:57 14.03.2022
2599 Clear 2 1021 75 10000 1.54 60 09:56 14.03.2022
2600 Clear 2 1021 75 10000 1.03 0 09:23 14.03.2022
2601 Clear 2 1021 75 10000 0 0 08:57 14.03.2022
2602 Clear 2 1021 75 10000 0 0 08:20 14.03.2022
2603 Clear 4 1021 65 10000 2.57 260 05:46 14.03.2022
2604 Clouds 1 1021 80 10000 1.54 70 02:57 14.03.2022
2605 Clouds 2 1021 80 10000 3.09 260 01:33 14.03.2022
2606 Clear 3 1021 81 10000 2.57 260 23:25 13.03.2022
2607 Clouds 5 1021 70 10000 3.6 240 21:41 13.03.2022
2608 Clouds 4 1021 70 10000 3.6 250 21:19 13.03.2022
2609 Clouds 4 1020 70 10000 3.09 250 20:46 13.03.2022
2610 Clouds 4 1020 70 10000 2.06 250 20:21 13.03.2022
2611 Clouds 4 1020 70 10000 2.06 230 19:41 13.03.2022
2612 Clouds 3 1020 81 10000 2.57 290 19:20 13.03.2022
2613 Clouds 3 1020 75 10000 2.06 230 18:40 13.03.2022
2614 Clear 3 1020 75 10000 2.06 230 17:52 13.03.2022
2615 Clear 3 1020 75 10000 2.06 230 17:33 13.03.2022
2616 Clear 3 1020 75 10000 2.06 270 16:44 13.03.2022
2617 Clear 4 1019 75 10000 2.57 250 16:20 13.03.2022
2618 Clear 3 1019 81 10000 2.06 250 15:34 13.03.2022
2619 Clear 4 1018 75 10000 3.09 240 13:53 13.03.2022
2620 Clear 5 1018 70 10000 2.06 250 13:26 13.03.2022
2621 Clear 4 1018 75 10000 3.6 230 12:20 13.03.2022
2622 Clear 4 1018 75 10000 3.6 260 11:36 13.03.2022
2623 Clear 4 1018 75 10000 5.14 230 10:48 13.03.2022
2624 Clear 5 1017 70 10000 3.6 250 10:25 13.03.2022
2625 Clouds 6 1017 65 10000 2.06 260 09:41 13.03.2022
2626 Clear 8 1017 53 10000 3.09 170 08:48 13.03.2022
2627 Clouds 5 1017 70 10000 4.12 260 07:57 13.03.2022
2628 Clouds 2 1017 75 10000 0 0 05:55 13.03.2022
2629 Clear 3 1018 81 10000 2.06 40 03:26 13.03.2022
2630 Clear 5 1019 75 10000 2.06 30 00:48 13.03.2022
2631 Clouds 5 1020 75 10000 1.54 0 22:47 12.03.2022
2632 Clouds 4 1020 87 10000 1.54 0 20:59 12.03.2022
2633 Clouds 4 1020 87 10000 1.54 60 19:57 12.03.2022
2634 Clouds 4 1020 87 10000 1.54 60 19:57 12.03.2022
2635 Clouds 4 1020 87 10000 1.54 60 19:38 12.03.2022
2636 Clouds 3 1020 93 10000 0 0 18:31 12.03.2022
2637 Clouds 4 1020 81 10000 1.03 0 17:43 12.03.2022
2638 Clouds 4 1020 87 10000 0 0 16:25 12.03.2022
2639 Clouds 3 1021 93 10000 0 0 15:24 12.03.2022
2640 Clouds 4 1021 93 10000 0.51 0 14:52 12.03.2022
2641 Clouds 3 1021 100 10000 1.03 0 13:47 12.03.2022
2642 Drizzle 4 1020 100 10000 0 0 12:18 12.03.2022
2643 Drizzle 3 1020 100 10000 0 0 11:45 12.03.2022
2644 Drizzle 3 1020 100 3000 1.54 270 11:19 12.03.2022
2645 Drizzle 4 1020 100 9000 2.06 230 09:58 12.03.2022
2646 Drizzle 4 1020 100 9000 2.06 230 09:38 12.03.2022
2647 Drizzle 2 1019 100 4100 1.03 240 07:50 12.03.2022
2648 Drizzle 1 1019 100 2500 1.54 50 04:50 12.03.2022
2649 Snow 1 1019 100 10000 1.03 40 00:24 12.03.2022
2650 Snow 1 1019 100 10000 0 0 23:28 11.03.2022
2651 Drizzle 2 1019 93 10000 0.51 310 21:47 11.03.2022
2652 Clouds 2 1019 93 10000 1.03 270 20:57 11.03.2022
2653 Rain 2 1019 93 10000 1.03 270 20:37 11.03.2022
2654 Drizzle 2 1018 93 10000 0.51 0 20:37 11.03.2022
2655 Rain 2 1018 87 10000 1.03 0 19:53 11.03.2022
2656 Clouds 2 1018 87 10000 1.54 260 19:26 11.03.2022
2657 Clouds 3 1018 81 10000 1.54 270 17:34 11.03.2022
2658 Clouds 3 1017 81 10000 1.03 0 16:42 11.03.2022
2659 Clouds 3 1016 81 10000 2.06 250 15:57 11.03.2022
2660 Clouds 3 1016 81 10000 0.51 0 14:22 11.03.2022
2661 Clouds 3 1015 87 10000 6.17 280 12:53 11.03.2022
2662 Clouds 3 1014 87 10000 7.2 280 12:21 11.03.2022
2663 Clouds 3 1014 87 10000 5.14 280 11:55 11.03.2022
2664 Rain 3 1013 93 10000 6.69 270 10:18 11.03.2022
2665 Snow 3 1012 93 9000 5.66 270 08:57 11.03.2022
2666 Rain 3 1011 87 10000 7.2 270 08:24 11.03.2022
2667 Rain 3 1011 81 10000 6.69 270 07:45 11.03.2022
2668 Clouds 4 1010 81 10000 5.14 240 05:49 11.03.2022
2669 Clouds 4 1008 81 10000 6.17 260 03:49 11.03.2022
2670 Rain 4 1004 81 10000 18.01 240 23:46 10.03.2022
2671 Rain 5 1003 70 10000 18.01 240 22:31 10.03.2022
2672 Rain 5 1003 65 10000 16.98 250 21:47 10.03.2022
2673 Clouds 3 1003 81 10000 13.38 230 21:19 10.03.2022
2674 Clouds 4 1003 75 10000 12.35 240 19:48 10.03.2022
2675 Clouds 5 1003 65 10000 12.86 250 18:55 10.03.2022
2676 Clouds 3 1003 81 10000 5.14 230 17:36 10.03.2022
2677 Clouds 4 1004 75 10000 5.14 220 16:31 10.03.2022
2678 Clouds 4 1004 70 10000 5.14 240 15:20 10.03.2022
2679 Rain 5 1003 52 10000 4.63 220 13:24 10.03.2022
2680 Clear 5 1004 48 10000 5.14 230 11:58 10.03.2022
2681 Clear 5 1005 45 10000 1.03 0 11:20 10.03.2022
2682 Clear 4 1006 52 10000 4.12 250 09:22 10.03.2022
2683 Clear 5 1007 45 10000 1.54 0 07:41 10.03.2022
2684 Clouds 3 1009 52 10000 3.6 260 04:44 10.03.2022
2685 Clouds 2 1011 60 10000 3.09 250 01:49 10.03.2022
2686 Clear 2 1012 55 10000 3.6 240 23:28 09.03.2022
2687 Clear 3 1012 48 10000 2.06 0 21:51 09.03.2022
2688 Clear 3 1013 48 10000 3.09 230 21:32 09.03.2022
2689 Clear 2 1013 51 10000 3.09 280 19:50 09.03.2022
2690 Clear 1 1014 60 10000 5.66 260 18:34 09.03.2022
2691 Clear 1 1014 64 10000 4.63 270 17:27 09.03.2022
2692 Clear 0 1015 69 10000 2.57 260 16:31 09.03.2022
2693 Clear 1 1015 60 10000 4.12 260 15:19 09.03.2022
2694 Clear 1 1016 60 10000 1.54 0 13:53 09.03.2022
2695 Clear 0 1016 69 10000 4.12 250 12:47 09.03.2022
2696 Clear 0 1016 69 10000 2.06 250 11:54 09.03.2022
2697 Clear 0 1016 69 10000 2.06 250 11:35 09.03.2022
2698 Clouds 1 1017 60 10000 3.6 270 10:26 09.03.2022
2699 Clouds 0 1017 64 10000 5.14 220 08:54 09.03.2022
2700 Clear 0 1017 64 10000 4.12 230 07:38 09.03.2022
2701 Clouds -1 1018 80 10000 1.03 0 02:57 09.03.2022
2702 Clouds 0 1018 86 10000 1.03 0 00:42 09.03.2022
2703 Clouds 1 1018 86 10000 3.6 250 22:47 08.03.2022
2704 Clouds 2 1018 87 10000 4.63 250 22:26 08.03.2022
2705 Clouds 2 1017 87 10000 5.66 240 21:23 08.03.2022
2706 Rain 2 1017 87 10000 6.69 240 20:35 08.03.2022
2707 Clouds 0 1016 100 10000 0.51 0 19:35 08.03.2022
2708 Clouds 0 1016 100 4000 3.6 230 18:44 08.03.2022
2709 Clouds 0 1015 100 10000 6.69 240 17:30 08.03.2022
2710 Snow 2 1015 80 10000 7.72 240 15:45 08.03.2022
2711 Snow 1 1014 93 10000 5.14 220 14:19 08.03.2022
2712 Snow 1 1013 100 10000 6.69 220 12:43 08.03.2022
2713 Drizzle 0 1013 100 10000 6.17 230 11:45 08.03.2022
2714 Snow 0 1012 100 9000 6.69 230 10:45 08.03.2022
2715 Snow 0 1012 100 9000 3.6 230 09:51 08.03.2022
2716 Snow 0 1011 100 10000 5.66 230 06:59 08.03.2022
2717 Snow 0 1010 100 10000 6.69 230 04:52 08.03.2022
2718 Clouds 2 1009 60 10000 4.63 260 23:50 07.03.2022
2719 Clouds 0 1008 86 10000 0.51 0 21:57 07.03.2022
2720 Clouds 1 1008 75 3500 2.57 310 21:32 07.03.2022
2721 Snow 1 1008 64 10000 5.66 270 20:46 07.03.2022
2722 Clouds 2 1007 64 10000 5.14 270 19:55 07.03.2022
2723 Clouds 2 1007 64 10000 6.69 270 19:31 07.03.2022
2724 Clouds 1 1007 69 10000 5.66 260 18:42 07.03.2022
2725 Clouds 1 1006 69 10000 5.66 270 17:48 07.03.2022
2726 Clouds 0 1005 100 10000 7.72 230 16:55 07.03.2022
2727 Snow -3 1005 93 2500 5.66 210 15:35 07.03.2022
2728 Snow -4 1006 80 10000 7.72 200 13:24 07.03.2022
2729 Snow -4 1006 74 10000 7.72 190 12:23 07.03.2022
2730 Clouds -4 1008 80 10000 9.77 200 10:38 07.03.2022
2731 Clouds -4 1008 80 10000 9.77 200 10:38 07.03.2022
2732 Clouds -4 1009 74 10000 8.23 200 08:57 07.03.2022
2733 Clouds -4 1013 74 10000 4.63 190 03:49 07.03.2022
2734 Snow -3 1014 80 7000 3.09 190 00:22 07.03.2022
2735 Snow -3 1014 86 7000 2.06 200 23:35 06.03.2022
2736 Snow -3 1013 80 10000 4.63 140 22:40 06.03.2022
2737 Snow -3 1012 86 10000 5.66 130 21:47 06.03.2022
2738 Snow -3 1012 86 9000 5.66 130 20:38 06.03.2022
2739 Snow -2 1012 80 10000 4.63 130 20:20 06.03.2022
2740 Clouds -2 1011 86 10000 4.63 130 18:52 06.03.2022
2741 Clouds -2 1011 86 10000 3.6 130 18:23 06.03.2022
2742 Clouds -1 1010 93 10000 0 0 17:21 06.03.2022
2743 Clouds -1 1010 93 5000 1.54 120 16:41 06.03.2022
2744 Clouds -1 1009 100 3500 4.12 40 15:49 06.03.2022
2745 Clouds -1 1009 100 3500 4.12 40 15:49 06.03.2022
2746 Clouds 0 1009 100 1700 1.03 70 14:49 06.03.2022
2747 Clouds 0 1008 93 10000 1.03 70 14:30 06.03.2022
2748 Snow 1 1007 80 10000 3.09 240 13:18 06.03.2022
2749 Clouds 1 1006 75 10000 0.51 0 12:31 06.03.2022
2750 Clouds -2 1005 80 10000 1.54 0 10:53 06.03.2022
2751 Clouds -2 1005 86 10000 0.51 0 09:54 06.03.2022
2752 Clouds -2 1004 86 10000 1.54 40 08:29 06.03.2022
2753 Clouds -2 1004 86 10000 1.54 40 08:29 06.03.2022
2754 Clouds -2 1004 86 10000 1.54 40 08:29 06.03.2022
2755 Clouds -2 1004 86 10000 1.54 40 08:29 06.03.2022
2756 Clouds -3 1004 86 10000 0 0 07:34 06.03.2022
2757 Clouds -3 1003 93 10000 1.03 0 05:32 06.03.2022
2758 Clouds 0 1003 86 10000 3.09 250 00:49 06.03.2022
2759 Clouds 0 1003 93 10000 2.06 270 00:29 06.03.2022
2760 Clouds 0 1003 93 10000 2.06 260 23:21 05.03.2022
2761 Clouds 0 1003 93 10000 2.57 250 22:43 05.03.2022
2762 Clouds 0 1003 93 10000 2.06 250 21:46 05.03.2022
2763 Clouds 0 1003 100 10000 3.09 230 21:21 05.03.2022
2764 Snow 0 1004 100 7000 2.57 230 19:26 05.03.2022
2765 Snow 0 1004 93 10000 3.09 220 18:53 05.03.2022
2766 Snow 0 1004 93 9000 1.54 240 18:27 05.03.2022
2767 Clouds 0 1005 86 10000 3.09 270 16:34 05.03.2022
2768 Clouds 0 1005 86 10000 3.6 240 15:31 05.03.2022
2769 Clouds 0 1005 86 10000 2.57 260 14:47 05.03.2022
2770 Clouds 0 1006 86 10000 3.6 260 14:29 05.03.2022
2771 Clouds -1 1006 93 10000 3.09 240 13:21 05.03.2022
2772 Clouds -1 1007 93 10000 2.57 250 11:48 05.03.2022
2773 Clouds -2 1007 100 10000 2.57 240 11:19 05.03.2022
2774 Snow -2 1007 93 2500 0.51 0 10:18 05.03.2022
2775 Snow -3 1008 100 9000 0 0 08:59 05.03.2022
2776 Clouds -3 1008 93 3000 2.06 210 07:38 05.03.2022
2777 Clouds -3 1009 86 10000 2.06 210 05:43 05.03.2022
2778 Clouds -3 1010 68 10000 5.14 220 03:18 05.03.2022
2779 Clear -3 1014 68 10000 0.51 0 23:37 04.03.2022
2780 Clouds -3 1015 63 10000 3.09 180 22:42 04.03.2022
2781 Clouds -2 1016 59 10000 2.57 0 21:49 04.03.2022
2782 Clouds -1 1016 69 10000 2.06 200 20:54 04.03.2022
2783 Clouds -1 1017 69 10000 3.09 180 20:27 04.03.2022
2784 Clouds -1 1017 74 10000 3.09 190 19:36 04.03.2022
2785 Clouds -1 1017 74 10000 2.06 0 18:45 04.03.2022
2786 Clouds -1 1018 74 10000 4.12 240 17:39 04.03.2022
2787 Clouds -1 1018 74 10000 5.14 240 16:54 04.03.2022
2788 Clouds -1 1019 69 10000 5.66 240 15:29 04.03.2022
2789 Clouds -1 1019 69 10000 6.17 240 14:33 04.03.2022
2790 Clouds -1 1019 69 10000 5.14 260 13:26 04.03.2022
2791 Clouds -1 1019 69 10000 5.14 260 13:26 04.03.2022
2792 Clouds -1 1019 69 10000 3.6 280 11:46 04.03.2022
2793 Snow -1 1020 74 4000 5.14 280 10:52 04.03.2022
2794 Snow -2 1019 93 10000 4.12 280 09:52 04.03.2022
2795 Snow -1 1019 64 10000 5.14 280 08:39 04.03.2022
2796 Clouds -1 1019 69 10000 7.2 270 07:36 04.03.2022
2797 Snow -3 1019 100 10000 6.69 270 03:56 04.03.2022
2798 Snow -2 1019 74 10000 5.66 280 00:38 04.03.2022
2799 Snow -3 1019 74 10000 5.66 280 22:28 03.03.2022
2800 Snow -3 1019 80 10000 5.14 280 21:44 03.03.2022
2801 Clouds -3 1019 80 10000 2.57 0 21:26 03.03.2022
2802 Snow -3 1019 68 10000 7.2 280 19:55 03.03.2022
2803 Clouds -2 1018 64 7000 5.14 270 18:54 03.03.2022
2804 Clouds -3 1018 63 10000 6.17 270 18:24 03.03.2022
2805 Snow -3 1018 68 10000 5.66 310 17:31 03.03.2022
2806 Clouds -4 1018 86 500 4.63 0 16:25 03.03.2022
2807 Snow -3 1017 86 5000 2.57 320 15:24 03.03.2022
2808 Snow -4 1017 93 9000 4.12 270 14:43 03.03.2022
2809 Snow -2 1017 69 10000 4.63 320 14:20 03.03.2022
2810 Snow -2 1017 69 10000 4.63 320 14:20 03.03.2022
2811 Snow -2 1017 69 10000 4.63 320 14:20 03.03.2022
2812 Snow -2 1016 64 10000 5.14 0 12:23 03.03.2022
2813 Snow -2 1015 74 2000 4.63 0 10:48 03.03.2022
2814 Snow -2 1015 69 10000 3.6 0 09:41 03.03.2022
2815 Clouds -2 1014 69 10000 4.12 0 08:19 03.03.2022
2816 Clouds -3 1014 80 10000 2.57 0 06:37 03.03.2022
2817 Clouds -1 1013 69 10000 5.66 280 03:21 03.03.2022
2818 Snow 0 1009 80 9000 1.54 0 23:39 02.03.2022
2819 Snow 1 1008 80 9000 2.06 0 22:53 02.03.2022
2820 Snow 0 1007 100 1600 5.66 0 21:36 02.03.2022
2821 Snow 1 1005 93 6000 2.06 0 20:57 02.03.2022
2822 Snow 1 1005 86 8000 5.14 0 20:25 02.03.2022
2823 Snow 1 1004 93 7000 4.12 0 19:37 02.03.2022
2824 Snow 2 1002 87 10000 5.66 0 18:57 02.03.2022
2825 Snow 2 1001 93 9000 4.12 0 18:26 02.03.2022
2826 Snow 1 1000 100 7000 6.69 260 17:37 02.03.2022
2827 Snow 2 999 80 8000 8.23 270 16:51 02.03.2022
2828 Clouds 1 998 80 9000 9.26 280 15:20 02.03.2022
2829 Rain 3 996 87 10000 4.63 0 13:35 02.03.2022
2830 Clouds 2 994 100 10000 5.66 240 12:45 02.03.2022
2831 Rain 2 993 100 10000 6.69 240 12:21 02.03.2022
2832 Rain 2 992 93 10000 7.2 230 11:26 02.03.2022
2833 Snow 2 991 87 10000 6.69 230 10:31 02.03.2022
2834 Drizzle 2 990 80 10000 5.66 220 09:35 02.03.2022
2835 Rain 2 989 75 10000 5.14 210 08:28 02.03.2022
2836 Rain 2 989 75 10000 5.14 220 07:23 02.03.2022
2837 Rain 2 989 64 10000 5.66 210 04:46 02.03.2022
2838 Clear 2 991 75 10000 5.66 220 00:40 02.03.2022
2839 Clear 2 991 75 10000 5.66 220 00:40 02.03.2022
2840 Clouds 3 992 75 10000 5.66 220 23:24 01.03.2022
2841 Clouds 3 992 75 10000 5.14 220 22:37 01.03.2022
2842 Clouds 3 993 75 10000 5.14 220 21:44 01.03.2022
2843 Rain 2 993 80 10000 6.69 230 20:40 01.03.2022
2844 Clouds 2 993 80 10000 6.17 230 20:19 01.03.2022
2845 Clouds 2 994 87 10000 5.14 220 18:53 01.03.2022
2846 Clouds 2 994 93 10000 4.63 220 18:24 01.03.2022
2847 Clouds 1 994 100 10000 4.63 230 17:42 01.03.2022
2848 Clouds 2 995 93 10000 2.57 240 16:37 01.03.2022
2849 Snow 1 996 100 10000 5.14 230 15:47 01.03.2022
2850 Snow 0 997 100 4500 3.09 230 14:54 01.03.2022
2851 Snow 0 997 100 4000 3.09 230 14:31 01.03.2022
2852 Snow 0 998 100 4500 3.09 250 13:26 01.03.2022
2853 Snow 0 999 100 3000 3.6 230 12:37 01.03.2022
2854 Snow 1 1000 80 3500 4.12 220 11:38 01.03.2022
2855 Clouds 1 1001 69 10000 4.12 230 09:53 01.03.2022
2856 Clear 1 1002 69 10000 2.06 290 08:30 01.03.2022
2857 Clear 1 1002 75 10000 1.54 0 07:19 01.03.2022
2858 Clouds 1 1007 69 10000 1.54 240 03:27 01.03.2022
2859 Clouds 0 1009 69 10000 2.06 20 00:49 01.03.2022
2860 Clouds 1 1010 75 10000 1.03 0 23:47 28.02.2022
2861 Clouds 2 1011 69 10000 3.6 140 22:43 28.02.2022
2862 Clouds 1 1012 86 10000 0 0 21:48 28.02.2022
2863 Clouds -1 1012 100 10000 1.03 0 20:55 28.02.2022
2864 Clouds 0 1013 100 10000 1.03 0 19:51 28.02.2022
2865 Clouds -1 1013 100 2200 0.51 0 18:57 28.02.2022
2866 Snow -1 1014 100 9000 2.57 30 17:57 28.02.2022
2867 Snow -1 1014 100 10000 3.09 30 17:23 28.02.2022
2868 Clouds -1 1014 100 1600 3.6 50 16:32 28.02.2022
2869 Snow 0 1014 100 10000 0 0 15:19 28.02.2022
2870 Clouds 0 1014 100 9000 3.09 200 14:29 28.02.2022
2871 Snow 0 1013 100 10000 2.57 220 13:24 28.02.2022
2872 Snow 0 1013 100 10000 2.06 240 12:31 28.02.2022
2873 Snow 0 1012 100 10000 2.06 250 11:21 28.02.2022
2874 Snow 0 1011 86 3500 1.54 0 10:24 28.02.2022
2875 Snow -1 1011 100 10000 1.54 40 09:53 28.02.2022
2876 Snow -1 1010 93 8000 3.6 20 09:27 28.02.2022
2877 Snow 0 1009 93 10000 6.17 360 08:26 28.02.2022
2878 Clouds 1 1006 100 5000 5.66 350 06:53 28.02.2022
2879 Snow 1 1002 100 2000 7.2 260 04:31 28.02.2022
2880 Snow 1 1000 100 4700 7.2 280 02:41 28.02.2022
2881 Rain 3 989 87 6000 19.55 260 23:19 27.02.2022
2882 Rain 3 985 81 7000 25.72 240 22:33 27.02.2022
2883 Drizzle 2 986 87 10000 21.61 230 21:46 27.02.2022
2884 Clouds 4 988 70 10000 20.06 240 20:54 27.02.2022
2885 Rain 6 989 56 10000 19.55 240 20:25 27.02.2022
2886 Rain 6 989 61 10000 17.49 240 19:56 27.02.2022
2887 Drizzle 7 990 57 10000 19.03 240 19:26 27.02.2022
2888 Drizzle 5 991 70 10000 5.66 220 18:39 27.02.2022
2889 Drizzle 6 992 65 10000 4.12 220 17:54 27.02.2022
2890 Rain 5 994 75 10000 6.69 230 16:37 27.02.2022
2891 Clouds 4 996 81 10000 6.17 230 15:55 27.02.2022
2892 Rain 3 999 87 10000 7.2 250 12:53 27.02.2022
2893 Rain 4 999 81 10000 6.69 240 12:29 27.02.2022
2894 Rain 4 999 75 10000 13.89 240 10:54 27.02.2022
2895 Rain 5 999 70 10000 8.75 240 09:58 27.02.2022
2896 Rain 5 999 70 10000 8.75 240 09:37 27.02.2022
2897 Clouds 5 998 75 10000 14.4 240 09:18 27.02.2022
2898 Clouds 6 997 75 10000 18.52 240 07:34 27.02.2022
2899 Clouds 4 996 87 10000 10.29 230 05:38 27.02.2022
2900 Snow -3 999 86 10000 4.63 210 00:53 27.02.2022
2901 Snow -5 1000 93 10000 4.12 0 22:58 26.02.2022
2902 Snow -5 1002 86 10000 4.12 0 21:44 26.02.2022
2903 Snow -4 1003 68 10000 6.17 200 20:52 26.02.2022
2904 Clouds -4 1004 68 10000 3.6 0 20:19 26.02.2022
2905 Snow -4 1005 68 10000 5.66 200 19:46 26.02.2022
2906 Clouds -4 1007 63 10000 4.63 190 19:22 26.02.2022
2907 Clouds -3 1009 63 10000 3.09 190 17:46 26.02.2022
2908 Clouds -4 1010 68 10000 4.12 200 16:52 26.02.2022
2909 Clouds -5 1011 93 10000 2.57 220 15:57 26.02.2022
2910 Snow -4 1012 93 10000 3.6 220 15:23 26.02.2022
2911 Snow -4 1012 100 10000 4.12 230 14:54 26.02.2022
2912 Snow -4 1012 100 10000 4.12 230 14:36 26.02.2022
2913 Snow -4 1012 93 10000 7.72 230 13:24 26.02.2022
2914 Snow -4 1012 93 7000 7.72 230 12:31 26.02.2022
2915 Snow -4 1011 93 10000 9.26 230 11:29 26.02.2022
2916 Snow -4 1011 93 7000 8.23 230 10:51 26.02.2022
2917 Snow -5 1011 86 10000 4.63 210 09:18 26.02.2022
2918 Snow -6 1010 100 4500 5.14 210 07:57 26.02.2022
2919 Clouds -6 1008 68 10000 4.12 240 02:53 26.02.2022
2920 Clouds -7 1006 73 10000 3.09 320 23:31 25.02.2022
2921 Clouds -6 1004 79 10000 4.12 310 21:49 25.02.2022
2922 Clouds -6 1003 73 10000 5.14 10 21:29 25.02.2022
2923 Clouds -6 1002 79 10000 4.63 10 20:33 25.02.2022
2924 Snow -6 1001 86 10000 5.14 20 19:41 25.02.2022
2925 Snow -5 999 68 10000 6.17 10 17:35 25.02.2022
2926 Snow -5 997 74 10000 6.69 10 16:45 25.02.2022
2927 Snow -5 995 80 5000 7.72 10 15:49 25.02.2022
2928 Snow -5 994 86 2500 8.23 10 15:23 25.02.2022
2929 Snow -4 993 80 5000 11.32 10 14:49 25.02.2022
2930 Snow -4 993 86 4000 11.32 10 14:18 25.02.2022
2931 Snow -3 990 80 7000 7.72 20 13:20 25.02.2022
2932 Snow -3 990 80 7000 7.72 20 13:20 25.02.2022
2933 Snow -2 988 69 10000 9.26 20 11:39 25.02.2022
2934 Snow -3 987 86 8000 8.75 30 11:18 25.02.2022
2935 Snow -3 985 86 2000 8.23 30 10:23 25.02.2022
2936 Snow -2 984 80 4000 6.69 30 09:36 25.02.2022
2937 Clouds -2 981 80 10000 6.17 30 07:48 25.02.2022
2938 Snow -2 980 80 8000 9.77 30 06:51 25.02.2022
2939 Snow -2 979 93 4100 9.26 40 05:38 25.02.2022
2940 Clouds -2 975 64 10000 2.57 10 00:46 25.02.2022
2941 Clouds -3 973 74 10000 0 0 22:31 24.02.2022
2942 Clouds -2 973 69 10000 1.54 0 21:43 24.02.2022
2943 Clouds -3 972 74 10000 2.06 290 21:21 24.02.2022
2944 Clouds -3 972 80 10000 2.57 290 20:44 24.02.2022
2945 Clouds -3 971 80 10000 3.6 240 19:31 24.02.2022
2946 Clouds -3 971 74 10000 3.09 240 18:20 24.02.2022
2947 Clouds -3 970 74 10000 3.6 240 17:52 24.02.2022
2948 Clouds -3 970 80 10000 2.57 260 17:19 24.02.2022
2949 Clouds -3 970 80 10000 6.17 250 16:28 24.02.2022
2950 Clouds -3 970 80 10000 6.17 250 15:42 24.02.2022
2951 Clouds -4 970 80 10000 5.14 220 14:45 24.02.2022
2952 Clouds -4 970 80 10000 5.14 220 13:59 24.02.2022
2953 Clouds -4 970 80 10000 5.14 220 13:37 24.02.2022
2954 Snow -6 972 86 6000 3.6 210 11:38 24.02.2022
2955 Snow -6 972 73 10000 3.09 210 10:31 24.02.2022
2956 Snow -6 973 68 10000 7.2 200 08:43 24.02.2022
2957 Snow -6 973 68 10000 7.2 200 08:43 24.02.2022
2958 Clouds -7 975 73 10000 2.06 0 07:22 24.02.2022
2959 Clouds -9 977 73 10000 4.12 140 05:40 24.02.2022
2960 Clear -10 985 67 10000 1.54 220 00:31 24.02.2022
2961 Clouds -10 985 67 10000 0.51 0 22:22 23.02.2022
2962 Clouds -10 987 73 10000 3.6 180 20:45 23.02.2022
2963 Clouds -10 987 73 10000 5.66 200 20:26 23.02.2022
2964 Clouds -10 988 73 10000 5.66 190 19:35 23.02.2022
2965 Clouds -9 988 73 10000 7.72 200 18:26 23.02.2022
2966 Clouds -8 990 67 10000 3.6 190 16:33 23.02.2022
2967 Clouds -8 994 67 10000 4.63 180 14:22 23.02.2022
2968 Clear -6 995 63 10000 5.66 200 12:37 23.02.2022
2969 Clear -6 995 68 10000 3.6 210 11:23 23.02.2022
2970 Clear -5 996 58 10000 3.09 200 10:23 23.02.2022
2971 Clear -6 996 68 10000 2.57 260 08:55 23.02.2022
2972 Clear -7 997 73 10000 3.09 270 07:56 23.02.2022
2973 Clear -10 999 92 10000 1.03 0 03:29 23.02.2022
2974 Clear -10 999 92 10000 0.51 0 00:18 23.02.2022
2975 Clear -10 999 100 10000 0 0 23:34 22.02.2022
2976 Clear -11 999 92 10000 0 0 22:28 22.02.2022
2977 Clouds -9 999 92 10000 0 0 21:48 22.02.2022
2978 Clouds -9 999 92 10000 0 0 21:24 22.02.2022
2979 Clouds -7 999 93 10000 1.54 0 20:47 22.02.2022
2980 Clouds -6 999 93 10000 1.54 240 20:28 22.02.2022
2981 Clouds -6 999 93 10000 2.06 260 19:34 22.02.2022
2982 Clouds -5 999 100 5000 1.54 0 18:50 22.02.2022
2983 Clouds -4 999 93 8000 2.57 200 17:36 22.02.2022
2984 Clouds -5 999 100 8000 3.6 230 16:58 22.02.2022
2985 Clouds -4 999 93 900 3.09 240 16:26 22.02.2022
2986 Snow -4 999 93 2500 3.09 250 15:37 22.02.2022
2987 Clouds -5 999 100 10000 1.54 210 14:42 22.02.2022
2988 Snow -5 999 93 350 2.06 220 11:41 22.02.2022
2989 Snow -6 999 86 1000 1.54 230 10:24 22.02.2022
2990 Snow -9 999 86 10000 0 0 07:43 22.02.2022
2991 Clear -10 999 85 10000 0 0 07:25 22.02.2022
2992 Clear -10 999 85 10000 0 0 07:25 22.02.2022
2993 Clear -9 998 79 10000 0.51 0 02:51 22.02.2022
2994 Clear -8 998 73 10000 0 0 00:48 22.02.2022
2995 Clear -9 998 73 10000 1.03 0 22:38 21.02.2022
2996 Clear -9 997 73 10000 1.03 0 21:25 21.02.2022
2997 Clear -8 997 73 10000 1.54 30 20:29 21.02.2022
2998 Clear -8 996 73 10000 2.57 40 18:41 21.02.2022
2999 Clear -8 995 73 10000 2.57 20 16:48 21.02.2022
3000 Clear -7 995 68 10000 1.54 40 14:24 21.02.2022
3001 Clear -7 995 68 10000 1.54 0 13:59 21.02.2022
3002 Clear -5 994 63 10000 0.51 0 12:59 21.02.2022
3003 Clear -9 994 73 10000 1.03 0 12:22 21.02.2022
3004 Clear -8 993 67 10000 1.03 0 10:45 21.02.2022
3005 Clear -8 992 73 10000 1.03 0 08:44 21.02.2022
3006 Clear -8 991 73 10000 1.03 0 02:31 21.02.2022
3007 Clear -7 991 73 10000 1.03 0 23:29 20.02.2022
3008 Clear -7 991 73 10000 3.6 130 22:19 20.02.2022
3009 Clear -7 991 73 10000 3.09 130 21:41 20.02.2022
3010 Clear -7 991 73 10000 1.03 0 20:52 20.02.2022
3011 Clear -8 991 79 10000 1.54 0 20:22 20.02.2022
3012 Clear -9 991 73 10000 1.54 60 19:29 20.02.2022
3013 Clear -8 991 73 10000 1.54 0 18:49 20.02.2022
3014 Clear -8 991 79 10000 1.54 40 18:30 20.02.2022
3015 Clear -9 991 79 10000 1.03 0 17:34 20.02.2022
3016 Clear -8 991 79 10000 1.03 0 15:30 20.02.2022
3017 Clear -7 991 79 10000 1.03 60 14:39 20.02.2022
3018 Clear -7 991 73 10000 1.03 0 13:23 20.02.2022
3019 Clouds -8 990 79 10000 0.51 0 12:20 20.02.2022
3020 Clouds -8 990 86 10000 1.03 0 10:21 20.02.2022
3021 Clouds -9 990 86 10000 1.03 0 09:53 20.02.2022
3022 Clouds -9 989 79 10000 1.54 0 06:46 20.02.2022
3023 Clouds -5 989 74 10000 2.57 40 00:54 20.02.2022
3024 Clouds -6 989 79 10000 2.57 40 00:29 20.02.2022
3025 Clouds -5 988 93 8000 3.09 60 22:25 19.02.2022
3026 Clouds -5 988 80 10000 2.06 30 21:57 19.02.2022
3027 Clouds -6 988 86 10000 4.12 40 20:48 19.02.2022
3028 Clouds -5 988 93 10000 4.63 60 19:42 19.02.2022
3029 Snow -5 987 93 10000 3.6 30 19:20 19.02.2022
3030 Clouds -4 987 86 10000 4.63 60 18:29 19.02.2022
3031 Snow -5 987 86 10000 4.63 30 17:33 19.02.2022
3032 Clouds -4 987 80 10000 5.66 50 16:22 19.02.2022
3033 Snow -5 986 80 10000 6.17 60 14:56 19.02.2022
3034 Clouds -5 986 80 10000 6.17 60 14:37 19.02.2022
3035 Clouds -4 985 86 10000 7.2 70 11:59 19.02.2022
3036 Snow -4 985 86 10000 7.2 70 11:36 19.02.2022
3037 Snow -4 984 74 10000 5.14 70 09:36 19.02.2022
3038 Clouds -4 984 86 10000 6.69 80 06:53 19.02.2022
3039 Clouds -4 984 93 10000 7.2 70 02:38 19.02.2022
3040 Clouds -3 984 74 10000 9.77 70 23:28 18.02.2022
3041 Clouds -3 984 74 10000 11.83 70 21:49 18.02.2022
3042 Clouds -3 985 80 5000 12.35 70 20:39 18.02.2022
3043 Clouds -3 984 74 10000 12.35 70 19:51 18.02.2022
3044 Clouds -3 985 80 10000 11.32 70 18:50 18.02.2022
3045 Clouds -3 985 80 10000 9.26 70 18:20 18.02.2022
3046 Clouds -3 985 80 10000 9.77 70 17:25 18.02.2022
3047 Clouds -2 985 80 10000 6.69 70 14:48 18.02.2022
3048 Snow -2 985 74 10000 8.75 50 13:54 18.02.2022
3049 Clouds -3 986 74 10000 8.75 60 12:51 18.02.2022
3050 Clouds -2 986 69 10000 10.29 70 11:58 18.02.2022
3051 Clouds -2 986 69 10000 10.29 70 11:58 18.02.2022
3052 Clouds -2 986 69 10000 9.77 70 11:21 18.02.2022
3053 Clouds -2 986 80 2500 8.75 70 09:33 18.02.2022
3054 Clouds -2 986 86 10000 11.83 70 06:54 18.02.2022
3055 Clouds -2 987 86 10000 11.32 70 05:39 18.02.2022
3056 Clouds -3 988 74 10000 4.63 70 22:57 17.02.2022
3057 Clouds -4 988 80 10000 3.09 70 21:44 17.02.2022
3058 Clouds -4 988 74 10000 3.6 80 20:59 17.02.2022
3059 Clouds -4 989 80 10000 4.12 90 20:34 17.02.2022
3060 Clouds -5 989 86 10000 4.63 60 19:48 17.02.2022
3061 Clouds -5 989 86 10000 4.63 60 19:48 17.02.2022
3062 Clouds -5 989 80 10000 6.17 70 18:41 17.02.2022
3063 Clouds -6 989 79 10000 5.14 70 17:50 17.02.2022
3064 Clouds -5 989 74 10000 6.17 80 16:20 17.02.2022
3065 Clouds -6 989 73 10000 5.66 60 15:30 17.02.2022
3066 Clouds -4 990 58 10000 3.09 80 14:25 17.02.2022
3067 Clouds -4 990 68 10000 2.06 0 12:35 17.02.2022
3068 Clouds -5 990 80 10000 6.69 70 11:21 17.02.2022
3069 Clouds -5 991 74 10000 5.14 80 08:45 17.02.2022
3070 Clouds -7 994 86 10000 3.6 70 00:31 17.02.2022
3071 Clouds -8 995 86 10000 3.6 40 22:59 16.02.2022
3072 Clouds -8 996 79 10000 2.06 0 21:31 16.02.2022
3073 Clouds -7 996 93 10000 1.54 0 19:46 16.02.2022
3074 Clouds -9 997 92 10000 1.54 70 18:38 16.02.2022
3075 Clouds -7 997 100 10000 1.54 40 17:49 16.02.2022
3076 Clouds -7 998 100 10000 1.03 0 15:38 16.02.2022
3077 Clouds -7 998 86 10000 1.03 0 14:59 16.02.2022
3078 Clouds -5 1000 93 10000 0 0 12:35 16.02.2022
3079 Clouds -4 1000 86 10000 1.03 0 11:58 16.02.2022
3080 Clouds -5 1000 93 10000 1.54 0 11:24 16.02.2022
3081 Clouds -5 1000 86 10000 1.03 0 10:33 16.02.2022
3082 Clouds -3 1001 93 9000 5.14 10 07:21 16.02.2022
3083 Clouds -5 1001 80 10000 7.72 60 05:20 16.02.2022
3084 Snow -1 1003 86 6000 5.14 40 23:45 15.02.2022
3085 Snow -2 1003 100 10000 3.6 30 22:29 15.02.2022
3086 Snow -2 1003 93 2000 2.06 50 21:47 15.02.2022
3087 Snow -2 1003 93 1000 4.63 70 21:27 15.02.2022
3088 Snow -2 1005 87 562 3.26 4 20:56 15.02.2022
3089 Clouds -2 1003 93 10000 4.12 10 19:57 15.02.2022
3090 Snow -1 1003 86 10000 2.57 0 18:56 15.02.2022
3091 Snow -1 1003 86 10000 3.09 340 18:21 15.02.2022
3092 Clouds -2 1004 93 8000 3.6 280 17:50 15.02.2022
3093 Snow -2 1004 86 10000 2.06 0 16:50 15.02.2022
3094 Snow -2 1004 74 10000 6.69 330 15:28 15.02.2022
3095 Snow -2 1003 64 10000 6.69 350 13:27 15.02.2022
3096 Clouds -2 1003 59 10000 3.6 350 12:37 15.02.2022
3097 Clouds -2 1003 54 10000 3.6 350 11:27 15.02.2022
3098 Clouds -2 1002 50 10000 5.66 350 09:31 15.02.2022
3099 Clouds -2 1001 54 10000 7.2 350 06:58 15.02.2022
3100 Clouds -2 1000 69 10000 2.57 0 04:54 15.02.2022
3101 Clouds -3 998 68 10000 8.75 350 23:33 14.02.2022
3102 Snow -3 997 80 1500 10.29 360 21:47 14.02.2022
3103 Clouds -3 996 80 10000 6.69 350 20:40 14.02.2022
3104 Clouds -1 995 51 10000 9.77 330 19:36 14.02.2022
3105 Clouds -1 995 55 10000 5.66 0 18:44 14.02.2022
3106 Clouds -1 994 64 10000 9.26 350 18:23 14.02.2022
3107 Clouds -1 993 64 10000 9.26 350 17:26 14.02.2022
3108 Snow 0 992 74 10000 11.83 350 16:25 14.02.2022
3109 Clouds -1 990 80 10000 9.77 350 14:31 14.02.2022
3110 Clouds 0 989 74 10000 8.23 360 13:33 14.02.2022
3111 Clouds 0 989 74 10000 8.23 360 13:33 14.02.2022
3112 Clouds -1 988 86 8000 8.23 10 12:52 14.02.2022
3113 Snow -1 987 74 9000 11.32 360 11:55 14.02.2022
3114 Clouds -2 987 86 4500 13.38 360 10:58 14.02.2022
3115 Snow -2 985 86 9000 9.77 350 08:46 14.02.2022
3116 Snow -2 984 93 4500 11.83 350 07:33 14.02.2022
3117 Snow -2 983 86 1000 9.77 350 06:32 14.02.2022
3118 Snow -8 983 73 10000 2.57 140 22:43 13.02.2022
3119 Snow -8 984 73 10000 3.6 120 22:25 13.02.2022
3120 Clouds -7 984 73 10000 4.12 120 21:36 13.02.2022
3121 Clouds -7 984 73 10000 4.12 100 20:42 13.02.2022
3122 Clouds -6 984 79 7000 5.66 190 19:51 13.02.2022
3123 Clouds -6 985 79 10000 5.14 200 18:56 13.02.2022
3124 Clouds -6 985 79 10000 5.14 200 18:38 13.02.2022
3125 Clouds -7 986 73 10000 7.72 200 16:39 13.02.2022
3126 Clouds -7 987 73 10000 6.17 180 15:42 13.02.2022
3127 Clouds -7 987 73 10000 4.63 180 14:37 13.02.2022
3128 Clear -8 990 73 10000 1.54 0 12:52 13.02.2022
3129 Clouds -7 990 68 10000 5.14 200 12:33 13.02.2022
3130 Clouds -7 991 68 10000 5.14 190 10:38 13.02.2022
3131 Clouds -6 992 58 10000 3.09 0 09:49 13.02.2022
3132 Clouds -5 992 50 10000 2.57 0 08:33 13.02.2022
3133 Clouds -1 996 59 10000 6.17 240 01:24 13.02.2022
3134 Clouds -2 996 80 10000 7.2 240 00:21 13.02.2022
3135 Snow -2 996 86 10000 8.75 230 22:34 12.02.2022
3136 Clouds -3 995 86 10000 3.6 250 21:41 12.02.2022
3137 Snow -2 995 86 10000 7.2 240 20:55 12.02.2022
3138 Snow -3 995 93 1300 6.69 260 19:56 12.02.2022
3139 Clouds -3 995 100 3900 9.26 230 18:54 12.02.2022
3140 Clouds -3 995 100 10000 8.75 230 18:36 12.02.2022
3141 Snow -3 995 100 10000 8.75 230 17:39 12.02.2022
3142 Snow -4 995 100 3500 9.77 240 16:45 12.02.2022
3143 Clouds -3 995 100 1500 10.8 230 15:53 12.02.2022
3144 Snow -3 995 100 10000 9.26 230 15:20 12.02.2022
3145 Clouds -3 995 86 3000 4.63 250 14:25 12.02.2022
3146 Clouds -3 994 74 10000 7.72 240 11:33 12.02.2022
3147 Clouds -4 994 86 10000 2.57 220 10:32 12.02.2022
3148 Snow -3 993 74 10000 6.17 240 09:37 12.02.2022
3149 Clouds -4 993 100 10000 3.09 250 08:47 12.02.2022
3150 Snow -3 993 80 10000 5.14 240 07:45 12.02.2022
3151 Clouds -3 993 80 10000 4.12 240 04:50 12.02.2022
3152 Clouds -4 993 100 2400 9.26 240 02:19 12.02.2022
3153 Clouds -3 993 100 1500 7.2 240 23:34 11.02.2022
3154 Snow -3 993 86 10000 3.09 270 22:23 11.02.2022
3155 Clouds -2 992 80 10000 5.66 240 21:37 11.02.2022
3156 Clouds -1 992 59 10000 4.12 280 20:29 11.02.2022
3157 Clouds -1 992 55 10000 4.63 280 19:29 11.02.2022
3158 Snow -1 992 59 10000 5.14 280 18:44 11.02.2022
3159 Clouds -2 992 64 10000 5.14 280 17:27 11.02.2022
3160 Clouds -1 991 64 10000 6.17 280 16:47 11.02.2022
3161 Clouds -1 991 59 10000 6.17 280 15:26 11.02.2022
3162 Clouds -1 991 59 10000 4.63 280 14:38 11.02.2022
3163 Clouds 0 990 55 10000 1.54 0 14:20 11.02.2022
3164 Snow 0 990 59 10000 3.6 0 13:47 11.02.2022
3165 Clouds 0 990 64 10000 2.06 0 13:28 11.02.2022
3166 Snow 0 988 80 10000 4.12 0 11:23 11.02.2022
3167 Snow 1 986 64 10000 6.17 280 09:38 11.02.2022
3168 Clouds 0 985 80 10000 4.12 0 08:36 11.02.2022
3169 Snow 0 984 86 5000 4.12 0 07:47 11.02.2022
3170 Snow 1 981 86 5000 7.2 340 06:30 11.02.2022
3171 Clouds 1 980 75 10000 12.35 240 02:24 11.02.2022
3172 Clouds -2 980 93 4000 5.14 220 00:44 11.02.2022
3173 Clouds -3 979 74 10000 1.54 280 22:39 10.02.2022
3174 Clouds -4 979 74 10000 3.6 240 21:43 10.02.2022
3175 Clear -4 978 80 10000 4.12 250 20:52 10.02.2022
3176 Clear -6 978 73 10000 1.03 0 20:24 10.02.2022
3177 Clear -5 978 74 10000 1.54 0 19:24 10.02.2022
3178 Clear -7 977 79 10000 0.51 0 18:33 10.02.2022
3179 Clear -5 977 68 10000 0 0 17:25 10.02.2022
3180 Clear -5 976 74 10000 1.03 0 16:47 10.02.2022
3181 Clear -4 976 74 10000 2.06 250 15:42 10.02.2022
3182 Clear -5 976 74 10000 2.06 250 15:24 10.02.2022
3183 Clear -6 975 73 10000 1.03 0 14:44 10.02.2022
3184 Clear -4 975 68 10000 2.06 250 14:22 10.02.2022
3185 Clear -4 975 68 10000 3.09 240 13:20 10.02.2022
3186 Clear -5 975 63 10000 1.03 0 11:58 10.02.2022
3187 Clear -5 975 63 10000 1.03 0 11:32 10.02.2022
3188 Clear -8 974 73 10000 0.51 0 10:32 10.02.2022
3189 Clear -9 974 79 10000 1.54 0 09:49 10.02.2022
3190 Clear -9 974 73 10000 0 0 08:53 10.02.2022
3191 Clear -8 974 73 10000 1.54 230 06:42 10.02.2022
3192 Clouds -6 975 73 10000 4.63 210 03:39 10.02.2022
3193 Clear -5 975 68 10000 4.63 230 01:19 10.02.2022
3194 Clear -5 975 68 10000 4.12 210 00:42 10.02.2022
3195 Clear -5 976 68 10000 4.12 210 00:23 10.02.2022
3196 Clear -5 976 68 10000 5.14 240 22:58 09.02.2022
3197 Clear -4 976 58 10000 3.6 310 22:33 09.02.2022
3198 Clear -5 976 68 10000 4.12 240 21:49 09.02.2022
3199 Clear -5 976 68 10000 6.17 230 21:28 09.02.2022
3200 Clear -5 976 68 10000 5.66 230 20:45 09.02.2022
3201 Clear -5 976 68 10000 5.66 230 20:23 09.02.2022
3202 Clear -5 977 68 10000 4.63 230 19:43 09.02.2022
3203 Clear -5 976 68 10000 6.17 210 18:55 09.02.2022
3204 Clear -5 977 68 10000 4.12 230 17:24 09.02.2022
3205 Clear -5 977 68 10000 5.14 210 16:25 09.02.2022
3206 Clear -4 977 68 10000 3.09 210 15:32 09.02.2022
3207 Clear -3 978 68 10000 3.09 220 13:56 09.02.2022
3208 Clear -3 978 68 10000 2.06 260 12:25 09.02.2022
3209 Clouds -3 979 74 10000 5.14 230 10:37 09.02.2022
3210 Clouds -3 979 68 10000 2.06 0 09:57 09.02.2022
3211 Clouds -4 979 74 10000 2.57 220 09:22 09.02.2022
3212 Clouds -4 979 74 10000 1.03 0 08:51 09.02.2022
3213 Clouds -3 979 68 10000 5.66 220 07:28 09.02.2022
3214 Clear -3 979 68 10000 4.12 240 05:29 09.02.2022
3215 Clouds -3 980 68 10000 3.09 250 03:49 09.02.2022
3216 Clouds -2 981 74 10000 4.12 210 23:57 08.02.2022
3217 Clouds -2 982 74 10000 6.17 190 23:29 08.02.2022
3218 Clouds -3 982 74 10000 4.12 190 22:43 08.02.2022
3219 Clouds -3 982 74 10000 6.69 200 22:20 08.02.2022
3220 Clouds -3 982 74 10000 5.14 190 21:38 08.02.2022
3221 Clouds -3 982 80 10000 6.69 190 21:19 08.02.2022
3222 Clouds -2 982 74 10000 7.72 190 20:41 08.02.2022
3223 Clouds -2 983 74 10000 7.2 200 19:31 08.02.2022
3224 Clouds -2 983 74 10000 10.29 200 18:24 08.02.2022
3225 Clouds -2 983 74 10000 9.77 200 17:33 08.02.2022
3226 Clouds -2 984 69 10000 10.8 210 15:52 08.02.2022
3227 Clouds -2 984 69 10000 10.29 200 15:28 08.02.2022
3228 Clouds -3 985 74 10000 8.75 200 13:54 08.02.2022
3229 Clear -3 985 74 10000 10.8 200 12:39 08.02.2022
3230 Clear -2 986 69 10000 8.75 190 10:55 08.02.2022
3231 Clear -2 987 74 10000 5.66 210 09:51 08.02.2022
3232 Clear -2 988 69 10000 5.14 210 08:54 08.02.2022
3233 Clouds -2 989 64 10000 0 0 07:27 08.02.2022
3234 Clouds -2 990 74 10000 4.12 210 04:40 08.02.2022
3235 Clouds -1 990 69 10000 3.09 240 04:22 08.02.2022
3236 Clouds -1 990 74 10000 3.09 220 03:36 08.02.2022
3237 Clouds -1 990 74 10000 2.06 220 03:18 08.02.2022
3238 Clouds -1 990 80 10000 4.12 220 02:59 08.02.2022
3239 Clouds -1 990 80 10000 4.12 220 02:37 08.02.2022
3240 Clouds 0 991 74 10000 5.14 220 02:18 08.02.2022
3241 Clouds 0 991 74 10000 4.63 220 01:45 08.02.2022
3242 Clouds -1 991 86 10000 5.66 220 01:25 08.02.2022
3243 Clouds 0 991 80 10000 5.66 220 00:55 08.02.2022
3244 Clouds 0 991 80 10000 5.66 220 00:36 08.02.2022
3245 Clouds -1 991 86 10000 4.63 220 23:45 07.02.2022
3246 Clouds -1 991 86 10000 5.66 230 23:18 07.02.2022
3247 Clouds -1 991 80 10000 3.09 240 22:59 07.02.2022
3248 Clouds -1 991 80 10000 3.6 230 22:19 07.02.2022
3249 Clouds -1 990 80 10000 2.06 240 21:51 07.02.2022
3250 Clouds -2 990 86 10000 2.57 230 21:28 07.02.2022
3251 Clouds -2 990 86 10000 2.06 220 20:47 07.02.2022
3252 Clouds -2 990 80 10000 3.09 210 20:29 07.02.2022
3253 Clouds -2 990 80 10000 3.6 230 19:47 07.02.2022
3254 Clouds -2 990 80 10000 3.6 220 18:58 07.02.2022
3255 Clouds -2 990 74 10000 4.12 230 17:38 07.02.2022
3256 Clouds -3 989 74 10000 3.6 230 16:52 07.02.2022
3257 Clouds -4 989 74 10000 4.12 230 15:48 07.02.2022
3258 Clear -4 988 74 10000 1.54 260 14:30 07.02.2022
3259 Clear -4 987 68 10000 2.57 240 13:27 07.02.2022
3260 Clear -4 987 74 10000 4.12 230 12:37 07.02.2022
3261 Clear -4 987 68 10000 4.63 230 11:52 07.02.2022
3262 Clear -4 986 68 10000 5.66 220 11:24 07.02.2022
3263 Clear -4 986 63 10000 4.63 240 10:43 07.02.2022
3264 Clear -5 986 68 10000 4.12 220 10:24 07.02.2022
3265 Clear -5 986 63 10000 3.09 240 09:52 07.02.2022
3266 Clear -5 985 63 10000 4.12 200 09:18 07.02.2022
3267 Clear -5 984 68 10000 2.57 230 07:59 07.02.2022
3268 Clear -5 983 68 10000 4.12 220 06:35 07.02.2022
3269 Clear -5 982 68 10000 6.17 210 05:26 07.02.2022
3270 Clouds -4 981 68 10000 6.69 190 02:56 07.02.2022
3271 Clear -4 979 68 10000 6.69 200 00:29 07.02.2022
3272 Clear -4 979 68 10000 5.66 200 23:40 06.02.2022
3273 Clear -4 978 74 10000 6.69 210 22:46 06.02.2022
3274 Clear -3 978 68 10000 6.17 210 21:51 06.02.2022
3275 Clear -3 978 68 10000 6.17 200 21:21 06.02.2022
3276 Clear -3 978 68 10000 6.17 200 21:21 06.02.2022
3277 Clear -3 978 74 10000 6.69 200 20:48 06.02.2022
3278 Clear -3 978 74 10000 7.2 190 20:24 06.02.2022
3279 Clear -3 977 74 10000 6.69 190 19:30 06.02.2022
3280 Clear -2 977 69 10000 7.2 190 18:35 06.02.2022
3281 Clear -2 976 69 10000 7.72 200 17:54 06.02.2022
3282 Clear -2 976 69 10000 8.75 200 16:52 06.02.2022
3283 Clouds -2 975 69 10000 9.77 210 16:32 06.02.2022
3284 Clouds -2 975 69 10000 8.75 200 15:47 06.02.2022
3285 Clear -2 975 69 10000 10.29 200 15:26 06.02.2022
3286 Clear -3 975 74 10000 8.75 190 14:25 06.02.2022
3287 Clear -2 975 69 10000 8.23 190 13:24 06.02.2022
3288 Clear -2 974 69 10000 11.32 190 12:45 06.02.2022
3289 Clear -1 973 69 10000 8.75 200 11:19 06.02.2022
3290 Clouds -1 973 69 10000 6.17 200 09:48 06.02.2022
3291 Clouds -1 973 69 10000 1.54 0 08:47 06.02.2022
3292 Clouds -1 973 69 10000 5.66 190 07:36 06.02.2022
3293 Clouds -1 971 69 10000 8.75 200 05:29 06.02.2022
3294 Clouds -1 972 74 10000 5.14 180 02:26 06.02.2022
3295 Clouds -1 972 74 10000 7.72 200 01:32 06.02.2022
3296 Clouds -1 972 74 10000 8.75 200 00:24 06.02.2022
3297 Clouds -2 972 74 10000 8.75 210 22:19 05.02.2022
3298 Clouds -2 973 74 10000 8.75 190 20:52 05.02.2022
3299 Clouds -2 973 74 10000 10.29 200 20:24 05.02.2022
3300 Clouds -2 973 74 10000 10.29 190 19:45 05.02.2022
3301 Clouds -2 973 69 10000 9.26 190 18:52 05.02.2022
3302 Clouds -2 973 69 10000 12.35 190 17:38 05.02.2022
3303 Clouds -3 974 74 10000 12.35 180 16:48 05.02.2022
3304 Clouds -3 974 74 10000 10.8 180 15:33 05.02.2022
3305 Clouds -3 975 74 10000 10.29 190 14:47 05.02.2022
3306 Clouds -3 976 68 10000 8.23 190 12:47 05.02.2022
3307 Clouds -3 976 68 10000 8.23 190 11:49 05.02.2022
3308 Clouds -4 976 74 8000 8.23 180 10:47 05.02.2022
3309 Clouds -4 977 74 10000 5.66 190 09:53 05.02.2022
3310 Clouds -4 977 74 10000 4.12 0 09:29 05.02.2022
3311 Clouds -6 977 79 10000 6.17 190 07:38 05.02.2022
3312 Clouds -7 978 79 10000 6.17 190 06:56 05.02.2022
3313 Clouds -7 980 73 10000 4.12 180 04:28 05.02.2022
3314 Snow -10 984 85 900 7.72 120 01:19 05.02.2022
3315 Clouds -10 984 85 4000 9.77 120 00:51 05.02.2022
3316 Clouds -9 985 79 4000 7.72 130 23:38 04.02.2022
3317 Clouds -9 986 79 2500 9.26 130 23:20 04.02.2022
3318 Clouds -10 988 92 800 11.83 110 21:54 04.02.2022
3319 Clouds -10 988 92 800 11.83 110 21:36 04.02.2022
3320 Clouds -10 988 85 1000 15.43 110 21:18 04.02.2022
3321 Snow -9 989 86 500 13.38 120 19:36 04.02.2022
3322 Snow -11 995 85 3500 7.72 110 17:28 04.02.2022
3323 Clouds -11 997 79 6000 8.75 120 15:39 04.02.2022
3324 Clouds -10 997 73 10000 5.14 150 14:52 04.02.2022
3325 Clouds -10 999 73 10000 8.75 130 13:24 04.02.2022
3326 Clouds -9 1000 67 10000 5.14 180 12:42 04.02.2022
3327 Clouds -9 1001 73 10000 6.17 150 11:41 04.02.2022
3328 Clouds -10 1002 73 10000 7.72 130 10:34 04.02.2022
3329 Clouds -10 1003 79 10000 8.75 130 08:34 04.02.2022
3330 Clear -9 1006 67 10000 6.69 130 05:23 04.02.2022
3331 Clear -9 1008 73 10000 5.14 130 02:40 04.02.2022
3332 Clear -8 1009 73 10000 5.14 120 01:22 04.02.2022
3333 Clear -8 1010 73 10000 5.14 110 23:29 03.02.2022
3334 Clear -7 1010 68 10000 4.63 110 22:31 03.02.2022
3335 Clear -7 1010 68 10000 4.12 100 21:48 03.02.2022
3336 Clear -7 1011 68 10000 2.57 180 20:36 03.02.2022
3337 Clear -7 1011 68 10000 3.09 130 20:18 03.02.2022
3338 Clear -7 1011 68 10000 4.63 100 19:26 03.02.2022
3339 Clear -7 1011 73 10000 5.66 100 18:34 03.02.2022
3340 Clear -8 1012 79 10000 4.63 80 17:32 03.02.2022
3341 Clear -11 1012 79 10000 2.57 60 16:24 03.02.2022
3342 Clear -8 1013 73 10000 2.06 50 14:28 03.02.2022
3343 Clear -8 1013 79 10000 2.06 40 12:51 03.02.2022
3344 Clear -9 1013 73 10000 1.03 0 10:45 03.02.2022
3345 Clear -9 1013 86 10000 4.12 50 08:35 03.02.2022
3346 Clouds -9 1012 79 10000 2.06 40 03:57 03.02.2022
3347 Clear -9 1012 79 10000 1.54 0 00:30 03.02.2022
3348 Clear -9 1012 73 10000 0 0 22:55 02.02.2022
3349 Clear -11 1012 79 10000 1.54 70 21:54 02.02.2022
3350 Clear -10 1012 67 10000 0.51 0 21:30 02.02.2022
3351 Clouds -10 1012 73 10000 0 0 20:38 02.02.2022
3352 Clear -9 1011 73 10000 2.06 40 19:55 02.02.2022
3353 Clear -9 1011 79 10000 2.57 50 19:26 02.02.2022
3354 Clear -11 1011 73 10000 1.54 60 18:34 02.02.2022
3355 Clear -10 1011 73 10000 1.54 70 17:44 02.02.2022
3356 Clear -9 1011 73 10000 1.54 0 17:19 02.02.2022
3357 Clear -8 1011 73 10000 2.57 50 16:31 02.02.2022
3358 Clear -8 1010 62 10000 1.03 0 12:55 02.02.2022
3359 Clear -5 1009 54 10000 3.6 190 12:20 02.02.2022
3360 Clear -6 1009 63 10000 5.14 190 11:32 02.02.2022
3361 Clear -6 1008 63 10000 3.6 160 09:47 02.02.2022
3362 Clear -5 1007 63 10000 2.57 200 07:33 02.02.2022
3363 Clear -4 1002 39 10000 4.12 230 22:51 01.02.2022
3364 Clear -4 1002 42 10000 3.6 230 21:40 01.02.2022
3365 Clear -8 1001 73 10000 0.51 0 19:58 01.02.2022
3366 Clouds -6 1001 73 10000 2.57 250 17:43 01.02.2022
3367 Clear -5 1000 80 10000 3.09 260 16:39 01.02.2022
3368 Clear -6 1000 73 10000 2.06 260 13:56 01.02.2022
3369 Clear -5 1000 80 10000 2.57 280 12:42 01.02.2022
3370 Clear -7 1000 79 10000 1.03 0 11:20 01.02.2022
3371 Clouds -7 1001 79 10000 1.54 0 02:34 01.02.2022
3372 Clouds -4 1002 74 10000 2.06 250 23:41 31.01.2022
3373 Clouds -4 1002 80 10000 1.03 0 22:57 31.01.2022
3374 Clouds -4 1002 68 10000 0 0 21:40 31.01.2022
3375 Clouds -5 1002 74 10000 0 0 21:19 31.01.2022
3376 Clouds -5 1003 74 10000 1.54 0 20:29 31.01.2022
3377 Clouds -6 1003 79 10000 1.03 0 19:29 31.01.2022
3378 Clouds -6 1003 73 10000 1.54 60 18:26 31.01.2022
3379 Clouds -4 1003 68 10000 0.51 0 17:32 31.01.2022
3380 Clouds -5 1003 80 10000 0.51 0 16:29 31.01.2022
3381 Clouds -4 1003 80 10000 1.03 0 14:54 31.01.2022
3382 Clouds -3 1003 80 10000 2.06 190 13:52 31.01.2022
3383 Clouds -2 1003 80 10000 5.14 240 12:38 31.01.2022
3384 Snow -2 1003 74 10000 4.12 250 11:55 31.01.2022
3385 Snow -2 1003 74 10000 6.17 240 10:50 31.01.2022
3386 Clouds -2 1003 74 10000 5.14 240 10:25 31.01.2022
3387 Snow -2 1002 69 10000 4.12 220 09:23 31.01.2022
3388 Clouds -2 1002 69 10000 3.6 210 08:47 31.01.2022
3389 Clouds -3 1002 68 10000 3.09 230 08:20 31.01.2022
3390 Clouds -2 1002 64 10000 2.57 220 06:18 31.01.2022
3391 Clouds -1 1002 69 10000 4.63 250 00:55 31.01.2022
3392 Clouds -1 1001 74 10000 5.66 260 22:55 30.01.2022
3393 Clouds -1 1001 64 10000 4.63 250 22:25 30.01.2022
3394 Clouds -2 1001 69 10000 3.09 270 21:40 30.01.2022
3395 Clouds -1 1001 64 10000 3.6 250 21:18 30.01.2022
3396 Clouds -1 1001 69 10000 4.12 250 20:46 30.01.2022
3397 Clouds -1 1001 59 10000 3.09 280 20:27 30.01.2022
3398 Clouds -1 1001 59 10000 2.06 0 19:45 30.01.2022
3399 Clouds -1 1001 59 10000 3.09 330 18:43 30.01.2022
3400 Clouds -1 1001 64 10000 2.06 0 18:20 30.01.2022
3401 Clouds -1 1001 59 10000 3.6 0 17:22 30.01.2022
3402 Clouds -1 1001 64 10000 3.09 0 16:40 30.01.2022
3403 Clouds -1 1001 59 10000 3.6 340 16:22 30.01.2022
3404 Clouds -1 1000 64 10000 3.09 350 15:50 30.01.2022
3405 Clouds -1 1000 59 10000 2.57 320 15:31 30.01.2022
3406 Clouds -2 1000 64 10000 3.6 340 14:46 30.01.2022
3407 Clouds -2 999 64 10000 4.12 360 12:47 30.01.2022
3408 Clouds -2 998 69 10000 3.09 20 11:59 30.01.2022
3409 Clouds -2 997 69 10000 5.14 10 10:36 30.01.2022
3410 Clouds -2 997 69 10000 5.66 10 09:56 30.01.2022
3411 Clouds -2 996 74 10000 6.69 20 08:56 30.01.2022
3412 Clouds -3 995 86 10000 1.54 20 07:29 30.01.2022
3413 Snow -4 990 100 10000 1.03 0 01:56 30.01.2022
3414 Clouds -6 990 100 10000 1.54 50 00:41 30.01.2022
3415 Clouds -5 989 93 10000 1.54 250 23:20 29.01.2022
3416 Snow -8 988 93 10000 0 0 21:59 29.01.2022
3417 Snow -7 988 100 10000 0.51 0 21:26 29.01.2022
3418 Clouds -9 988 86 10000 0 0 20:36 29.01.2022
3419 Clouds -9 988 92 10000 1.54 0 19:36 29.01.2022
3420 Clouds -7 988 93 10000 0 0 18:58 29.01.2022
3421 Snow -7 988 86 6000 1.03 0 18:26 29.01.2022
3422 Snow -8 988 79 10000 1.03 0 17:41 29.01.2022
3423 Clear -7 988 86 10000 1.54 50 16:38 29.01.2022
3424 Clear -8 989 79 10000 1.03 0 14:24 29.01.2022
3425 Clear -9 989 79 10000 0 0 13:45 29.01.2022
3426 Clear -9 989 73 10000 1.03 70 13:24 29.01.2022
3427 Clouds -9 989 79 10000 1.03 0 12:36 29.01.2022
3428 Clouds -7 990 68 10000 2.57 40 11:38 29.01.2022
3429 Clear -10 991 73 10000 1.54 70 09:49 29.01.2022
3430 Clouds -8 993 67 10000 1.03 0 06:55 29.01.2022
3431 Clouds -7 997 86 10000 0.51 0 00:50 29.01.2022
3432 Clouds -7 997 93 10000 0 0 00:31 29.01.2022
3433 Clouds -5 997 93 10000 0.51 0 22:52 28.01.2022
3434 Clouds -4 997 86 8000 0.51 0 22:27 28.01.2022
3435 Clouds -4 997 93 10000 2.06 20 21:52 28.01.2022
3436 Clouds -4 998 80 8000 2.06 40 20:31 28.01.2022
3437 Snow -4 997 80 10000 0 0 19:42 28.01.2022
3438 Snow -4 998 80 10000 0.51 0 18:47 28.01.2022
3439 Snow -4 998 80 10000 1.03 0 17:43 28.01.2022
3440 Snow -3 998 74 10000 3.09 100 15:28 28.01.2022
3441 Snow -5 998 86 10000 1.03 0 13:59 28.01.2022
3442 Snow -5 998 93 10000 1.03 0 12:33 28.01.2022
3443 Snow -5 998 93 10000 0 0 11:38 28.01.2022
3444 Snow -5 998 93 10000 1.03 0 10:21 28.01.2022
3445 Snow -5 998 93 10000 1.03 0 09:44 28.01.2022
3446 Snow -5 997 93 10000 0 0 07:39 28.01.2022
3447 Clouds -6 996 100 10000 1.03 50 05:23 28.01.2022
3448 Clouds -5 995 93 10000 1.03 50 03:47 28.01.2022
3449 Clouds -5 995 100 10000 0.51 0 02:23 28.01.2022
3450 Clouds -5 995 100 10000 0 0 01:33 28.01.2022
3451 Clouds -5 994 100 10000 0 0 23:33 27.01.2022
3452 Clouds -4 993 93 8000 0 0 21:50 27.01.2022
3453 Clouds -4 993 93 9000 1.03 0 21:30 27.01.2022
3454 Clouds -4 993 93 9000 1.03 0 21:30 27.01.2022
3455 Clouds -4 993 93 10000 1.03 0 20:44 27.01.2022
3456 Clouds -4 992 86 10000 2.06 260 19:30 27.01.2022
3457 Clouds -5 992 80 10000 0 0 17:56 27.01.2022
3458 Clear -7 992 79 10000 1.03 0 15:30 27.01.2022
3459 Clouds -5 992 93 10000 0.51 0 13:37 27.01.2022
3460 Clouds -5 992 93 10000 1.03 0 12:46 27.01.2022
3461 Clouds -5 992 93 10000 1.03 0 10:46 27.01.2022
3462 Clouds -5 991 100 10000 1.03 0 09:19 27.01.2022
3463 Clouds -5 991 93 7000 1.03 0 08:37 27.01.2022
3464 Clouds -3 991 100 10000 0 0 05:59 27.01.2022
3465 Clouds -2 992 93 5000 1.03 220 02:57 27.01.2022
3466 Clouds -2 992 93 10000 5.14 230 23:33 26.01.2022
3467 Snow -2 993 100 10000 5.14 230 22:26 26.01.2022
3468 Snow -2 993 100 9000 5.66 230 21:37 26.01.2022
3469 Snow -2 993 100 10000 5.14 230 20:41 26.01.2022
3470 Snow -2 993 100 900 6.17 240 20:23 26.01.2022
3471 Snow -2 993 86 8000 4.63 230 19:23 26.01.2022
3472 Snow -2 993 86 10000 6.17 230 18:45 26.01.2022
3473 Clouds -3 993 86 10000 2.06 230 17:51 26.01.2022
3474 Clouds -3 994 93 10000 1.54 0 17:24 26.01.2022
3475 Snow -3 994 100 10000 2.57 210 16:35 26.01.2022
3476 Snow -2 994 93 10000 5.14 220 15:49 26.01.2022
3477 Snow -2 994 86 10000 6.17 230 14:21 26.01.2022
3478 Clouds -2 995 74 10000 4.63 260 11:54 26.01.2022
3479 Clouds -2 995 80 10000 4.63 240 10:43 26.01.2022
3480 Clouds -2 995 86 10000 8.23 240 09:48 26.01.2022
3481 Snow -2 995 93 10000 6.69 240 08:27 26.01.2022
3482 Clouds -3 997 100 1000 8.23 240 04:24 26.01.2022
3483 Snow -3 997 100 10000 6.17 250 23:58 25.01.2022
3484 Clouds -3 997 93 6000 9.26 240 23:20 25.01.2022
3485 Snow -3 997 86 9000 7.2 260 22:26 25.01.2022
3486 Snow -1 997 64 10000 8.75 240 21:59 25.01.2022
3487 Clouds -2 997 64 6000 11.32 240 20:59 25.01.2022
3488 Clouds -2 997 64 6000 11.32 240 20:40 25.01.2022
3489 Clouds -2 997 80 5000 10.8 240 19:53 25.01.2022
3490 Clouds -2 997 86 4000 8.75 270 18:43 25.01.2022
3491 Clouds -2 997 86 500 10.29 240 17:45 25.01.2022
3492 Clouds -1 997 74 10000 8.23 270 16:47 25.01.2022
3493 Clouds -1 996 80 10000 8.75 240 16:21 25.01.2022
3494 Clouds -2 996 86 10000 7.72 240 15:38 25.01.2022
3495 Snow -1 996 80 10000 9.77 260 14:58 25.01.2022
3496 Snow -2 996 86 1800 12.86 270 13:46 25.01.2022
3497 Clouds -1 995 59 10000 11.32 260 10:58 25.01.2022
3498 Clouds -2 995 80 10000 13.89 270 09:20 25.01.2022
3499 Snow -3 994 86 5000 12.35 270 07:30 25.01.2022
3500 Clouds -2 994 74 5000 11.83 260 06:51 25.01.2022
3501 Snow -2 993 74 2800 12.86 250 05:22 25.01.2022
3502 Snow -2 989 86 6000 11.83 280 23:37 24.01.2022
3503 Snow -3 988 80 7000 12.86 240 23:19 24.01.2022
3504 Clouds -3 988 93 10000 10.29 250 22:59 24.01.2022
3505 Snow -3 988 93 10000 10.29 250 22:41 24.01.2022
3506 Clouds -2 987 100 10000 9.26 240 21:55 24.01.2022
3507 Clouds -2 987 100 10000 9.26 240 21:32 24.01.2022
3508 Snow -2 987 86 8000 11.32 240 20:33 24.01.2022
3509 Snow -1 986 69 10000 12.86 240 19:57 24.01.2022
3510 Clouds -1 986 69 10000 12.86 240 19:35 24.01.2022
3511 Snow -1 985 74 10000 11.83 240 18:35 24.01.2022
3512 Snow -2 985 93 600 10.8 240 17:24 24.01.2022
3513 Snow -3 985 100 10000 10.29 240 16:55 24.01.2022
3514 Snow -3 985 100 2000 11.83 240 16:21 24.01.2022
3515 Snow -3 984 80 10000 12.35 240 14:49 24.01.2022
3516 Snow -2 984 93 2500 14.4 240 13:38 24.01.2022
3517 Snow -1 983 74 10000 13.89 240 12:32 24.01.2022
3518 Clouds -1 983 74 10000 13.38 240 11:20 24.01.2022
3519 Clouds 0 981 74 10000 13.38 240 09:49 24.01.2022
3520 Clouds -1 981 86 5000 13.38 240 09:20 24.01.2022
3521 Snow 0 979 100 900 14.92 240 07:20 24.01.2022
3522 Snow 0 979 100 900 14.92 240 07:20 24.01.2022
3523 Clouds 7 974 65 10000 24.69 230 01:32 24.01.2022
3524 Clouds 6 974 70 10000 9.77 210 00:46 24.01.2022
3525 Clouds 6 975 70 10000 9.77 220 00:27 24.01.2022
3526 Clouds 6 978 65 10000 7.2 220 22:46 23.01.2022
3527 Clouds 6 979 65 10000 6.69 220 21:50 23.01.2022
3528 Clouds 6 980 65 10000 5.66 210 21:27 23.01.2022
3529 Clouds 6 981 65 10000 5.66 220 20:54 23.01.2022
3530 Clouds 6 983 65 10000 7.2 210 19:55 23.01.2022
3531 Clouds 3 984 87 10000 6.69 230 18:52 23.01.2022
3532 Rain 3 986 87 10000 6.69 220 17:52 23.01.2022
3533 Rain 2 987 87 10000 5.14 220 16:48 23.01.2022
3534 Rain 2 989 80 10000 7.2 210 15:18 23.01.2022
3535 Rain 2 989 80 10000 4.63 210 14:32 23.01.2022
3536 Snow 1 991 86 10000 6.17 220 13:27 23.01.2022
3537 Rain 2 991 87 10000 9.26 230 12:36 23.01.2022
3538 Snow 2 991 80 10000 11.32 230 12:18 23.01.2022
3539 Snow 1 991 100 10000 10.29 220 11:24 23.01.2022
3540 Clouds 0 992 100 400 9.26 220 10:57 23.01.2022
3541 Clouds 0 992 100 1500 9.26 230 10:21 23.01.2022
3542 Snow 1 992 93 10000 10.8 220 09:22 23.01.2022
3543 Clouds 3 989 70 10000 14.92 240 05:59 23.01.2022
3544 Clouds 3 987 70 10000 14.4 240 03:20 23.01.2022
3545 Clouds 2 986 75 10000 13.38 230 01:35 23.01.2022
3546 Snow 1 985 86 6000 7.2 210 00:42 23.01.2022
3547 Snow 0 985 80 8000 9.26 200 23:57 22.01.2022
3548 Snow -1 988 86 6000 7.2 200 22:48 22.01.2022
3549 Snow -1 991 86 1600 6.17 200 21:58 22.01.2022
3550 Rain 2 993 64 10000 6.69 220 20:29 22.01.2022
3551 Clouds 2 993 69 10000 4.12 220 19:37 22.01.2022
3552 Clouds 2 995 69 10000 4.63 220 18:37 22.01.2022
3553 Clouds 2 996 69 10000 4.12 240 17:42 22.01.2022
3554 Clouds 0 997 80 10000 3.09 270 17:18 22.01.2022
3555 Clouds 0 998 80 10000 4.12 250 16:22 22.01.2022
3556 Clouds 1 999 80 10000 5.66 230 15:44 22.01.2022
3557 Clouds -1 1000 86 10000 4.63 240 14:22 22.01.2022
3558 Clouds -1 1000 86 10000 5.14 230 13:28 22.01.2022
3559 Clouds -1 1000 86 10000 4.63 230 12:37 22.01.2022
3560 Clouds -2 1001 86 10000 5.66 230 12:18 22.01.2022
3561 Clouds -3 1001 86 10000 5.66 230 10:39 22.01.2022
3562 Clouds -2 1001 80 10000 5.66 240 10:20 22.01.2022
3563 Clouds -2 1001 64 10000 6.17 230 08:56 22.01.2022
3564 Clouds -2 1001 64 10000 6.17 230 08:38 22.01.2022
3565 Clouds -2 1002 54 10000 4.12 240 06:46 22.01.2022
3566 Clouds -3 1007 63 10000 5.14 190 02:40 22.01.2022
3567 Clouds -3 1010 80 10000 3.6 0 23:50 21.01.2022
3568 Clouds -3 1010 80 10000 3.09 220 23:21 21.01.2022
3569 Clouds -2 1011 80 10000 3.6 210 21:34 21.01.2022
3570 Snow -4 1012 74 10000 1.54 0 19:35 21.01.2022
3571 Clouds -6 1012 79 10000 0.51 0 17:51 21.01.2022
3572 Clouds -6 1012 73 10000 1.03 0 16:37 21.01.2022
3573 Clouds -3 1012 63 10000 2.57 340 15:23 21.01.2022
3574 Clouds -3 1011 68 10000 3.6 350 12:48 21.01.2022
3575 Clouds -2 1010 64 10000 4.63 360 11:29 21.01.2022
3576 Clouds -2 1010 64 10000 5.14 360 10:51 21.01.2022
3577 Clouds -2 1008 59 10000 5.14 350 09:24 21.01.2022
3578 Clouds -2 1008 69 10000 5.14 360 08:20 21.01.2022
3579 Clouds -2 1005 64 10000 5.66 350 04:36 21.01.2022
3580 Snow -2 999 74 10000 7.72 10 22:52 20.01.2022
3581 Snow -3 998 80 5000 9.77 10 21:49 20.01.2022
3582 Snow -2 997 80 10000 7.72 10 21:27 20.01.2022
3583 Snow -1 995 69 10000 8.75 360 19:55 20.01.2022
3584 Clouds -1 994 80 6000 10.8 350 19:18 20.01.2022
3585 Snow -1 992 80 4000 10.8 360 17:37 20.01.2022
3586 Snow 0 990 80 6000 10.29 360 16:32 20.01.2022
3587 Snow 0 988 80 10000 10.8 350 15:32 20.01.2022
3588 Clouds 0 987 80 10000 14.92 360 14:37 20.01.2022
3589 Snow 1 985 75 10000 13.89 350 13:18 20.01.2022
3590 Clouds 0 983 93 8000 16.46 360 12:30 20.01.2022
3591 Clouds 1 981 93 4000 14.4 360 11:20 20.01.2022
3592 Clouds 2 980 80 10000 11.32 350 10:19 20.01.2022
3593 Clouds 2 979 80 10000 9.26 330 09:18 20.01.2022
3594 Snow 0 976 100 400 9.77 270 07:24 20.01.2022
3595 Snow 0 975 80 10000 8.23 240 00:41 20.01.2022
3596 Clouds 0 975 69 10000 12.35 240 22:40 19.01.2022
3597 Clouds 0 975 69 10000 11.83 240 21:44 19.01.2022
3598 Clouds 0 975 69 10000 11.32 240 21:22 19.01.2022
3599 Clouds 1 974 64 10000 13.38 240 20:45 19.01.2022
3600 Clouds -1 974 93 5000 15.95 240 19:26 19.01.2022
3601 Snow 0 974 64 10000 13.89 240 17:51 19.01.2022
3602 Snow 0 974 69 10000 14.4 240 17:28 19.01.2022
3603 Clouds 1 974 60 10000 11.83 240 15:44 19.01.2022
3604 Clouds -1 975 86 1300 9.26 240 13:38 19.01.2022
3605 Clouds 0 974 80 10000 9.26 240 12:24 19.01.2022
3606 Clouds 0 974 80 10000 7.2 240 11:38 19.01.2022
3607 Snow 0 974 100 10000 8.23 240 09:52 19.01.2022
3608 Clouds 0 974 100 10000 8.23 240 09:33 19.01.2022
3609 Rain 3 975 70 10000 9.77 240 06:34 19.01.2022
3610 Rain 2 977 93 10000 5.14 240 01:40 19.01.2022
3611 Rain 2 977 93 10000 5.14 210 23:18 18.01.2022
3612 Rain 2 978 87 10000 5.66 210 21:56 18.01.2022
3613 Rain 2 980 87 10000 5.66 220 20:47 18.01.2022
3614 Rain 3 981 93 10000 7.72 230 19:53 18.01.2022
3615 Rain 3 981 93 10000 7.72 230 19:35 18.01.2022
3616 Rain 2 982 100 10000 5.66 220 18:36 18.01.2022
3617 Rain 2 983 100 10000 8.75 230 17:48 18.01.2022
3618 Rain 2 984 100 10000 8.75 230 16:33 18.01.2022
3619 Snow 2 985 100 10000 7.72 230 15:26 18.01.2022
3620 Snow 1 985 100 3500 10.29 230 14:54 18.01.2022
3621 Snow -4 988 100 500 10.29 200 11:52 18.01.2022
3622 Snow -4 991 93 500 7.2 200 10:41 18.01.2022
3623 Snow -3 995 80 10000 5.66 190 08:49 18.01.2022
3624 Clouds -3 997 86 10000 4.12 200 07:46 18.01.2022
3625 Clouds -3 1002 80 10000 4.63 270 02:20 18.01.2022
3626 Clouds -3 1001 74 10000 5.14 340 23:22 17.01.2022
3627 Snow -4 1000 86 10000 6.69 360 22:19 17.01.2022
3628 Snow -3 1000 68 10000 5.66 0 21:32 17.01.2022
3629 Snow -4 998 93 3000 3.09 0 19:51 17.01.2022
3630 Clouds -4 996 86 6000 6.69 360 18:28 17.01.2022
3631 Snow -4 995 80 10000 5.14 360 17:24 17.01.2022
3632 Snow -3 994 74 4000 3.09 360 16:27 17.01.2022
3633 Clouds -4 993 74 10000 3.09 320 14:59 17.01.2022
3634 Clouds -4 993 74 10000 3.09 320 14:33 17.01.2022
3635 Clouds -4 991 68 5000 4.63 360 13:20 17.01.2022
3636 Snow -4 990 58 10000 5.66 360 12:54 17.01.2022
3637 Snow -4 989 63 10000 7.2 10 11:48 17.01.2022
3638 Snow -5 988 68 10000 10.29 30 10:21 17.01.2022
3639 Clouds -4 986 74 10000 8.75 10 08:51 17.01.2022
3640 Snow -4 986 63 10000 8.75 350 07:22 17.01.2022
3641 Clouds -5 979 74 6000 8.75 360 02:23 17.01.2022
3642 Clouds -4 978 80 10000 11.32 20 00:54 17.01.2022
3643 Snow -4 974 86 4000 7.72 30 21:44 16.01.2022
3644 Snow -4 973 80 10000 7.72 30 20:33 16.01.2022
3645 Snow -4 973 80 10000 7.72 30 20:33 16.01.2022
3646 Snow -4 971 93 900 10.8 50 18:50 16.01.2022
3647 Snow -5 971 86 10000 4.12 70 17:55 16.01.2022
3648 Clouds -6 971 86 10000 7.72 50 16:59 16.01.2022
3649 Clear -5 971 80 10000 8.23 50 16:20 16.01.2022
3650 Clouds -5 972 74 10000 4.12 40 14:30 16.01.2022
3651 Clouds -5 972 74 10000 4.12 40 13:34 16.01.2022
3652 Clouds -4 974 74 10000 1.54 0 12:27 16.01.2022
3653 Clouds -5 975 80 10000 0 0 11:38 16.01.2022
3654 Clouds -4 975 86 10000 2.57 180 10:46 16.01.2022
3655 Clouds -4 976 86 10000 3.6 130 09:59 16.01.2022
3656 Clouds -4 976 86 10000 3.6 130 09:40 16.01.2022
3657 Clouds -4 976 86 10000 3.09 130 09:21 16.01.2022
3658 Clouds -3 978 86 10000 3.6 30 07:23 16.01.2022
3659 Clouds -4 982 80 10000 2.06 300 00:36 16.01.2022
3660 Clouds -4 984 80 10000 1.54 240 23:22 15.01.2022
3661 Snow -4 987 100 1700 3.09 200 21:23 15.01.2022
3662 Snow -4 987 100 1200 2.06 190 20:48 15.01.2022
3663 Snow -4 988 100 2900 4.12 200 20:29 15.01.2022
3664 Snow -3 989 86 9000 4.12 240 19:27 15.01.2022
3665 Snow -3 991 80 10000 5.14 240 18:23 15.01.2022
3666 Clouds -3 994 93 2000 6.17 230 16:49 15.01.2022
3667 Clouds -5 997 93 6000 4.63 230 14:48 15.01.2022
3668 Clouds -4 998 68 10000 1.03 0 13:29 15.01.2022
3669 Clouds -4 999 68 10000 4.12 360 11:33 15.01.2022
3670 Clouds -5 1000 74 10000 5.14 350 09:49 15.01.2022
3671 Clouds -4 998 74 10000 7.72 20 05:26 15.01.2022
3672 Snow -1 993 100 2000 6.69 360 23:40 14.01.2022
3673 Snow 1 990 80 5000 4.63 360 21:29 14.01.2022
3674 Clouds 1 990 86 10000 4.63 360 20:37 14.01.2022
3675 Snow 1 990 75 10000 5.14 360 19:56 14.01.2022
3676 Snow 1 989 86 10000 4.63 360 18:43 14.01.2022
3677 Clouds 1 988 86 9000 4.63 20 17:52 14.01.2022
3678 Clouds 1 987 86 10000 6.17 30 16:43 14.01.2022
3679 Clouds 1 987 86 10000 6.17 30 16:43 14.01.2022
3680 Clouds 1 986 93 10000 5.66 20 15:33 14.01.2022
3681 Clouds 1 984 80 10000 5.14 350 14:29 14.01.2022
3682 Clouds 1 982 86 10000 4.63 10 12:59 14.01.2022
3683 Clouds 1 981 86 1500 5.66 10 11:59 14.01.2022
3684 Clouds 2 979 80 10000 4.63 360 10:40 14.01.2022
3685 Clouds 2 976 87 10000 5.14 20 08:53 14.01.2022
3686 Rain 2 975 80 10000 5.14 10 07:35 14.01.2022
3687 Snow 1 969 93 1900 6.69 280 02:28 14.01.2022
3688 Snow 2 969 80 4500 8.75 260 00:33 14.01.2022
3689 Clouds 1 969 80 10000 6.17 260 21:55 13.01.2022
3690 Clouds 2 969 69 5000 7.72 260 21:30 13.01.2022
3691 Clouds 1 969 80 4000 6.69 270 20:27 13.01.2022
3692 Clouds 2 969 69 10000 8.75 260 19:30 13.01.2022
3693 Clouds 2 970 69 10000 10.29 260 18:50 13.01.2022
3694 Rain 2 970 69 10000 8.23 260 16:58 13.01.2022
3695 Clouds 2 970 64 10000 8.75 260 15:49 13.01.2022
3696 Clouds 2 970 75 10000 7.72 250 15:26 13.01.2022
3697 Rain 2 970 64 10000 8.75 260 13:42 13.01.2022
3698 Clouds 2 970 69 10000 11.32 270 11:43 13.01.2022
3699 Clouds 2 970 80 10000 7.72 260 09:37 13.01.2022
3700 Clouds 1 970 93 10000 8.75 260 08:54 13.01.2022
3701 Snow 1 970 100 7000 6.17 260 08:22 13.01.2022
3702 Snow 1 970 86 10000 6.17 270 07:21 13.01.2022
3703 Clouds 1 970 86 10000 8.23 240 05:56 13.01.2022
3704 Clouds 1 970 86 3500 8.23 240 05:18 13.01.2022
3705 Snow 2 970 80 10000 11.32 240 01:46 13.01.2022
3706 Snow 2 970 87 10000 8.75 280 23:54 12.01.2022
3707 Clouds 2 970 87 10000 8.75 280 23:34 12.01.2022
3708 Clouds 2 970 80 7000 8.75 250 22:56 12.01.2022
3709 Clouds 2 970 93 4000 8.23 270 21:56 12.01.2022
3710 Clouds 1 970 100 7000 8.23 260 21:21 12.01.2022
3711 Snow 1 970 100 3500 11.83 240 20:56 12.01.2022
3712 Snow 2 969 75 10000 5.66 220 19:28 12.01.2022
3713 Snow 2 970 69 10000 7.2 220 18:28 12.01.2022
3714 Clouds 2 972 69 10000 4.63 210 16:59 12.01.2022
3715 Rain 2 973 69 10000 2.06 230 15:58 12.01.2022
3716 Clouds 1 975 80 10000 6.17 200 14:47 12.01.2022
3717 Rain 2 979 64 10000 5.66 200 12:58 12.01.2022
3718 Clouds 1 984 69 10000 8.23 200 09:59 12.01.2022
3719 Clouds 0 986 69 10000 9.77 200 08:36 12.01.2022
3720 Snow 1 987 64 10000 8.75 200 07:34 12.01.2022
3721 Clouds 1 988 64 10000 8.23 200 06:21 12.01.2022
3722 Clouds 1 997 64 10000 6.69 200 23:30 11.01.2022
3723 Clouds 1 998 64 10000 5.66 200 22:49 11.01.2022
3724 Clouds 1 998 64 10000 5.14 220 22:21 11.01.2022
3725 Clouds 1 1000 69 10000 4.12 220 20:51 11.01.2022
3726 Clouds 1 1000 69 10000 5.66 220 19:45 11.01.2022
3727 Clouds 0 1001 74 10000 4.12 230 18:31 11.01.2022
3728 Clouds 0 1001 74 10000 4.12 230 17:19 11.01.2022
3729 Clouds 0 1001 74 10000 4.63 240 16:37 11.01.2022
3730 Clouds -2 1002 74 10000 5.14 230 15:34 11.01.2022
3731 Snow -3 1002 63 10000 5.66 230 14:41 11.01.2022
3732 Snow -3 1003 59 10000 4.12 250 13:54 11.01.2022
3733 Snow -4 1003 63 10000 3.09 250 13:32 11.01.2022
3734 Clear -5 1003 63 10000 6.17 250 12:41 11.01.2022
3735 Clear -6 1004 63 10000 5.66 220 10:59 11.01.2022
3736 Clear -7 1005 63 10000 3.6 220 09:28 11.01.2022
3737 Clear -8 1008 67 10000 4.63 220 06:36 11.01.2022
3738 Clouds -5 1014 68 10000 4.12 230 00:30 11.01.2022
3739 Clear -5 1015 63 10000 1.54 0 23:41 10.01.2022
3740 Clouds -5 1015 68 10000 3.09 250 22:51 10.01.2022
3741 Clouds -4 1016 63 10000 3.09 220 22:19 10.01.2022
3742 Clouds -4 1016 63 10000 2.57 260 21:52 10.01.2022
3743 Clouds -4 1016 68 10000 2.06 240 21:19 10.01.2022
3744 Clouds -4 1017 63 10000 3.6 140 20:56 10.01.2022
3745 Clouds -4 1017 63 10000 3.6 130 20:27 10.01.2022
3746 Clouds -4 1018 68 10000 2.06 150 19:41 10.01.2022
3747 Clouds -2 1018 64 10000 3.6 190 19:20 10.01.2022
3748 Clouds -2 1018 64 10000 4.12 190 18:48 10.01.2022
3749 Clouds -1 1019 69 10000 3.09 190 17:40 10.01.2022
3750 Clouds 0 1019 64 10000 3.6 210 16:41 10.01.2022
3751 Clouds -1 1019 74 10000 4.12 230 15:45 10.01.2022
3752 Clouds 0 1018 69 10000 6.69 240 14:26 10.01.2022
3753 Clouds 0 1018 74 10000 5.14 240 11:58 10.01.2022
3754 Clouds 0 1018 74 10000 5.14 240 11:25 10.01.2022
3755 Clouds -1 1017 74 10000 5.66 240 09:50 10.01.2022
3756 Clouds -1 1016 80 10000 6.69 240 07:18 10.01.2022
3757 Clouds -2 1016 86 10000 7.2 240 05:49 10.01.2022
3758 Snow -2 1014 80 10000 5.66 250 01:30 10.01.2022
3759 Clouds -4 1014 80 10000 2.57 230 00:25 10.01.2022
3760 Clouds -6 1014 79 10000 0 0 23:33 09.01.2022
3761 Clouds -7 1013 79 10000 0 0 22:37 09.01.2022
3762 Clouds -7 1013 79 10000 0.51 0 21:46 09.01.2022
3763 Clouds -7 1013 79 10000 0.51 0 21:46 09.01.2022
3764 Clouds -7 1012 79 10000 1.03 0 21:23 09.01.2022
3765 Clouds -7 1012 73 10000 0 0 20:51 09.01.2022
3766 Clouds -6 1012 68 10000 0 0 20:33 09.01.2022
3767 Clouds -6 1012 68 10000 0 0 19:44 09.01.2022
3768 Clouds -6 1012 73 10000 0.51 0 19:23 09.01.2022
3769 Clouds -6 1011 63 10000 0.51 0 18:52 09.01.2022
3770 Snow -6 1011 63 10000 0.51 0 18:33 09.01.2022
3771 Snow -4 1011 63 10000 2.57 330 17:31 09.01.2022
3772 Clouds -5 1010 68 10000 3.09 330 16:53 09.01.2022
3773 Clouds -4 1010 63 10000 3.09 350 15:57 09.01.2022
3774 Clouds -4 1010 63 10000 3.09 350 15:35 09.01.2022
3775 Snow -4 1009 80 10000 1.54 30 14:40 09.01.2022
3776 Snow -4 1009 80 10000 3.6 360 13:51 09.01.2022
3777 Snow -4 1008 68 10000 3.6 10 13:22 09.01.2022
3778 Snow -3 1008 63 10000 4.12 360 11:54 09.01.2022
3779 Snow -3 1007 68 10000 4.12 10 10:53 09.01.2022
3780 Snow -4 1006 68 10000 3.09 10 09:47 09.01.2022
3781 Snow -4 1006 74 10000 2.57 30 08:52 09.01.2022
3782 Snow -4 1004 86 3800 3.6 20 05:38 09.01.2022
3783 Snow -6 1003 93 10000 1.54 0 01:24 09.01.2022
3784 Snow -5 1002 80 10000 3.6 360 23:47 08.01.2022
3785 Snow -5 1002 63 10000 2.57 340 23:26 08.01.2022
3786 Snow -6 1001 86 10000 2.57 310 22:30 08.01.2022
3787 Snow -5 1001 80 10000 3.6 20 21:25 08.01.2022
3788 Snow -5 1001 80 2400 4.12 360 20:42 08.01.2022
3789 Snow -5 1001 68 10000 4.63 10 20:21 08.01.2022
3790 Snow -5 1000 80 3900 4.12 360 18:45 08.01.2022
3791 Snow -4 999 80 10000 5.14 20 17:22 08.01.2022
3792 Snow -3 998 80 10000 6.69 20 15:58 08.01.2022
3793 Snow -3 998 80 8000 6.17 20 14:46 08.01.2022
3794 Snow -3 997 93 1800 6.17 40 13:29 08.01.2022
3795 Snow -2 996 100 3200 3.6 30 11:28 08.01.2022
3796 Snow -2 996 80 10000 2.57 320 10:30 08.01.2022
3797 Clouds -2 996 100 10000 2.06 250 09:54 08.01.2022
3798 Snow -2 996 100 7000 2.57 250 09:28 08.01.2022
3799 Snow -2 996 69 10000 5.66 220 03:45 08.01.2022
3800 Snow -2 998 74 10000 7.72 240 00:58 08.01.2022
3801 Clouds -2 1000 80 10000 7.2 240 22:54 07.01.2022
3802 Clouds -2 1000 80 10000 7.2 240 21:34 07.01.2022
3803 Snow -2 1001 69 10000 3.6 260 20:23 07.01.2022
3804 Clouds -2 1001 64 10000 2.57 0 19:26 07.01.2022
3805 Clouds -2 1001 64 10000 4.12 270 18:45 07.01.2022
3806 Snow -2 1002 74 10000 4.63 280 17:58 07.01.2022
3807 Clouds -2 1002 80 10000 5.66 270 17:22 07.01.2022
3808 Clouds -3 1002 80 10000 5.66 270 14:50 07.01.2022
3809 Snow -3 1002 93 10000 6.69 270 13:50 07.01.2022
3810 Clouds -3 1002 93 10000 3.6 350 12:50 07.01.2022
3811 Clouds -2 1002 80 10000 5.14 250 10:18 07.01.2022
3812 Clouds -4 1003 80 10000 2.06 210 02:59 07.01.2022
3813 Snow -4 1003 80 10000 1.54 210 02:21 07.01.2022
3814 Snow -5 1003 86 10000 0.51 0 01:45 07.01.2022
3815 Snow -5 1003 86 10000 1.54 0 01:23 07.01.2022
3816 Clouds -7 1003 86 10000 1.03 0 00:29 07.01.2022
3817 Snow -5 1002 100 10000 0.51 0 21:56 06.01.2022
3818 Clouds -6 1002 93 6000 0 0 20:37 06.01.2022
3819 Clouds -6 1002 93 10000 1.54 260 19:58 06.01.2022
3820 Snow -6 1002 93 10000 1.54 260 19:36 06.01.2022
3821 Snow -5 1001 86 2000 0 0 17:51 06.01.2022
3822 Snow -5 1001 74 6000 1.54 350 17:21 06.01.2022
3823 Snow -6 1000 73 10000 1.03 0 16:31 06.01.2022
3824 Clouds -6 1000 73 10000 1.54 70 15:43 06.01.2022
3825 Clouds -6 1000 73 10000 3.09 60 15:20 06.01.2022
3826 Clouds -5 999 74 10000 3.09 30 14:19 06.01.2022
3827 Clouds -4 998 68 10000 4.63 30 13:30 06.01.2022
3828 Clouds -6 998 73 10000 4.12 60 12:20 06.01.2022
3829 Snow -5 997 86 10000 4.12 60 11:29 06.01.2022
3830 Snow -4 996 80 10000 7.72 60 09:56 06.01.2022
3831 Snow -4 994 86 7000 9.77 50 06:37 06.01.2022
3832 Snow -9 991 79 7000 4.63 60 00:27 06.01.2022
3833 Clouds -9 990 73 10000 6.17 60 23:22 05.01.2022
3834 Snow -9 989 67 10000 3.09 50 22:48 05.01.2022
3835 Snow -9 988 79 10000 4.63 60 22:21 05.01.2022
3836 Snow -9 987 79 10000 5.66 70 21:25 05.01.2022
3837 Snow -8 986 79 10000 5.66 50 20:30 05.01.2022
3838 Snow -8 986 79 10000 5.66 50 20:30 05.01.2022
3839 Snow -9 986 86 10000 4.12 40 19:28 05.01.2022
3840 Snow -9 985 86 10000 3.6 30 18:20 05.01.2022
3841 Snow -9 985 92 7000 3.6 40 16:56 05.01.2022
3842 Snow -9 985 92 2800 2.57 50 16:18 05.01.2022
3843 Snow -9 984 79 8000 2.57 30 14:54 05.01.2022
3844 Snow -9 984 79 8000 1.03 0 13:33 05.01.2022
3845 Snow -9 984 73 10000 0 0 12:20 05.01.2022
3846 Clouds -9 984 67 10000 1.03 0 08:29 05.01.2022
3847 Clouds -9 984 67 10000 3.09 190 06:37 05.01.2022
3848 Snow -10 985 85 3400 6.69 190 01:24 05.01.2022
3849 Snow -10 986 85 5000 5.66 190 23:42 04.01.2022
3850 Snow -10 986 85 4500 7.72 200 23:19 04.01.2022
3851 Snow -10 987 85 4500 8.75 180 21:36 04.01.2022
3852 Snow -10 987 85 4000 10.29 180 20:41 04.01.2022
3853 Snow -9 988 73 6000 8.23 190 18:39 04.01.2022
3854 Snow -9 988 73 10000 8.75 180 17:30 04.01.2022
3855 Clouds -9 989 73 10000 8.23 190 16:33 04.01.2022
3856 Snow -9 989 73 10000 5.66 180 15:20 04.01.2022
3857 Snow -9 990 73 10000 6.17 190 14:37 04.01.2022
3858 Snow -10 990 79 10000 6.17 170 13:55 04.01.2022
3859 Clouds -10 990 79 10000 7.2 150 12:20 04.01.2022
3860 Clouds -9 991 67 10000 5.14 180 10:23 04.01.2022
3861 Clouds -9 992 73 10000 4.12 160 08:57 04.01.2022
3862 Snow -9 992 73 10000 7.2 130 06:28 04.01.2022
3863 Snow -9 994 79 7000 6.69 130 00:43 04.01.2022
3864 Snow -9 993 79 4400 7.2 130 23:55 03.01.2022
3865 Snow -9 994 86 2500 7.2 120 22:22 03.01.2022
3866 Snow -9 994 86 2000 7.72 120 21:39 03.01.2022
3867 Snow -9 994 86 1800 8.23 120 20:41 03.01.2022
3868 Snow -9 994 86 2100 8.23 120 19:38 03.01.2022
3869 Snow -9 994 86 2000 6.17 130 18:31 03.01.2022
3870 Snow -9 995 86 2200 7.72 120 17:23 03.01.2022
3871 Snow -9 995 86 2000 7.72 120 16:53 03.01.2022
3872 Snow -9 995 86 2500 7.2 130 14:32 03.01.2022
3873 Snow -9 996 86 3000 6.17 130 12:53 03.01.2022
3874 Snow -9 996 86 2500 8.23 120 11:50 03.01.2022
3875 Snow -9 996 79 3500 7.2 130 11:22 03.01.2022
3876 Clouds -8 997 73 10000 6.69 130 09:29 03.01.2022
3877 Snow -8 997 73 10000 8.75 130 07:54 03.01.2022
3878 Clouds -8 998 73 9000 10.8 120 04:23 03.01.2022
3879 Clouds -8 1001 73 10000 5.14 110 23:32 02.01.2022
3880 Clouds -8 1001 73 10000 4.63 110 22:56 02.01.2022
3881 Clouds -8 1002 73 10000 5.66 100 22:20 02.01.2022
3882 Clear -8 1002 73 10000 6.69 130 21:26 02.01.2022
3883 Clouds -8 1002 73 10000 6.17 120 20:30 02.01.2022
3884 Clouds -7 1003 68 10000 6.17 130 19:32 02.01.2022
3885 Clouds -7 1003 68 10000 7.72 130 18:56 02.01.2022
3886 Clouds -7 1003 68 10000 7.72 130 18:30 02.01.2022
3887 Clouds -8 1004 79 10000 4.63 100 17:42 02.01.2022
3888 Clouds -7 1004 73 10000 5.14 110 17:21 02.01.2022
3889 Clouds -8 1005 79 10000 3.6 100 16:30 02.01.2022
3890 Clouds -8 1005 79 10000 4.63 70 15:39 02.01.2022
3891 Clouds -7 1006 73 10000 4.63 50 13:57 02.01.2022
3892 Clouds -7 1006 73 10000 1.54 0 12:33 02.01.2022
3893 Clouds -7 1007 73 10000 5.66 120 11:55 02.01.2022
3894 Clouds -6 1007 73 10000 6.17 120 10:55 02.01.2022
3895 Clouds -7 1007 79 10000 3.6 110 10:18 02.01.2022
3896 Clouds -5 1007 63 10000 4.63 170 07:45 02.01.2022
3897 Clouds -4 1010 68 10000 4.63 150 02:57 02.01.2022
3898 Clouds -5 1010 58 10000 1.03 0 23:54 01.01.2022
3899 Clouds -5 1010 58 10000 1.03 0 23:35 01.01.2022
3900 Clouds -2 1010 59 10000 2.57 320 22:41 01.01.2022
3901 Clouds -3 1010 59 10000 3.09 330 22:18 01.01.2022
3902 Clouds -3 1010 59 10000 3.09 330 22:18 01.01.2022
3903 Clouds -1 1011 55 10000 2.57 310 21:42 01.01.2022
3904 Clouds -2 1011 54 10000 3.09 330 20:50 01.01.2022
3905 Clouds -2 1011 59 10000 4.12 340 19:47 01.01.2022
3906 Clouds -1 1011 55 10000 3.09 350 18:53 01.01.2022
3907 Snow -1 1011 55 10000 5.14 360 17:45 01.01.2022
3908 Clouds -1 1011 55 10000 5.14 350 16:35 01.01.2022
3909 Clouds -1 1011 55 10000 5.66 360 15:50 01.01.2022
3910 Clouds -1 1011 51 10000 6.17 360 14:40 01.01.2022
3911 Clouds -2 1010 64 10000 6.17 10 13:42 01.01.2022
3912 Clouds -2 1010 64 10000 6.17 10 13:42 01.01.2022
3913 Mist -2 1010 64 10000 7.2 350 12:26 01.01.2022
3914 Snow -1 1009 59 10000 5.66 360 11:46 01.01.2022
3915 Snow -3 1009 80 10000 6.17 20 11:18 01.01.2022
3916 Snow -2 1008 74 8000 7.2 10 09:48 01.01.2022
3917 Snow -1 1008 51 10000 8.23 360 08:49 01.01.2022
3918 Snow -2 1008 54 10000 7.72 360 08:22 01.01.2022
3919 Snow -2 1008 54 10000 7.72 360 07:41 01.01.2022
3920 Snow -2 1007 59 10000 6.17 350 06:45 01.01.2022
3921 Snow -2 1007 69 10000 5.66 360 05:25 01.01.2022
3922 Snow -4 1007 86 10000 3.6 20 04:37 01.01.2022
3923 Snow -3 1004 86 10000 3.09 20 00:37 01.01.2022
3924 Snow -3 1003 63 10000 5.14 360 22:59 31.12.2021
3925 Snow -3 1002 74 10000 3.09 360 21:51 31.12.2021
3926 Snow -3 1001 80 10000 4.63 350 20:32 31.12.2021
3927 Snow -3 1001 86 1500 10.8 330 19:28 31.12.2021
3928 Snow -3 1001 80 10000 5.14 360 18:30 31.12.2021
3929 Snow -3 1001 80 10000 4.63 20 17:37 31.12.2021
3930 Snow -3 1001 74 10000 7.2 20 17:18 31.12.2021
3931 Snow -3 1000 74 10000 8.23 20 16:19 31.12.2021
3932 Snow -4 1000 86 10000 6.69 30 15:53 31.12.2021
3933 Snow -3 1000 80 10000 6.17 10 15:28 31.12.2021
3934 Snow -3 1000 74 7000 6.69 360 14:43 31.12.2021
3935 Snow -3 1000 80 10000 5.14 350 14:18 31.12.2021
3936 Snow -3 1000 80 10000 3.6 10 13:36 31.12.2021
3937 Snow -4 1000 86 10000 1.54 0 12:44 31.12.2021
3938 Snow -5 1000 86 10000 3.09 10 11:43 31.12.2021
3939 Snow -4 1000 86 500 6.17 350 11:20 31.12.2021
3940 Snow -5 999 68 10000 4.63 360 10:32 31.12.2021
3941 Clouds -5 999 68 10000 5.14 360 09:35 31.12.2021
3942 Clouds -5 999 74 10000 3.6 40 08:56 31.12.2021
3943 Snow -6 999 93 10000 1.54 0 08:25 31.12.2021
3944 Snow -6 999 93 600 1.03 0 07:30 31.12.2021
3945 Snow -6 997 79 10000 2.57 50 23:23 30.12.2021
3946 Clouds -6 997 73 10000 2.06 20 22:33 30.12.2021
3947 Clear -9 997 86 10000 1.54 0 21:54 30.12.2021
3948 Clear -9 997 86 10000 1.54 0 21:36 30.12.2021
3949 Clouds -8 997 79 10000 3.09 70 20:45 30.12.2021
3950 Clouds -5 997 74 10000 3.09 50 20:24 30.12.2021
3951 Clouds -5 997 74 10000 4.63 30 19:45 30.12.2021
3952 Clouds -5 996 74 10000 4.63 70 18:29 30.12.2021
3953 Clouds -4 996 74 10000 5.14 70 17:52 30.12.2021
3954 Clouds -5 996 80 10000 3.09 60 16:19 30.12.2021
3955 Clouds -5 996 80 10000 0 0 15:51 30.12.2021
3956 Clouds -5 995 80 10000 4.63 70 14:39 30.12.2021
3957 Clouds -5 995 80 10000 5.14 80 13:49 30.12.2021
3958 Clouds -6 995 79 10000 5.66 70 12:40 30.12.2021
3959 Clouds -6 994 79 10000 7.72 70 10:58 30.12.2021
3960 Snow -7 994 79 10000 3.09 70 09:59 30.12.2021
3961 Snow -8 994 86 10000 3.09 100 08:58 30.12.2021
3962 Snow -8 994 86 10000 2.06 50 06:54 30.12.2021
3963 Clouds -10 995 85 10000 4.12 50 03:43 30.12.2021
3964 Clouds -10 995 79 10000 4.63 50 03:23 30.12.2021
3965 Clear -12 996 79 10000 4.63 40 23:50 29.12.2021
3966 Clear -12 997 79 10000 3.09 40 23:23 29.12.2021
3967 Clear -12 997 72 10000 4.12 40 22:22 29.12.2021
3968 Clear -12 997 72 10000 4.12 40 22:22 29.12.2021
3969 Clear -12 997 79 10000 4.12 20 21:45 29.12.2021
3970 Clouds -13 998 78 10000 4.63 60 20:39 29.12.2021
3971 Clouds -12 998 85 10000 3.09 60 19:50 29.12.2021
3972 Clouds -13 999 72 10000 1.54 60 18:57 29.12.2021
3973 Clouds -13 999 85 10000 1.54 70 17:57 29.12.2021
3974 Clouds -11 999 85 10000 1.03 0 17:28 29.12.2021
3975 Clouds -11 999 85 10000 1.03 0 16:44 29.12.2021
3976 Clouds -10 999 79 10000 2.06 40 16:19 29.12.2021
3977 Clouds -11 999 85 10000 2.57 60 14:40 29.12.2021
3978 Clouds -12 1000 79 10000 4.12 60 12:48 29.12.2021
3979 Clouds -11 1000 73 10000 2.57 50 12:20 29.12.2021
3980 Clear -13 1000 72 10000 2.06 80 10:31 29.12.2021
3981 Clear -12 1000 85 10000 1.03 0 07:52 29.12.2021
3982 Clear -14 1000 78 10000 1.54 50 06:45 29.12.2021
3983 Clear -13 1001 78 10000 0 0 06:24 29.12.2021
3984 Clouds -13 1001 72 10000 1.03 0 05:42 29.12.2021
3985 Clear -10 1001 79 10000 0.51 0 03:20 29.12.2021
3986 Clear -8 1001 73 10000 1.03 0 00:24 29.12.2021
3987 Clear -8 1001 73 10000 1.54 40 23:47 28.12.2021
3988 Clear -7 1001 63 10000 2.06 170 22:45 28.12.2021
3989 Clear -7 1001 68 10000 4.12 130 22:24 28.12.2021
3990 Clear -7 1001 63 10000 4.12 110 21:53 28.12.2021
3991 Clear -7 1002 68 10000 5.14 90 20:47 28.12.2021
3992 Clear -6 1002 68 10000 4.63 120 19:44 28.12.2021
3993 Clear -6 1002 73 10000 4.63 110 18:44 28.12.2021
3994 Clear -6 1002 73 10000 4.12 100 18:23 28.12.2021
3995 Clear -6 1003 68 10000 3.09 90 16:35 28.12.2021
3996 Clear -7 1003 68 10000 1.03 0 15:52 28.12.2021
3997 Clear -5 1003 63 10000 0.51 0 15:27 28.12.2021
3998 Clear -5 1003 63 10000 0 0 14:53 28.12.2021
3999 Clear -6 1003 63 10000 2.06 40 14:21 28.12.2021
4000 Clear -7 1003 68 10000 1.54 0 13:54 28.12.2021
4001 Clear -9 1004 73 10000 0 0 13:31 28.12.2021
4002 Clear -9 1004 79 10000 1.03 0 12:55 28.12.2021
4003 Clear -8 1004 79 10000 1.03 0 11:51 28.12.2021
4004 Clear -7 1004 86 10000 1.54 0 09:30 28.12.2021
4005 Clear -7 1004 86 10000 1.54 0 09:30 28.12.2021
4006 Clouds -7 1004 86 10000 0.51 0 07:33 28.12.2021
4007 Snow -5 1004 100 9000 0.51 0 03:28 28.12.2021
4008 Snow -7 1003 86 10000 1.54 0 23:26 27.12.2021
4009 Clouds -7 1003 86 10000 0 0 22:20 27.12.2021
4010 Clouds -6 1002 86 10000 1.03 0 21:30 27.12.2021
4011 Snow -5 1002 68 10000 3.09 20 20:27 27.12.2021
4012 Clouds -4 1002 68 10000 3.6 360 19:47 27.12.2021
4013 Clouds -4 1002 74 10000 3.6 10 18:56 27.12.2021
4014 Snow -4 1002 74 10000 5.14 360 17:50 27.12.2021
4015 Snow -3 1002 80 3000 7.2 10 17:27 27.12.2021
4016 Snow -3 1001 74 10000 3.6 360 15:53 27.12.2021
4017 Snow -4 1001 93 10000 2.57 20 14:35 27.12.2021
4018 Snow -5 1001 80 10000 2.57 20 13:59 27.12.2021
4019 Snow -4 1001 74 10000 3.6 10 12:49 27.12.2021
4020 Snow -5 1001 100 10000 0.51 0 10:37 27.12.2021
4021 Snow -5 1001 100 10000 0.51 0 10:18 27.12.2021
4022 Snow -5 1001 80 10000 3.6 70 08:42 27.12.2021
4023 Snow -5 1001 80 10000 3.6 70 08:42 27.12.2021
4024 Snow -8 1001 86 10000 1.54 60 07:34 27.12.2021
4025 Snow -6 1001 86 10000 2.06 50 02:29 27.12.2021
4026 Snow -7 1001 86 10000 2.06 60 01:51 27.12.2021
4027 Snow -5 1001 86 10000 1.54 50 23:49 26.12.2021
4028 Clouds -5 1002 93 10000 1.54 0 23:19 26.12.2021
4029 Clouds -5 1002 93 10000 1.54 40 21:33 26.12.2021
4030 Snow -3 1002 93 1000 1.54 30 19:55 26.12.2021
4031 Snow -6 1002 86 10000 1.03 0 18:45 26.12.2021
4032 Snow -7 1002 86 10000 1.54 60 18:21 26.12.2021
4033 Snow -5 1003 86 10000 0 0 15:38 26.12.2021
4034 Snow -3 1003 86 10000 2.06 80 13:49 26.12.2021
4035 Snow -2 1003 86 10000 3.6 40 13:31 26.12.2021
4036 Snow -3 1003 86 10000 4.12 50 12:35 26.12.2021
4037 Clouds -3 1003 93 10000 2.06 90 11:20 26.12.2021
4038 Clouds -3 1003 86 10000 6.17 50 09:31 26.12.2021
4039 Snow -3 1003 93 10000 5.66 50 08:45 26.12.2021
4040 Snow -3 1003 86 10000 4.63 50 08:27 26.12.2021
4041 Clouds -8 1005 79 10000 0 0 02:19 26.12.2021
4042 Clouds -6 1005 86 10000 4.12 40 00:40 26.12.2021
4043 Clouds -5 1005 86 10000 3.6 40 23:37 25.12.2021
4044 Snow -6 1004 86 10000 3.09 50 22:39 25.12.2021
4045 Snow -6 1004 79 10000 2.06 60 22:20 25.12.2021
4046 Clouds -6 1003 79 10000 2.57 50 20:27 25.12.2021
4047 Clouds -6 1002 86 10000 2.06 60 19:19 25.12.2021
4048 Clouds -6 1002 86 10000 3.09 50 18:51 25.12.2021
4049 Clear -5 1000 86 10000 2.06 70 16:52 25.12.2021
4050 Clear -4 999 86 10000 4.63 40 15:48 25.12.2021
4051 Snow -4 999 93 2700 2.57 60 14:24 25.12.2021
4052 Clear -6 998 79 10000 2.57 50 12:42 25.12.2021
4053 Clear -7 997 79 10000 4.12 60 11:27 25.12.2021
4054 Clouds -8 997 86 10000 3.6 60 09:49 25.12.2021
4055 Clouds -9 996 79 10000 1.54 70 07:51 25.12.2021
4056 Clouds -7 995 86 10000 1.03 0 01:45 25.12.2021
4057 Snow -6 995 86 10000 4.12 50 00:27 25.12.2021
4058 Snow -5 994 80 10000 3.09 30 22:40 24.12.2021
4059 Snow -3 994 86 10000 5.14 60 19:38 24.12.2021
4060 Snow -4 994 93 1900 6.17 50 19:19 24.12.2021
4061 Snow -3 994 86 7000 7.2 30 16:50 24.12.2021
4062 Snow -3 995 93 9000 6.69 30 15:54 24.12.2021
4063 Snow -3 995 93 9000 6.69 30 15:34 24.12.2021
4064 Snow -3 995 93 4700 7.72 40 14:46 24.12.2021
4065 Snow -3 996 86 10000 5.14 20 14:22 24.12.2021
4066 Snow -3 996 86 8000 6.69 30 13:37 24.12.2021
4067 Snow -3 997 86 10000 7.2 20 12:48 24.12.2021
4068 Snow -4 998 93 1000 2.57 10 11:52 24.12.2021
4069 Snow -4 998 93 10000 5.14 50 11:26 24.12.2021
4070 Snow -4 998 100 350 4.63 50 10:46 24.12.2021
4071 Snow -4 998 93 3500 2.06 0 09:33 24.12.2021
4072 Snow -5 999 93 6000 1.54 0 08:24 24.12.2021
4073 Snow -5 999 100 10000 2.06 40 07:48 24.12.2021
4074 Snow -4 999 74 10000 6.69 60 02:52 24.12.2021
4075 Snow -4 999 86 9000 8.75 40 23:56 23.12.2021
4076 Snow -4 1000 86 800 11.32 50 22:58 23.12.2021
4077 Snow -4 1000 86 800 11.32 50 22:37 23.12.2021
4078 Snow -4 1000 93 10000 9.77 60 22:18 23.12.2021
4079 Snow -5 1000 93 10000 7.2 50 20:59 23.12.2021
4080 Snow -4 1000 86 1500 6.69 60 20:19 23.12.2021
4081 Snow -4 999 80 10000 9.26 50 18:36 23.12.2021
4082 Snow -4 999 86 10000 12.35 60 17:57 23.12.2021
4083 Snow -4 999 86 10000 13.38 50 16:47 23.12.2021
4084 Snow -4 999 86 2000 15.43 50 16:24 23.12.2021
4085 Snow -3 998 93 8000 12.35 70 15:31 23.12.2021
4086 Snow -5 998 100 350 6.69 340 14:52 23.12.2021
4087 Snow -5 998 86 3000 5.14 360 14:31 23.12.2021
4088 Snow -8 999 86 10000 0 0 12:57 23.12.2021
4089 Snow -7 999 79 9000 4.63 80 10:53 23.12.2021
4090 Snow -7 998 86 10000 10.29 90 09:47 23.12.2021
4091 Snow -7 998 86 3000 11.83 70 09:19 23.12.2021
4092 Snow -7 995 86 800 10.8 40 06:59 23.12.2021
4093 Snow -8 997 73 2100 9.26 20 04:35 23.12.2021
4094 Snow -7 1000 73 10000 13.38 10 23:26 22.12.2021
4095 Snow -6 1000 73 10000 11.83 10 22:48 22.12.2021
4096 Snow -6 1001 63 10000 7.2 10 21:57 22.12.2021
4097 Snow -5 1001 58 8000 8.75 10 21:29 22.12.2021
4098 Snow -5 1001 58 9000 8.75 20 20:50 22.12.2021
4099 Snow -5 1002 68 10000 14.92 20 20:30 22.12.2021
4100 Snow -4 1003 68 10000 8.75 360 19:32 22.12.2021
4101 Snow -3 1003 93 3000 7.2 10 17:55 22.12.2021
4102 Snow -3 1003 93 3000 7.2 10 17:34 22.12.2021
4103 Snow -1 1005 80 8000 8.23 360 15:42 22.12.2021
4104 Snow -2 1006 100 600 11.32 240 13:37 22.12.2021
4105 Snow -1 1008 86 10000 12.35 240 12:41 22.12.2021
4106 Clouds -2 1012 80 10000 9.26 240 10:46 22.12.2021
4107 Clouds -3 1013 86 10000 6.17 230 09:40 22.12.2021
4108 Clouds -5 1016 74 10000 3.09 220 07:32 22.12.2021
4109 Clear -7 1018 79 10000 1.54 260 05:50 22.12.2021
4110 Clear -8 1018 79 10000 1.03 0 05:28 22.12.2021
4111 Clouds -8 1019 73 10000 0 0 04:52 22.12.2021
4112 Clear -8 1019 73 10000 0.51 0 04:30 22.12.2021
4113 Clouds -9 1019 73 10000 0 0 03:33 22.12.2021
4114 Clear -8 1021 67 10000 1.54 50 00:57 22.12.2021
4115 Clear -9 1022 67 10000 1.03 0 23:32 21.12.2021
4116 Clear -7 1022 63 10000 2.06 230 22:29 21.12.2021
4117 Clear -7 1023 63 10000 0.51 0 21:44 21.12.2021
4118 Clouds -7 1023 63 10000 2.06 0 21:23 21.12.2021
4119 Clear -7 1023 68 10000 2.57 230 20:22 21.12.2021
4120 Clear -7 1023 68 10000 0.51 0 19:46 21.12.2021
4121 Clear -8 1023 73 10000 0 0 19:19 21.12.2021
4122 Clear -7 1024 68 10000 1.03 0 18:22 21.12.2021
4123 Clear -7 1024 68 10000 0 0 17:47 21.12.2021
4124 Clear -6 1024 63 10000 1.54 160 16:35 21.12.2021
4125 Clear -5 1024 58 10000 3.6 180 15:25 21.12.2021
4126 Clouds -5 1024 58 10000 2.57 140 13:51 21.12.2021
4127 Clouds -5 1024 63 10000 1.03 0 13:31 21.12.2021
4128 Clouds -6 1025 63 10000 1.03 0 11:57 21.12.2021
4129 Clear -9 1025 73 10000 0 0 10:25 21.12.2021
4130 Clear -7 1025 68 10000 1.54 0 09:35 21.12.2021
4131 Clear -8 1025 73 10000 1.03 0 08:30 21.12.2021
4132 Clear -9 1025 79 10000 1.03 0 07:32 21.12.2021
4133 Clear -6 1025 68 10000 0 0 06:54 21.12.2021
4134 Clouds -7 1025 86 10000 1.03 0 03:20 21.12.2021
4135 Clouds -8 1025 86 10000 0 0 00:46 21.12.2021
4136 Clouds -7 1025 86 10000 0.51 0 23:34 20.12.2021
4137 Clouds -7 1025 86 10000 0.51 0 23:34 20.12.2021
4138 Clouds -5 1025 93 10000 1.03 60 22:34 20.12.2021
4139 Clouds -5 1026 86 10000 1.03 0 21:48 20.12.2021
4140 Snow -5 1025 93 10000 0 0 21:24 20.12.2021
4141 Clouds -6 1025 93 10000 0 0 20:48 20.12.2021
4142 Clouds -5 1025 86 10000 0 0 19:55 20.12.2021
4143 Clouds -5 1025 86 10000 0 0 19:32 20.12.2021
4144 Clouds -7 1025 93 10000 1.03 0 18:55 20.12.2021
4145 Clouds -6 1026 79 10000 0.51 0 18:25 20.12.2021
4146 Clouds -5 1025 100 10000 1.54 60 17:46 20.12.2021
4147 Snow -5 1026 93 10000 0 0 16:43 20.12.2021
4148 Snow -7 1026 93 10000 1.54 60 15:52 20.12.2021
4149 Clouds -6 1025 93 10000 1.03 0 14:58 20.12.2021
4150 Snow -5 1026 86 10000 1.54 0 13:24 20.12.2021
4151 Snow -4 1025 80 10000 1.54 0 11:27 20.12.2021
4152 Snow -5 1025 93 10000 2.57 40 09:56 20.12.2021
4153 Snow -5 1025 93 10000 2.57 40 09:32 20.12.2021
4154 Snow -4 1025 80 10000 3.6 40 08:43 20.12.2021
4155 Clouds -3 1025 86 10000 5.14 50 07:57 20.12.2021
4156 Snow -4 1025 86 10000 4.12 320 07:31 20.12.2021
4157 Snow -6 1025 86 10000 1.54 40 05:25 20.12.2021
4158 Snow -6 1024 93 10000 1.54 60 00:19 20.12.2021
4159 Snow -7 1024 93 10000 2.06 60 22:56 19.12.2021
4160 Clouds -5 1024 93 10000 1.54 50 21:58 19.12.2021
4161 Clouds -5 1024 93 10000 1.54 50 21:32 19.12.2021
4162 Clouds -7 1023 93 10000 1.03 0 20:35 19.12.2021
4163 Snow -5 1022 100 1000 1.54 0 19:53 19.12.2021
4164 Snow -5 1022 100 1000 1.54 0 19:32 19.12.2021
4165 Snow -4 1022 100 3000 0 0 18:30 19.12.2021
4166 Snow -5 1021 93 2000 0 0 17:53 19.12.2021
4167 Snow -4 1021 80 5000 0 0 17:27 19.12.2021
4168 Clouds -5 1020 80 10000 0 0 16:27 19.12.2021
4169 Clouds -5 1020 80 10000 0 0 16:27 19.12.2021
4170 Snow -5 1020 86 10000 0.51 0 15:51 19.12.2021
4171 Clouds -7 1020 86 10000 1.03 0 15:23 19.12.2021
4172 Clear -6 1019 93 10000 0 0 14:45 19.12.2021
4173 Clear -4 1018 86 10000 1.54 20 13:26 19.12.2021
4174 Clear -6 1017 86 10000 1.54 0 12:50 19.12.2021
4175 Clear -5 1017 80 10000 2.06 50 12:28 19.12.2021
4176 Clouds -3 1016 80 10000 3.09 40 11:30 19.12.2021
4177 Clouds -3 1015 80 10000 4.63 70 10:30 19.12.2021
4178 Clouds -3 1014 80 10000 5.14 70 09:53 19.12.2021
4179 Clouds -2 1012 80 10000 6.69 80 08:46 19.12.2021
4180 Clouds -1 1005 93 10000 3.09 50 05:37 19.12.2021
4181 Snow 0 999 80 10000 4.12 50 01:39 19.12.2021
4182 Clouds 1 997 80 10000 2.06 30 00:53 19.12.2021
4183 Snow 1 997 93 4238 3.45 122 22:51 18.12.2021
4184 Snow 0 997 91 4071 3.76 145 22:24 18.12.2021
4185 Snow 1 997 91 4142 3.77 144 21:41 18.12.2021
4186 Snow 0 996 91 1928 4.12 159 21:22 18.12.2021
4187 Snow 1 996 95 6955 4.41 166 20:25 18.12.2021
4188 Snow 1 996 95 6955 4.41 166 19:34 18.12.2021
4189 Snow 1 996 94 759 4.16 210 18:24 18.12.2021
4190 Snow 1 996 94 759 4.16 210 17:49 18.12.2021
4191 Clouds 2 997 81 9584 4.76 233 16:27 18.12.2021
4192 Rain 1 996 93 10000 4.12 240 15:48 18.12.2021
4193 Clouds 2 996 93 10000 6.69 240 14:53 18.12.2021
4194 Clouds 2 997 87 10000 4.12 230 13:44 18.12.2021
4195 Clouds 2 998 87 10000 3.6 270 11:48 18.12.2021
4196 Clouds 2 998 93 10000 6.17 250 09:54 18.12.2021
4197 Clouds 2 998 93 10000 3.6 260 09:30 18.12.2021
4198 Clouds 2 999 93 10000 4.63 280 08:36 18.12.2021
4199 Clouds 2 999 93 10000 4.63 280 08:36 18.12.2021
4200 Clouds 2 999 93 10000 4.63 260 06:27 18.12.2021
4201 Rain 2 1002 100 10000 8.75 230 00:59 18.12.2021
4202 Snow 2 1002 93 9000 9.77 240 23:49 17.12.2021
4203 Rain 3 1002 87 10000 6.69 240 22:39 17.12.2021
4204 Rain 3 1003 87 10000 8.75 230 21:29 17.12.2021
4205 Clouds 3 1003 87 10000 7.2 220 20:43 17.12.2021
4206 Snow 2 1003 87 10000 6.69 200 19:56 17.12.2021
4207 Snow 1 1005 86 10000 5.14 190 18:39 17.12.2021
4208 Snow 2 1006 75 10000 5.14 190 17:50 17.12.2021
4209 Snow 1 1008 80 10000 5.14 210 16:51 17.12.2021
4210 Rain 2 1009 75 10000 5.14 210 16:27 17.12.2021
4211 Rain 2 1009 75 10000 5.66 190 15:38 17.12.2021
4212 Rain 2 1012 75 10000 1.03 0 14:42 17.12.2021
4213 Rain 1 1013 86 10000 1.03 0 13:51 17.12.2021
4214 Clouds 1 1015 86 10000 2.06 250 12:36 17.12.2021
4215 Clouds 1 1015 86 10000 2.06 250 10:42 17.12.2021
4216 Clouds 1 1016 86 10000 1.54 240 09:47 17.12.2021
4217 Clouds 1 1016 86 10000 1.54 240 08:32 17.12.2021
4218 Clouds 1 1016 86 10000 1.54 250 07:38 17.12.2021
4219 Clouds -2 1015 86 10000 0 0 04:41 17.12.2021
4220 Clouds 1 1007 100 10000 3.6 40 00:28 17.12.2021
4221 Fog 1 1005 100 4000 3.6 40 22:44 16.12.2021
4222 Drizzle 1 1004 100 7000 4.63 20 22:22 16.12.2021
4223 Drizzle 1 1003 100 10000 4.63 30 21:43 16.12.2021
4224 Drizzle 1 1001 100 10000 3.09 30 20:40 16.12.2021
4225 Clouds 1 1000 100 10000 1.03 0 19:52 16.12.2021
4226 Clouds 2 999 93 10000 1.54 0 19:27 16.12.2021
4227 Clouds 2 998 93 10000 1.54 30 18:31 16.12.2021
4228 Drizzle 1 997 100 10000 0 0 17:36 16.12.2021
4229 Clouds 2 996 87 10000 1.54 280 16:24 16.12.2021
4230 Drizzle 1 994 100 10000 1.54 250 15:26 16.12.2021
4231 Clouds 2 993 87 10000 2.57 230 13:45 16.12.2021
4232 Clouds 2 992 87 10000 2.57 260 11:56 16.12.2021
4233 Rain 1 991 93 10000 1.54 240 11:18 16.12.2021
4234 Snow 1 991 93 10000 2.06 300 10:39 16.12.2021
4235 Clouds 1 990 93 10000 2.06 280 09:42 16.12.2021
4236 Snow 0 988 100 10000 1.54 240 06:23 16.12.2021
4237 Snow 0 987 93 10000 2.06 250 04:33 16.12.2021
4238 Snow -1 985 100 10000 0 0 23:47 15.12.2021
4239 Snow -1 985 100 10000 1.03 60 22:49 15.12.2021
4240 Snow -1 985 100 1900 1.03 260 22:21 15.12.2021
4241 Snow -1 985 100 2500 0 0 21:31 15.12.2021
4242 Snow -1 984 93 8000 0 0 20:41 15.12.2021
4243 Snow -1 984 93 6000 2.06 230 19:53 15.12.2021
4244 Snow -1 984 80 5000 0 0 18:50 15.12.2021
4245 Snow -1 983 80 10000 0.51 0 18:19 15.12.2021
4246 Snow -1 983 74 8000 2.06 240 17:45 15.12.2021
4247 Clouds -1 984 74 10000 4.12 230 17:21 15.12.2021
4248 Snow -1 983 74 10000 4.12 240 15:48 15.12.2021
4249 Snow -1 983 74 10000 4.12 240 15:29 15.12.2021
4250 Snow -1 983 69 10000 2.57 220 14:48 15.12.2021
4251 Clear -1 983 74 10000 4.12 210 13:34 15.12.2021
4252 Clear -1 983 74 10000 7.2 200 11:41 15.12.2021
4253 Clear -2 984 74 10000 8.23 190 10:20 15.12.2021
4254 Clear -2 986 74 10000 5.14 0 08:25 15.12.2021
4255 Clear -2 988 69 10000 2.06 0 05:51 15.12.2021
4256 Clear -5 994 80 10000 1.54 0 00:32 15.12.2021
4257 Clear -2 995 74 10000 3.6 230 23:27 14.12.2021
4258 Clear -3 995 74 10000 2.06 210 22:44 14.12.2021
4259 Clear -2 996 74 10000 2.06 0 21:40 14.12.2021
4260 Clear -1 996 74 10000 5.14 230 20:22 14.12.2021
4261 Clouds -1 997 74 10000 3.09 310 19:34 14.12.2021
4262 Clouds -1 997 80 10000 2.57 0 18:38 14.12.2021
4263 Clouds -1 997 80 10000 3.09 240 17:55 14.12.2021
4264 Clouds 0 998 74 10000 3.09 0 16:47 14.12.2021
4265 Clouds -1 998 80 10000 1.03 0 16:28 14.12.2021
4266 Clouds -1 999 80 10000 2.57 0 14:32 14.12.2021
4267 Clouds -1 1001 80 10000 4.63 130 12:58 14.12.2021
4268 Clouds 0 1001 74 10000 4.63 130 11:44 14.12.2021
4269 Clouds 0 1002 74 10000 4.12 130 11:20 14.12.2021
4270 Clouds -1 1002 80 10000 4.63 130 09:55 14.12.2021
4271 Clear -1 1003 80 10000 4.12 130 09:19 14.12.2021
4272 Clouds -1 1003 80 10000 4.12 80 08:22 14.12.2021
4273 Clouds -1 1003 86 10000 4.63 130 07:39 14.12.2021
4274 Clouds 0 1008 93 10000 3.09 70 23:59 13.12.2021
4275 Clouds 0 1008 93 10000 3.6 60 22:26 13.12.2021
4276 Clouds 1 1008 93 10000 4.63 50 21:44 13.12.2021
4277 Clouds 1 1008 93 10000 3.09 80 20:58 13.12.2021
4278 Clouds 1 1008 93 10000 4.12 80 20:26 13.12.2021
4279 Clouds 1 1009 93 10000 3.6 70 19:49 13.12.2021
4280 Snow 1 1009 100 10000 1.03 340 17:55 13.12.2021
4281 Snow 1 1009 100 10000 1.03 0 17:18 13.12.2021
4282 Snow 1 1009 100 10000 2.57 50 15:47 13.12.2021
4283 Snow 1 1009 100 10000 2.57 40 14:55 13.12.2021
4284 Rain 1 1010 93 10000 2.06 60 13:37 13.12.2021
4285 Rain 1 1010 93 10000 2.06 50 12:41 13.12.2021
4286 Rain 1 1009 93 10000 3.6 20 11:54 13.12.2021
4287 Rain 1 1009 93 10000 3.6 20 11:34 13.12.2021
4288 Clouds 2 1009 87 10000 4.12 10 10:41 13.12.2021
4289 Clouds 2 1009 87 10000 4.12 20 08:52 13.12.2021
4290 Rain 1 1008 100 10000 0.51 0 06:56 13.12.2021
4291 Rain 1 1008 100 10000 1.03 250 05:23 13.12.2021
4292 Snow 0 1007 100 2000 4.63 230 00:42 13.12.2021
4293 Snow 0 1007 100 2000 2.57 210 21:59 12.12.2021
4294 Snow -1 1007 100 3500 3.09 210 21:30 12.12.2021
4295 Snow -1 1007 100 2000 3.6 210 19:38 12.12.2021
4296 Snow -2 1007 100 2000 2.57 220 18:28 12.12.2021
4297 Snow -1 1007 86 6000 3.09 220 16:54 12.12.2021
4298 Snow -1 1007 86 5000 3.6 220 16:26 12.12.2021
4299 Snow -2 1007 93 5000 3.6 220 15:41 12.12.2021
4300 Snow -2 1007 86 6000 4.12 220 15:21 12.12.2021
4301 Snow -2 1008 80 7000 4.63 210 14:28 12.12.2021
4302 Snow -2 1008 86 3500 2.57 0 12:55 12.12.2021
4303 Snow -2 1009 86 5000 2.06 0 12:26 12.12.2021
4304 Snow -1 1009 86 6000 3.09 0 11:43 12.12.2021
4305 Snow -1 1010 86 6000 2.57 0 10:56 12.12.2021
4306 Snow -1 1010 86 6000 5.14 200 10:22 12.12.2021
4307 Snow -1 1011 86 10000 2.06 0 08:53 12.12.2021
4308 Snow 0 1011 74 10000 0 0 07:31 12.12.2021
4309 Clouds 1 1012 64 10000 3.09 120 05:56 12.12.2021
4310 Clear -1 1013 64 10000 4.63 90 04:55 12.12.2021
4311 Clear 0 1014 59 10000 2.57 20 02:56 12.12.2021
4312 Clouds -4 1016 80 10000 1.03 0 23:30 11.12.2021
4313 Clouds -3 1016 86 10000 1.03 50 22:21 11.12.2021
4314 Clouds -3 1016 86 10000 1.54 40 21:51 11.12.2021
4315 Clouds -3 1016 86 10000 1.03 0 20:24 11.12.2021
4316 Clouds -1 1016 80 10000 3.6 240 19:21 11.12.2021
4317 Clouds -1 1016 80 10000 2.06 250 18:51 11.12.2021
4318 Clouds 0 1016 74 10000 3.6 240 18:19 11.12.2021
4319 Clouds 1 1016 75 10000 1.54 0 16:59 11.12.2021
4320 Clouds 1 1015 75 10000 5.66 230 15:48 11.12.2021
4321 Clouds 1 1015 75 10000 4.12 220 15:18 11.12.2021
4322 Clouds 0 1014 80 10000 5.66 230 12:49 11.12.2021
4323 Clouds 1 1013 75 10000 3.09 220 11:24 11.12.2021
4324 Clouds 0 1013 74 10000 3.09 220 09:45 11.12.2021
4325 Clouds 0 1012 74 10000 4.63 220 07:32 11.12.2021
4326 Clouds -1 1010 69 10000 4.12 220 02:20 11.12.2021
4327 Clouds -3 1009 68 10000 3.09 240 23:50 10.12.2021
4328 Clouds -3 1009 74 10000 3.09 230 23:18 10.12.2021
4329 Clear -3 1009 74 10000 2.06 240 21:52 10.12.2021
4330 Clear -2 1009 69 10000 2.06 220 20:57 10.12.2021
4331 Clear -3 1008 74 10000 4.63 200 19:21 10.12.2021
4332 Clear -2 1009 64 10000 5.14 200 17:59 10.12.2021
4333 Clear -3 1009 68 10000 2.06 20 16:56 10.12.2021
4334 Clear -2 1009 69 10000 2.57 200 16:19 10.12.2021
4335 Clear -2 1009 69 10000 4.12 210 15:39 10.12.2021
4336 Clear -2 1009 69 10000 3.6 0 15:20 10.12.2021
4337 Clear -2 1009 69 10000 3.6 190 13:51 10.12.2021
4338 Clear -3 1010 68 10000 1.54 0 13:26 10.12.2021
4339 Clear -3 1010 68 10000 3.09 0 12:35 10.12.2021
4340 Clear -3 1011 63 10000 1.54 0 11:28 10.12.2021
4341 Clear -4 1011 63 10000 2.06 220 09:54 10.12.2021
4342 Clear -3 1011 59 10000 3.6 230 08:52 10.12.2021
4343 Clear -6 1011 68 10000 2.06 250 06:22 10.12.2021
4344 Clear -6 1011 63 10000 5.14 230 02:48 10.12.2021
4345 Clouds -3 1011 54 10000 2.57 0 00:32 10.12.2021
4346 Clouds -5 1011 63 10000 1.03 0 23:20 09.12.2021
4347 Clouds -4 1012 63 10000 4.12 250 22:24 09.12.2021
4348 Clouds -4 1012 68 10000 2.57 260 21:59 09.12.2021
4349 Clouds -3 1011 63 10000 3.6 270 20:44 09.12.2021
4350 Clouds -4 1011 63 10000 2.06 260 20:22 09.12.2021
4351 Clouds -5 1012 74 10000 2.57 280 19:21 09.12.2021
4352 Clouds -5 1012 74 10000 3.6 260 18:46 09.12.2021
4353 Clouds -6 1011 73 10000 5.14 240 17:52 09.12.2021
4354 Clouds -6 1011 73 10000 4.12 260 17:26 09.12.2021
4355 Clouds -6 1012 73 10000 5.66 240 16:54 09.12.2021
4356 Clouds -7 1012 73 10000 4.12 230 15:34 09.12.2021
4357 Clear -7 1012 73 10000 3.09 230 14:48 09.12.2021
4358 Clear -7 1012 68 10000 4.63 240 13:23 09.12.2021
4359 Clear -7 1012 68 10000 2.57 230 12:40 09.12.2021
4360 Clear -8 1012 73 10000 3.09 220 11:24 09.12.2021
4361 Clear -8 1013 79 10000 3.09 240 09:44 09.12.2021
4362 Clear -9 1013 73 10000 4.12 200 06:50 09.12.2021
4363 Clouds -7 1014 68 10000 6.69 200 03:41 09.12.2021
4364 Clouds -7 1015 73 10000 6.69 200 23:45 08.12.2021
4365 Clouds -7 1015 73 10000 6.69 190 23:21 08.12.2021
4366 Clouds -7 1015 73 10000 7.72 200 22:49 08.12.2021
4367 Clear -7 1015 73 10000 8.75 200 21:46 08.12.2021
4368 Clear -7 1015 68 10000 9.26 210 21:27 08.12.2021
4369 Clear -7 1016 63 10000 6.69 190 19:59 08.12.2021
4370 Clear -7 1016 63 10000 6.69 190 19:36 08.12.2021
4371 Clear -7 1016 63 10000 7.2 210 18:53 08.12.2021
4372 Clear -7 1017 68 10000 5.66 210 17:47 08.12.2021
4373 Clear -7 1017 63 10000 4.12 200 15:57 08.12.2021
4374 Clear -7 1018 63 10000 4.12 200 15:29 08.12.2021
4375 Clear -7 1018 63 10000 4.63 200 14:50 08.12.2021
4376 Clear -7 1018 68 10000 7.72 200 12:32 08.12.2021
4377 Clear -7 1018 68 10000 6.17 200 10:32 08.12.2021
4378 Clear -7 1018 68 10000 8.23 200 09:30 08.12.2021
4379 Clear -7 1018 68 10000 7.2 210 07:29 08.12.2021
4380 Clear -7 1018 68 10000 6.17 200 04:58 08.12.2021
4381 Clear -6 1018 58 10000 6.69 210 23:48 07.12.2021
4382 Clear -6 1018 58 10000 7.2 200 22:27 07.12.2021
4383 Clear -6 1018 53 10000 5.66 210 21:24 07.12.2021
4384 Clear -6 1018 53 10000 5.66 200 20:24 07.12.2021
4385 Clear -6 1017 58 10000 7.72 210 18:56 07.12.2021
4386 Clear -6 1017 58 10000 8.23 200 18:18 07.12.2021
4387 Clear -6 1017 58 10000 8.23 200 17:20 07.12.2021
4388 Clear -6 1017 63 10000 8.23 210 16:36 07.12.2021
4389 Clear -6 1017 63 10000 5.66 230 15:35 07.12.2021
4390 Clear -7 1016 63 10000 5.66 210 14:36 07.12.2021
4391 Clear -7 1016 63 10000 6.69 210 13:19 07.12.2021
4392 Clear -7 1016 58 10000 5.14 200 12:21 07.12.2021
4393 Clear -6 1016 45 10000 5.14 220 10:44 07.12.2021
4394 Clear -7 1015 53 10000 5.66 240 08:46 07.12.2021
4395 Clear -7 1015 53 10000 4.63 220 06:39 07.12.2021
4396 Clear -7 1015 53 10000 4.12 210 05:45 07.12.2021
4397 Clouds -7 1015 68 10000 2.57 260 01:43 07.12.2021
4398 Clear -5 1015 68 10000 3.09 230 23:21 06.12.2021
4399 Clear -5 1015 74 10000 3.09 240 22:40 06.12.2021
4400 Clear -5 1015 74 10000 5.14 230 21:59 06.12.2021
4401 Clear -5 1015 74 10000 4.12 270 21:21 06.12.2021
4402 Clouds -5 1015 80 10000 4.12 240 20:32 06.12.2021
4403 Clouds -4 1015 80 10000 3.09 250 19:24 06.12.2021
4404 Clouds -4 1016 80 10000 3.6 240 18:31 06.12.2021
4405 Clouds -4 1016 86 10000 3.09 270 17:53 06.12.2021
4406 Snow -4 1016 80 10000 4.63 230 17:30 06.12.2021
4407 Clouds -3 1016 74 10000 3.6 240 15:51 06.12.2021
4408 Clouds -3 1016 74 10000 3.6 220 14:35 06.12.2021
4409 Clouds -3 1016 80 10000 4.63 220 12:40 06.12.2021
4410 Clouds -3 1016 80 10000 6.17 220 11:55 06.12.2021
4411 Clouds -2 1016 80 10000 5.14 230 09:44 06.12.2021
4412 Clouds -3 1016 80 10000 6.17 220 07:38 06.12.2021
4413 Clouds -2 1017 74 10000 7.72 240 02:20 06.12.2021
4414 Clouds -2 1017 74 10000 8.23 230 22:20 05.12.2021
4415 Clouds -3 1017 80 10000 7.72 230 21:25 05.12.2021
4416 Clouds -3 1017 74 10000 7.2 220 20:43 05.12.2021
4417 Clouds -4 1017 80 10000 5.14 210 20:18 05.12.2021
4418 Clouds -4 1018 80 10000 6.17 230 19:23 05.12.2021
4419 Clouds -5 1018 80 10000 5.14 220 18:28 05.12.2021
4420 Clouds -5 1018 74 10000 4.63 210 17:49 05.12.2021
4421 Clouds -5 1018 74 10000 4.63 220 17:18 05.12.2021
4422 Clouds -5 1018 68 10000 4.12 220 16:28 05.12.2021
4423 Clouds -5 1018 74 10000 4.63 210 15:59 05.12.2021
4424 Clouds -6 1018 73 10000 5.14 220 14:48 05.12.2021
4425 Clouds -6 1018 73 10000 4.12 210 14:29 05.12.2021
4426 Clouds -6 1018 68 10000 4.63 220 13:32 05.12.2021
4427 Clouds -6 1019 68 10000 5.14 220 12:43 05.12.2021
4428 Clouds -7 1019 68 10000 3.6 220 12:25 05.12.2021
4429 Clouds -7 1019 68 10000 4.12 230 11:43 05.12.2021
4430 Clouds -7 1019 73 10000 4.63 220 10:25 05.12.2021
4431 Clouds -7 1019 73 10000 4.63 230 09:41 05.12.2021
4432 Clouds -8 1019 73 10000 3.09 230 05:30 05.12.2021
4433 Clouds -8 1018 67 10000 2.57 250 01:24 05.12.2021
4434 Clouds -8 1018 67 10000 2.57 250 01:24 05.12.2021
4435 Clear -9 1018 73 10000 1.03 0 22:45 04.12.2021
4436 Clouds -9 1018 67 10000 1.03 0 21:38 04.12.2021
4437 Clouds -10 1017 67 10000 0 0 20:47 04.12.2021
4438 Clouds -8 1017 62 10000 1.03 0 19:54 04.12.2021
4439 Clouds -8 1017 62 10000 1.03 0 19:24 04.12.2021
4440 Clouds -7 1017 63 10000 2.06 0 17:53 04.12.2021
4441 Clouds -7 1017 63 10000 2.06 0 17:35 04.12.2021
4442 Clouds -7 1016 68 10000 3.09 210 16:47 04.12.2021
4443 Clouds -7 1016 63 10000 3.6 210 16:28 04.12.2021
4444 Clear -7 1016 68 10000 4.63 200 13:30 04.12.2021
4445 Clear -7 1016 73 10000 6.17 200 11:41 04.12.2021
4446 Clear -8 1016 73 10000 6.17 200 11:19 04.12.2021
4447 Clear -8 1016 73 10000 5.14 200 09:57 04.12.2021
4448 Clear -8 1015 67 10000 4.12 200 08:38 04.12.2021
4449 Clouds -8 1015 67 10000 3.6 160 05:30 04.12.2021
4450 Clouds -7 1014 63 10000 1.03 0 04:40 04.12.2021
4451 Clear -8 1014 79 10000 3.09 120 23:49 03.12.2021
4452 Clear -8 1014 73 10000 3.6 110 22:55 03.12.2021
4453 Clear -7 1013 68 10000 1.03 0 21:58 03.12.2021
4454 Clear -7 1013 68 10000 1.54 40 21:25 03.12.2021
4455 Clear -7 1013 68 10000 2.06 10 20:43 03.12.2021
4456 Clear -7 1013 68 10000 0 0 19:36 03.12.2021
4457 Clear -6 1012 63 10000 2.06 50 18:26 03.12.2021
4458 Clear -7 1012 63 10000 1.03 0 17:44 03.12.2021
4459 Clear -6 1011 73 10000 0.51 0 14:20 03.12.2021
4460 Clear -6 1010 73 10000 1.03 0 12:52 03.12.2021
4461 Clear -6 1010 68 10000 1.03 0 11:24 03.12.2021
4462 Clear -6 1009 73 10000 0 0 09:57 03.12.2021
4463 Clouds -7 1009 79 10000 1.03 0 08:24 03.12.2021
4464 Clouds -7 1009 79 10000 1.03 60 07:37 03.12.2021
4465 Clouds -6 1008 79 10000 0 0 02:24 03.12.2021
4466 Clouds -6 1007 79 10000 0.51 280 00:47 03.12.2021
4467 Clouds -5 1008 80 10000 0.51 0 23:46 02.12.2021
4468 Clouds -7 1007 73 10000 1.54 60 21:42 02.12.2021
4469 Clear -7 1007 73 10000 1.54 70 20:57 02.12.2021
4470 Clear -7 1007 73 10000 1.54 70 20:38 02.12.2021
4471 Clouds -4 1008 63 10000 2.06 50 19:31 02.12.2021
4472 Clouds -5 1008 74 10000 3.09 50 17:43 02.12.2021
4473 Clouds -4 1007 74 10000 4.12 50 15:42 02.12.2021
4474 Clouds -4 1007 74 10000 4.63 60 15:20 02.12.2021
4475 Clouds -3 1007 68 10000 5.14 80 14:43 02.12.2021
4476 Clouds -2 1007 86 10000 7.2 70 12:52 02.12.2021
4477 Snow -2 1007 93 10000 5.66 70 12:18 02.12.2021
4478 Snow -2 1006 80 10000 5.66 70 10:36 02.12.2021
4479 Clouds -2 1006 86 10000 4.63 60 08:55 02.12.2021
4480 Snow -1 1005 86 10000 6.17 60 04:54 02.12.2021
4481 Snow -1 1003 86 10000 10.29 70 00:53 02.12.2021
4482 Snow -1 1002 86 7000 11.83 80 23:28 01.12.2021
4483 Snow -1 1002 80 10000 13.38 70 22:24 01.12.2021
4484 Clouds -1 1001 86 10000 13.38 70 21:21 01.12.2021
4485 Snow -1 1001 80 10000 9.77 70 19:58 01.12.2021
4486 Snow -1 1001 80 10000 8.23 80 19:28 01.12.2021
4487 Snow -1 1000 74 10000 12.35 70 17:50 01.12.2021
4488 Snow -1 999 80 10000 10.8 70 16:58 01.12.2021
4489 Snow -1 998 80 10000 9.77 70 14:59 01.12.2021
4490 Clouds -1 998 74 10000 11.32 80 13:49 01.12.2021
4491 Clouds -1 998 74 10000 9.77 80 12:51 01.12.2021
4492 Snow -2 998 86 2500 8.75 80 10:43 01.12.2021
4493 Snow -3 997 100 2000 9.26 80 09:32 01.12.2021
4494 Snow -5 997 100 4000 3.6 80 08:40 01.12.2021
4495 Snow -7 997 86 10000 3.09 60 07:38 01.12.2021
4496 Snow -7 997 86 10000 3.09 60 07:19 01.12.2021
4497 Clouds -8 997 67 10000 3.09 40 03:47 01.12.2021
4498 Clouds -8 996 62 10000 0.51 0 02:34 01.12.2021
4499 Clear -10 996 67 10000 4.12 130 23:57 30.11.2021
4500 Clear -9 996 57 10000 4.12 120 23:28 30.11.2021
4501 Clear -8 996 53 10000 6.17 110 22:22 30.11.2021
4502 Clear -9 995 57 10000 5.14 90 20:46 30.11.2021
4503 Clear -9 995 57 10000 5.14 70 20:23 30.11.2021
4504 Clear -8 995 53 10000 3.6 230 19:38 30.11.2021
4505 Clear -9 995 57 10000 0 0 18:42 30.11.2021
4506 Clear -8 995 57 10000 4.12 200 17:21 30.11.2021
4507 Clear -8 995 57 10000 4.12 200 15:50 30.11.2021
4508 Clear -8 995 62 10000 4.63 200 14:29 30.11.2021
4509 Clear -8 995 62 10000 6.69 200 13:29 30.11.2021
4510 Clear -8 995 67 10000 5.14 200 12:53 30.11.2021
4511 Clear -8 995 67 10000 6.17 200 11:54 30.11.2021
4512 Clear -8 996 67 10000 5.14 180 11:25 30.11.2021
4513 Clear -8 996 67 10000 2.57 0 10:35 30.11.2021
4514 Clear -7 996 68 10000 6.69 200 08:55 30.11.2021
4515 Clear -7 996 68 10000 3.09 0 08:32 30.11.2021
4516 Clear -7 997 68 10000 2.57 0 07:49 30.11.2021
4517 Clear -7 997 63 10000 5.66 210 06:32 30.11.2021
4518 Clear -8 998 62 10000 4.12 240 01:46 30.11.2021
4519 Clear -8 998 62 10000 6.17 230 01:26 30.11.2021
4520 Clear -10 999 73 10000 7.72 200 23:27 29.11.2021
4521 Clear -10 999 67 10000 5.14 200 22:59 29.11.2021
4522 Clear -10 999 67 10000 5.14 200 22:59 29.11.2021
4523 Clear -10 999 67 10000 5.14 200 22:36 29.11.2021
4524 Clear -10 999 73 10000 3.6 230 21:52 29.11.2021
4525 Clear -11 999 79 10000 3.6 240 21:20 29.11.2021
4526 Clear -11 999 73 10000 3.6 250 20:45 29.11.2021
4527 Clear -10 999 67 10000 5.14 220 19:58 29.11.2021
4528 Clear -10 999 67 10000 5.14 220 19:39 29.11.2021
4529 Clear -10 1000 73 10000 4.63 220 18:58 29.11.2021
4530 Clouds -11 1001 84 10000 6.34 178 18:39 29.11.2021
4531 Clouds -11 1001 84 10000 6.38 174 17:21 29.11.2021
4532 Clouds -11 1001 84 10000 6.35 174 16:40 29.11.2021
4533 Clouds -11 1001 87 10000 6.6 172 16:22 29.11.2021
4534 Clouds -11 1002 86 10000 6.37 173 14:45 29.11.2021
4535 Clouds -11 1002 84 10000 6.2 171 13:52 29.11.2021
4536 Clouds -10 1002 80 10000 6.16 171 12:57 29.11.2021
4537 Clouds -9 1002 81 10000 6.02 167 11:54 29.11.2021
4538 Clouds -9 1002 83 10000 6.14 172 10:59 29.11.2021
4539 Clouds -9 1002 84 10000 6.26 176 09:57 29.11.2021
4540 Clouds -8 1000 67 10000 2.06 280 06:44 29.11.2021
4541 Snow -9 1000 73 10000 3.6 240 05:48 29.11.2021
4542 Clear -11 1001 62 10000 2.57 250 00:46 29.11.2021
4543 Clear -11 1001 62 10000 6.17 220 23:47 28.11.2021
4544 Clear -12 1001 67 10000 5.14 220 23:29 28.11.2021
4545 Clear -12 1001 67 10000 5.66 230 21:53 28.11.2021
4546 Clear -12 1001 67 10000 5.66 230 21:53 28.11.2021
4547 Clear -12 1001 67 10000 5.66 230 21:34 28.11.2021
4548 Clear -13 1001 72 10000 6.69 230 20:36 28.11.2021
4549 Clear -12 1001 67 10000 6.69 210 19:37 28.11.2021
4550 Clear -11 1001 67 10000 5.14 220 18:40 28.11.2021
4551 Clear -11 1001 57 10000 4.12 190 17:57 28.11.2021
4552 Clear -11 1001 62 10000 4.63 140 17:34 28.11.2021
4553 Clear -10 1001 57 10000 4.12 250 16:47 28.11.2021
4554 Clear -11 1001 62 10000 4.12 0 16:27 28.11.2021
4555 Clear -11 1001 62 10000 5.14 110 15:48 28.11.2021
4556 Clouds -11 1002 67 10000 5.66 110 14:55 28.11.2021
4557 Clouds -12 1002 67 10000 5.14 120 14:28 28.11.2021
4558 Clouds -9 1003 67 10000 6.69 190 12:54 28.11.2021
4559 Clear -9 1003 67 10000 4.63 200 11:38 28.11.2021
4560 Clouds -9 1003 73 10000 5.14 220 10:31 28.11.2021
4561 Clouds -9 1003 73 10000 6.69 230 09:46 28.11.2021
4562 Clouds -9 1003 67 10000 6.17 200 09:27 28.11.2021
4563 Clouds -7 1005 68 10000 4.63 190 00:52 28.11.2021
4564 Clear -6 1005 63 10000 5.14 190 21:53 27.11.2021
4565 Clear -5 1005 50 10000 4.12 200 19:50 27.11.2021
4566 Clouds -5 1005 54 10000 1.54 0 18:26 27.11.2021
4567 Clouds -6 1005 53 10000 1.54 0 16:19 27.11.2021
4568 Clouds -5 1005 54 10000 1.54 220 14:51 27.11.2021
4569 Clouds -6 1005 58 10000 2.06 250 13:39 27.11.2021
4570 Clear -5 1005 63 10000 4.12 200 11:37 27.11.2021
4571 Clear -5 1004 63 10000 4.63 200 10:27 27.11.2021
4572 Clear -5 1004 63 10000 4.63 210 09:18 27.11.2021
4573 Clouds -6 1003 73 10000 4.63 200 06:59 27.11.2021
4574 Clouds -5 1002 54 10000 3.6 200 04:53 27.11.2021
4575 Clear -5 1001 58 10000 4.63 210 00:26 27.11.2021
4576 Clear -6 1001 68 10000 5.14 200 22:51 26.11.2021
4577 Clear -6 1001 68 10000 3.09 210 22:24 26.11.2021
4578 Clear -5 1000 63 10000 5.66 200 21:33 26.11.2021
4579 Clear -6 1000 68 10000 3.6 220 20:42 26.11.2021
4580 Clear -6 1000 73 10000 3.09 200 19:56 26.11.2021
4581 Clear -6 999 68 10000 4.63 200 19:27 26.11.2021
4582 Clear -6 999 68 10000 4.63 200 17:54 26.11.2021
4583 Clear -6 998 68 10000 4.63 200 17:21 26.11.2021
4584 Clear -6 998 68 10000 3.6 200 15:29 26.11.2021
4585 Clouds -6 997 73 10000 2.06 190 13:35 26.11.2021
4586 Clouds -6 997 73 10000 3.6 210 11:30 26.11.2021
4587 Clouds -6 997 73 10000 3.09 210 10:35 26.11.2021
4588 Clear -6 996 68 10000 2.06 0 08:56 26.11.2021
4589 Clear -6 996 68 10000 4.12 210 08:21 26.11.2021
4590 Clear -6 995 68 10000 4.63 210 07:25 26.11.2021
4591 Clear -6 995 68 10000 3.09 190 06:26 26.11.2021
4592 Clouds -7 996 75 10000 4.75 149 03:56 26.11.2021
4593 Clear -7 995 63 10000 3.09 90 01:53 26.11.2021
4594 Clear -5 995 68 10000 3.6 210 22:48 25.11.2021
4595 Clear -5 995 63 10000 1.03 0 21:26 25.11.2021
4596 Clear -5 995 63 10000 3.6 180 20:27 25.11.2021
4597 Clouds -5 995 63 10000 4.63 200 18:46 25.11.2021
4598 Clear -5 994 63 10000 5.66 200 17:47 25.11.2021
4599 Clear -5 994 63 10000 5.66 200 17:25 25.11.2021
4600 Clear -4 995 50 10000 5.14 200 16:32 25.11.2021
4601 Clouds -5 995 54 10000 4.12 0 14:59 25.11.2021
4602 Clear -6 996 58 10000 2.57 0 13:37 25.11.2021
4603 Clear -7 997 68 10000 1.54 0 12:25 25.11.2021
4604 Clear -7 997 68 10000 1.54 0 11:50 25.11.2021
4605 Clear -9 998 73 10000 0 0 09:28 25.11.2021
4606 Clear -7 1000 86 10000 0 0 06:18 25.11.2021
4607 Clouds -6 1002 93 10000 1.54 260 02:49 25.11.2021
4608 Snow -5 1004 93 10000 1.03 0 22:57 24.11.2021
4609 Snow -6 1004 93 10000 0.51 0 22:25 24.11.2021
4610 Snow -5 1004 93 10000 0 0 21:37 24.11.2021
4611 Clouds -6 1004 93 10000 1.03 0 20:52 24.11.2021
4612 Snow -6 1005 93 10000 0 0 20:26 24.11.2021
4613 Snow -8 1004 93 10000 0 0 18:31 24.11.2021
4614 Snow -5 1005 100 10000 0.51 0 17:58 24.11.2021
4615 Snow -6 1005 93 10000 0 0 15:47 24.11.2021
4616 Snow -6 1005 93 7000 0.51 0 14:53 24.11.2021
4617 Snow -6 1004 93 10000 1.03 0 14:20 24.11.2021
4618 Snow -8 1004 86 10000 0 0 12:50 24.11.2021
4619 Clouds -8 1004 86 10000 1.03 0 11:22 24.11.2021
4620 Clouds -9 1004 79 10000 0 0 10:49 24.11.2021
4621 Clouds -10 1003 85 10000 1.54 0 10:26 24.11.2021
4622 Clouds -8 1001 86 10000 2.57 30 07:56 24.11.2021
4623 Clouds -7 1000 93 10000 8.23 60 06:56 24.11.2021
4624 Snow -5 998 93 10000 4.12 50 03:57 24.11.2021
4625 Clouds -6 996 100 10000 1.03 0 01:29 24.11.2021
4626 Clouds -8 996 93 10000 1.54 60 22:59 23.11.2021
4627 Clouds -8 996 93 10000 1.54 60 22:34 23.11.2021
4628 Snow -9 996 86 10000 0.51 0 21:45 23.11.2021
4629 Snow -9 995 86 10000 1.54 60 20:21 23.11.2021
4630 Clouds -7 995 86 10000 2.06 30 19:20 23.11.2021
4631 Clear -8 995 79 10000 3.09 70 18:29 23.11.2021
4632 Clear -8 995 79 10000 2.06 60 17:23 23.11.2021
4633 Clear -8 995 86 10000 1.54 60 16:35 23.11.2021
4634 Clouds -7 995 79 10000 2.06 60 15:23 23.11.2021
4635 Clouds -7 995 79 10000 0 0 14:32 23.11.2021
4636 Clouds -6 996 79 10000 1.03 0 12:50 23.11.2021
4637 Snow -6 997 73 10000 1.54 0 10:24 23.11.2021
4638 Clouds -5 997 74 10000 1.54 120 09:43 23.11.2021
4639 Snow -5 998 74 10000 6.69 110 07:42 23.11.2021
4640 Clouds -2 1001 69 10000 2.57 220 03:58 23.11.2021
4641 Snow -3 1001 74 10000 3.6 220 03:25 23.11.2021
4642 Clouds -5 1004 74 10000 1.03 0 23:23 22.11.2021
4643 Clouds -5 1004 74 10000 3.09 110 22:53 22.11.2021
4644 Clouds -5 1004 68 10000 0 0 22:29 22.11.2021
4645 Clouds -6 1004 68 10000 1.54 40 21:44 22.11.2021
4646 Clouds -6 1004 68 10000 0 0 20:56 22.11.2021
4647 Clouds -7 1004 73 10000 0 0 20:21 22.11.2021
4648 Clouds -7 1004 68 10000 2.57 60 19:19 22.11.2021
4649 Clouds -5 1004 63 10000 3.09 10 18:40 22.11.2021
4650 Clouds -4 1004 63 10000 3.6 10 17:46 22.11.2021
4651 Clouds -3 1003 59 10000 3.09 350 16:26 22.11.2021
4652 Snow -5 1003 93 10000 1.54 10 14:28 22.11.2021
4653 Snow -6 1002 100 5000 0 0 12:47 22.11.2021
4654 Snow -5 1002 93 2700 0 0 10:45 22.11.2021
4655 Snow -5 1002 86 10000 3.09 30 09:48 22.11.2021
4656 Snow -8 1001 93 10000 2.57 60 08:41 22.11.2021
4657 Snow -5 1001 93 4500 1.03 0 06:59 22.11.2021
4658 Snow -4 1003 63 10000 3.09 10 00:21 22.11.2021
4659 Snow -4 1004 54 10000 6.17 20 22:54 21.11.2021
4660 Snow -3 1004 54 10000 5.66 10 22:26 21.11.2021
4661 Snow -4 1004 58 10000 6.69 360 20:42 21.11.2021
4662 Snow -4 1004 58 10000 6.69 360 20:42 21.11.2021
4663 Snow -4 1004 54 10000 8.75 360 20:22 21.11.2021
4664 Snow -4 1004 63 9000 7.2 350 18:30 21.11.2021
4665 Snow -4 1003 63 10000 6.69 350 17:40 21.11.2021
4666 Snow -4 1003 63 10000 9.77 350 17:19 21.11.2021
4667 Snow -4 1002 93 400 2.57 10 14:48 21.11.2021
4668 Snow -3 1001 93 10000 6.17 10 13:57 21.11.2021
4669 Snow -4 1002 86 10000 1.54 360 12:55 21.11.2021
4670 Snow -4 1002 86 1500 3.6 60 11:58 21.11.2021
4671 Snow -4 1002 86 1500 3.6 60 11:36 21.11.2021
4672 Snow -4 1001 80 10000 4.12 20 10:19 21.11.2021
4673 Snow -4 1001 86 1600 4.12 10 09:25 21.11.2021
4674 Snow -3 1001 74 10000 7.2 10 08:31 21.11.2021
4675 Snow -3 1001 80 10000 3.09 340 07:50 21.11.2021
4676 Snow -3 1000 68 10000 4.63 20 06:26 21.11.2021
4677 Snow -3 1000 63 10000 5.66 20 05:39 21.11.2021
4678 Snow -2 999 64 10000 7.2 20 03:21 21.11.2021
4679 Snow -2 999 64 10000 5.66 10 02:53 21.11.2021
4680 Snow -2 998 64 10000 6.17 20 01:25 21.11.2021
4681 Snow -2 998 64 10000 6.17 20 01:25 21.11.2021
4682 Snow -2 998 64 10000 6.69 30 00:41 21.11.2021
4683 Snow -2 996 86 10000 6.69 60 21:55 20.11.2021
4684 Snow -2 995 93 5000 7.72 50 21:30 20.11.2021
4685 Snow -2 994 93 2300 8.23 50 19:46 20.11.2021
4686 Snow -2 994 93 600 9.26 10 18:45 20.11.2021
4687 Snow -1 993 93 1900 8.23 10 18:19 20.11.2021
4688 Snow -1 993 80 10000 6.69 20 17:21 20.11.2021
4689 Snow -1 992 69 10000 5.14 20 14:55 20.11.2021
4690 Snow -1 992 80 10000 5.14 30 14:28 20.11.2021
4691 Snow -1 992 86 10000 6.69 30 13:46 20.11.2021
4692 Snow -1 991 93 10000 8.23 40 11:26 20.11.2021
4693 Snow 0 991 80 10000 6.17 20 09:56 20.11.2021
4694 Snow 0 990 80 10000 8.75 30 08:35 20.11.2021
4695 Snow 1 988 86 8000 10.8 50 06:32 20.11.2021
4696 Snow 1 987 93 8000 11.83 50 05:18 20.11.2021
4697 Drizzle 1 986 93 10000 9.77 50 04:49 20.11.2021
4698 Rain 2 982 93 9000 6.17 50 00:43 20.11.2021
4699 Rain 2 982 93 8000 3.6 40 23:45 19.11.2021
4700 Drizzle 2 981 93 10000 3.6 40 22:53 19.11.2021
4701 Rain 2 981 93 10000 1.54 30 21:24 19.11.2021
4702 Rain 2 981 93 10000 2.57 40 20:41 19.11.2021
4703 Drizzle 2 981 100 10000 1.54 0 20:23 19.11.2021
4704 Drizzle 2 981 100 10000 1.54 40 19:44 19.11.2021
4705 Snow 1 980 100 4800 4.12 240 18:46 19.11.2021
4706 Snow 2 980 100 10000 4.63 240 17:44 19.11.2021
4707 Snow -1 981 100 10000 1.54 290 16:43 19.11.2021
4708 Mist -1 981 100 1500 1.03 0 14:52 19.11.2021
4709 Fog -1 982 100 5000 0.51 0 11:43 19.11.2021
4710 Fog -2 982 100 600 0 0 10:24 19.11.2021
4711 Fog -2 982 100 550 2.06 260 08:37 19.11.2021
4712 Fog -1 983 100 300 1.54 0 06:29 19.11.2021
4713 Mist -1 984 100 4000 1.54 260 04:19 19.11.2021
4714 Clouds 0 985 100 10000 0 0 23:54 18.11.2021
4715 Clouds 0 986 100 10000 0 0 23:29 18.11.2021
4716 Clouds -1 986 100 10000 0 0 21:21 18.11.2021
4717 Clouds 0 986 100 10000 0 0 20:46 18.11.2021
4718 Clouds 0 986 100 10000 0 0 20:23 18.11.2021
4719 Clouds -1 986 93 10000 0 0 19:42 18.11.2021
4720 Clouds -1 987 100 10000 0.51 0 18:38 18.11.2021
4721 Clouds -1 987 93 10000 0 0 17:53 18.11.2021
4722 Clouds -1 987 100 10000 1.54 60 17:31 18.11.2021
4723 Clouds -1 987 100 10000 1.03 0 16:42 18.11.2021
4724 Clouds -1 988 100 10000 0 0 15:23 18.11.2021
4725 Clouds -1 988 100 10000 0 0 15:23 18.11.2021
4726 Clear 1 988 93 10000 1.03 0 13:21 18.11.2021
4727 Clear 1 988 100 10000 0 0 11:45 18.11.2021
4728 Clouds 2 988 93 10000 0 0 11:26 18.11.2021
4729 Rain 2 989 100 10000 2.06 270 10:44 18.11.2021
4730 Clouds 2 989 100 10000 1.03 30 09:28 18.11.2021
4731 Clouds 3 989 100 10000 1.54 280 07:31 18.11.2021
4732 Drizzle 3 990 100 10000 2.57 220 05:47 18.11.2021
4733 Drizzle 3 991 93 10000 2.57 230 02:35 18.11.2021
4734 Drizzle 2 991 100 10000 1.54 240 01:21 18.11.2021
4735 Rain 2 991 93 10000 1.54 230 22:41 17.11.2021
4736 Rain 3 991 87 10000 2.06 220 22:20 17.11.2021
4737 Rain 3 992 87 10000 2.06 220 21:36 17.11.2021
4738 Rain 3 992 87 10000 4.12 200 20:18 17.11.2021
4739 Rain 4 993 75 10000 4.63 200 17:44 17.11.2021
4740 Clouds 4 994 75 10000 5.14 200 16:59 17.11.2021
4741 Rain 3 995 75 10000 6.17 210 14:18 17.11.2021
4742 Clear 3 995 75 10000 7.2 200 12:39 17.11.2021
4743 Clear 4 996 70 10000 5.14 230 11:41 17.11.2021
4744 Clear 4 996 70 10000 1.54 0 10:28 17.11.2021
4745 Clear 3 997 75 10000 4.63 30 09:23 17.11.2021
4746 Clear 2 998 87 10000 2.57 230 07:42 17.11.2021
4747 Clouds 2 1000 80 10000 2.57 220 03:35 17.11.2021
4748 Clear 3 1002 75 10000 3.09 240 00:47 17.11.2021
4749 Clear 2 1002 75 10000 2.06 160 22:54 16.11.2021
4750 Clear 3 1003 75 10000 4.63 230 20:37 16.11.2021
4751 Clear 4 1003 65 10000 4.12 200 20:18 16.11.2021
4752 Clear 3 1003 70 10000 4.63 90 18:53 16.11.2021
4753 Clear 4 1003 65 10000 4.63 120 18:30 16.11.2021
4754 Clear 4 1004 70 10000 4.12 90 17:38 16.11.2021
4755 Clear 3 1004 75 10000 2.06 0 16:35 16.11.2021
4756 Clear 3 1005 75 10000 1.03 0 15:50 16.11.2021
4757 Clear 3 1005 81 10000 1.54 40 15:26 16.11.2021
4758 Clouds 4 1006 87 10000 2.57 0 11:29 16.11.2021
4759 Clouds 3 1005 93 10000 4.12 220 09:46 16.11.2021
4760 Clouds 3 1005 93 10000 4.12 270 08:27 16.11.2021
4761 Rain 4 1005 93 10000 5.14 240 07:32 16.11.2021
4762 Clouds 4 1003 87 10000 4.12 240 01:45 16.11.2021
4763 Clouds 5 1002 75 10000 2.06 260 23:22 15.11.2021
4764 Clouds 5 1002 75 10000 5.66 240 22:33 15.11.2021
4765 Clouds 5 1001 81 10000 5.14 270 21:53 15.11.2021
4766 Clouds 5 1001 81 10000 6.69 240 21:28 15.11.2021
4767 Clouds 5 1000 81 10000 9.26 230 19:42 15.11.2021
4768 Rain 5 1000 81 10000 9.77 240 18:47 15.11.2021
4769 Clouds 5 1000 87 10000 11.83 240 16:54 15.11.2021
4770 Rain 5 1000 87 10000 6.69 260 15:42 15.11.2021
4771 Rain 5 1000 93 10000 6.69 240 15:24 15.11.2021
4772 Rain 3 1000 93 10000 4.12 230 13:32 15.11.2021
4773 Rain 1 1001 93 10000 5.14 220 11:21 15.11.2021
4774 Snow 0 1004 100 3500 1.54 0 09:28 15.11.2021
4775 Snow -1 1006 86 5000 2.57 0 07:55 15.11.2021
4776 Snow 0 1009 64 10000 1.03 0 05:23 15.11.2021
4777 Clouds -2 1021 74 10000 4.12 200 23:57 14.11.2021
4778 Clouds -3 1024 59 10000 4.12 110 22:37 14.11.2021
4779 Clouds -4 1028 68 10000 1.54 0 19:59 14.11.2021
4780 Clouds -3 1028 68 10000 1.54 0 19:18 14.11.2021
4781 Clouds -3 1029 74 10000 2.57 200 18:54 14.11.2021
4782 Clouds -3 1029 74 10000 2.57 200 18:36 14.11.2021
4783 Clouds -3 1029 74 10000 0.51 0 18:18 14.11.2021
4784 Clouds -5 1030 86 10000 0 0 17:57 14.11.2021
4785 Clouds -6 1030 86 10000 0 0 17:39 14.11.2021
4786 Clouds -6 1030 86 10000 0 0 17:21 14.11.2021
4787 Clouds -6 1030 79 10000 1.03 0 16:49 14.11.2021
4788 Clouds -6 1029 86 10000 0 0 16:21 14.11.2021
4789 Clouds -5 1029 86 10000 1.54 50 15:46 14.11.2021
4790 Clouds -4 1029 86 10000 0.51 0 15:18 14.11.2021
4791 Clouds -3 1029 86 10000 2.57 290 14:32 14.11.2021
4792 Snow -2 1029 64 10000 5.66 340 13:59 14.11.2021
4793 Snow -2 1029 64 10000 5.66 340 13:40 14.11.2021
4794 Snow -4 1029 68 10000 3.09 20 12:29 14.11.2021
4795 Snow -3 1029 59 10000 4.12 20 11:58 14.11.2021
4796 Snow -2 1028 64 10000 5.66 20 10:45 14.11.2021
4797 Snow -2 1028 54 10000 6.17 360 10:26 14.11.2021
4798 Snow -2 1026 69 10000 6.69 360 08:56 14.11.2021
4799 Snow -2 1024 69 10000 5.66 10 07:24 14.11.2021
4800 Snow 0 1016 86 1900 1.03 0 01:24 14.11.2021
4801 Clouds 0 1018 86 10000 4.12 30 22:27 13.11.2021
4802 Clouds 0 1018 86 10000 4.12 30 22:27 13.11.2021
4803 Clouds 0 1017 93 10000 4.63 40 21:57 13.11.2021
4804 Snow 1 1017 80 6000 5.66 40 21:27 13.11.2021
4805 Clouds 2 1016 80 10000 4.63 30 19:50 13.11.2021
4806 Rain 2 1015 87 10000 5.66 30 18:48 13.11.2021
4807 Clouds 2 1014 93 10000 4.12 350 18:26 13.11.2021
4808 Clouds 2 1013 93 10000 1.54 0 16:40 13.11.2021
4809 Rain 1 1012 100 10000 5.66 230 15:41 13.11.2021
4810 Snow 0 1011 100 1000 6.69 230 14:34 13.11.2021
4811 Snow 1 1012 93 1500 6.17 240 13:45 13.11.2021
4812 Snow 1 1011 93 10000 9.77 240 12:38 13.11.2021
4813 Rain 2 1011 69 10000 5.14 220 11:39 13.11.2021
4814 Rain 3 1011 70 10000 6.69 230 10:45 13.11.2021
4815 Rain 2 1011 75 10000 5.66 220 10:23 13.11.2021
4816 Rain 2 1011 75 10000 5.66 220 10:23 13.11.2021
4817 Rain 2 1011 75 10000 8.75 230 09:39 13.11.2021
4818 Rain 2 1011 75 10000 4.63 220 08:59 13.11.2021
4819 Snow 1 1011 80 10000 7.2 230 08:34 13.11.2021
4820 Snow 1 1011 86 10000 8.23 230 06:55 13.11.2021
4821 Snow 0 1011 100 10000 2.06 250 04:34 13.11.2021
4822 Snow 0 1010 80 10000 4.63 0 01:55 13.11.2021
4823 Clouds -1 1010 74 10000 7.2 190 23:23 12.11.2021
4824 Clear -1 1010 69 10000 5.14 200 21:51 12.11.2021
4825 Clear -2 1011 74 10000 1.03 0 20:20 12.11.2021
4826 Clear -2 1011 69 10000 3.09 130 19:31 12.11.2021
4827 Clear -2 1011 74 10000 1.54 0 18:53 12.11.2021
4828 Clear -2 1011 64 10000 2.57 150 17:34 12.11.2021
4829 Clear -2 1011 74 10000 4.63 120 15:51 12.11.2021
4830 Clear -4 1010 74 10000 2.57 50 13:25 12.11.2021
4831 Clouds -2 1009 74 10000 4.12 30 11:21 12.11.2021
4832 Clouds -1 1008 80 10000 4.12 40 09:45 12.11.2021
4833 Clouds -1 1008 80 10000 3.6 50 08:45 12.11.2021
4834 Clouds 0 1006 80 10000 5.14 80 06:34 12.11.2021
4835 Snow 0 1001 93 10000 8.75 70 23:43 11.11.2021
4836 Snow 0 1001 93 10000 8.75 70 23:43 11.11.2021
4837 Snow 0 1001 93 10000 8.75 70 23:43 11.11.2021
4838 Snow 1 1000 86 10000 8.75 70 22:46 11.11.2021
4839 Snow 1 1000 86 10000 8.75 70 22:46 11.11.2021
4840 Clouds 1 998 86 10000 6.69 70 21:29 11.11.2021
4841 Clouds 1 998 86 10000 7.72 70 20:51 11.11.2021
4842 Clouds 1 997 86 10000 8.75 70 19:36 11.11.2021
4843 Clouds 1 996 86 10000 4.63 60 18:25 11.11.2021
4844 Clouds 1 996 86 10000 3.6 50 17:37 11.11.2021
4845 Clouds 1 994 93 10000 6.17 60 15:21 11.11.2021
4846 Clouds 1 993 86 10000 5.66 60 14:38 11.11.2021
4847 Snow 1 993 86 10000 6.69 60 14:19 11.11.2021
4848 Clouds 1 993 100 10000 7.72 60 13:35 11.11.2021
4849 Clouds 2 991 87 10000 3.6 30 12:26 11.11.2021
4850 Clouds 3 990 81 10000 1.54 290 09:55 11.11.2021
4851 Clouds 3 989 81 10000 1.54 340 08:47 11.11.2021
4852 Clouds 3 988 81 10000 2.06 360 06:45 11.11.2021
4853 Drizzle 3 986 100 7000 1.03 0 00:38 11.11.2021
4854 Clouds 3 985 100 10000 4.12 280 22:42 10.11.2021
4855 Drizzle 3 985 100 5000 5.14 250 21:53 10.11.2021
4856 Clouds 3 985 87 10000 8.75 240 20:55 10.11.2021
4857 Clouds 3 985 87 10000 11.32 230 20:18 10.11.2021
4858 Rain 3 984 93 10000 7.2 250 19:39 10.11.2021
4859 Rain 3 984 93 10000 8.23 220 17:22 10.11.2021
4860 Rain 3 984 75 10000 5.66 210 15:46 10.11.2021
4861 Rain 3 985 70 10000 6.17 210 14:24 10.11.2021
4862 Clouds 3 985 75 10000 5.14 210 13:36 10.11.2021
4863 Clouds 3 985 65 10000 5.14 220 12:24 10.11.2021
4864 Clouds 3 985 65 10000 2.06 260 09:21 10.11.2021
4865 Rain 2 985 69 10000 2.57 280 08:41 10.11.2021
4866 Clouds -2 986 86 10000 3.09 230 06:45 10.11.2021
4867 Clouds -3 987 93 10000 4.12 40 05:58 10.11.2021
4868 Clouds -5 991 74 10000 0 0 01:57 10.11.2021
4869 Clear -3 994 80 10000 3.09 220 22:29 09.11.2021
4870 Clouds -3 995 80 10000 5.14 200 20:50 09.11.2021
4871 Clouds -3 995 74 10000 7.2 190 19:36 09.11.2021
4872 Clouds -3 996 74 10000 8.23 200 18:50 09.11.2021
4873 Clouds -3 999 74 10000 9.77 200 16:57 09.11.2021
4874 Clouds -3 1000 80 10000 7.72 190 15:36 09.11.2021
4875 Clouds -2 1002 74 10000 9.77 190 13:53 09.11.2021
4876 Clouds -3 1004 68 10000 6.69 190 12:47 09.11.2021
4877 Clouds -3 1005 68 10000 7.72 200 11:33 09.11.2021
4878 Clouds -3 1008 74 10000 6.17 160 10:30 09.11.2021
4879 Clear -3 1010 68 10000 5.14 130 09:21 09.11.2021
4880 Clear -4 1012 63 10000 3.09 120 07:54 09.11.2021
4881 Clouds -2 1016 59 10000 0 0 02:50 09.11.2021
4882 Clouds -3 1016 59 10000 0 0 01:58 09.11.2021
4883 Clouds -3 1016 59 10000 0 0 01:36 09.11.2021
4884 Clouds -3 1017 68 10000 0 0 23:32 08.11.2021
4885 Clouds -2 1017 69 10000 0.51 0 22:47 08.11.2021
4886 Snow -2 1017 80 10000 1.03 0 21:45 08.11.2021
4887 Snow -2 1017 74 10000 4.12 240 20:36 08.11.2021
4888 Snow -3 1017 93 10000 1.54 0 19:43 08.11.2021
4889 Snow -3 1017 86 4000 5.14 340 17:48 08.11.2021
4890 Snow -2 1016 69 10000 4.12 340 15:58 08.11.2021
4891 Snow -2 1015 50 10000 2.57 350 14:57 08.11.2021
4892 Snow -2 1015 50 10000 2.57 350 14:34 08.11.2021
4893 Snow -2 1015 74 9000 2.57 360 13:20 08.11.2021
4894 Snow -3 1014 74 10000 3.09 10 11:55 08.11.2021
4895 Snow -3 1013 74 10000 5.66 20 10:50 08.11.2021
4896 Clouds -2 1012 59 10000 5.66 10 09:26 08.11.2021
4897 Snow -2 1011 64 10000 6.17 10 08:42 08.11.2021
4898 Snow -1 1010 64 10000 10.8 30 06:56 08.11.2021
4899 Snow -1 1010 64 10000 10.8 30 06:56 08.11.2021
4900 Snow -2 1008 93 1100 4.63 10 03:36 08.11.2021
4901 Snow -2 1007 100 9000 3.09 40 01:35 08.11.2021
4902 Snow -1 1005 100 10000 1.03 0 23:33 07.11.2021
4903 Snow -2 1006 100 2000 0 0 21:31 07.11.2021
4904 Snow -2 1007 93 7000 1.54 0 20:36 07.11.2021
4905 Snow -1 1007 80 9000 1.54 0 19:19 07.11.2021
4906 Snow 0 1008 59 10000 1.54 0 17:44 07.11.2021
4907 Clouds 0 1008 69 10000 3.09 360 16:44 07.11.2021
4908 Clouds -1 1008 69 10000 5.14 360 15:42 07.11.2021
4909 Snow 0 1007 69 10000 6.17 360 14:28 07.11.2021
4910 Rain 1 1006 64 10000 3.6 0 12:55 07.11.2021
4911 Snow -1 1006 93 9000 1.03 0 11:42 07.11.2021
4912 Snow 0 1005 64 10000 2.57 280 09:22 07.11.2021
4913 Snow -2 1004 100 1700 1.03 0 04:33 07.11.2021
4914 Snow -2 1004 93 3300 1.54 20 02:28 07.11.2021
4915 Clouds -3 1003 80 10000 1.54 70 22:57 06.11.2021
4916 Clouds -3 1003 80 10000 1.54 70 22:32 06.11.2021
4917 Clouds -2 1002 74 10000 1.03 0 21:28 06.11.2021
4918 Clouds -1 1002 74 10000 3.6 40 20:32 06.11.2021
4919 Clouds 1 1000 69 10000 7.2 70 18:56 06.11.2021
4920 Clouds 1 999 86 10000 7.72 70 16:38 06.11.2021
4921 Clouds 1 996 93 10000 6.17 60 14:31 06.11.2021
4922 Snow 1 996 100 10000 7.2 60 13:38 06.11.2021
4923 Clouds 2 994 87 10000 4.63 40 11:25 06.11.2021
4924 Snow 2 992 87 10000 4.63 70 09:22 06.11.2021
4925 Snow 0 990 100 10000 2.06 50 04:56 06.11.2021
4926 Snow -1 989 86 10000 2.06 40 01:27 06.11.2021
4927 Rain 1 989 80 10000 1.54 0 23:34 05.11.2021
4928 Snow 1 990 80 10000 2.57 130 22:33 05.11.2021
4929 Rain 1 990 80 10000 2.57 130 22:33 05.11.2021
4930 Rain 1 990 80 10000 5.66 110 20:50 05.11.2021
4931 Rain 1 990 80 10000 4.12 100 20:19 05.11.2021
4932 Rain 1 990 80 10000 3.6 110 19:37 05.11.2021
4933 Clouds 2 991 75 10000 2.06 160 18:39 05.11.2021
4934 Clouds 2 992 75 10000 2.57 190 17:26 05.11.2021
4935 Clouds 2 993 80 10000 4.63 180 15:20 05.11.2021
4936 Clouds 2 994 80 10000 3.09 0 13:35 05.11.2021
4937 Clouds 3 996 70 10000 5.66 200 10:29 05.11.2021
4938 Clouds 2 997 75 10000 5.14 200 08:39 05.11.2021
4939 Clouds 2 998 75 10000 6.69 200 07:21 05.11.2021
4940 Clouds 1 1000 75 10000 2.06 0 04:43 05.11.2021
4941 Clouds 1 1003 64 10000 3.6 130 02:24 05.11.2021
4942 Clouds 1 1005 64 10000 4.63 120 00:31 05.11.2021
4943 Clouds 0 1006 64 10000 4.63 110 22:59 04.11.2021
4944 Clouds 0 1006 64 10000 5.14 100 22:18 04.11.2021
4945 Clouds 0 1007 69 10000 4.63 100 21:31 04.11.2021
4946 Clouds 0 1007 64 10000 4.12 110 20:40 04.11.2021
4947 Clouds 0 1007 64 10000 4.63 100 20:19 04.11.2021
4948 Clouds 0 1008 64 10000 3.09 100 19:40 04.11.2021
4949 Clouds 0 1008 69 10000 3.6 100 18:43 04.11.2021
4950 Clouds 0 1008 69 10000 2.06 40 17:37 04.11.2021
4951 Clouds 0 1008 69 10000 2.57 40 16:29 04.11.2021
4952 Clouds 1 1008 69 10000 2.06 50 14:20 04.11.2021
4953 Clouds 1 1007 69 10000 3.6 30 11:44 04.11.2021
4954 Clouds 2 1006 69 10000 3.6 30 09:29 04.11.2021
4955 Clouds 1 1006 80 10000 4.63 30 08:30 04.11.2021
4956 Clouds 2 1006 75 10000 5.14 20 07:34 04.11.2021
4957 Rain 6 999 81 10000 5.14 240 23:59 03.11.2021
4958 Rain 5 999 87 10000 3.6 240 22:50 03.11.2021
4959 Rain 5 999 87 10000 1.54 250 21:48 03.11.2021
4960 Rain 5 999 87 10000 3.09 220 21:28 03.11.2021
4961 Rain 5 999 87 10000 4.12 240 20:35 03.11.2021
4962 Clouds 5 999 81 10000 2.57 240 19:47 03.11.2021
4963 Clouds 5 999 81 10000 3.09 250 18:55 03.11.2021
4964 Clouds 5 999 81 10000 3.09 250 18:19 03.11.2021
4965 Drizzle 6 999 75 10000 4.12 250 17:34 03.11.2021
4966 Clear 6 1000 75 10000 3.6 250 16:25 03.11.2021
4967 Clear 5 1000 81 10000 3.09 260 15:42 03.11.2021
4968 Clear 5 1000 81 10000 3.09 260 13:49 03.11.2021
4969 Clear 5 1001 81 10000 3.09 230 11:39 03.11.2021
4970 Clear 5 1001 81 10000 4.12 250 10:53 03.11.2021
4971 Clear 5 1001 81 10000 2.57 240 10:28 03.11.2021
4972 Clear 5 1001 81 10000 2.57 240 09:30 03.11.2021
4973 Clear 5 1001 81 10000 3.6 240 08:22 03.11.2021
4974 Clear 5 1000 81 10000 3.6 250 07:39 03.11.2021
4975 Clear 5 1000 81 10000 2.57 250 04:26 03.11.2021
4976 Clouds 6 1000 75 10000 3.09 230 01:49 03.11.2021
4977 Clouds 6 1000 75 10000 3.09 230 01:49 03.11.2021
4978 Clear 7 1000 70 10000 4.63 210 23:47 02.11.2021
4979 Clear 7 1000 70 10000 3.09 290 22:29 02.11.2021
4980 Clear 6 1000 75 10000 2.57 280 21:25 02.11.2021
4981 Clear 6 1000 75 10000 2.57 260 20:32 02.11.2021
4982 Clear 6 1000 75 10000 2.57 250 19:47 02.11.2021
4983 Clear 6 999 75 10000 3.09 250 18:59 02.11.2021
4984 Clouds 6 999 70 10000 0 0 17:58 02.11.2021
4985 Clouds 6 999 70 10000 0 0 17:32 02.11.2021
4986 Clouds 7 998 70 10000 3.6 250 16:30 02.11.2021
4987 Clouds 7 998 76 10000 1.54 270 15:30 02.11.2021
4988 Clouds 7 997 76 10000 3.09 220 14:22 02.11.2021
4989 Clouds 7 996 76 10000 6.17 210 13:27 02.11.2021
4990 Clouds 7 996 76 10000 6.69 210 12:39 02.11.2021
4991 Clouds 7 995 76 10000 8.23 210 11:33 02.11.2021
4992 Clouds 7 995 76 10000 5.66 200 10:52 02.11.2021
4993 Clouds 7 994 76 10000 7.72 200 10:26 02.11.2021
4994 Clouds 7 993 76 10000 11.32 210 08:43 02.11.2021
4995 Clear 7 995 76 10000 9.77 200 06:53 02.11.2021
4996 Clouds 8 996 71 10000 9.77 200 03:49 02.11.2021
4997 Clear 7 997 76 10000 7.72 210 02:21 02.11.2021
4998 Clear 6 998 75 10000 9.77 190 22:47 01.11.2021
4999 Clear 6 999 70 10000 10.8 200 20:52 01.11.2021
5000 Clear 6 999 70 10000 10.8 200 20:33 01.11.2021
5001 Clear 6 1000 70 10000 7.72 200 19:55 01.11.2021
5002 Clear 6 1000 70 10000 9.77 200 19:29 01.11.2021
5003 Clear 5 1001 75 10000 9.26 200 18:21 01.11.2021
5004 Clear 5 1002 75 10000 5.14 200 17:21 01.11.2021
5005 Clear 5 1002 75 10000 7.2 200 16:45 01.11.2021
5006 Clear 5 1003 75 10000 7.2 200 15:47 01.11.2021
5007 Clear 4 1003 75 10000 5.66 190 15:21 01.11.2021
5008 Clear 4 1003 75 10000 5.66 190 15:21 01.11.2021
5009 Clear 5 1003 70 10000 6.17 0 14:42 01.11.2021
5010 Clear 5 1003 70 10000 4.12 0 14:20 01.11.2021
5011 Clear 5 1004 70 10000 3.6 240 13:25 01.11.2021
5012 Clear 5 1004 70 10000 3.09 220 12:25 01.11.2021
5013 Clear 4 1004 75 10000 5.66 210 10:33 01.11.2021
5014 Clear 4 1003 75 10000 3.6 250 08:53 01.11.2021
5015 Clear 3 1003 75 10000 6.69 220 07:48 01.11.2021
5016 Clouds 3 1003 75 10000 5.66 200 05:57 01.11.2021
5017 Clouds 3 1003 75 10000 4.12 0 03:44 01.11.2021
5018 Clear 3 1002 75 10000 7.2 200 00:27 01.11.2021
5019 Clear 2 1003 75 10000 3.6 0 21:55 31.10.2021
5020 Clear 2 1004 69 10000 4.63 170 20:36 31.10.2021
5021 Clear 1 1005 64 10000 5.66 140 18:57 31.10.2021
5022 Clear 1 1005 64 10000 5.66 140 18:35 31.10.2021
5023 Clear 1 1006 64 10000 1.03 0 16:53 31.10.2021
5024 Clear 1 1006 64 10000 3.6 130 15:40 31.10.2021
5025 Clear 1 1007 64 10000 3.6 80 13:38 31.10.2021
5026 Clear 2 1007 64 10000 3.09 150 12:37 31.10.2021
5027 Clouds 1 1007 69 10000 3.09 20 10:57 31.10.2021
5028 Clouds 1 1007 69 10000 3.09 20 10:36 31.10.2021
5029 Clouds 1 1008 80 10000 2.57 30 09:19 31.10.2021
5030 Clouds -1 1007 100 10000 4.63 40 04:55 31.10.2021
5031 Clouds 1 1005 93 10000 3.6 40 00:48 31.10.2021
5032 Clouds 0 1004 93 10000 0.51 0 22:33 30.10.2021
5033 Clouds 1 1004 93 10000 1.54 30 21:33 30.10.2021
5034 Clouds 2 1004 87 10000 0 0 20:19 30.10.2021
5035 Clouds 2 1004 87 10000 1.03 0 18:36 30.10.2021
5036 Clouds 3 1003 81 10000 1.54 0 16:42 30.10.2021
5037 Clouds 4 1004 75 10000 2.06 0 14:36 30.10.2021
5038 Drizzle 3 1004 87 10000 2.06 280 13:39 30.10.2021
5039 Clouds 4 1003 81 10000 2.06 260 13:20 30.10.2021
5040 Clouds 4 1003 87 10000 5.14 240 11:51 30.10.2021
5041 Clouds 4 1003 87 10000 5.14 240 11:32 30.10.2021
5042 Drizzle 3 1003 93 10000 6.17 240 10:24 30.10.2021
5043 Clouds 3 1002 87 10000 5.66 250 08:48 30.10.2021
5044 Clouds 4 1001 75 10000 7.72 240 06:26 30.10.2021
5045 Clouds 4 1001 75 10000 7.72 240 05:39 30.10.2021
5046 Clouds 4 999 75 10000 11.83 240 00:43 30.10.2021
5047 Clouds 4 998 75 10000 11.83 240 22:37 29.10.2021
5048 Clouds 4 997 75 10000 6.17 250 21:52 29.10.2021
5049 Rain 3 997 81 10000 7.2 240 20:44 29.10.2021
5050 Clouds 3 996 87 10000 9.77 240 19:49 29.10.2021
5051 Clouds 3 996 81 10000 8.75 240 18:32 29.10.2021
5052 Rain 3 995 81 10000 10.29 240 16:51 29.10.2021
5053 Clouds 4 993 81 10000 8.75 240 14:33 29.10.2021
5054 Clouds 4 989 87 10000 4.12 230 11:43 29.10.2021
5055 Rain 4 989 75 10000 0.51 0 10:35 29.10.2021
5056 Clouds 4 989 81 10000 2.06 240 08:35 29.10.2021
5057 Clouds 3 991 81 10000 5.66 230 00:37 29.10.2021
5058 Clouds 2 990 75 10000 6.69 220 22:59 28.10.2021
5059 Rain 2 990 75 10000 6.69 210 21:56 28.10.2021
5060 Rain 1 990 80 10000 7.72 210 20:32 28.10.2021
5061 Rain 1 990 75 10000 6.69 210 19:48 28.10.2021
5062 Clouds 0 991 80 10000 8.23 200 18:20 28.10.2021
5063 Snow -2 993 86 5000 8.75 200 16:58 28.10.2021
5064 Snow -1 994 74 10000 7.72 180 15:24 28.10.2021
5065 Snow -2 996 80 10000 7.72 150 13:46 28.10.2021
5066 Snow -3 997 93 2500 8.23 140 13:22 28.10.2021
5067 Snow -3 997 93 1000 10.29 130 12:41 28.10.2021
5068 Snow -2 1001 80 4000 6.69 140 10:57 28.10.2021
5069 Snow -2 1002 74 8000 6.69 150 09:38 28.10.2021
5070 Clear -1 1002 64 10000 7.2 150 08:58 28.10.2021
5071 Clear -1 1002 64 10000 7.2 150 08:34 28.10.2021
5072 Clouds -2 1004 74 10000 8.23 120 04:48 28.10.2021
5073 Clear -2 1006 74 10000 7.2 110 23:59 27.10.2021
5074 Clear -2 1005 69 10000 9.26 100 22:31 27.10.2021
5075 Clear -1 1005 64 10000 7.2 120 21:33 27.10.2021
5076 Clear -2 1005 74 10000 5.14 130 20:53 27.10.2021
5077 Clear -2 1005 74 10000 5.14 130 20:33 27.10.2021
5078 Clouds -1 1005 69 10000 4.63 120 19:40 27.10.2021
5079 Clouds -2 1005 74 10000 2.57 110 18:52 27.10.2021
5080 Clouds -1 1005 69 10000 5.66 100 16:27 27.10.2021
5081 Clouds -1 1005 64 10000 5.66 80 15:34 27.10.2021
5082 Clouds 0 1005 64 10000 6.17 80 14:41 27.10.2021
5083 Clouds 0 1005 64 10000 5.66 70 12:33 27.10.2021
5084 Clouds 0 1005 64 10000 7.2 80 10:58 27.10.2021
5085 Clouds -1 1005 69 10000 9.26 70 09:51 27.10.2021
5086 Clouds -1 1005 69 10000 9.77 70 08:47 27.10.2021
5087 Clouds -1 1005 74 10000 10.29 60 07:31 27.10.2021
5088 Clouds 0 1005 80 9000 10.29 80 02:39 27.10.2021
5089 Snow 0 1005 86 4600 12.86 80 00:57 27.10.2021
5090 Snow 0 1005 80 7000 11.83 80 00:30 27.10.2021
5091 Snow 0 1005 80 6000 9.77 80 23:43 26.10.2021
5092 Snow 0 1005 86 4000 9.77 80 22:39 26.10.2021
5093 Clouds 0 1005 80 9000 10.29 80 21:59 26.10.2021
5094 Snow 0 1005 80 10000 12.35 80 20:51 26.10.2021
5095 Clouds 0 1005 80 10000 8.75 80 19:32 26.10.2021
5096 Clouds 0 1005 80 10000 9.26 90 18:41 26.10.2021
5097 Clouds 0 1005 86 10000 9.26 80 16:42 26.10.2021
5098 Clouds 0 1004 86 10000 8.23 80 14:56 26.10.2021
5099 Clouds 0 1004 80 10000 7.72 70 11:47 26.10.2021
5100 Clouds -1 1004 86 10000 8.23 70 10:33 26.10.2021
5101 Clouds -1 1004 80 10000 7.72 70 07:47 26.10.2021
5102 Clouds -2 1004 80 10000 6.17 70 07:20 26.10.2021
5103 Clouds -3 1005 86 10000 2.06 60 23:51 25.10.2021
5104 Clear -3 1005 80 10000 4.12 50 22:55 25.10.2021
5105 Clear -3 1005 80 10000 4.12 70 22:20 25.10.2021
5106 Clear -2 1005 80 10000 5.14 70 21:39 25.10.2021
5107 Clear -2 1006 80 10000 7.2 70 20:18 25.10.2021
5108 Clouds -2 1006 74 10000 7.2 80 19:26 25.10.2021
5109 Clouds -2 1006 80 10000 6.69 70 18:59 25.10.2021
5110 Clouds -2 1006 74 10000 6.17 70 18:20 25.10.2021
5111 Clouds -1 1007 69 10000 4.63 90 16:27 25.10.2021
5112 Clouds -2 1007 69 10000 3.6 90 14:36 25.10.2021
5113 Clouds -2 1008 74 10000 5.66 80 12:31 25.10.2021
5114 Clouds -2 1008 74 10000 4.63 90 10:25 25.10.2021
5115 Clouds -2 1008 74 10000 6.17 100 08:37 25.10.2021
5116 Clear -2 1009 74 10000 5.14 80 06:26 25.10.2021
5117 Clear -3 1011 74 10000 5.66 110 02:42 25.10.2021
5118 Clear -3 1011 74 10000 3.09 40 00:47 25.10.2021
5119 Clear -2 1012 80 10000 1.54 0 23:47 24.10.2021
5120 Clear -2 1012 80 10000 1.54 0 23:47 24.10.2021
5121 Clear -2 1012 80 10000 1.03 0 22:56 24.10.2021
5122 Clear -2 1012 80 10000 1.03 0 22:36 24.10.2021
5123 Clear -2 1012 80 10000 1.03 0 22:18 24.10.2021
5124 Clouds -3 1012 86 10000 1.03 0 20:46 24.10.2021
5125 Clear -3 1012 93 10000 1.54 30 20:27 24.10.2021
5126 Clouds -4 1013 86 10000 1.54 60 18:53 24.10.2021
5127 Clouds -4 1013 93 10000 0.51 0 17:58 24.10.2021
5128 Clouds -4 1013 86 10000 1.03 0 17:18 24.10.2021
5129 Clouds -3 1014 93 10000 0 0 15:47 24.10.2021
5130 Snow 0 1013 86 1000 2.57 350 13:58 24.10.2021
5131 Snow -2 1013 93 10000 1.03 0 12:41 24.10.2021
5132 Snow -1 1013 86 10000 0 0 11:43 24.10.2021
5133 Snow 0 1012 86 2300 2.06 320 10:47 24.10.2021
5134 Snow 0 1012 93 10000 1.54 210 09:54 24.10.2021
5135 Snow 0 1011 93 10000 4.12 240 05:35 24.10.2021
5136 Snow 0 1009 100 10000 4.12 230 00:44 24.10.2021
5137 Snow 0 1009 93 10000 4.63 240 23:34 23.10.2021
5138 Snow 0 1009 100 10000 3.6 230 21:56 23.10.2021
5139 Snow 0 1008 100 4600 4.63 240 19:52 23.10.2021
5140 Snow 1 1008 86 10000 6.69 240 18:59 23.10.2021
5141 Rain 1 1008 86 10000 5.14 240 18:21 23.10.2021
5142 Snow 0 1008 93 10000 8.23 240 17:43 23.10.2021
5143 Snow 1 1008 80 10000 3.6 0 16:21 23.10.2021
5144 Rain 1 1007 86 10000 8.75 230 13:58 23.10.2021
5145 Snow 0 1004 64 10000 3.09 10 03:33 23.10.2021
5146 Snow -2 1003 74 10000 2.57 20 23:45 22.10.2021
5147 Snow -1 1002 74 10000 3.09 20 22:49 22.10.2021
5148 Snow -1 1001 86 10000 0 0 19:51 22.10.2021
5149 Snow -2 1000 100 5000 4.12 20 18:40 22.10.2021
5150 Snow -1 1000 74 10000 5.14 60 17:36 22.10.2021
5151 Snow 0 998 74 10000 3.09 40 15:25 22.10.2021
5152 Snow 0 998 64 10000 4.12 70 13:35 22.10.2021
5153 Snow 0 996 64 10000 7.2 60 11:18 22.10.2021
5154 Clouds 0 996 69 10000 9.26 70 10:38 22.10.2021
5155 Snow 0 995 80 10000 8.23 60 09:44 22.10.2021
5156 Snow 0 994 69 10000 6.69 70 08:31 22.10.2021
5157 Clouds 0 993 69 10000 9.26 70 07:22 22.10.2021
5158 Clouds 1 991 80 10000 8.75 80 02:56 22.10.2021
5159 Snow 1 989 80 10000 5.66 70 23:54 21.10.2021
5160 Clouds 1 989 80 10000 6.17 80 23:29 21.10.2021
5161 Clouds 1 989 80 10000 7.72 70 21:39 21.10.2021
5162 Snow 1 988 86 10000 10.29 60 20:27 21.10.2021
5163 Snow 1 988 80 10000 10.29 60 19:58 21.10.2021
5164 Rain 2 988 75 10000 9.77 70 19:28 21.10.2021
5165 Snow 1 988 80 10000 8.75 70 18:45 21.10.2021
5166 Snow 1 988 80 10000 10.29 70 17:54 21.10.2021
5167 Snow 1 987 75 10000 9.77 70 17:33 21.10.2021
5168 Snow 1 987 80 10000 7.72 80 15:35 21.10.2021
5169 Snow 1 987 80 9000 8.75 80 14:58 21.10.2021
5170 Snow 1 987 80 9000 8.75 80 14:37 21.10.2021
5171 Snow 1 987 80 10000 8.75 70 12:51 21.10.2021
5172 -273 0 0 0 0 0 10:37 21.10.2021
5173 -273 0 0 0 0 0 10:37 21.10.2021
5174 -273 0 0 0 0 0 10:36 21.10.2021
5175 Snow 0 986 80 10000 9.77 80 08:21 21.10.2021
5176 Snow -1 986 80 10000 9.26 80 07:23 21.10.2021
5177 Snow -2 987 80 10000 10.8 80 03:24 21.10.2021
5178 Clouds -3 989 74 10000 9.77 80 23:25 20.10.2021
5179 Clouds -3 991 74 10000 7.2 80 21:51 20.10.2021
5180 Clouds -3 991 74 10000 8.75 70 21:28 20.10.2021
5181 Clouds -3 991 74 10000 8.75 70 20:47 20.10.2021
5182 Clouds -4 992 80 10000 8.75 70 20:28 20.10.2021
5183 Clouds -4 992 80 10000 8.75 70 19:40 20.10.2021
5184 Clouds -4 993 80 10000 9.26 60 18:53 20.10.2021
5185 Clouds -4 994 74 10000 4.12 80 17:41 20.10.2021
5186 Clouds -4 997 74 10000 4.63 60 15:26 20.10.2021
5187 Clear -4 1001 63 10000 4.63 110 10:25 20.10.2021
5188 Clear -4 1003 63 10000 3.6 140 08:37 20.10.2021
5189 Clear -5 1008 68 10000 0.51 0 02:58 20.10.2021
5190 Clear -3 1009 63 10000 1.03 0 00:43 20.10.2021
5191 Clouds -3 1010 74 10000 0 0 23:45 19.10.2021
5192 Snow -2 1012 80 10000 1.54 0 21:41 19.10.2021
5193 Clouds -5 1012 86 10000 0.51 0 20:48 19.10.2021
5194 Clouds -5 1012 86 10000 1.54 0 20:22 19.10.2021
5195 Clear -5 1013 93 10000 0 0 19:40 19.10.2021
5196 Snow -5 1013 93 10000 1.03 0 18:53 19.10.2021
5197 Snow -5 1013 93 10000 1.03 0 18:53 19.10.2021
5198 Snow -2 1014 93 10000 1.03 0 17:58 19.10.2021
5199 Snow -1 1015 74 10000 3.6 20 15:38 19.10.2021
5200 Snow -1 1015 74 10000 5.66 30 15:19 19.10.2021
5201 Snow 0 1016 64 10000 3.09 340 14:23 19.10.2021
5202 Rain 1 1016 51 10000 1.54 300 12:38 19.10.2021
5203 Rain 1 1016 47 10000 2.06 350 11:32 19.10.2021
5204 Rain 1 1016 47 10000 2.06 350 11:32 19.10.2021
5205 Snow 0 1016 55 10000 2.57 350 10:19 19.10.2021
5206 Snow 0 1016 55 10000 3.09 330 08:58 19.10.2021
5207 Snow -1 1017 80 10000 3.09 30 06:34 19.10.2021
5208 Snow 0 1017 69 10000 4.12 10 00:24 19.10.2021
5209 Snow 0 1017 69 10000 4.63 350 23:50 18.10.2021
5210 Snow -1 1017 80 10000 6.17 10 23:19 18.10.2021
5211 Snow -1 1017 80 10000 2.57 0 22:53 18.10.2021
5212 Snow 0 1017 74 10000 2.57 0 21:19 18.10.2021
5213 Snow -1 1017 80 10000 4.12 0 20:41 18.10.2021
5214 Snow -1 1017 74 10000 6.69 30 19:53 18.10.2021
5215 Snow -1 1017 80 10000 10.8 40 19:30 18.10.2021
5216 Snow 0 1016 69 10000 5.66 360 18:54 18.10.2021
5217 Snow -1 1016 86 10000 3.09 10 15:32 18.10.2021
5218 Snow 0 1014 74 10000 6.17 30 13:32 18.10.2021
5219 Snow 0 1013 80 10000 6.17 30 10:43 18.10.2021
5220 Snow 1 1012 69 10000 6.69 20 09:30 18.10.2021
5221 Rain 2 1008 69 10000 9.26 20 03:22 18.10.2021
5222 Snow 1 1006 93 4500 8.75 40 23:37 17.10.2021
5223 Snow 2 1004 80 10000 9.26 30 21:55 17.10.2021
5224 Rain 2 1004 80 10000 9.26 20 21:18 17.10.2021
5225 Clouds 2 1003 80 10000 9.77 20 20:38 17.10.2021
5226 Clouds 2 1002 87 10000 9.26 30 19:42 17.10.2021
5227 Clouds 2 1002 87 10000 9.26 20 19:23 17.10.2021
5228 Rain 3 1001 87 10000 10.29 20 17:34 17.10.2021
5229 Rain 3 999 81 10000 8.75 20 15:46 17.10.2021
5230 Clouds 3 998 87 10000 8.75 20 14:26 17.10.2021
5231 Clouds 3 998 81 10000 9.26 20 13:56 17.10.2021
5232 Clouds 4 997 75 10000 8.23 30 12:35 17.10.2021
5233 Clouds 3 995 81 10000 8.75 30 10:45 17.10.2021
5234 Clouds 3 995 81 10000 10.29 40 09:48 17.10.2021
5235 Clouds 3 994 87 10000 8.75 20 07:42 17.10.2021
5236 Drizzle 3 992 87 10000 7.2 30 00:56 17.10.2021
5237 Rain 3 992 87 10000 7.2 40 00:24 17.10.2021
5238 Drizzle 3 992 93 10000 3.6 30 22:35 16.10.2021
5239 Drizzle 3 992 87 10000 6.17 50 20:36 16.10.2021
5240 Rain 3 992 87 10000 5.66 30 19:56 16.10.2021
5241 Rain 3 992 87 10000 5.66 30 19:37 16.10.2021
5242 Clouds 3 992 87 10000 5.66 40 19:18 16.10.2021
5243 Drizzle 3 992 87 10000 6.17 50 18:42 16.10.2021
5244 Drizzle 3 992 87 10000 6.17 50 18:20 16.10.2021
5245 Clouds 3 992 87 10000 4.63 40 17:29 16.10.2021
5246 Clouds 3 992 87 10000 4.12 40 15:39 16.10.2021
5247 Clouds 3 992 81 10000 5.14 20 12:44 16.10.2021
5248 Clouds 2 992 80 10000 3.6 30 10:57 16.10.2021
5249 Clouds 1 992 93 10000 3.09 50 08:56 16.10.2021
5250 Rain 1 993 100 10000 2.06 40 01:36 16.10.2021
5251 Rain 1 994 100 10000 1.03 0 00:29 16.10.2021
5252 Rain 1 994 100 10000 1.03 0 23:25 15.10.2021
5253 Clouds 1 994 100 10000 1.03 0 22:20 15.10.2021
5254 Snow 1 994 100 10000 1.03 0 21:37 15.10.2021
5255 Snow 2 994 93 2800 1.03 0 20:52 15.10.2021
5256 Clouds 2 994 93 10000 2.06 320 20:22 15.10.2021
5257 Clouds 2 994 87 10000 2.06 340 19:19 15.10.2021
5258 Clouds 3 994 75 10000 2.06 360 18:21 15.10.2021
5259 Clouds 2 993 80 10000 4.12 360 15:46 15.10.2021
5260 Clouds 2 992 87 10000 4.12 30 13:49 15.10.2021
5261 Clouds 2 992 87 10000 3.09 350 11:52 15.10.2021
5262 Clouds 2 991 87 10000 2.57 30 10:58 15.10.2021
5263 Rain 2 991 87 10000 2.57 30 10:19 15.10.2021
5264 Clouds 1 990 100 10000 2.57 30 06:57 15.10.2021
5265 Snow 0 990 100 1700 5.14 50 02:31 15.10.2021
5266 Snow 0 992 100 7000 4.63 60 00:22 15.10.2021
5267 Snow 2 993 75 10000 2.57 80 22:54 14.10.2021
5268 Snow 1 994 80 10000 3.09 110 21:46 14.10.2021
5269 Clouds 1 994 80 10000 3.09 100 21:19 14.10.2021
5270 Clear 2 995 64 10000 2.06 130 20:20 14.10.2021
5271 Clouds 2 996 64 10000 3.09 180 19:42 14.10.2021
5272 Clouds 2 997 64 10000 3.09 200 18:26 14.10.2021
5273 Clear 2 998 75 10000 1.54 0 16:57 14.10.2021
5274 Clear 2 998 80 10000 1.03 0 16:21 14.10.2021
5275 Clouds 4 999 75 10000 1.03 0 14:44 14.10.2021
5276 Clouds 4 999 75 10000 0.51 0 14:24 14.10.2021
5277 Clouds 3 1000 87 10000 3.09 210 12:34 14.10.2021
5278 Clouds 3 1000 87 10000 3.6 240 10:46 14.10.2021
5279 Rain 4 1001 83 5181 4.69 255 07:39 14.10.2021
5280 Clouds 5 1002 75 8359 7.36 282 04:23 14.10.2021
5281 Rain 4 1003 81 1751 8.84 279 00:34 14.10.2021
5282 Snow 3 1001 87 10000 4.12 280 22:32 13.10.2021
5283 Clouds 2 1001 100 7000 15.43 230 21:35 13.10.2021
5284 Rain 2 1004 89 2153 9.02 279 20:41 13.10.2021
5285 Rain 3 1002 70 10000 9.77 240 19:20 13.10.2021
5286 Clouds 4 1002 65 10000 8.75 240 18:37 13.10.2021
5287 Clouds 2 1003 93 10000 6.69 230 15:54 13.10.2021
5288 Snow 2 1004 93 3800 7.2 260 14:46 13.10.2021
5289 Clouds 3 1003 93 10000 6.17 230 14:23 13.10.2021
5290 Snow 2 1003 87 6000 5.66 270 12:24 13.10.2021
5291 Rain 4 1003 81 10000 8.23 240 11:36 13.10.2021
5292 Rain 4 1002 75 10000 8.23 240 09:26 13.10.2021
5293 Clouds 4 1002 75 10000 9.77 230 07:50 13.10.2021
5294 Rain 4 1002 75 10000 5.14 270 02:58 13.10.2021
5295 Clouds 4 1002 70 10000 6.17 280 02:19 13.10.2021
5296 Rain 4 1001 93 10000 5.14 270 23:33 12.10.2021
5297 Rain 5 1001 81 10000 1.54 0 22:50 12.10.2021
5298 Clouds 5 1000 87 10000 4.12 0 22:23 12.10.2021
5299 Clouds 5 1000 87 10000 3.6 250 20:50 12.10.2021
5300 Clouds 5 999 87 10000 3.09 0 20:24 12.10.2021
5301 Rain 5 999 93 10000 1.54 0 19:31 12.10.2021
5302 Rain 5 999 93 10000 4.12 240 18:24 12.10.2021
5303 Clouds 5 998 87 10000 3.09 260 17:19 12.10.2021
5304 Rain 5 998 93 10000 3.09 240 16:20 12.10.2021
5305 Rain 5 999 87 10000 4.12 250 15:29 12.10.2021
5306 Clouds 5 999 87 10000 4.63 270 13:45 12.10.2021
5307 Clouds 5 999 100 10000 3.09 270 12:58 12.10.2021
5308 Clouds 5 999 93 10000 4.12 280 11:22 12.10.2021
5309 Clouds 6 998 81 10000 3.6 280 09:22 12.10.2021
5310 Clouds 6 998 87 10000 1.54 0 08:19 12.10.2021
5311 Rain 6 998 93 9000 3.09 0 06:44 12.10.2021
5312 Clouds 6 998 100 7000 2.06 0 04:38 12.10.2021
5313 Clouds 6 998 100 10000 4.63 360 02:46 12.10.2021
5314 Clouds 6 998 93 10000 4.12 340 23:46 11.10.2021
5315 Clouds 6 998 93 10000 4.12 360 23:28 11.10.2021
5316 Drizzle 6 998 100 10000 3.09 30 22:31 11.10.2021
5317 Rain 6 998 100 10000 3.6 20 21:20 11.10.2021
5318 Drizzle 7 998 100 4500 4.63 350 19:48 11.10.2021
5319 Drizzle 6 998 100 3200 3.6 10 19:23 11.10.2021
5320 Drizzle 6 998 100 10000 5.14 340 18:23 11.10.2021
5321 Drizzle 6 998 93 10000 5.14 350 16:40 11.10.2021
5322 Drizzle 6 999 93 10000 6.69 340 16:19 11.10.2021
5323 Clouds 7 999 87 10000 6.17 340 15:42 11.10.2021
5324 Clouds 7 999 93 10000 3.6 20 14:53 11.10.2021
5325 Clouds 7 1000 93 10000 3.09 20 13:55 11.10.2021
5326 Clouds 7 1000 93 10000 2.57 10 13:32 11.10.2021
5327 Drizzle 7 1001 100 8000 0 0 11:18 11.10.2021
5328 Clouds 6 1001 100 10000 1.03 0 09:45 11.10.2021
5329 Clouds 6 1002 100 10000 0 0 07:56 11.10.2021
5330 Drizzle 6 1005 100 4700 1.54 250 01:43 11.10.2021
5331 Clouds 6 1005 100 10000 1.03 0 00:55 11.10.2021
5332 Clouds 6 1005 100 10000 1.03 0 00:36 11.10.2021
5333 Clouds 6 1005 100 10000 1.03 0 22:25 10.10.2021
5334 Clouds 6 1006 100 10000 1.03 0 21:36 10.10.2021
5335 Clouds 6 1006 93 10000 1.03 0 20:57 10.10.2021
5336 Clouds 6 1006 93 10000 1.03 0 20:38 10.10.2021
5337 Clouds 6 1006 93 10000 1.54 280 20:19 10.10.2021
5338 Clouds 7 1006 87 10000 1.54 240 19:40 10.10.2021
5339 Clouds 7 1006 87 10000 1.03 260 18:55 10.10.2021
5340 Clouds 6 1006 93 10000 2.57 240 17:58 10.10.2021
5341 Clear 7 1006 87 10000 1.54 260 15:48 10.10.2021
5342 Clear 7 1007 87 10000 0 0 14:45 10.10.2021
5343 Clear 7 1007 87 10000 1.54 230 13:39 10.10.2021
5344 Clear 7 1007 87 10000 2.06 240 12:43 10.10.2021
5345 Clouds 7 1007 87 10000 2.57 230 11:30 10.10.2021
5346 Clouds 7 1007 87 10000 2.57 230 11:30 10.10.2021
5347 Clouds 6 1008 93 10000 3.6 260 10:25 10.10.2021
5348 Clouds 6 1007 93 10000 1.54 280 09:18 10.10.2021
5349 Clouds 4 1007 100 10000 0 0 08:50 10.10.2021
5350 Clouds 5 1010 93 10000 1.54 50 04:31 10.10.2021
5351 Clouds 5 1011 100 10000 2.06 50 02:19 10.10.2021
5352 Clouds 6 1012 100 10000 1.54 0 00:41 10.10.2021
5353 Drizzle 6 1014 100 4800 1.54 230 23:26 09.10.2021
5354 Drizzle 6 1015 93 10000 1.54 0 21:55 09.10.2021
5355 Drizzle 6 1015 87 10000 3.6 220 21:30 09.10.2021
5356 Clouds 6 1015 93 10000 0.51 0 20:19 09.10.2021
5357 Rain 6 1016 87 10000 1.54 0 19:41 09.10.2021
5358 Rain 6 1016 87 10000 1.54 0 19:41 09.10.2021
5359 Rain 6 1016 93 10000 2.57 240 18:48 09.10.2021
5360 Clouds 5 1017 93 10000 0 0 17:57 09.10.2021
5361 Clouds 4 1018 100 10000 1.54 0 16:20 09.10.2021
5362 Clouds 4 1019 87 10000 3.6 230 14:28 09.10.2021
5363 Clouds 4 1019 81 10000 2.57 230 13:38 09.10.2021
5364 Rain 4 1020 75 10000 3.6 200 12:27 09.10.2021
5365 Rain 4 1020 75 10000 2.06 250 10:45 09.10.2021
5366 Drizzle 4 1020 75 10000 2.57 240 10:19 09.10.2021
5367 Drizzle 4 1020 75 10000 2.57 240 10:19 09.10.2021
5368 Clouds 3 1021 75 10000 3.6 230 09:23 09.10.2021
5369 Rain 3 1021 75 10000 3.6 220 08:20 09.10.2021
5370 Clouds 3 1022 70 10000 1.03 0 06:37 09.10.2021
5371 Clouds 2 1022 80 10000 3.09 140 04:55 09.10.2021
5372 Clouds 2 1023 80 10000 4.12 130 02:46 09.10.2021
5373 Clouds 2 1023 80 10000 3.6 120 00:30 09.10.2021
5374 Clouds 3 1023 75 10000 4.12 110 23:33 08.10.2021
5375 Clouds 3 1024 70 10000 5.14 120 22:46 08.10.2021
5376 Clouds 3 1024 70 10000 4.12 120 21:44 08.10.2021
5377 Clouds 3 1024 75 10000 4.12 100 20:27 08.10.2021
5378 Clouds 3 1025 81 10000 3.6 100 18:23 08.10.2021
5379 Clouds 3 1025 81 10000 3.09 90 17:18 08.10.2021
5380 Clouds 3 1025 81 10000 3.09 80 16:43 08.10.2021
5381 Clouds 3 1025 87 10000 2.57 70 16:21 08.10.2021
5382 Drizzle 2 1026 93 10000 2.06 50 13:47 08.10.2021
5383 Clouds 3 1026 87 10000 1.54 0 11:56 08.10.2021
5384 Clouds 4 1026 81 10000 2.06 230 10:43 08.10.2021
5385 Clouds 3 1026 87 10000 3.09 240 09:48 08.10.2021
5386 Clouds 3 1024 87 10000 3.09 260 05:56 08.10.2021
5387 Clouds 4 1020 65 10000 7.72 270 23:26 07.10.2021
5388 Rain 4 1019 60 10000 7.72 250 22:54 07.10.2021
5389 Rain 2 1019 80 10000 3.6 260 21:29 07.10.2021
5390 Clouds 2 1019 87 6000 4.63 280 20:42 07.10.2021
5391 Clouds 3 1018 75 10000 4.63 270 19:38 07.10.2021
5392 Clouds 3 1018 70 10000 5.66 270 18:54 07.10.2021
5393 Rain 3 1017 70 10000 5.14 270 17:34 07.10.2021
5394 Snow 3 1017 75 10000 5.14 260 16:42 07.10.2021
5395 Clouds 3 1016 81 10000 2.06 0 14:56 07.10.2021
5396 Rain 3 1016 75 10000 1.03 0 13:44 07.10.2021
5397 Clouds 4 1016 65 10000 2.57 0 13:19 07.10.2021
5398 Clouds 3 1015 75 10000 2.57 250 11:21 07.10.2021
5399 Clouds 3 1015 81 10000 3.6 280 10:46 07.10.2021
5400 Clouds 3 1015 75 10000 2.57 270 09:47 07.10.2021
5401 Clouds 4 1015 65 10000 3.6 360 08:54 07.10.2021
5402 Clouds 4 1015 70 10000 2.57 0 08:19 07.10.2021
5403 Clouds 4 1015 65 10000 2.06 0 07:39 07.10.2021
5404 Clouds 4 1015 65 10000 2.57 0 06:41 07.10.2021
5405 Clouds 5 1014 81 10000 4.63 300 00:52 07.10.2021
5406 Clouds 5 1014 87 10000 4.63 240 23:25 06.10.2021
5407 Clouds 5 1014 87 10000 5.14 240 22:33 06.10.2021
5408 Clouds 6 1014 81 10000 5.14 240 21:39 06.10.2021
5409 Drizzle 6 1014 81 10000 5.14 240 20:29 06.10.2021
5410 Clouds 5 1014 93 10000 4.12 230 19:21 06.10.2021
5411 Clouds 6 1014 87 10000 5.14 240 17:27 06.10.2021
5412 Clouds 6 1013 93 10000 6.17 240 15:43 06.10.2021
5413 Clouds 6 1013 93 10000 6.69 240 14:53 06.10.2021
5414 Clouds 7 1012 87 10000 4.63 250 13:25 06.10.2021
5415 Rain 7 1011 87 10000 6.17 240 12:47 06.10.2021
5416 Rain 7 1011 87 10000 7.72 250 12:26 06.10.2021
5417 Rain 8 1010 76 10000 8.23 240 11:35 06.10.2021
5418 Rain 8 1010 76 10000 10.29 240 11:35 06.10.2021
5419 Rain 7 1009 87 10000 8.23 250 09:40 06.10.2021
5420 Rain 8 1008 81 10000 11.83 240 08:59 06.10.2021
5421 Rain 8 1007 81 10000 10.29 240 08:31 06.10.2021
5422 Clouds 8 1006 81 10000 12.86 240 06:18 06.10.2021
5423 Drizzle 9 1003 81 10000 7.72 250 02:19 06.10.2021
5424 Rain 11 1001 66 10000 5.14 200 00:24 06.10.2021
5425 Clear 11 1001 66 10000 5.66 210 23:51 05.10.2021
5426 Clear 11 1001 71 10000 4.63 210 23:30 05.10.2021
5427 Clear 11 1001 71 10000 4.63 210 22:35 05.10.2021
5428 Clear 11 1001 71 10000 4.12 210 21:57 05.10.2021
5429 Clear 11 1001 71 10000 3.6 260 21:20 05.10.2021
5430 Clouds 11 1002 71 10000 3.09 220 20:31 05.10.2021
5431 Clouds 11 1002 71 10000 4.12 240 19:51 05.10.2021
5432 Clouds 12 1002 66 10000 3.09 220 19:24 05.10.2021
5433 Clouds 12 1002 62 10000 5.14 200 18:21 05.10.2021
5434 Clear 13 1002 58 10000 4.63 200 15:36 05.10.2021
5435 Clear 14 1002 58 10000 3.6 0 13:52 05.10.2021
5436 Clear 14 1002 58 10000 4.12 190 13:23 05.10.2021
5437 Clear 13 1002 58 10000 5.14 200 12:35 05.10.2021
5438 Clear 13 1002 58 10000 5.14 210 11:41 05.10.2021
5439 Clear 12 1002 66 10000 3.6 210 10:37 05.10.2021
5440 Clear 11 1002 71 10000 3.6 210 07:59 05.10.2021
5441 Clear 12 1003 71 10000 7.72 200 01:47 05.10.2021
5442 Clear 12 1003 71 10000 3.6 0 22:56 04.10.2021
5443 Clear 13 1003 71 10000 4.12 190 21:38 04.10.2021
5444 Clouds 12 1002 76 10000 1.54 0 18:52 04.10.2021
5445 Drizzle 11 1002 87 10000 2.06 260 17:32 04.10.2021
5446 Rain 13 999 71 10000 10.29 200 15:50 04.10.2021
5447 Clouds 13 998 71 10000 8.23 200 15:24 04.10.2021
5448 Clouds 13 997 71 10000 9.77 200 14:34 04.10.2021
5449 Clouds 13 996 71 10000 12.86 200 13:32 04.10.2021
5450 Clouds 14 996 67 10000 11.32 200 12:51 04.10.2021
5451 Clouds 14 996 67 10000 11.83 190 11:34 04.10.2021
5452 Clouds 13 997 71 10000 11.83 190 10:47 04.10.2021
5453 Clouds 13 996 71 10000 13.38 200 09:45 04.10.2021
5454 Clouds 12 998 71 10000 10.8 200 07:54 04.10.2021
5455 Clouds 12 1000 71 10000 13.38 210 06:50 04.10.2021
5456 Clouds 11 1008 66 10000 7.72 190 23:41 03.10.2021
5457 Clear 11 1008 62 10000 10.8 190 22:30 03.10.2021
5458 Clear 10 1008 66 10000 11.83 190 21:34 03.10.2021
5459 Clear 10 1008 66 10000 8.75 200 20:49 03.10.2021
5460 Clear 11 1010 62 10000 7.72 200 19:50 03.10.2021
5461 Clear 11 1011 62 10000 6.69 200 18:30 03.10.2021
5462 Clear 11 1011 66 10000 7.2 190 17:38 03.10.2021
5463 Clouds 11 1012 66 10000 4.63 190 15:30 03.10.2021
5464 Clouds 11 1012 66 10000 5.66 190 14:31 03.10.2021
5465 Clouds 11 1012 66 10000 4.63 210 13:36 03.10.2021
5466 Clear 11 1011 62 10000 6.69 210 12:50 03.10.2021
5467 Clear 10 1010 66 10000 10.8 210 11:40 03.10.2021
5468 Clear 10 1011 62 10000 10.8 200 10:21 03.10.2021
5469 Clouds 11 1012 62 10000 8.75 200 07:39 03.10.2021
5470 Clouds 12 1012 76 10000 4.12 190 23:50 02.10.2021
5471 Clouds 12 1012 76 10000 3.6 210 22:18 02.10.2021
5472 Clear 11 1011 76 10000 1.54 0 20:34 02.10.2021
5473 Clouds 11 1011 76 10000 2.57 210 18:57 02.10.2021
5474 Clouds 11 1011 76 10000 2.06 0 18:27 02.10.2021
5475 Clouds 11 1011 76 10000 1.54 0 17:38 02.10.2021
5476 Clouds 12 1010 71 10000 2.57 200 16:39 02.10.2021
5477 Clouds 12 1010 71 10000 4.12 210 14:35 02.10.2021
5478 Fog 9 1023 81 10000 1.03 0 15:38 30.09.2021
5479 Fog 10 1023 76 10000 0 0 14:29 30.09.2021
5480 Fog 8 1024 87 10000 0.51 0 12:20 30.09.2021
5481 Fog 7 1024 87 10000 1.03 0 11:25 30.09.2021
5482 Fog 5 1024 100 10000 0.51 0 10:26 30.09.2021
5483 Fog 3 1024 100 10000 0 0 08:32 30.09.2021
5484 Fog 2 1024 100 10000 0 0 07:57 30.09.2021
5485 Fog 3 1024 100 100 1.54 40 05:25 30.09.2021
5486 Fog 4 1025 100 50 0 0 02:33 30.09.2021
5487 Fog 4 1025 100 100 0.51 0 00:35 30.09.2021
5488 Fog 5 1026 93 250 1.03 0 22:48 29.09.2021
5489 Fog 5 1026 100 500 2.06 50 21:54 29.09.2021
5490 Fog 5 1026 100 600 2.57 50 20:40 29.09.2021
5491 Fog 6 1026 100 600 3.09 50 20:20 29.09.2021
5492 Fog 6 1027 100 500 2.06 40 19:24 29.09.2021
5493 Fog 7 1027 100 250 2.57 70 18:18 29.09.2021
5494 Fog 7 1027 100 5000 3.09 70 16:56 29.09.2021
5495 Fog 8 1027 100 8000 3.6 60 16:28 29.09.2021
5496 Fog 9 1027 87 8000 2.57 60 15:35 29.09.2021
5497 Clouds 10 1027 81 10000 3.09 90 14:37 29.09.2021
5498 Clouds 10 1027 76 10000 3.6 90 13:33 29.09.2021
5499 Clear 12 1027 66 10000 0.51 0 12:39 29.09.2021
5500 Clear 9 1027 76 10000 2.06 230 11:23 29.09.2021
5501 Clear 9 1027 81 10000 2.06 240 10:31 29.09.2021
5502 Clear 9 1027 81 10000 0.51 0 09:42 29.09.2021
5503 Clear 6 1026 93 10000 0 0 07:55 29.09.2021
5504 Clear 6 1026 87 10000 1.03 0 06:49 29.09.2021
5505 Clear 9 1025 81 10000 0 0 00:28 29.09.2021
5506 Clear 11 1025 71 10000 3.6 260 22:45 28.09.2021
5507 Clear 11 1025 66 10000 2.06 260 22:22 28.09.2021
5508 Clear 11 1024 66 10000 1.03 0 21:21 28.09.2021
5509 Clear 12 1023 62 10000 2.06 270 19:53 28.09.2021
5510 Clear 12 1023 62 10000 2.06 270 19:32 28.09.2021
5511 Clear 13 1022 58 10000 3.6 250 18:41 28.09.2021
5512 Clear 15 1020 51 10000 2.57 250 16:58 28.09.2021
5513 Clear 16 1020 51 10000 2.06 250 15:21 28.09.2021
5514 Clear 16 1019 51 10000 4.12 240 13:27 28.09.2021
5515 Clear 16 1018 51 10000 3.6 220 12:26 28.09.2021
5516 Clear 15 1018 55 10000 3.6 260 11:52 28.09.2021
5517 Clear 15 1018 55 10000 3.6 260 11:34 28.09.2021
5518 Clear 14 1018 58 10000 5.14 240 10:30 28.09.2021
5519 Clear 13 1018 58 10000 4.63 220 09:29 28.09.2021
5520 Clear 13 1018 62 10000 4.63 250 08:44 28.09.2021
5521 Clear 13 1017 62 10000 5.14 240 08:25 28.09.2021
5522 Clear 13 1017 62 10000 4.12 220 06:46 28.09.2021
5523 Clouds 14 1018 67 10000 5.66 200 02:56 28.09.2021
5524 Clear 16 1019 59 10000 5.66 220 00:51 28.09.2021
5525 Clear 15 1019 63 10000 3.09 280 23:52 27.09.2021
5526 Clear 15 1019 63 10000 3.6 260 23:27 27.09.2021
5527 Clear 15 1019 63 10000 5.14 230 22:44 27.09.2021
5528 Clear 14 1019 72 10000 2.57 250 21:39 27.09.2021
5529 Clear 14 1020 72 10000 1.03 0 20:33 27.09.2021
5530 Clear 16 1020 63 10000 3.6 140 19:41 27.09.2021
5531 Clear 16 1020 63 10000 3.6 140 19:22 27.09.2021
5532 Clear 16 1020 63 10000 1.03 0 18:24 27.09.2021
5533 Clear 17 1020 59 10000 1.03 0 17:22 27.09.2021
5534 Clear 17 1020 59 10000 1.54 0 16:39 27.09.2021
5535 Clear 18 1020 59 10000 1.03 0 15:40 27.09.2021
5536 Clouds 17 1020 63 10000 0 0 14:32 27.09.2021
5537 Clouds 14 1020 77 10000 1.54 220 12:59 27.09.2021
5538 Clouds 13 1019 88 10000 1.54 80 10:52 27.09.2021
5539 Clouds 11 1019 100 10000 1.03 250 09:50 27.09.2021
5540 Clouds 11 1018 100 10000 1.54 0 08:32 27.09.2021
5541 Drizzle 11 1016 100 10000 5.66 220 05:21 27.09.2021
5542 Drizzle 10 1012 93 1000 5.14 230 01:48 27.09.2021
5543 Drizzle 9 1008 81 10000 4.12 230 22:28 26.09.2021
5544 Rain 9 1008 76 10000 3.6 220 21:49 26.09.2021
5545 Rain 8 1008 81 10000 2.57 210 20:52 26.09.2021
5546 Rain 8 1008 81 10000 2.06 230 20:20 26.09.2021
5547 Rain 8 1008 81 10000 2.06 230 20:20 26.09.2021
5548 Rain 8 1008 76 10000 3.09 210 19:38 26.09.2021
5549 Drizzle 9 1008 71 10000 4.12 210 18:45 26.09.2021
5550 Rain 9 1008 66 10000 5.14 200 17:54 26.09.2021
5551 Clouds 9 1008 61 10000 5.66 200 17:21 26.09.2021
5552 Clouds 9 1008 61 10000 6.17 200 16:37 26.09.2021
5553 Clear 9 1008 61 10000 6.17 200 15:58 26.09.2021
5554 Clear 9 1009 66 10000 4.12 210 14:46 26.09.2021
5555 Clear 10 1009 57 10000 4.12 200 13:54 26.09.2021
5556 Clear 9 1010 71 10000 3.09 230 12:59 26.09.2021
5557 Clear 9 1010 71 10000 2.06 0 12:20 26.09.2021
5558 Clear 8 1010 71 10000 2.06 180 11:37 26.09.2021
5559 Clouds 8 1010 81 10000 2.57 210 10:23 26.09.2021
5560 Clouds 7 1009 87 10000 1.54 250 08:58 26.09.2021
5561 Clouds 6 1008 87 10000 3.09 270 06:36 26.09.2021
5562 Clouds 7 1003 93 10000 3.09 220 00:22 26.09.2021
5563 Clouds 7 1002 93 10000 5.14 240 23:26 25.09.2021
5564 Drizzle 7 1002 93 10000 4.12 220 22:38 25.09.2021
5565 Rain 7 1001 93 10000 2.06 250 21:55 25.09.2021
5566 Drizzle 7 1001 93 10000 1.54 220 21:32 25.09.2021
5567 Drizzle 7 1001 93 10000 2.06 240 20:48 25.09.2021
5568 Clouds 8 999 81 10000 2.06 230 18:59 25.09.2021
5569 Clouds 9 998 76 10000 4.63 210 18:24 25.09.2021
5570 Clouds 9 996 71 10000 4.63 200 15:48 25.09.2021
5571 Clouds 9 996 71 10000 5.14 210 13:57 25.09.2021
5572 Clouds 9 996 71 10000 5.14 210 13:32 25.09.2021
5573 Clouds 9 995 71 10000 5.14 200 12:28 25.09.2021
5574 Clouds 9 994 71 10000 4.12 180 10:35 25.09.2021
5575 Clouds 9 994 71 10000 3.09 160 09:40 25.09.2021
5576 Clouds 7 994 76 10000 5.14 130 08:29 25.09.2021
5577 Clouds 7 994 76 10000 2.57 170 06:26 25.09.2021
5578 Clouds 9 995 71 10000 1.54 150 23:55 24.09.2021
5579 Clouds 9 995 71 10000 5.66 190 21:54 24.09.2021
5580 Clouds 9 995 66 10000 5.66 190 20:49 24.09.2021
5581 Clouds 9 995 66 10000 3.09 160 19:58 24.09.2021
5582 Clouds 9 996 66 10000 3.6 190 18:35 24.09.2021
5583 Clouds 9 996 66 10000 3.6 200 17:56 24.09.2021
5584 Clouds 9 996 66 10000 3.6 200 17:37 24.09.2021
5585 Clouds 9 996 66 10000 5.14 190 17:18 24.09.2021
5586 Clouds 8 996 71 10000 4.12 0 14:34 24.09.2021
5587 Clouds 9 996 66 10000 6.17 180 13:19 24.09.2021
5588 Clouds 9 997 66 10000 4.12 190 12:41 24.09.2021
5589 Rain 9 997 61 10000 6.69 190 12:23 24.09.2021
5590 Clouds 9 996 66 10000 7.72 210 10:27 24.09.2021
5591 Clouds 8 995 71 10000 9.77 190 08:55 24.09.2021
5592 Clouds 7 995 76 10000 7.72 190 07:39 24.09.2021
5593 Clouds 7 995 76 10000 7.2 200 06:50 24.09.2021
5594 Clouds 7 996 70 10000 7.2 200 04:58 24.09.2021
5595 Clouds 7 995 76 10000 8.75 190 00:44 24.09.2021
5596 Clouds 8 995 71 10000 7.2 190 22:35 23.09.2021
5597 Clouds 7 996 86 10000 7.34 169 21:56 23.09.2021
5598 Clouds 8 994 71 10000 6.17 180 20:36 23.09.2021
5599 Clouds 8 994 71 10000 7.72 190 20:18 23.09.2021
5600 Clouds 8 994 71 10000 6.17 170 18:22 23.09.2021
5601 Clouds 9 995 71 10000 7.72 220 15:36 23.09.2021
5602 Clouds 9 995 71 10000 7.72 220 15:18 23.09.2021
5603 Rain 9 994 71 10000 8.75 200 13:48 23.09.2021
5604 Rain 9 994 71 10000 6.69 190 13:22 23.09.2021
5605 Clouds 9 994 71 10000 7.2 190 12:53 23.09.2021
5606 Clouds 9 995 71 10000 8.23 200 12:22 23.09.2021
5607 Clouds 9 995 76 10000 6.17 200 11:47 23.09.2021
5608 Clouds 9 995 76 10000 5.66 200 10:27 23.09.2021
5609 Clouds 10 996 71 10000 6.69 190 09:52 23.09.2021
5610 Clouds 9 997 76 10000 5.66 200 08:31 23.09.2021
5611 Clouds 10 998 71 10000 4.12 190 04:41 23.09.2021
5612 Clouds 10 999 76 10000 6.17 190 23:35 22.09.2021
5613 Clouds 10 999 76 10000 7.72 200 22:37 22.09.2021
5614 Clouds 10 998 76 10000 7.72 200 21:56 22.09.2021
5615 Clouds 10 998 76 10000 7.72 200 21:34 22.09.2021
5616 Clouds 10 998 71 10000 8.75 200 20:57 22.09.2021
5617 Clouds 10 998 71 10000 9.77 200 19:33 22.09.2021
5618 Clouds 10 998 71 10000 7.72 190 18:40 22.09.2021
5619 Clouds 10 998 71 10000 7.72 190 18:40 22.09.2021
5620 Clouds 9 999 82 10000 9.62 180 17:48 22.09.2021
5621 Clouds 9 999 81 10000 9.57 183 16:40 22.09.2021
5622 Clouds 10 999 66 10000 8.75 180 15:29 22.09.2021
5623 Clouds 9 998 71 10000 11.83 210 13:58 22.09.2021
5624 Clouds 8 1000 71 10000 9.77 200 12:19 22.09.2021
5625 Clouds 7 1001 76 10000 10.29 190 10:53 22.09.2021
5626 Clouds 7 1002 70 10000 12.35 190 09:25 22.09.2021
5627 Clouds 7 1002 70 10000 14.4 200 08:30 22.09.2021
5628 Clouds 7 1004 70 10000 11.32 200 07:25 22.09.2021
5629 Clouds 6 1006 75 10000 11.83 200 06:18 22.09.2021
5630 Clouds 6 1006 75 10000 11.32 210 05:36 22.09.2021
5631 Clouds 6 1009 75 10000 9.26 190 03:52 22.09.2021
5632 Clear 6 1011 70 10000 6.17 200 00:37 22.09.2021
5633 Clear 6 1011 70 10000 5.66 190 23:24 21.09.2021
5634 Clear 7 1012 61 10000 7.2 200 21:38 21.09.2021
5635 Clear 7 1013 66 10000 8.71 187 20:27 21.09.2021
5636 Clear 7 1013 65 10000 9.11 191 19:23 21.09.2021
5637 Clear 7 1013 62 10000 8.8 190 17:49 21.09.2021
5638 Clear 7 1013 57 10000 12.35 190 16:38 21.09.2021
5639 Clear 7 1013 61 10000 10.29 200 15:55 21.09.2021
5640 Clear 7 1014 57 10000 9.26 200 14:58 21.09.2021
5641 Clear 7 1014 57 10000 10.29 210 13:57 21.09.2021
5642 Clear 7 1014 57 10000 9.26 220 13:39 21.09.2021
5643 Clear 7 1014 57 10000 9.26 210 12:44 21.09.2021
5644 Clear 5 1015 60 10000 10.29 200 10:39 21.09.2021
5645 Clear 5 1016 60 10000 8.23 190 08:41 21.09.2021
5646 Clear 5 1015 60 10000 9.26 210 07:37 21.09.2021
5647 Clear 6 1019 61 10000 5.66 200 01:53 21.09.2021
5648 Clear 6 1020 61 10000 5.14 200 22:50 20.09.2021
5649 Clear 6 1021 61 10000 5.14 190 21:42 20.09.2021
5650 Clear 7 1021 57 10000 6.69 190 21:20 20.09.2021
5651 Clear 7 1022 61 10000 6.17 200 19:46 20.09.2021
5652 Clear 9 1022 53 10000 6.69 200 17:54 20.09.2021
5653 Clear 10 1023 53 10000 6.17 200 16:58 20.09.2021
5654 Clear 10 1023 53 10000 5.14 200 16:23 20.09.2021
5655 Clear 10 1023 53 10000 5.14 200 15:34 20.09.2021
5656 Clear 10 1024 53 10000 6.17 190 14:27 20.09.2021
5657 Clear 10 1024 53 10000 5.14 200 12:44 20.09.2021
5658 Clear 10 1024 53 10000 6.69 200 12:22 20.09.2021
5659 Clear 9 1024 57 10000 5.14 200 10:49 20.09.2021
5660 Clear 8 1024 57 10000 5.14 210 09:51 20.09.2021
5661 Clear 8 1024 57 10000 5.14 210 09:31 20.09.2021
5662 Clear 8 1024 57 10000 5.66 220 08:35 20.09.2021
5663 Clear 7 1025 65 10000 5.14 210 06:21 20.09.2021
5664 Clear 8 1026 71 10000 3.09 260 22:58 19.09.2021
5665 Clear 9 1026 61 10000 3.6 220 21:50 19.09.2021
5666 Clear 9 1025 66 10000 4.63 210 20:59 19.09.2021
5667 Clear 10 1025 57 10000 2.57 210 19:54 19.09.2021
5668 Clear 11 1025 62 10000 3.09 200 18:53 19.09.2021
5669 Clear 10 1025 62 10000 4.12 200 17:42 19.09.2021
5670 Clear 11 1025 58 10000 3.6 200 16:35 19.09.2021
5671 Clear 11 1025 58 10000 5.66 200 15:31 19.09.2021
5672 Clear 10 1025 62 10000 4.63 200 14:49 19.09.2021
5673 Clear 10 1025 62 10000 4.63 220 13:52 19.09.2021
5674 Clear 10 1025 62 10000 3.6 230 12:55 19.09.2021
5675 Clouds 9 1025 66 10000 2.57 220 11:49 19.09.2021
5676 Clouds 9 1025 66 10000 3.6 230 11:22 19.09.2021
5677 Clear 8 1025 66 10000 2.57 240 09:51 19.09.2021
5678 Clear 7 1025 70 10000 1.03 0 09:23 19.09.2021
5679 Clouds 6 1024 70 10000 2.57 250 06:49 19.09.2021
5680 Clouds 5 1023 75 10000 0 0 00:48 19.09.2021
5681 Clouds 6 1023 75 10000 2.06 260 23:19 18.09.2021
5682 Clouds 6 1022 75 10000 1.54 0 21:56 18.09.2021
5683 Clouds 7 1022 70 10000 1.03 0 20:46 18.09.2021
5684 Clouds 7 1022 70 10000 2.57 200 19:42 18.09.2021
5685 Clear 8 1022 66 10000 4.63 200 19:22 18.09.2021
5686 Clear 8 1021 66 10000 4.63 200 18:58 18.09.2021
5687 Clear 8 1021 66 10000 6.69 200 18:29 18.09.2021
5688 Clouds 9 1021 61 10000 6.17 210 16:35 18.09.2021
5689 Clear 9 1022 66 10000 6.17 200 13:53 18.09.2021
5690 Clear 9 1021 71 10000 5.66 200 13:31 18.09.2021
5691 Clear 9 1022 71 10000 4.63 200 12:52 18.09.2021
5692 Clear 9 1022 66 10000 4.12 170 11:59 18.09.2021
5693 Clear 9 1022 66 10000 3.6 170 11:29 18.09.2021
5694 Clear 8 1022 71 10000 3.6 160 10:30 18.09.2021
5695 Clouds 8 1022 71 10000 1.54 0 09:24 18.09.2021
5696 Clear 6 1022 75 10000 0.51 0 08:25 18.09.2021
5697 Clouds 5 1024 83 10000 3.6 173 00:53 18.09.2021
5698 Clouds 5 1024 83 10000 3.85 177 23:56 17.09.2021
5699 Clouds 6 1024 83 10000 3.85 177 22:54 17.09.2021
5700 Clouds 6 1023 82 10000 3.76 174 22:25 17.09.2021
5701 Clear 4 1022 81 10000 1.03 0 21:33 17.09.2021
5702 Clear 5 1022 75 10000 1.03 0 19:52 17.09.2021
5703 Clear 7 1022 70 10000 1.54 220 18:42 17.09.2021
5704 Clear 9 1022 66 10000 3.6 220 16:42 17.09.2021
5705 Clear 9 1022 66 10000 4.63 200 15:21 17.09.2021
5706 Clear 7 1022 70 10000 5.14 200 11:51 17.09.2021
5707 Clear 7 1022 70 10000 3.6 210 10:23 17.09.2021
5708 Clear 5 1022 75 10000 3.6 210 07:48 17.09.2021
5709 Clouds 5 1021 75 10000 3.09 210 05:45 17.09.2021
5710 Clear 6 1021 65 10000 5.14 200 00:32 17.09.2021
5711 Clear 6 1021 65 10000 2.57 0 22:42 16.09.2021
5712 Clear 6 1021 65 10000 4.12 200 22:23 16.09.2021
5713 Clear 6 1021 70 10000 3.09 210 21:35 16.09.2021
5714 Clear 6 1020 65 10000 2.57 0 20:30 16.09.2021
5715 Clear 7 1020 65 10000 3.09 190 18:52 16.09.2021
5716 Clear 8 1020 61 10000 3.09 200 18:18 16.09.2021
5717 Clear 9 1020 61 10000 4.12 210 16:47 16.09.2021
5718 Clear 9 1020 61 10000 4.12 190 14:49 16.09.2021
5719 Clear 9 1020 57 10000 4.12 210 13:40 16.09.2021
5720 Clear 8 1020 66 10000 4.12 200 12:46 16.09.2021
5721 Clear 8 1020 61 10000 3.6 200 11:50 16.09.2021
5722 Clear 8 1020 61 10000 3.6 200 11:50 16.09.2021
5723 Clear 7 1020 61 10000 3.6 200 10:56 16.09.2021
5724 Clouds 7 1020 65 10000 3.6 200 10:23 16.09.2021
5725 Clear 7 1020 61 10000 2.57 200 09:31 16.09.2021
5726 Clear 6 1020 65 10000 1.54 0 07:52 16.09.2021
5727 Clear 4 1021 75 10000 1.54 0 06:58 16.09.2021
5728 Clear 4 1021 75 10000 1.54 0 06:38 16.09.2021
5729 Clouds 6 1021 65 10000 2.06 120 03:22 16.09.2021
5730 Clouds 6 1021 75 10000 1.03 0 00:53 16.09.2021
5731 Clouds 6 1021 75 10000 1.54 50 23:30 15.09.2021
5732 Clouds 5 1021 81 10000 2.06 50 22:39 15.09.2021
5733 Clouds 5 1022 81 10000 2.06 40 21:31 15.09.2021
5734 Clouds 4 1022 87 10000 1.03 0 20:49 15.09.2021
5735 Clouds 6 1022 75 10000 0 0 19:33 15.09.2021
5736 Clouds 6 1022 75 10000 0.51 0 18:53 15.09.2021
5737 Clouds 7 1022 70 10000 2.06 220 17:42 15.09.2021
5738 Clouds 7 1022 70 10000 1.03 0 16:43 15.09.2021
5739 Clouds 7 1022 70 10000 1.03 0 16:43 15.09.2021
5740 Clouds 8 1022 61 10000 1.03 0 15:22 15.09.2021
5741 Clouds 7 1022 70 10000 1.03 0 14:42 15.09.2021
5742 Clouds 8 1022 66 10000 1.54 0 13:47 15.09.2021
5743 Clouds 7 1022 76 10000 2.06 230 13:28 15.09.2021
5744 Clouds 7 1022 76 10000 2.06 220 12:33 15.09.2021
5745 Clouds 7 1022 76 10000 2.57 230 11:51 15.09.2021
5746 Clouds 7 1022 76 10000 2.57 230 11:51 15.09.2021
5747 Clouds 6 1022 81 10000 1.54 230 10:57 15.09.2021
5748 Clouds 6 1022 81 10000 1.54 230 10:33 15.09.2021
5749 Clouds 5 1021 87 10000 0 0 08:50 15.09.2021
5750 Clouds 5 1021 81 10000 0.51 0 07:26 15.09.2021
5751 Clouds 4 1020 87 10000 1.03 30 00:55 15.09.2021
5752 Clouds 5 1020 87 10000 1.54 60 22:24 14.09.2021
5753 Clouds 5 1019 87 10000 2.57 30 21:21 14.09.2021
5754 Clouds 5 1019 87 10000 2.06 50 20:18 14.09.2021
5755 Clouds 5 1019 87 10000 2.06 40 19:23 14.09.2021
5756 Clouds 6 1019 81 10000 3.09 70 17:33 14.09.2021
5757 Clouds 6 1018 81 10000 3.09 60 16:39 14.09.2021
5758 Drizzle 6 1017 81 10000 4.12 50 14:52 14.09.2021
5759 Drizzle 6 1017 81 10000 4.12 50 14:52 14.09.2021
5760 Clouds 6 1017 70 10000 3.09 70 14:19 14.09.2021
5761 Clouds 6 1016 75 10000 3.09 60 11:46 14.09.2021
5762 Clouds 6 1015 81 10000 4.12 60 10:25 14.09.2021
5763 Clouds 6 1015 81 10000 4.12 70 09:48 14.09.2021
5764 Clouds 5 1014 87 10000 3.09 70 07:53 14.09.2021
5765 Clouds 5 1011 87 10000 4.63 60 02:20 14.09.2021
5766 Clouds 6 1009 87 10000 3.6 60 23:27 13.09.2021
5767 Clouds 6 1008 87 10000 3.6 40 22:27 13.09.2021
5768 Clouds 6 1008 93 10000 3.6 40 21:55 13.09.2021
5769 Clouds 6 1008 93 10000 1.54 60 21:32 13.09.2021
5770 Clouds 6 1007 93 10000 1.54 280 19:35 13.09.2021
5771 Clouds 6 1006 93 10000 1.54 250 18:44 13.09.2021
5772 Clouds 6 1005 93 10000 2.06 240 17:28 13.09.2021
5773 Clouds 6 1005 93 10000 2.57 230 16:49 13.09.2021
5774 Drizzle 6 1004 100 9000 2.57 210 14:44 13.09.2021
5775 Clouds 6 1002 93 9000 2.57 0 11:44 13.09.2021
5776 Clouds 6 1002 93 9000 4.12 350 10:40 13.09.2021
5777 Clouds 6 1002 93 10000 2.57 280 07:58 13.09.2021
5778 Clear 7 1001 81 10000 1.03 0 00:29 13.09.2021
5779 Clear 7 1002 76 10000 1.03 0 22:51 12.09.2021
5780 Clear 7 1002 76 10000 1.54 0 22:22 12.09.2021
5781 Clear 8 1002 81 10000 1.03 0 20:53 12.09.2021
5782 Clear 8 1003 76 10000 1.03 30 19:58 12.09.2021
5783 Clear 7 1003 81 10000 0 0 19:29 12.09.2021
5784 Clear 8 1003 81 10000 0 0 18:55 12.09.2021
5785 Clear 10 1004 66 10000 1.54 240 17:18 12.09.2021
5786 Clear 11 1005 66 10000 1.54 0 15:54 12.09.2021
5787 Clear 11 1005 62 10000 1.03 0 14:39 12.09.2021
5788 Clear 9 1007 66 10000 2.57 220 12:39 12.09.2021
5789 Clear 8 1008 71 10000 0.51 0 10:21 12.09.2021
5790 Clouds 6 1008 81 10000 1.03 0 08:39 12.09.2021
5791 Clouds 3 1009 87 10000 0.51 0 07:26 12.09.2021
5792 Clouds 5 1012 81 10000 3.09 30 00:47 12.09.2021
5793 Clouds 5 1013 87 10000 3.6 30 22:35 11.09.2021
5794 Clouds 4 1013 81 10000 1.54 40 21:38 11.09.2021
5795 Clouds 5 1014 81 10000 1.54 0 19:39 11.09.2021
5796 Clouds 7 1014 76 10000 1.03 0 17:56 11.09.2021
5797 Clouds 7 1014 76 10000 2.06 220 17:21 11.09.2021
5798 Clouds 8 1015 76 10000 2.57 220 15:24 11.09.2021
5799 Clouds 8 1015 76 10000 1.03 0 13:22 11.09.2021
5800 Clouds 7 1015 81 10000 2.06 240 11:41 11.09.2021
5801 Clouds 7 1016 75 10000 1.54 323 09:50 11.09.2021
5802 Clouds 7 1015 76 10000 1.77 319 08:31 11.09.2021
5803 Clouds 7 1015 75 10000 3.3 284 07:34 11.09.2021
5804 Clouds 6 1014 77 10000 2.69 300 02:52 11.09.2021
5805 Clouds 7 1011 81 10000 2.06 0 22:28 10.09.2021
5806 Clouds 7 1010 76 10000 4.63 280 21:56 10.09.2021
5807 Clouds 7 1010 76 10000 4.63 280 21:35 10.09.2021
5808 Clouds 7 1009 81 10000 4.63 270 18:47 10.09.2021
5809 Clouds 7 1009 81 10000 9.26 240 17:54 10.09.2021
5810 Rain 7 1009 81 10000 6.17 240 15:50 10.09.2021
5811 Rain 7 1008 81 10000 7.72 240 13:20 10.09.2021
5812 Rain 8 1008 76 10000 9.77 240 10:32 10.09.2021
5813 Rain 7 1008 93 10000 8.23 230 07:52 10.09.2021
5814 Clouds 7 1008 81 10000 8.23 230 05:23 10.09.2021
5815 Clouds 6 1008 93 10000 2.06 270 23:52 09.09.2021
5816 Rain 6 1008 81 10000 3.09 260 21:48 09.09.2021
5817 Clouds 6 1007 81 10000 3.09 270 20:47 09.09.2021
5818 Clouds 6 1007 81 10000 3.09 260 20:24 09.09.2021
5819 Clouds 6 1007 81 10000 4.63 260 18:39 09.09.2021
5820 Rain 6 1007 81 10000 4.63 280 17:41 09.09.2021
5821 Clouds 6 1006 87 10000 3.09 270 16:27 09.09.2021
5822 Clouds 7 1005 76 10000 4.63 270 13:38 09.09.2021
5823 Clouds 6 1004 87 10000 3.09 270 11:57 09.09.2021
5824 Clouds 5 1003 93 10000 2.57 0 11:22 09.09.2021
5825 Rain 5 1003 87 10000 3.09 280 09:34 09.09.2021
5826 Clouds 5 1002 70 10000 3.09 280 07:43 09.09.2021
5827 Clouds 5 1001 81 10000 1.03 0 05:40 09.09.2021
5828 Clouds 8 998 87 10000 5.14 270 23:54 08.09.2021
5829 Clouds 8 998 100 10000 5.14 270 21:48 08.09.2021
5830 Rain 6 998 100 6000 1.54 230 20:48 08.09.2021
5831 Rain 5 998 100 10000 1.03 0 19:46 08.09.2021
5832 Rain 6 998 87 10000 1.54 210 18:47 08.09.2021
5833 Rain 6 998 81 10000 2.06 240 18:25 08.09.2021
5834 Drizzle 6 998 75 10000 1.54 0 17:39 08.09.2021
5835 Rain 7 997 76 10000 1.03 0 15:21 08.09.2021
5836 Clouds 8 997 66 10000 2.06 0 13:33 08.09.2021
5837 Rain 7 996 81 10000 2.57 70 12:41 08.09.2021
5838 Rain 7 996 87 10000 2.06 80 12:23 08.09.2021
5839 Clouds 7 996 87 10000 2.06 90 11:26 08.09.2021
5840 Clouds 7 996 87 10000 2.06 90 11:26 08.09.2021
5841 Clouds 7 996 87 10000 0 0 10:31 08.09.2021
5842 Clouds 7 996 87 10000 0 0 10:31 08.09.2021
5843 Clouds 6 995 93 10000 2.06 90 09:55 08.09.2021
5844 Clouds 6 996 93 10000 3.09 50 07:45 08.09.2021
5845 Clouds 6 996 100 10000 1.54 0 06:43 08.09.2021
5846 Clear 7 999 93 10000 4.12 40 23:28 07.09.2021
5847 Clear 7 999 100 10000 3.6 70 22:19 07.09.2021
5848 Clouds 7 999 93 10000 4.63 30 20:41 07.09.2021
5849 Clear 8 1000 87 10000 4.12 30 18:53 07.09.2021
5850 Clear 8 1000 87 10000 4.12 20 18:28 07.09.2021
5851 Clear 10 1001 81 10000 4.12 30 17:25 07.09.2021
5852 Clear 9 1002 87 10000 4.12 60 15:56 07.09.2021
5853 Clouds 10 1002 81 10000 4.63 50 14:53 07.09.2021
5854 Clouds 9 1003 93 10000 4.63 70 13:52 07.09.2021
5855 Clouds 9 1003 93 10000 4.63 70 13:52 07.09.2021
5856 Fog 8 1004 93 10000 4.12 70 11:58 07.09.2021
5857 Fog 7 1004 100 10000 5.14 70 10:50 07.09.2021
5858 Fog 7 1005 100 10000 3.6 70 09:40 07.09.2021
5859 Clouds 7 1006 100 10000 2.06 70 07:47 07.09.2021
5860 Mist 6 1007 100 2500 3.09 30 06:20 07.09.2021
5861 Clouds 6 1009 100 10000 1.54 60 02:39 07.09.2021
5862 Clouds 6 1009 100 10000 1.54 50 01:57 07.09.2021
5863 Drizzle 6 1010 100 10000 1.03 40 23:49 06.09.2021
5864 Clouds 6 1010 100 10000 1.54 40 23:30 06.09.2021
5865 Drizzle 6 1010 100 9000 1.54 40 22:51 06.09.2021
5866 Drizzle 6 1011 100 10000 1.54 50 21:55 06.09.2021
5867 Drizzle 6 1011 100 10000 1.03 50 20:34 06.09.2021
5868 Drizzle 6 1012 100 4500 0 0 19:18 06.09.2021
5869 Drizzle 6 1012 100 3000 1.03 250 18:35 06.09.2021
5870 Drizzle 6 1012 100 3500 0 0 17:50 06.09.2021
5871 Rain 6 1013 100 7000 1.54 240 16:20 06.09.2021
5872 Rain 7 1013 87 10000 2.57 230 14:59 06.09.2021
5873 Clouds 7 1013 93 10000 2.57 240 12:59 06.09.2021
5874 Clouds 7 1013 93 10000 2.57 240 12:41 06.09.2021
5875 Rain 7 1013 93 10000 0 0 10:27 06.09.2021
5876 Rain 8 1013 81 10000 1.54 0 07:39 06.09.2021
5877 Clouds 8 1013 100 10000 3.6 280 03:34 06.09.2021
5878 Drizzle 8 1013 100 10000 5.14 230 23:23 05.09.2021
5879 Drizzle 8 1013 100 10000 4.63 220 22:32 05.09.2021
5880 Drizzle 8 1013 100 10000 4.12 220 21:55 05.09.2021
5881 Drizzle 8 1014 100 10000 4.12 220 21:20 05.09.2021
5882 Clouds 8 1014 100 10000 3.09 230 19:45 05.09.2021
5883 Rain 7 1014 100 10000 3.6 230 17:52 05.09.2021
5884 Drizzle 8 1015 87 10000 3.6 230 15:58 05.09.2021
5885 Rain 8 1015 87 10000 3.09 230 15:19 05.09.2021
5886 Rain 8 1015 87 10000 3.09 220 12:44 05.09.2021
5887 Clouds 8 1015 81 10000 4.12 220 11:31 05.09.2021
5888 Rain 8 1015 81 10000 3.6 210 10:39 05.09.2021
5889 Rain 7 1015 87 10000 2.57 210 09:33 05.09.2021
5890 Clouds 6 1015 100 10000 2.06 230 08:31 05.09.2021
5891 Clouds 5 1016 93 10000 2.57 250 03:52 05.09.2021
5892 Clouds 5 1016 87 10000 0 0 00:39 05.09.2021
5893 Clouds 5 1016 87 10000 0 0 23:55 04.09.2021
5894 Clouds 5 1016 87 10000 1.03 0 23:22 04.09.2021
5895 Clouds 5 1016 87 10000 2.57 260 22:35 04.09.2021
5896 Clouds 5 1016 87 10000 2.57 260 22:35 04.09.2021
5897 Clouds 5 1017 81 10000 0 0 20:58 04.09.2021
5898 Rain 5 1017 87 10000 2.06 240 19:33 04.09.2021
5899 Rain 5 1017 81 10000 3.6 10 17:25 04.09.2021
5900 Rain 6 1016 70 10000 3.6 0 14:37 04.09.2021
5901 Clouds 5 1015 70 10000 3.09 0 11:26 04.09.2021
5902 Clouds 5 1015 65 10000 1.03 0 10:32 04.09.2021
5903 Clouds 3 1015 87 10000 2.57 0 07:43 04.09.2021
5904 Rain 4 1014 81 10000 4.63 0 00:49 04.09.2021
5905 Clouds 4 1013 81 10000 5.66 360 23:49 03.09.2021
5906 Clouds 4 1013 75 10000 3.6 360 23:20 03.09.2021
5907 Rain 4 1013 81 10000 3.6 0 21:43 03.09.2021
5908 Clouds 4 1013 81 10000 5.14 360 20:54 03.09.2021
5909 Clouds 4 1013 81 10000 6.69 360 20:24 03.09.2021
5910 Clouds 5 1013 75 10000 6.17 360 19:35 03.09.2021
5911 Clouds 5 1012 81 10000 8.23 360 18:21 03.09.2021
5912 Clouds 5 1012 81 10000 4.12 10 16:50 03.09.2021
5913 Clouds 5 1012 81 10000 6.17 360 15:39 03.09.2021
5914 Clouds 5 1011 87 9000 5.66 360 14:28 03.09.2021
5915 Clouds 5 1011 87 9000 5.66 360 14:28 03.09.2021
5916 Rain 6 1009 87 10000 5.14 10 11:21 03.09.2021
5917 Clouds 6 1008 81 10000 7.2 20 09:21 03.09.2021
5918 Clouds 6 1008 87 10000 6.69 10 08:18 03.09.2021
5919 Rain 6 1007 87 10000 6.69 20 06:49 03.09.2021
5920 Clouds 6 1005 87 10000 6.17 360 23:56 02.09.2021
5921 Rain 6 1005 93 10000 6.17 360 22:21 02.09.2021
5922 Rain 6 1005 93 10000 4.12 0 20:46 02.09.2021
5923 Clouds 6 1005 81 10000 6.17 340 18:27 02.09.2021
5924 Clouds 6 1005 87 10000 5.66 350 16:39 02.09.2021
5925 Clouds 7 1006 76 10000 7.72 350 15:30 02.09.2021
5926 Clouds 7 1006 81 10000 5.14 10 13:33 02.09.2021
5927 Clouds 7 1006 81 10000 5.14 350 11:43 02.09.2021
5928 Clouds 7 1006 81 10000 5.14 10 10:53 02.09.2021
5929 Clouds 7 1006 81 10000 5.14 360 08:57 02.09.2021
5930 Clouds 6 1007 93 10000 3.6 0 07:28 02.09.2021
5931 Clouds 7 1008 81 10000 4.63 10 05:32 02.09.2021
5932 Clouds 6 1009 93 10000 1.54 0 02:37 02.09.2021
5933 Rain 6 1009 93 10000 2.06 0 01:49 02.09.2021
5934 Clouds 6 1009 93 7000 2.06 0 23:41 01.09.2021
5935 Clouds 6 1009 93 10000 1.54 0 23:19 01.09.2021
5936 Rain 6 1009 87 10000 6.69 340 22:29 01.09.2021
5937 Clouds 6 1009 93 10000 6.17 330 21:32 01.09.2021
5938 Rain 6 1009 93 10000 6.17 350 19:37 01.09.2021
5939 Clouds 6 1009 93 10000 8.23 330 17:52 01.09.2021
5940 Rain 7 1009 87 10000 7.72 340 16:59 01.09.2021
5941 Rain 7 1009 87 10000 7.72 340 16:35 01.09.2021
5942 Rain 7 1008 87 10000 1.03 0 13:59 01.09.2021
5943 Clouds 7 1007 93 10000 3.6 0 11:47 01.09.2021
5944 Clouds 7 1006 87 10000 3.6 0 10:23 01.09.2021
5945 Rain 7 1005 93 10000 1.03 0 08:27 01.09.2021
5946 Rain 7 1005 87 10000 3.6 0 06:42 01.09.2021
5947 Rain 7 1005 93 10000 5.66 240 23:32 31.08.2021
5948 Rain 7 1006 93 10000 4.63 250 22:21 31.08.2021
5949 Rain 7 1006 93 10000 4.63 260 19:52 31.08.2021
5950 Drizzle 7 1006 93 10000 8.75 240 19:23 31.08.2021
5951 Rain 7 1006 100 10000 8.75 240 17:44 31.08.2021
5952 Rain 8 1006 87 10000 9.26 240 17:25 31.08.2021
5953 Rain 8 1007 87 10000 7.72 240 16:41 31.08.2021
5954 Clouds 8 1007 87 10000 8.75 240 15:26 31.08.2021
5955 Rain 9 1008 76 10000 8.75 240 12:19 31.08.2021
5956 Clouds 9 1008 93 10000 6.17 240 11:20 31.08.2021
5957 Rain 8 1008 100 10000 6.69 230 10:43 31.08.2021
5958 Clouds 8 1009 87 10000 8.75 240 09:41 31.08.2021
5959 Rain 9 1009 93 10000 3.6 240 07:52 31.08.2021
5960 Rain 10 1010 81 10000 3.6 220 05:57 31.08.2021
5961 Clouds 9 1015 100 10000 4.63 230 23:36 30.08.2021
5962 Clouds 9 1015 100 10000 3.09 220 22:52 30.08.2021
5963 Clouds 9 1016 100 9000 3.09 220 21:38 30.08.2021
5964 Drizzle 9 1016 100 9000 3.6 250 20:41 30.08.2021
5965 Clouds 9 1016 100 10000 4.63 240 19:54 30.08.2021
5966 Clouds 10 1016 87 10000 4.12 250 19:19 30.08.2021
5967 Clouds 10 1017 93 10000 5.14 240 17:51 30.08.2021
5968 Clouds 9 1018 100 10000 3.6 230 16:29 30.08.2021
5969 Rain 9 1018 93 9000 3.6 220 15:45 30.08.2021
5970 Rain 11 1018 76 10000 2.57 240 13:59 30.08.2021
5971 Clouds 11 1018 82 10000 3.09 230 13:19 30.08.2021
5972 Rain 11 1019 76 10000 2.06 230 11:29 30.08.2021
5973 Drizzle 9 1021 100 10000 1.54 240 04:57 30.08.2021
5974 Clouds 10 1022 87 10000 2.06 230 21:57 29.08.2021
5975 Rain 10 1022 81 10000 1.54 250 20:54 29.08.2021
5976 Clouds 10 1022 81 10000 1.54 220 19:28 29.08.2021
5977 Clouds 10 1022 81 10000 1.54 240 18:25 29.08.2021
5978 Clouds 11 1022 71 10000 0 0 15:58 29.08.2021
5979 Clouds 10 1022 76 10000 1.03 0 14:28 29.08.2021
5980 Clouds 11 1022 71 10000 2.06 250 13:55 29.08.2021
5981 Clouds 11 1022 71 10000 1.54 0 12:58 29.08.2021
5982 Clouds 11 1023 66 10000 2.06 230 12:18 29.08.2021
5983 Clouds 11 1023 66 10000 1.54 270 11:40 29.08.2021
5984 Clouds 10 1023 71 10000 2.06 230 10:46 29.08.2021
5985 Clouds 10 1023 71 10000 2.06 190 10:28 29.08.2021
5986 Clouds 9 1023 76 10000 3.09 210 09:32 29.08.2021
5987 Clouds 8 1025 76 10000 2.06 250 04:19 29.08.2021
5988 Clouds 8 1026 81 10000 3.6 240 22:57 28.08.2021
5989 Clouds 8 1027 81 10000 3.09 280 20:31 28.08.2021
5990 Clouds 8 1027 81 10000 3.6 290 19:29 28.08.2021
5991 Clouds 8 1027 87 10000 3.6 280 18:24 28.08.2021
5992 Clouds 8 1027 87 10000 3.6 280 17:46 28.08.2021
5993 Clouds 8 1027 81 10000 3.6 280 16:32 28.08.2021
5994 Clouds 8 1027 87 10000 3.09 290 14:52 28.08.2021
5995 Drizzle 9 1026 81 10000 6.17 280 13:58 28.08.2021
5996 Drizzle 9 1026 81 10000 6.17 280 13:39 28.08.2021
5997 Drizzle 8 1026 81 10000 5.66 270 12:30 28.08.2021
5998 Clouds 9 1026 76 10000 4.63 270 10:47 28.08.2021
5999 Clouds 9 1025 71 10000 5.14 260 09:34 28.08.2021
6000 Clouds 8 1024 81 10000 6.69 280 07:34 28.08.2021
6001 Clouds 10 1022 100 10000 10.29 230 23:49 27.08.2021
6002 Clouds 10 1022 100 10000 10.8 230 21:29 27.08.2021
6003 Rain 10 1022 93 10000 9.26 230 20:52 27.08.2021
6004 Clouds 11 1022 82 10000 12.35 240 19:33 27.08.2021
6005 Clouds 12 1022 71 10000 11.83 230 18:39 27.08.2021
6006 Clouds 12 1022 71 10000 13.38 240 17:45 27.08.2021
6007 Clouds 12 1022 71 10000 7.72 240 16:35 27.08.2021
6008 Clouds 12 1022 66 10000 9.77 240 14:44 27.08.2021
6009 Clear 12 1023 66 10000 6.69 250 12:57 27.08.2021
6010 Clear 12 1023 71 10000 6.17 260 11:58 27.08.2021
6011 Clear 11 1023 76 10000 4.63 250 10:50 27.08.2021
6012 Clear 11 1023 76 10000 5.14 220 10:23 27.08.2021
6013 Clear 11 1023 71 10000 3.09 240 08:57 27.08.2021
6014 Clear 11 1023 71 10000 3.09 240 08:35 27.08.2021
6015 Clear 9 1023 81 10000 3.6 260 05:35 27.08.2021
6016 Clear 9 1025 87 10000 3.09 250 00:41 27.08.2021
6017 Clear 9 1025 81 10000 4.12 240 00:18 27.08.2021
6018 Clear 9 1025 76 10000 3.09 260 22:26 26.08.2021
6019 Clear 10 1025 71 10000 2.57 250 21:47 26.08.2021
6020 Clear 11 1025 66 10000 3.6 240 19:33 26.08.2021
6021 Clear 13 1026 54 10000 3.6 240 17:52 26.08.2021
6022 Clear 13 1026 54 10000 4.63 240 17:25 26.08.2021
6023 Clear 13 1026 58 10000 4.63 230 16:27 26.08.2021
6024 Clear 13 1026 54 10000 2.57 230 14:21 26.08.2021
6025 Clear 14 1026 54 10000 2.06 200 13:20 26.08.2021
6026 Clear 13 1026 58 10000 2.06 230 12:33 26.08.2021
6027 Clear 13 1026 58 10000 2.57 230 11:37 26.08.2021
6028 Clear 11 1026 71 10000 2.06 240 08:50 26.08.2021
6029 Clear 10 1026 76 10000 2.57 250 08:19 26.08.2021
6030 Clear 9 1024 66 10000 1.03 0 23:39 25.08.2021
6031 Clear 9 1024 66 10000 2.06 30 22:38 25.08.2021
6032 Clear 9 1024 66 10000 1.03 0 22:19 25.08.2021
6033 Clear 10 1023 66 10000 2.57 30 20:57 25.08.2021
6034 Clear 11 1023 58 10000 2.57 40 20:29 25.08.2021
6035 Clear 13 1022 54 10000 3.6 60 18:58 25.08.2021
6036 Clear 14 1021 51 10000 2.06 180 17:53 25.08.2021
6037 Clear 14 1021 51 10000 2.06 180 17:53 25.08.2021
6038 Clear 14 1020 47 10000 2.57 250 15:53 25.08.2021
6039 Clear 14 1020 51 10000 2.06 220 15:32 25.08.2021
6040 Clear 14 1020 51 10000 3.09 230 14:46 25.08.2021
6041 Clear 14 1019 51 10000 3.6 200 13:53 25.08.2021
6042 Clear 12 1018 62 10000 3.09 220 11:37 25.08.2021
6043 Clear 12 1018 62 10000 3.09 190 11:18 25.08.2021
6044 Clear 12 1017 66 10000 2.06 200 09:59 25.08.2021
6045 Clouds 11 1016 54 10000 1.54 0 09:31 25.08.2021
6046 Clouds 11 1016 66 10000 1.03 0 08:34 25.08.2021
6047 Rain 10 1014 76 10000 3.09 140 06:23 25.08.2021
6048 Clear 11 1012 71 10000 3.09 140 00:56 25.08.2021
6049 Clouds 11 1012 71 10000 3.6 100 23:19 24.08.2021
6050 Clouds 12 1013 62 10000 2.57 110 20:57 24.08.2021
6051 Clouds 11 1014 71 10000 1.03 0 19:55 24.08.2021
6052 Clouds 11 1014 71 10000 2.06 50 19:23 24.08.2021
6053 Clouds 12 1015 62 10000 2.57 50 17:53 24.08.2021
6054 Clouds 12 1016 62 10000 2.57 60 17:21 24.08.2021
6055 Clouds 12 1017 58 10000 1.03 0 15:56 24.08.2021
6056 Clouds 12 1019 62 10000 2.57 200 13:46 24.08.2021
6057 Rain 11 1020 71 10000 2.57 220 12:44 24.08.2021
6058 Rain 10 1021 76 10000 3.09 230 11:19 24.08.2021
6059 Rain 10 1021 81 10000 2.57 220 10:46 24.08.2021
6060 Clouds 9 1022 87 10000 3.09 220 09:46 24.08.2021
6061 Clouds 8 1023 100 10000 1.54 230 07:41 24.08.2021
6062 Drizzle 7 1024 100 10000 2.06 220 05:39 24.08.2021
6063 Drizzle 7 1025 100 10000 2.57 220 03:31 24.08.2021
6064 Clouds 8 1026 81 10000 3.09 240 23:39 23.08.2021
6065 Rain 8 1026 87 10000 3.6 240 22:43 23.08.2021
6066 Clouds 8 1026 93 10000 3.6 230 21:18 23.08.2021
6067 Clouds 8 1026 87 10000 2.57 210 19:39 23.08.2021
6068 Clouds 8 1026 93 10000 3.6 220 17:49 23.08.2021
6069 Clouds 8 1026 100 10000 2.06 220 15:37 23.08.2021
6070 Rain 9 1026 71 10000 1.03 0 13:56 23.08.2021
6071 Clouds 9 1026 71 10000 2.57 240 12:31 23.08.2021
6072 Clouds 9 1025 71 10000 2.06 240 10:47 23.08.2021
6073 Clouds 9 1025 66 10000 1.54 0 10:21 23.08.2021
6074 Clouds 8 1025 81 10000 1.54 220 08:35 23.08.2021
6075 Clouds 6 1025 87 10000 0 0 07:20 23.08.2021
6076 Clouds 6 1025 87 10000 1.03 260 06:41 23.08.2021
6077 Clouds 5 1024 93 10000 0 0 01:37 23.08.2021
6078 Clouds 5 1024 93 10000 1.54 0 00:45 23.08.2021
6079 Clouds 6 1024 81 10000 1.54 20 22:42 22.08.2021
6080 Clouds 6 1024 93 10000 0 0 21:18 22.08.2021
6081 Drizzle 7 1023 87 10000 2.06 20 20:19 22.08.2021
6082 Clouds 7 1023 87 10000 2.57 20 18:32 22.08.2021
6083 Clouds 8 1022 76 10000 1.54 0 15:56 22.08.2021
6084 Clouds 7 1022 87 10000 1.03 0 14:54 22.08.2021
6085 Clouds 8 1022 87 10000 2.06 260 13:47 22.08.2021
6086 Clouds 7 1022 87 10000 2.06 340 13:19 22.08.2021
6087 Clouds 7 1021 81 10000 2.06 350 12:41 22.08.2021
6088 Clouds 7 1021 87 10000 1.54 0 11:45 22.08.2021
6089 Clouds 7 1021 87 10000 2.06 330 11:20 22.08.2021
6090 Clouds 7 1021 87 10000 2.06 330 11:20 22.08.2021
6091 Clouds 6 1020 100 10000 1.54 210 08:44 22.08.2021
6092 Drizzle 6 1020 100 7000 0 0 07:53 22.08.2021
6093 Drizzle 5 1019 100 10000 1.54 10 04:32 22.08.2021
6094 Clouds 6 1018 93 10000 3.09 340 22:37 21.08.2021
6095 Clouds 6 1018 93 10000 3.09 340 21:40 21.08.2021
6096 Clouds 7 1017 87 10000 3.6 340 18:55 21.08.2021
6097 Clouds 7 1017 87 10000 3.6 340 18:37 21.08.2021
6098 Clouds 8 1017 81 10000 3.6 350 16:58 21.08.2021
6099 Clouds 8 1017 87 10000 3.09 10 16:32 21.08.2021
6100 Clouds 8 1016 87 10000 3.6 360 15:39 21.08.2021
6101 Clouds 7 1016 93 10000 4.12 350 15:21 21.08.2021
6102 Drizzle 8 1015 87 10000 4.63 360 13:43 21.08.2021
6103 Clouds 8 1015 87 10000 3.09 360 12:39 21.08.2021
6104 Clouds 8 1013 87 10000 5.14 360 10:55 21.08.2021
6105 Drizzle 7 1011 100 6000 4.12 360 07:53 21.08.2021
6106 Clouds 7 1007 100 5000 3.6 360 00:44 21.08.2021
6107 Clouds 7 1006 100 4500 4.63 360 22:29 20.08.2021
6108 Clouds 7 1004 100 10000 4.63 20 19:43 20.08.2021
6109 Drizzle 8 1002 100 3500 4.12 20 17:35 20.08.2021
6110 Clouds 8 1000 100 10000 5.14 30 14:35 20.08.2021
6111 Clouds 8 998 100 7000 4.63 50 12:18 20.08.2021
6112 Clouds 8 998 100 7000 5.66 40 11:29 20.08.2021
6113 Drizzle 8 997 100 7000 5.14 40 10:22 20.08.2021
6114 Clouds 8 996 100 5000 5.14 40 09:28 20.08.2021
6115 Clouds 8 996 100 5000 7.2 40 08:36 20.08.2021
6116 Rain 8 995 100 4000 6.17 50 04:46 20.08.2021
6117 Rain 8 995 100 4000 6.17 50 04:20 20.08.2021
6118 Rain 9 994 100 8000 5.14 40 23:30 19.08.2021
6119 Rain 9 994 100 7000 4.63 40 22:38 19.08.2021
6120 Drizzle 9 994 100 7000 5.14 60 21:55 19.08.2021
6121 Rain 9 994 100 10000 4.12 60 20:20 19.08.2021
6122 Rain 10 995 93 10000 5.14 40 18:24 19.08.2021
6123 Clouds 11 995 87 10000 6.69 50 16:55 19.08.2021
6124 Clouds 12 995 87 10000 7.2 50 14:37 19.08.2021
6125 Drizzle 11 995 93 10000 7.2 60 12:50 19.08.2021
6126 Clouds 10 995 100 10000 7.2 60 12:28 19.08.2021
6127 Clouds 10 996 93 10000 7.72 60 10:49 19.08.2021
6128 Clouds 10 996 87 10000 6.17 70 09:49 19.08.2021
6129 Clouds 10 996 87 10000 6.17 70 09:28 19.08.2021
6130 Clouds 9 996 93 10000 7.72 60 08:33 19.08.2021
6131 Clouds 9 999 91 10000 9.57 83 03:53 19.08.2021
6132 Rain 9 999 93 9000 12.35 60 02:20 19.08.2021
6133 Drizzle 9 1001 93 10000 11.32 60 23:29 18.08.2021
6134 Rain 9 1001 93 10000 11.83 60 22:36 18.08.2021
6135 Drizzle 10 1002 87 10000 7.72 60 21:34 18.08.2021
6136 Rain 12 1002 71 10000 9.77 70 20:20 18.08.2021
6137 Rain 13 1003 67 10000 10.8 60 19:26 18.08.2021
6138 Clouds 13 1003 62 10000 9.77 70 18:34 18.08.2021
6139 Clouds 13 1005 67 10000 9.77 60 16:56 18.08.2021
6140 Clouds 13 1006 67 10000 7.72 50 15:40 18.08.2021
6141 Clouds 13 1006 67 10000 7.2 60 15:21 18.08.2021
6142 Clear 14 1008 58 10000 6.69 80 13:21 18.08.2021
6143 Clear 15 1008 55 10000 5.66 80 12:38 18.08.2021
6144 Clear 15 1008 51 10000 6.17 90 12:19 18.08.2021
6145 Clear 13 1009 67 10000 2.57 60 08:43 18.08.2021
6146 Clouds 7 1011 87 10000 2.57 60 02:37 18.08.2021
6147 Clouds 8 1012 93 10000 2.57 30 22:40 17.08.2021
6148 Clouds 9 1012 87 10000 3.6 50 21:59 17.08.2021
6149 Clouds 8 1012 93 10000 2.57 50 21:22 17.08.2021
6150 Clouds 8 1012 93 10000 3.09 50 20:24 17.08.2021
6151 Clouds 10 1012 76 10000 4.12 60 17:47 17.08.2021
6152 Clouds 10 1013 76 10000 4.63 80 17:26 17.08.2021
6153 Clouds 12 1013 66 10000 1.03 0 15:54 17.08.2021
6154 Clouds 12 1013 66 10000 1.03 0 15:35 17.08.2021
6155 Clouds 10 1012 66 10000 3.09 230 12:45 17.08.2021
6156 Clouds 10 1012 71 10000 3.6 240 10:40 17.08.2021
6157 Clouds 9 1011 76 10000 3.09 230 09:19 17.08.2021
6158 Clouds 8 1011 81 10000 1.54 240 07:30 17.08.2021
6159 Clouds 7 1010 76 10000 0 0 23:28 16.08.2021
6160 Clouds 7 1010 76 10000 0 0 22:54 16.08.2021
6161 Clouds 7 1010 76 10000 0 0 22:35 16.08.2021
6162 Clouds 8 1010 71 10000 1.03 0 21:47 16.08.2021
6163 Clouds 8 1010 71 10000 1.03 0 20:52 16.08.2021
6164 Clouds 8 1009 71 10000 2.06 340 19:29 16.08.2021
6165 Clouds 8 1009 71 10000 1.03 0 18:50 16.08.2021
6166 Clouds 8 1009 71 10000 2.06 340 17:55 16.08.2021
6167 Clouds 8 1009 71 10000 1.54 0 16:51 16.08.2021
6168 Clouds 8 1009 71 10000 2.06 340 15:26 16.08.2021
6169 Clouds 8 1009 76 10000 2.06 340 14:27 16.08.2021
6170 Clouds 8 1008 71 10000 2.06 300 13:21 16.08.2021
6171 Clouds 8 1008 76 10000 2.06 340 12:28 16.08.2021
6172 Clouds 6 1007 93 10000 3.09 90 09:43 16.08.2021
6173 Clouds 6 1007 93 5000 1.54 50 08:43 16.08.2021
6174 Clouds 6 1006 93 10000 1.03 0 07:30 16.08.2021
6175 Clouds 6 1006 93 10000 1.54 60 05:58 16.08.2021
6176 Clouds 6 1005 93 8000 1.54 40 01:28 16.08.2021
6177 Clouds 6 1005 93 10000 4.12 50 21:34 15.08.2021
6178 Clouds 7 1004 81 10000 4.63 60 19:57 15.08.2021
6179 Clouds 7 1004 81 10000 5.66 50 18:41 15.08.2021
6180 Clouds 8 1004 76 10000 5.66 50 17:49 15.08.2021
6181 Clouds 8 1004 81 10000 6.17 50 17:22 15.08.2021
6182 Clouds 8 1004 81 10000 5.14 50 15:49 15.08.2021
6183 Clouds 8 1004 81 10000 5.14 60 14:38 15.08.2021
6184 Clouds 9 1003 76 10000 5.66 60 13:35 15.08.2021
6185 Clouds 8 1003 76 10000 4.63 60 10:50 15.08.2021
6186 Clouds 8 1003 76 10000 4.63 50 08:35 15.08.2021
6187 Clouds 6 1003 93 10000 1.54 0 01:22 15.08.2021
6188 Clouds 7 1003 87 10000 2.57 10 00:33 15.08.2021
6189 Clouds 8 1004 81 10000 1.54 340 21:38 14.08.2021
6190 Clouds 9 1004 76 10000 1.03 0 20:28 14.08.2021
6191 Clouds 9 1004 76 10000 1.03 0 19:33 14.08.2021
6192 Clouds 11 1004 71 10000 1.03 0 18:33 14.08.2021
6193 Clouds 10 1005 76 10000 4.63 290 16:44 14.08.2021
6194 Clouds 10 1005 76 10000 3.6 270 15:34 14.08.2021
6195 Clouds 10 1005 76 10000 3.6 250 14:22 14.08.2021
6196 Clouds 10 1005 76 10000 6.69 240 11:32 14.08.2021
6197 Clouds 10 1005 76 10000 5.66 230 09:53 14.08.2021
6198 Clouds 9 1006 81 10000 7.2 240 05:26 14.08.2021
6199 Clouds 10 1007 87 10000 5.14 250 23:51 13.08.2021
6200 Clouds 10 1007 87 10000 5.14 240 22:18 13.08.2021
6201 Clouds 11 1008 87 10000 3.09 240 20:22 13.08.2021
6202 Clouds 11 1008 87 10000 2.57 260 18:46 13.08.2021
6203 Clouds 10 1009 100 10000 4.63 280 17:22 13.08.2021
6204 Drizzle 11 1009 100 800 4.12 240 15:55 13.08.2021
6205 Clouds 11 1009 100 10000 2.06 250 11:58 13.08.2021
6206 Clouds 11 1009 100 10000 2.57 260 11:18 13.08.2021
6207 Rain 11 1010 100 10000 0 0 08:41 13.08.2021
6208 Rain 11 1010 93 10000 1.03 60 08:20 13.08.2021
6209 Rain 10 1010 100 5000 1.03 260 06:40 13.08.2021
6210 Clouds 10 1012 93 10000 1.54 0 02:27 13.08.2021
6211 Clouds 11 1013 87 10000 3.09 250 21:53 12.08.2021
6212 Clouds 11 1013 87 10000 2.57 250 20:43 12.08.2021
6213 Clouds 11 1013 87 10000 2.57 240 19:50 12.08.2021
6214 Clouds 12 1013 76 10000 2.06 240 18:41 12.08.2021
6215 Clouds 12 1013 82 10000 4.12 230 16:57 12.08.2021
6216 Clouds 13 1013 76 10000 4.12 230 16:28 12.08.2021
6217 Clouds 13 1012 76 10000 6.17 250 13:53 12.08.2021
6218 Clouds 12 1012 87 10000 5.14 250 11:42 12.08.2021
6219 Clouds 12 1011 87 10000 3.6 240 09:43 12.08.2021
6220 Clouds 11 1010 100 10000 4.12 240 07:52 12.08.2021
6221 Clouds 12 1008 94 10000 5.66 250 23:25 11.08.2021
6222 Clouds 12 1008 94 10000 5.14 240 21:56 11.08.2021
6223 Clouds 12 1008 94 10000 3.6 240 19:35 11.08.2021
6224 Clouds 13 1007 94 10000 3.6 240 18:27 11.08.2021
6225 Clouds 14 1007 94 10000 2.57 220 15:38 11.08.2021
6226 Clouds 15 1007 88 10000 3.09 220 15:19 11.08.2021
6227 Clouds 14 1007 94 10000 1.54 200 14:20 11.08.2021
6228 Clouds 14 1007 88 10000 2.57 240 12:29 11.08.2021
6229 Clouds 14 1007 88 10000 2.06 210 11:45 11.08.2021
6230 Clouds 14 1007 88 10000 2.06 220 11:21 11.08.2021
6231 Clouds 14 1006 88 10000 1.54 210 09:21 11.08.2021
6232 Clouds 15 1007 82 10000 2.06 250 07:23 11.08.2021
6233 Clouds 17 1007 72 10000 0 0 22:48 10.08.2021
6234 Clouds 18 1007 72 10000 1.03 0 22:27 10.08.2021
6235 Clouds 19 1007 68 10000 1.03 0 20:56 10.08.2021
6236 Clouds 20 1007 64 10000 1.03 0 19:29 10.08.2021
6237 Clouds 20 1007 64 10000 1.54 0 18:29 10.08.2021
6238 Clouds 20 1008 60 10000 3.09 210 15:47 10.08.2021
6239 Clouds 20 1008 64 10000 4.12 230 14:41 10.08.2021
6240 Clear 19 1009 63 10000 4.63 200 11:33 10.08.2021
6241 Clouds 17 1010 77 10000 2.06 230 09:39 10.08.2021
6242 Clouds 16 1010 77 10000 2.06 0 06:24 10.08.2021
6243 Clouds 16 1011 72 10000 2.06 90 02:40 10.08.2021
6244 Clear 17 1011 63 10000 2.57 210 23:37 09.08.2021
6245 Clear 18 1011 63 10000 2.57 210 21:54 09.08.2021
6246 Clear 18 1011 68 10000 1.54 0 21:29 09.08.2021
6247 Clouds 18 1012 68 10000 2.57 0 18:56 09.08.2021
6248 Clouds 18 1012 68 10000 5.14 210 16:58 09.08.2021
6249 Clouds 18 1012 68 10000 6.17 210 15:30 09.08.2021
6250 Clouds 17 1013 67 10000 3.6 200 13:32 09.08.2021
6251 Clouds 17 1013 67 10000 5.14 200 12:46 09.08.2021
6252 Clouds 17 1013 67 10000 3.6 0 10:43 09.08.2021
6253 Clouds 16 1013 63 10000 3.6 160 08:25 09.08.2021
6254 Clear 20 1016 45 10000 4.63 130 22:41 08.08.2021
6255 Clear 21 1016 43 10000 5.14 110 21:25 08.08.2021
6256 Clear 23 1016 35 10000 5.66 130 19:29 08.08.2021
6257 Clear 24 1016 35 10000 3.09 170 16:53 08.08.2021
6258 Clear 24 1016 35 10000 3.09 170 16:53 08.08.2021
6259 Clear 23 1017 38 10000 4.63 220 15:31 08.08.2021
6260 Clear 22 1018 43 10000 3.09 220 12:49 08.08.2021
6261 Clear 21 1018 49 10000 3.09 210 10:44 08.08.2021
6262 Clouds 19 1018 48 10000 1.54 280 06:43 08.08.2021
6263 Clouds 18 1018 52 10000 2.57 260 05:35 08.08.2021
6264 Clouds 15 1017 72 10000 0 0 00:30 08.08.2021
6265 Clouds 16 1017 67 10000 3.6 70 22:19 07.08.2021
6266 Clouds 17 1017 63 10000 3.09 60 21:41 07.08.2021
6267 Clouds 17 1017 67 10000 3.6 60 20:25 07.08.2021
6268 Clouds 18 1017 63 10000 3.6 60 17:37 07.08.2021
6269 Clouds 21 1016 52 10000 4.12 60 16:42 07.08.2021
6270 Clear 21 1016 52 10000 2.06 210 14:27 07.08.2021
6271 Clear 19 1016 55 10000 2.57 220 13:30 07.08.2021
6272 Clouds 18 1015 63 10000 2.06 230 10:24 07.08.2021
6273 Clouds 14 1015 72 10000 1.03 0 05:45 07.08.2021
6274 Clear 16 1014 67 10000 3.6 250 23:55 06.08.2021
6275 Clouds 14 1014 82 10000 1.54 40 21:25 06.08.2021
6276 Clouds 15 1014 77 10000 2.57 50 20:27 06.08.2021
6277 Clouds 16 1014 72 10000 4.12 60 19:56 06.08.2021
6278 Clouds 16 1014 77 10000 4.12 70 18:30 06.08.2021
6279 Clear 15 1014 72 10000 5.14 70 15:19 06.08.2021
6280 Clear 15 1014 72 10000 3.6 70 10:40 06.08.2021
6281 Clear 14 1014 72 10000 2.06 230 09:26 06.08.2021
6282 Clear 12 1013 87 10000 0 0 07:19 06.08.2021
6283 Clouds 10 1012 100 10000 3.6 60 23:31 05.08.2021
6284 Clouds 11 1012 100 10000 1.54 10 21:32 05.08.2021
6285 Clouds 11 1012 100 10000 2.06 260 19:57 05.08.2021
6286 Clouds 11 1012 100 10000 1.54 0 18:49 05.08.2021
6287 Clouds 11 1011 100 10000 3.6 250 16:21 05.08.2021
6288 Drizzle 11 1010 100 9000 3.09 250 14:18 05.08.2021
6289 Fog 10 1009 100 10000 4.12 240 10:53 05.08.2021
6290 Fog 10 1008 100 700 5.14 230 08:32 05.08.2021
6291 Rain 9 1007 100 450 4.12 240 04:30 05.08.2021
6292 Clouds 9 1007 93 10000 3.6 280 22:48 04.08.2021
6293 Clouds 9 1007 87 10000 3.6 270 21:43 04.08.2021
6294 Clouds 9 1007 87 10000 3.6 270 21:18 04.08.2021
6295 Clouds 10 1007 71 10000 5.14 270 17:25 04.08.2021
6296 Clouds 10 1007 71 10000 5.14 270 17:25 04.08.2021
6297 Clouds 10 1006 71 10000 5.14 280 15:32 04.08.2021
6298 Clouds 10 1006 71 10000 4.12 280 14:41 04.08.2021
6299 Clouds 9 1005 87 10000 2.06 60 09:51 04.08.2021
6300 Clouds 8 1007 81 10000 3.6 40 23:32 03.08.2021
6301 Clear 10 1007 71 10000 3.09 50 20:33 03.08.2021
6302 Clear 11 1007 71 10000 6.17 60 18:59 03.08.2021
6303 Clear 12 1007 62 10000 5.66 60 17:31 03.08.2021
6304 Clouds 13 1007 54 10000 4.63 60 14:58 03.08.2021
6305 Clouds 11 1007 62 10000 3.09 240 10:58 03.08.2021
6306 Clouds 11 1007 62 10000 3.09 240 10:39 03.08.2021
6307 Rain 9 1003 76 10000 3.6 240 23:46 02.08.2021
6308 Clouds 11 1000 71 10000 5.14 230 17:28 02.08.2021
6309 Clouds 11 999 66 10000 3.6 270 15:46 02.08.2021
6310 Clouds 12 998 58 10000 4.63 240 12:54 02.08.2021
6311 Clouds 11 998 62 10000 4.12 210 11:58 02.08.2021
6312 Clouds 10 998 66 10000 3.6 210 10:58 02.08.2021
6313 Clouds 10 997 66 10000 3.09 230 09:45 02.08.2021
6314 Clouds 7 998 87 10000 2.06 40 20:29 01.08.2021
6315 Clouds 8 998 81 10000 2.57 40 17:47 01.08.2021
6316 Clouds 8 998 87 10000 4.12 70 12:55 01.08.2021
6317 Drizzle 7 998 93 10000 3.09 70 11:35 01.08.2021
6318 Clouds 7 998 87 10000 1.03 60 04:53 01.08.2021
6319 Clouds 7 998 87 10000 1.54 30 03:46 01.08.2021
6320 Clouds 7 997 81 10000 2.06 340 22:43 31.07.2021
6321 Clouds 8 997 87 10000 2.57 360 19:53 31.07.2021
6322 Clouds 8 997 100 10000 4.63 340 16:38 31.07.2021
6323 Mist 8 996 100 2000 5.66 350 15:27 31.07.2021
6324 Drizzle 9 996 100 9000 1.54 160 11:49 31.07.2021
6325 Drizzle 8 996 100 10000 3.6 60 05:50 31.07.2021
6326 Rain 9 998 87 10000 3.09 40 22:43 30.07.2021
6327 Clouds 10 998 76 10000 5.14 50 20:25 30.07.2021
6328 Clouds 10 999 81 10000 6.69 60 15:56 30.07.2021
6329 Clouds 8 1004 87 10000 6.17 60 19:57 29.07.2021
6330 Clouds 8 1008 81 10000 4.12 60 08:43 29.07.2021
6331 Clouds 8 1009 87 10000 3.09 40 04:52 29.07.2021
6332 Clouds 8 1009 81 10000 2.06 40 04:27 29.07.2021
6333 Clouds 9 1012 87 10000 4.63 70 18:46 28.07.2021
6334 Clouds 9 1012 87 10000 4.63 70 17:18 28.07.2021
6335 Fog 8 1014 100 9000 3.09 40 09:56 28.07.2021
6336 Fog 8 1017 100 300 2.57 70 23:56 27.07.2021
6337 Fog 8 1017 100 800 4.63 60 21:36 27.07.2021
6338 Clouds 17 1017 67 10000 3.6 40 15:35 27.07.2021
6339 Clouds 17 1017 67 10000 4.12 70 14:51 27.07.2021
6340 Clear 14 1018 77 10000 1.54 210 10:33 27.07.2021
6341 Clear 10 1019 100 10000 0 0 03:46 27.07.2021
6342 Clouds 11 1021 87 10000 1.54 220 15:34 26.07.2021
6343 Clouds 10 1020 81 10000 0 0 10:59 26.07.2021
6344 Clouds 8 1015 87 10000 1.54 40 20:58 25.07.2021
6345 Clouds 8 1015 87 10000 1.54 40 20:37 25.07.2021
6346 Clouds 8 1014 87 10000 3.09 40 17:45 25.07.2021
6347 Clouds 10 1013 76 10000 1.54 0 14:34 25.07.2021
6348 Clouds 8 1011 87 10000 1.54 0 08:21 25.07.2021
6349 Clouds 7 1011 87 10000 2.57 270 07:52 25.07.2021
6350 Clouds 7 1009 87 10000 5.66 280 20:22 24.07.2021
6351 Clouds 7 1009 93 10000 5.66 290 19:36 24.07.2021
6352 Clouds 9 1005 100 7000 8.23 230 11:27 24.07.2021
6353 Clouds 8 1009 81 10000 6.69 270 17:35 23.07.2021
6354 Clouds 8 1009 76 10000 6.69 270 14:35 23.07.2021
6355 Clouds 8 1009 76 10000 5.14 280 12:40 23.07.2021
6356 Clouds 6 1006 75 10000 4.63 270 22:51 22.07.2021
6357 Clouds 7 1002 81 10000 0.51 0 14:58 22.07.2021
6358 Drizzle 6 1000 93 10000 2.57 0 11:19 22.07.2021
6359 Clouds 6 998 93 9000 1.03 0 08:34 22.07.2021
6360 Rain 8 997 76 10000 4.63 250 22:35 21.07.2021
6361 Rain 7 997 76 10000 6.17 260 21:34 21.07.2021
6362 Drizzle 8 998 76 10000 8.75 240 19:27 21.07.2021
6363 Clouds 8 999 76 10000 6.69 270 11:27 21.07.2021
6364 Clouds 7 999 76 10000 9.26 270 09:19 21.07.2021
6365 Clouds 7 999 76 10000 9.26 270 09:19 21.07.2021
6366 Rain 7 999 87 10000 8.75 270 05:41 21.07.2021
6367 Rain 7 997 87 10000 5.14 270 21:47 20.07.2021
6368 Clouds 7 997 70 10000 4.63 280 16:36 20.07.2021
6369 Clouds 6 996 87 10000 5.66 260 15:27 20.07.2021
6370 Rain 7 993 76 10000 6.69 270 11:22 20.07.2021
6371 Rain 7 990 76 10000 6.17 260 07:45 20.07.2021
6372 Clouds 6 990 81 10000 10.8 230 03:18 20.07.2021
6373 Rain 8 991 76 10000 8.23 250 18:37 19.07.2021
6374 Rain 9 994 81 10000 4.12 240 12:50 19.07.2021
6375 Clouds 8 997 81 10000 6.17 250 07:27 19.07.2021
6376 Clouds 12 998 76 10000 4.63 290 16:29 18.07.2021
6377 Clouds 11 998 82 10000 5.14 240 10:53 18.07.2021
6378 Clouds 10 1000 81 10000 5.14 240 22:58 17.07.2021
6379 Clouds 10 1000 81 10000 6.69 240 21:59 17.07.2021
6380 Clouds 10 1000 81 10000 6.69 240 21:41 17.07.2021
6381 Drizzle 10 1001 100 4900 5.66 230 16:52 17.07.2021
6382 Clouds 10 1001 81 10000 9.77 240 11:30 17.07.2021
6383 Rain 10 1001 91 10000 8.84 257 04:48 17.07.2021
6384 Rain 10 1006 81 10000 13.89 240 17:41 16.07.2021
6385 Rain 10 1003 93 10000 6.17 250 12:21 16.07.2021
6386 Clear 13 1000 76 10000 3.09 230 07:25 16.07.2021
6387 Rain 12 1002 100 5000 5.66 280 20:39 15.07.2021
6388 Clear 23 1002 53 10000 5.66 210 13:51 15.07.2021
6389 Clear 20 1004 60 10000 5.14 210 09:51 15.07.2021
6390 Fog 10 1014 100 10000 1.54 30 00:31 15.07.2021
6391 Clouds 11 1016 76 10000 6.17 250 16:56 14.07.2021
6392 Clouds 11 1016 82 10000 6.17 250 12:48 14.07.2021
6393 Clouds 10 1014 100 10000 6.17 240 04:44 14.07.2021
6394 Drizzle 11 1013 100 6000 1.03 0 21:21 13.07.2021
6395 Drizzle 12 1013 87 10000 5.66 350 19:54 13.07.2021
6396 Drizzle 12 1013 100 10000 4.12 70 19:26 13.07.2021
6397 Rain 13 1013 88 10000 4.12 70 18:45 13.07.2021
6398 Rain 13 1013 88 10000 4.63 70 18:24 13.07.2021
6399 Rain 14 1013 82 10000 3.6 70 17:30 13.07.2021
6400 Clouds 17 1013 67 10000 1.54 0 09:49 13.07.2021
6401 Clouds 11 1016 100 10000 3.6 220 00:26 13.07.2021
6402 Rain 12 1015 100 10000 6.69 230 17:36 12.07.2021
6403 Clouds 13 1014 94 10000 8.75 240 15:21 12.07.2021
6404 Rain 16 1011 82 10000 4.12 260 09:40 12.07.2021
6405 Clear 12 1013 82 10000 4.63 60 21:58 11.07.2021
6406 Clear 14 1017 67 10000 7.2 70 15:50 11.07.2021
6407 Clouds 8 1021 81 10000 4.12 60 04:42 11.07.2021
6408 Clouds 11 1020 82 10000 8.75 240 17:38 10.07.2021
6409 Clouds 11 1019 100 10000 6.17 250 07:58 10.07.2021
6410 Clouds 11 1019 100 10000 5.14 250 07:23 10.07.2021
6411 Clouds 12 1021 100 10000 1.54 230 20:56 09.07.2021
6412 Clouds 10 1021 100 10000 4.12 240 14:53 09.07.2021
6413 Clouds 10 1021 100 7000 4.63 250 13:27 09.07.2021
6414 Clouds 11 1015 100 10000 4.12 240 02:27 09.07.2021
6415 Clouds 11 1013 100 10000 8.75 240 22:53 08.07.2021
6416 Rain 11 1012 100 10000 4.12 230 20:52 08.07.2021
6417 Rain 11 1011 100 10000 6.17 230 18:54 08.07.2021
6418 Rain 13 1008 94 10000 5.14 260 13:54 08.07.2021
6419 Rain 14 1007 100 10000 5.66 270 13:30 08.07.2021
6420 Clouds 16 1007 82 10000 4.12 250 12:36 08.07.2021
6421 Clouds 17 1006 94 10000 3.6 240 11:25 08.07.2021
6422 Rain 15 1005 100 3000 2.06 230 07:42 08.07.2021
6423 Rain 16 1005 88 10000 0.51 0 04:41 08.07.2021
6424 Clear 16 1005 82 10000 2.57 210 23:45 07.07.2021
6425 Rain 18 1005 72 10000 9.26 250 22:20 07.07.2021
6426 Rain 23 1004 53 10000 1.03 0 21:46 07.07.2021
6427 Clear 23 1004 53 10000 1.03 0 21:46 07.07.2021
6428 Rain 23 1004 56 10000 3.6 220 21:26 07.07.2021
6429 Clear 25 1004 50 10000 1.54 0 19:59 07.07.2021
6430 Clear 25 1004 50 10000 2.06 250 19:30 07.07.2021
6431 Clear 25 1004 50 10000 2.06 240 18:58 07.07.2021
6432 Clear 28 1005 42 10000 4.12 70 15:58 07.07.2021
6433 Clear 27 1005 44 10000 4.12 60 15:24 07.07.2021
6434 Clear 26 1006 47 10000 3.6 70 11:52 07.07.2021
6435 Clear 20 1006 68 10000 3.6 30 07:33 07.07.2021
6436 Clouds 20 1007 60 10000 1.54 0 05:53 07.07.2021
6437 Clear 18 1007 68 10000 1.54 50 02:58 07.07.2021
6438 Clear 22 1008 53 10000 1.54 0 20:54 06.07.2021
6439 Clear 23 1008 49 10000 5.14 60 19:18 06.07.2021
6440 Clear 23 1008 49 10000 4.12 60 18:44 06.07.2021
6441 Clear 23 1008 49 10000 5.14 70 18:19 06.07.2021
6442 Clear 23 1009 46 10000 5.66 70 13:37 06.07.2021
6443 Clear 19 1010 59 10000 0 0 09:45 06.07.2021
6444 Clear 19 1010 59 10000 0 0 09:45 06.07.2021
6445 Clear 20 1009 60 10000 0.51 0 08:50 06.07.2021
6446 Clear 20 1010 60 10000 1.54 220 08:21 06.07.2021
6447 Clear 18 1011 59 10000 1.54 240 02:30 06.07.2021
6448 Clear 19 1011 55 10000 1.54 240 23:57 05.07.2021
6449 Clear 19 1011 55 10000 1.54 230 21:58 05.07.2021
6450 Clear 20 1011 49 10000 2.06 220 17:21 05.07.2021
6451 Clear 23 1011 40 10000 1.54 0 14:29 05.07.2021
6452 Clouds 18 1012 48 10000 1.03 0 05:59 05.07.2021
6453 Clouds 18 1012 48 10000 1.03 0 05:41 05.07.2021
6454 Clear 11 1015 76 10000 3.09 30 00:58 05.07.2021
6455 Clear 10 1016 81 10000 5.14 60 21:19 04.07.2021
6456 Clear 12 1017 76 10000 5.14 70 18:25 04.07.2021
6457 Clear 14 1018 62 10000 4.63 60 15:30 04.07.2021
6458 Clouds 12 1017 66 10000 4.63 240 11:26 04.07.2021
6459 Clear 10 1017 76 10000 3.09 240 08:38 04.07.2021
6460 Clouds 9 1015 81 10000 1.54 210 23:29 03.07.2021
6461 Clouds 10 1015 76 10000 2.06 200 21:57 03.07.2021
6462 Clear 12 1018 71 10000 4.63 60 13:21 03.07.2021
6463 Clear 13 1018 67 10000 3.09 70 12:37 03.07.2021
6464 Clear 11 1019 71 10000 3.09 70 09:28 03.07.2021
6465 Clear 12 1019 58 10000 1.03 0 08:45 03.07.2021
6466 Clear 5 1019 87 10000 2.57 50 01:33 03.07.2021
6467 Clouds 9 1017 71 10000 7.72 240 11:33 02.07.2021
6468 Clouds 9 1014 76 10000 9.77 250 07:29 02.07.2021
6469 Clouds 9 1012 76 10000 11.83 250 03:58 02.07.2021
6470 Clouds 11 1013 82 10000 6.69 240 22:32 01.07.2021
6471 Clouds 12 1013 76 10000 8.23 240 21:40 01.07.2021
6472 Clouds 11 1013 82 10000 7.2 220 20:32 01.07.2021
6473 Clouds 11 1013 82 10000 6.69 240 19:21 01.07.2021
6474 Clear 13 1013 71 10000 5.66 240 18:48 01.07.2021
6475 Clouds 14 1013 67 10000 8.75 230 17:48 01.07.2021
6476 Clouds 13 1013 71 10000 6.69 220 16:49 01.07.2021
6477 Clear 14 1013 62 10000 8.75 260 15:25 01.07.2021
6478 Clear 13 1013 67 10000 9.26 260 14:23 01.07.2021
6479 Clouds 12 1012 71 10000 8.75 260 10:55 01.07.2021
6480 Clouds 12 1012 71 10000 8.75 260 10:55 01.07.2021
6481 Clear 12 1011 66 10000 2.06 190 05:32 01.07.2021
6482 Clouds 10 1014 71 10000 4.12 240 23:19 30.06.2021
6483 Clouds 9 1014 76 10000 3.09 230 22:20 30.06.2021
6484 Clouds 10 1014 71 10000 4.63 230 21:22 30.06.2021
6485 Clouds 9 1015 76 10000 5.14 240 20:26 30.06.2021
6486 Clouds 9 1016 81 10000 4.63 220 18:54 30.06.2021
6487 Clouds 8 1016 76 10000 6.69 230 14:25 30.06.2021
6488 Clouds 8 1016 76 10000 5.66 240 13:21 30.06.2021
6489 Clouds 6 1016 93 10000 7.2 240 07:57 30.06.2021
6490 Clouds 7 1012 87 10000 6.17 240 21:29 29.06.2021
6491 Clouds 7 1011 87 10000 7.72 240 18:36 29.06.2021
6492 Clouds 7 1011 87 10000 6.17 240 17:43 29.06.2021
6493 Rain 8 1010 87 10000 4.63 240 16:36 29.06.2021
6494 Clouds 9 1010 76 10000 7.2 250 15:38 29.06.2021
6495 Clouds 9 1009 81 10000 4.63 240 13:31 29.06.2021
6496 Clouds 9 1009 81 10000 5.14 250 12:43 29.06.2021
6497 Clouds 8 1007 87 10000 4.12 250 00:41 29.06.2021
6498 Rain 8 1007 100 10000 3.09 250 21:47 28.06.2021
6499 Rain 9 1007 93 10000 2.57 230 19:48 28.06.2021
6500 Rain 9 1007 87 10000 3.6 280 17:29 28.06.2021
6501 Rain 10 1006 81 10000 1.54 0 15:22 28.06.2021
6502 Rain 11 1005 76 10000 3.6 60 12:59 28.06.2021
6503 Clouds 13 1003 62 10000 1.54 40 07:50 28.06.2021
6504 Clear 10 1006 71 10000 3.6 50 23:45 27.06.2021
6505 Clear 10 1006 71 10000 4.12 70 21:51 27.06.2021
6506 Clouds 11 1007 66 10000 3.6 290 19:40 27.06.2021
6507 Clouds 11 1006 71 10000 4.12 290 16:51 27.06.2021
6508 Clouds 14 1005 67 10000 1.03 0 14:20 27.06.2021
6509 Clear 11 1007 71 10000 1.54 0 07:38 27.06.2021
6510 Drizzle 7 1012 100 10000 2.06 50 23:27 26.06.2021
6511 Rain 7 1013 100 10000 2.57 70 21:19 26.06.2021
6512 Clouds 8 1013 93 10000 3.09 60 20:40 26.06.2021
6513 Drizzle 8 1014 87 10000 1.03 0 19:25 26.06.2021
6514 Rain 8 1016 87 10000 4.12 260 15:33 26.06.2021
6515 Rain 9 1016 66 10000 5.66 250 12:29 26.06.2021
6516 Rain 8 1017 76 10000 4.12 240 09:32 26.06.2021
6517 Rain 7 1017 81 10000 5.14 240 05:41 26.06.2021
6518 Clouds 8 1016 81 10000 7.72 240 21:21 25.06.2021
6519 Clouds 9 1015 76 10000 10.29 240 19:44 25.06.2021
6520 Clouds 9 1015 76 10000 10.29 240 17:55 25.06.2021
6521 Clouds 9 1015 81 10000 5.66 260 16:51 25.06.2021
6522 Clouds 10 1015 81 10000 4.63 240 14:59 25.06.2021
6523 Clouds 9 1015 81 10000 5.66 240 13:19 25.06.2021
6524 Clouds 9 1014 87 10000 0.51 0 09:35 25.06.2021
6525 Drizzle 9 1013 87 10000 2.06 70 07:21 25.06.2021
6526 Clouds 9 1013 81 10000 2.57 30 03:56 25.06.2021
6527 Clouds 10 1014 71 10000 0 0 22:52 24.06.2021
6528 Fog 10 1014 71 10000 2.06 210 21:48 24.06.2021
6529 Clouds 10 1014 76 10000 2.57 260 20:41 24.06.2021
6530 Clouds 11 1014 76 10000 4.12 270 19:35 24.06.2021
6531 Clear 14 1013 62 10000 3.6 50 16:53 24.06.2021
6532 Clear 16 1012 55 10000 1.54 270 15:22 24.06.2021
6533 Clear 15 1013 58 10000 2.57 260 14:50 24.06.2021
6534 Clear 13 1013 67 10000 2.06 240 12:29 24.06.2021
6535 Clear 12 1013 76 10000 2.57 240 09:45 24.06.2021
6536 Clear 12 1013 71 10000 4.12 240 08:26 24.06.2021
6537 Clear 13 1014 67 10000 1.54 0 06:29 24.06.2021
6538 Clear 12 1016 62 10000 1.03 0 23:31 23.06.2021
6539 Clear 12 1016 62 10000 1.03 0 22:18 23.06.2021
6540 Clear 13 1017 58 10000 2.57 210 20:58 23.06.2021
6541 Clear 12 1017 58 10000 3.6 200 19:22 23.06.2021
6542 Clouds 13 1018 54 10000 4.63 200 18:27 23.06.2021
6543 Clouds 12 1019 58 10000 4.63 150 16:51 23.06.2021
6544 Clouds 11 1020 62 10000 5.14 160 14:30 23.06.2021
6545 Clouds 10 1021 66 10000 5.14 150 12:29 23.06.2021
6546 Clouds 9 1022 66 10000 3.6 140 10:49 23.06.2021
6547 Clouds 8 1022 81 10000 3.09 50 09:20 23.06.2021
6548 Clouds 7 1022 81 10000 3.09 70 08:38 23.06.2021
6549 Clouds 7 1022 81 10000 3.09 60 07:48 23.06.2021
6550 Clouds 7 1022 87 10000 0 0 04:34 23.06.2021
6551 Clouds 7 1020 87 10000 2.57 260 00:49 23.06.2021
6552 Clouds 7 1019 87 10000 3.6 260 23:58 22.06.2021
6553 Drizzle 6 1018 100 10000 4.63 230 22:47 22.06.2021
6554 Drizzle 7 1017 100 3000 5.66 260 22:29 22.06.2021
6555 Drizzle 7 1017 100 4000 4.12 260 21:39 22.06.2021
6556 Clouds 7 1015 100 10000 7.2 270 20:18 22.06.2021
6557 Drizzle 8 1014 93 10000 9.26 240 18:58 22.06.2021
6558 Drizzle 8 1013 93 10000 9.77 240 18:28 22.06.2021
6559 Clouds 9 1012 87 10000 12.35 240 17:27 22.06.2021
6560 Drizzle 9 1012 100 10000 8.23 240 16:39 22.06.2021
6561 Rain 10 1011 93 10000 4.63 230 14:54 22.06.2021
6562 Rain 10 1010 93 10000 4.63 230 14:25 22.06.2021
6563 Rain 10 1010 87 10000 4.63 230 13:18 22.06.2021
6564 Clouds 10 1009 93 10000 4.63 250 11:53 22.06.2021
6565 Clouds 11 1008 82 10000 4.63 230 10:37 22.06.2021
6566 Clouds 12 1007 82 10000 3.09 230 07:59 22.06.2021
6567 Clouds 11 1006 87 10000 1.54 10 00:50 22.06.2021
6568 Clouds 11 1006 87 10000 2.06 140 23:35 21.06.2021
6569 Clouds 11 1006 87 10000 2.57 120 22:34 21.06.2021
6570 Clouds 11 1006 93 10000 2.06 80 21:29 21.06.2021
6571 Drizzle 11 1007 93 10000 1.54 70 20:46 21.06.2021
6572 Drizzle 11 1007 93 10000 2.06 70 19:55 21.06.2021
6573 Clouds 12 1008 82 10000 3.6 90 18:58 21.06.2021
6574 Rain 12 1008 82 10000 3.6 130 17:37 21.06.2021
6575 Drizzle 13 1009 71 10000 2.57 110 16:47 21.06.2021
6576 Drizzle 13 1009 71 10000 4.12 100 16:25 21.06.2021
6577 Drizzle 13 1009 71 10000 4.12 120 15:46 21.06.2021
6578 Clouds 14 1011 62 10000 5.66 120 14:19 21.06.2021
6579 Clouds 15 1011 58 10000 4.63 120 13:35 21.06.2021
6580 Clouds 14 1012 62 10000 5.14 130 12:38 21.06.2021
6581 Clouds 14 1012 62 10000 4.12 130 11:56 21.06.2021
6582 Clouds 14 1012 62 10000 4.12 130 11:56 21.06.2021
6583 Clouds 13 1012 62 10000 4.63 120 10:31 21.06.2021
6584 Clouds 13 1012 62 10000 5.14 130 09:34 21.06.2021
6585 Clear 13 1013 62 10000 3.09 0 08:24 21.06.2021
6586 Clear 12 1014 66 10000 3.6 200 07:44 21.06.2021
6587 Clouds 8 1016 93 10000 1.03 0 00:44 21.06.2021
6588 Clouds 8 1016 87 10000 1.54 20 23:36 20.06.2021
6589 Clouds 8 1016 87 10000 1.54 30 22:59 20.06.2021
6590 Clear 8 1016 87 10000 1.03 20 22:19 20.06.2021
6591 Clouds 9 1016 87 10000 0 0 21:33 20.06.2021
6592 Clouds 10 1016 76 10000 1.54 0 19:54 20.06.2021
6593 Clouds 9 1016 81 10000 2.06 60 19:32 20.06.2021
6594 Clouds 10 1016 81 10000 2.06 70 18:34 20.06.2021
6595 Clouds 9 1015 87 10000 3.6 60 16:52 20.06.2021
6596 Clouds 10 1015 76 10000 4.12 60 15:58 20.06.2021
6597 Clouds 10 1015 76 10000 4.12 60 15:34 20.06.2021
6598 Clouds 10 1015 81 10000 5.14 60 14:54 20.06.2021
6599 Clouds 11 1015 76 10000 4.12 80 13:52 20.06.2021
6600 Clouds 11 1015 71 10000 3.09 70 12:58 20.06.2021
6601 Clouds 11 1015 71 10000 1.54 60 11:47 20.06.2021
6602 Clouds 10 1015 81 10000 3.09 60 10:48 20.06.2021
6603 Clouds 10 1015 76 10000 3.6 60 09:47 20.06.2021
6604 Clouds 10 1015 66 10000 1.54 0 08:22 20.06.2021
6605 Clouds 8 1016 81 10000 3.09 230 00:31 20.06.2021
6606 Clouds 8 1015 87 10000 3.6 220 23:23 19.06.2021
6607 Clouds 8 1015 87 10000 3.09 250 22:20 19.06.2021
6608 Clouds 7 1015 100 10000 2.06 240 21:43 19.06.2021
6609 Drizzle 7 1015 100 10000 8.23 240 18:56 19.06.2021
6610 Rain 8 1015 87 10000 9.26 240 18:31 19.06.2021
6611 Rain 7 1015 100 10000 9.77 240 17:45 19.06.2021
6612 Rain 8 1014 87 10000 10.29 240 16:58 19.06.2021
6613 Clouds 8 1014 87 10000 8.23 240 15:45 19.06.2021
6614 Clouds 8 1013 87 10000 10.8 240 13:45 19.06.2021
6615 Rain 8 1013 87 10000 8.75 240 12:43 19.06.2021
6616 Rain 8 1012 100 10000 6.69 230 11:18 19.06.2021
6617 Rain 8 1012 100 10000 7.2 230 10:36 19.06.2021
6618 Drizzle 8 1011 93 10000 5.66 240 10:18 19.06.2021
6619 Rain 9 1010 87 10000 7.72 230 08:32 19.06.2021
6620 Clouds 9 1010 81 10000 8.23 240 07:40 19.06.2021
6621 Rain 8 1009 93 10000 4.12 230 05:42 19.06.2021
6622 Clouds 7 1006 100 10000 1.54 0 00:25 19.06.2021
6623 Clouds 7 1006 93 10000 2.06 230 23:58 18.06.2021
6624 Clouds 7 1006 93 10000 1.54 220 22:57 18.06.2021
6625 Clouds 7 1006 93 10000 1.54 220 22:36 18.06.2021
6626 Clouds 7 1005 93 10000 0 0 21:52 18.06.2021
6627 Clouds 7 1005 93 10000 2.06 60 21:27 18.06.2021
6628 Rain 8 1005 81 10000 1.54 340 20:35 18.06.2021
6629 Clouds 8 1005 87 10000 4.12 70 18:57 18.06.2021
6630 Rain 8 1005 87 10000 4.63 60 18:18 18.06.2021
6631 Clouds 9 1005 76 10000 5.66 70 16:52 18.06.2021
6632 Clouds 8 1006 81 10000 5.14 60 15:53 18.06.2021
6633 Clouds 10 1007 71 10000 5.14 70 14:55 18.06.2021
6634 Clouds 10 1007 71 10000 5.66 70 14:25 18.06.2021
6635 Clouds 10 1008 71 10000 4.63 70 13:27 18.06.2021
6636 Clouds 10 1008 71 10000 4.12 70 12:43 18.06.2021
6637 Clouds 9 1008 71 10000 4.12 70 11:55 18.06.2021
6638 Clouds 9 1009 71 10000 2.57 80 11:19 18.06.2021
6639 Clouds 9 1009 71 10000 2.57 40 10:50 18.06.2021
6640 Clouds 8 1009 71 10000 3.09 60 10:20 18.06.2021
6641 Clouds 7 1009 76 10000 3.09 70 09:27 18.06.2021
6642 Clouds 7 1010 76 10000 2.06 60 08:38 18.06.2021
6643 Clouds 7 1010 81 10000 1.54 230 07:43 18.06.2021
6644 Clouds 6 1010 93 10000 0 0 06:32 18.06.2021
6645 Drizzle 5 1011 93 7000 2.06 320 00:40 18.06.2021
6646 Drizzle 5 1010 93 6000 1.54 330 23:33 17.06.2021
6647 Rain 6 1010 87 10000 3.09 330 22:41 17.06.2021
6648 Drizzle 6 1010 87 10000 2.06 320 22:22 17.06.2021
6649 Drizzle 6 1010 81 10000 2.57 320 21:37 17.06.2021
6650 Drizzle 6 1010 81 10000 3.09 330 20:48 17.06.2021
6651 Rain 7 1010 76 10000 3.09 340 20:23 17.06.2021
6652 Rain 8 1010 71 10000 2.06 330 19:45 17.06.2021
6653 Clouds 8 1011 68 10000 4.58 290 18:24 17.06.2021
6654 Rain 9 1010 61 10000 2.57 290 17:41 17.06.2021
6655 Clear 9 1010 61 10000 2.57 290 17:18 17.06.2021
6656 Clouds 10 1010 62 10000 2.57 270 16:24 17.06.2021
6657 Clouds 9 1010 61 10000 2.06 0 14:54 17.06.2021
6658 Clouds 10 1010 53 10000 3.6 260 13:57 17.06.2021
6659 Clouds 10 1010 53 10000 5.14 240 12:41 17.06.2021
6660 Clouds 9 1010 57 10000 4.63 250 12:22 17.06.2021
6661 Clouds 8 1010 66 10000 5.66 230 10:52 17.06.2021
6662 Clouds 7 1010 70 10000 6.69 250 10:30 17.06.2021
6663 Clouds 6 1010 75 10000 7.72 240 09:51 17.06.2021
6664 Clouds 7 1010 70 10000 6.17 240 09:33 17.06.2021
6665 Clouds 6 1010 75 10000 7.2 240 08:20 17.06.2021
6666 Clouds 6 1010 81 10000 7.2 240 06:54 17.06.2021
6667 Clouds 5 1009 81 10000 6.69 240 04:20 17.06.2021
6668 Clouds 5 1009 75 10000 8.23 240 23:50 16.06.2021
6669 Clouds 4 1008 87 10000 7.2 250 23:29 16.06.2021
6670 Clouds 5 1008 81 10000 8.23 240 22:37 16.06.2021
6671 Clouds 5 1008 81 10000 8.75 240 21:47 16.06.2021
6672 Clouds 5 1008 81 10000 8.75 240 21:23 16.06.2021
6673 Rain 4 1008 87 10000 9.77 240 20:45 16.06.2021
6674 Clouds 5 1007 75 10000 7.72 240 20:19 16.06.2021
6675 Clouds 5 1007 81 10000 9.26 240 19:43 16.06.2021
6676 Clouds 6 1007 81 10000 9.26 240 18:59 16.06.2021
6677 Rain 5 1007 81 10000 9.26 240 18:32 16.06.2021
6678 Clouds 6 1007 70 10000 7.72 240 17:53 16.06.2021
6679 Clouds 6 1006 70 10000 8.75 240 17:27 16.06.2021
6680 Rain 6 1006 70 10000 10.29 240 16:44 16.06.2021
6681 Rain 6 1006 70 10000 10.29 240 16:44 16.06.2021
6682 Rain 6 1006 70 10000 10.29 240 16:44 16.06.